GFSSGP_sfc_wetblb_003.txt.gz
Wetbulb
61.66 60.11 59.19 57.96 50.29 50.71 50.54 52.31 57.01 55.74 56.98 61.09 60.39 59.85 58.76 61.18 59.71 55.60 67.89 68.57 70.83 71.74 72.24 72.59 72.52 73.05 72.45 71.62 71.31 71.80 72.47 72.44 72.12 71.28 71.06 70.84 70.57 70.27 69.69 68.67 68.46 68.54 69.05 69.38 69.29 69.81 70.09 70.59 70.19
60.32 57.29 57.43 54.50 48.45 46.65 49.41 53.07 53.85 57.02 58.94 59.90 59.23 58.95 58.49 58.68 65.09 65.17 65.25 67.81 70.79 72.01 72.24 72.97 72.38 72.85 72.17 72.30 71.94 72.10 72.05 71.97 71.47 71.20 71.16 70.96 70.48 69.71 69.10 68.42 68.30 68.29 68.71 69.32 69.57 69.52 69.73 68.77 68.39
60.35 57.86 53.31 50.73 49.19 47.32 48.76 52.93 56.01 57.66 59.14 58.60 57.58 60.46 59.74 59.43 63.92 64.69 66.62 68.13 70.15 71.05 72.48 72.61 71.85 72.38 72.88 72.90 72.31 72.04 72.03 72.14 71.99 71.50 70.71 70.97 69.93 68.48 67.87 67.58 67.55 67.66 67.91 68.13 67.89 67.38 67.92 68.50 67.77
56.49 54.60 54.01 49.04 48.61 51.30 51.67 55.53 56.90 56.63 58.91 59.53 58.07 57.07 63.14 65.33 64.15 66.40 66.57 67.44 68.26 69.42 71.51 71.20 71.50 71.81 72.32 72.42 72.06 72.24 71.96 71.35 70.90 70.82 70.63 70.20 68.76 67.86 67.51 66.96 67.11 67.25 66.71 66.98 67.09 66.99 66.65 66.23 66.39
55.57 54.25 49.92 49.07 49.79 52.57 55.62 56.70 56.97 56.07 57.13 57.25 57.48 55.31 60.15 66.63 67.72 66.78 66.15 66.03 65.97 66.84 68.43 71.13 70.67 71.14 71.30 71.10 70.86 70.92 70.73 70.58 70.20 69.98 69.70 68.94 68.45 67.82 66.84 66.20 65.87 65.12 64.75 64.48 64.80 65.17 65.59 66.39 66.71
51.51 54.25 48.92 47.29 49.18 53.27 55.86 57.67 56.54 55.14 56.68 56.22 56.16 57.02 61.11 67.02 65.99 66.43 66.17 65.15 64.90 66.17 67.94 68.21 69.71 70.57 70.28 70.08 69.70 69.42 69.28 68.91 68.85 68.91 68.47 68.02 67.22 66.53 65.73 65.20 64.90 64.46 64.08 63.63 63.15 63.11 63.42 63.59 64.09
51.18 52.40 49.29 49.48 49.45 50.98 53.61 56.31 53.76 53.14 54.47 54.07 56.96 54.86 61.33 63.70 65.88 66.12 65.15 64.48 64.36 66.35 67.59 67.99 68.41 68.98 68.77 68.37 68.45 68.72 68.55 68.16 67.80 67.36 67.14 66.84 66.41 65.52 64.82 64.58 64.04 63.55 63.13 62.69 62.17 61.72 61.60 61.94 62.56
53.07 53.43 48.56 48.87 47.45 47.81 51.51 52.51 54.76 53.62 54.19 57.82 57.41 53.46 56.95 63.69 65.72 65.42 64.69 63.86 64.31 65.64 67.28 68.41 68.66 68.50 69.09 68.54 67.19 67.60 67.89 67.64 66.98 66.41 65.97 65.89 65.82 65.12 63.91 63.87 63.35 62.77 62.37 61.95 61.25 60.76 60.29 60.32 61.40
54.10 48.67 46.00 46.20 46.43 46.81 50.01 48.77 51.27 53.44 54.13 54.72 55.82 59.44 60.68 65.95 66.18 64.62 63.61 63.08 64.29 65.59 67.68 68.52 68.42 68.22 68.10 67.44 67.10 65.99 66.47 67.01 66.72 66.59 65.87 66.20 67.92 67.41 66.01 63.63 63.10 62.38 61.90 61.10 60.16 59.29 58.70 59.36 60.49
50.64 48.06 46.81 48.78 49.07 48.45 49.33 49.67 49.50 50.74 52.04 51.11 54.20 58.45 63.54 65.42 65.04 63.18 61.62 61.58 63.72 65.76 66.94 69.26 69.18 68.74 67.70 65.54 67.09 66.65 66.23 68.01 67.98 68.08 67.93 67.66 67.56 67.16 65.80 64.66 63.92 63.50 62.58 61.89 61.05 60.80 60.99 61.15 61.95
50.92 47.69 48.74 48.52 49.44 49.92 48.80 48.65 49.94 49.30 48.24 51.22 52.48 55.64 61.77 63.16 63.33 63.23 62.97 62.70 63.71 66.23 66.52 68.69 70.04 69.17 67.52 65.97 67.14 66.92 66.99 67.14 67.77 68.11 68.24 67.65 67.13 67.21 66.37 66.11 65.97 66.37 63.91 64.41 62.96 63.34 63.31 62.68 61.26
48.63 50.02 49.92 49.44 49.75 49.66 48.36 50.43 48.99 49.81 50.18 53.22 54.62 58.54 61.28 62.38 62.47 62.73 63.05 62.91 64.03 65.11 65.49 68.58 70.02 68.75 68.15 67.56 66.52 66.82 66.23 66.09 66.23 66.72 67.16 66.83 65.58 65.80 65.47 64.29 64.00 63.60 63.01 63.33 63.41 62.72 62.86 61.76 59.05
49.07 49.66 50.35 50.61 50.56 50.66 51.15 49.75 50.45 49.62 52.41 53.58 55.72 58.98 60.66 62.18 62.83 63.32 63.90 63.94 64.41 64.10 65.72 67.75 69.76 67.73 66.80 67.29 67.99 67.86 67.19 66.58 65.92 66.52 65.99 65.72 64.90 64.71 63.89 63.10 62.06 61.71 61.73 61.82 61.82 61.50 60.85 59.47 57.79
51.61 51.53 51.61 52.20 51.99 51.79 50.51 50.70 51.52 52.24 53.57 53.11 54.05 56.69 59.72 60.75 61.97 62.59 63.10 63.01 63.58 64.00 65.62 68.07 69.05 67.88 65.92 65.99 66.98 67.42 66.49 65.83 65.41 64.89 63.96 64.54 64.55 64.32 62.63 61.94 61.16 61.04 61.22 61.28 61.18 61.09 60.58 58.93 57.79
52.38 49.40 51.18 51.50 52.19 51.30 52.05 49.40 49.64 52.94 53.58 52.84 53.14 54.97 58.21 60.13 61.17 61.56 63.23 63.43 64.64 64.92 65.56 67.75 68.82 67.06 64.90 65.30 65.34 65.09 63.31 63.22 63.68 63.52 63.71 63.25 63.41 63.34 63.01 61.84 61.32 61.30 62.23 62.47 61.92 61.29 60.91 59.77 58.63
49.91 50.71 47.13 50.77 51.72 52.23 51.94 47.59 51.22 53.72 53.36 53.00 54.14 54.36 55.68 58.96 60.19 61.05 62.35 63.35 64.21 64.64 65.33 67.17 67.56 65.34 64.19 64.65 63.79 64.14 63.75 63.84 63.27 63.37 63.57 63.01 63.04 63.07 62.86 61.40 61.32 62.21 62.44 61.19 60.94 59.88 59.36 59.12 58.63
48.97 45.57 45.44 47.83 51.41 50.83 50.77 48.80 52.61 53.97 53.19 52.87 53.88 54.80 54.97 56.96 59.89 61.35 61.82 62.80 63.84 64.42 64.98 66.12 67.29 63.27 63.08 64.13 63.72 63.72 63.55 62.60 61.83 61.70 61.41 61.79 61.43 61.61 61.50 60.85 61.78 64.16 61.95 62.32 61.96 60.85 60.99 59.31 59.04
45.13 44.16 45.64 45.57 49.48 49.38 48.66 48.76 51.08 52.81 52.77 53.15 54.11 54.66 55.04 55.33 58.86 61.80 63.44 63.40 63.76 63.81 64.19 65.68 65.91 62.46 62.73 63.90 63.58 61.75 61.53 61.14 61.24 60.59 60.40 60.68 60.75 60.97 60.90 60.50 62.16 62.23 61.16 61.37 61.67 62.26 61.08 60.75 59.80
46.81 45.74 45.23 47.77 49.58 48.47 48.53 48.11 50.13 52.66 53.26 53.14 53.20 53.69 54.11 55.16 60.48 62.42 61.22 61.77 62.70 63.55 64.10 64.19 63.42 63.04 62.26 61.28 59.48 58.58 58.08 58.94 59.55 59.93 60.20 60.42 59.95 59.10 59.08 58.50 59.48 60.22 59.11 60.54 60.94 60.31 59.64 59.22 60.25
47.21 45.94 45.86 47.59 48.67 48.90 49.01 48.34 50.14 51.57 52.12 53.30 53.25 53.93 55.28 56.82 57.80 58.52 59.52 60.51 61.24 63.18 63.88 63.04 61.53 59.65 59.61 59.69 58.93 58.85 58.52 58.60 58.94 59.31 58.71 58.54 58.21 57.68 56.95 57.23 56.71 57.81 56.59 58.70 59.10 59.21 57.64 57.82 58.98
47.22 46.05 46.41 45.89 48.42 49.34 48.64 47.43 48.14 50.47 52.24 52.74 53.47 54.49 55.09 55.36 55.48 56.78 58.02 59.83 60.85 60.74 60.55 59.77 59.21 58.48 58.26 58.51 58.04 57.74 57.99 57.70 56.62 56.59 56.70 57.35 57.59 56.03 55.83 55.64 56.11 57.02 56.90 55.80 57.49 56.91 56.20 53.82 56.12
45.33 48.03 47.28 46.44 45.67 43.35 49.21 42.35 47.17 48.98 49.33 50.94 52.39 53.48 53.98 54.43 55.19 55.84 56.78 57.59 58.79 58.63 59.09 58.59 57.84 57.21 56.80 57.18 56.60 55.91 54.58 53.53 54.93 55.62 55.91 55.17 55.70 54.59 54.06 54.24 54.49 55.07 55.32 55.36 55.15 53.62 54.91 53.75 51.45
46.92 49.43 47.61 47.56 46.26 46.28 46.01 43.20 45.81 48.73 47.12 48.94 51.02 52.00 53.37 54.48 55.34 55.51 56.03 56.71 57.52 58.13 58.16 58.24 57.65 56.77 56.73 56.08 55.73 54.97 54.86 55.32 55.87 55.45 54.67 54.41 54.61 53.76 53.13 53.26 53.24 53.47 52.94 53.65 53.64 53.37 51.40 50.82 50.53
50.66 48.67 48.04 48.67 47.21 41.07 45.15 43.60 44.89 46.93 47.65 48.60 50.70 52.06 53.07 53.72 54.70 55.23 56.09 56.61 56.83 57.81 57.88 57.60 56.53 55.36 55.72 55.31 55.88 55.76 53.45 52.95 51.98 52.32 51.32 51.49 51.72 51.55 52.22 51.44 51.96 52.66 52.47 51.05 50.86 50.90 50.16 48.17 47.84
49.77 47.16 41.97 39.76 39.93 39.11 44.86 41.95 44.78 47.89 49.25 50.12 50.03 51.51 53.10 54.39 54.36 54.39 54.62 55.35 55.66 55.59 55.90 55.91 55.49 55.40 56.43 56.16 54.93 53.76 53.14 53.26 52.51 51.79 50.88 49.72 49.06 49.36 50.41 50.92 50.81 49.85 50.22 50.31 50.29 48.88 46.12 43.70 41.99
46.45 46.72 41.14 32.68 36.26 39.52 44.69 39.40 44.63 49.66 50.69 50.79 51.05 51.54 52.52 53.20 54.17 54.03 54.45 55.11 55.04 55.41 56.09 56.48 55.83 54.50 55.43 54.99 54.53 54.70 53.84 52.94 51.95 51.25 49.58 48.38 48.45 49.28 49.78 49.63 49.56 49.36 49.04 48.54 48.02 46.68 46.34 44.75 44.31
46.29 43.74 46.43 40.62 38.63 37.84 41.83 44.51 48.27 49.20 49.03 49.45 49.72 50.68 51.58 52.33 52.79 53.08 54.16 54.37 55.11 55.45 55.95 55.73 55.22 55.18 55.21 54.85 54.46 53.44 52.68 51.24 50.06 49.35 48.93 48.44 49.00 48.17 48.80 48.72 47.89 47.62 47.14 45.82 45.49 44.55 43.23 43.89 43.40
48.35 48.48 42.34 42.88 32.57 30.18 38.61 39.64 41.83 45.18 46.51 48.25 48.78 49.72 51.07 52.41 52.78 53.67 54.49 54.79 55.25 55.46 55.75 55.77 55.27 54.63 54.60 54.21 52.87 51.28 50.63 50.19 49.06 48.44 47.79 47.72 47.87 47.77 47.42 47.04 45.68 44.73 44.48 43.99 42.45 42.68 42.98 42.02 42.29
46.60 45.78 43.78 42.64 40.46 33.98 32.43 38.80 47.30 46.34 47.02 47.14 48.93 50.38 51.51 52.06 53.11 53.67 53.95 53.91 54.79 55.17 55.26 54.69 54.51 53.28 52.20 51.67 50.15 49.38 49.10 48.83 48.18 47.45 47.28 46.84 46.34 45.84 44.92 44.48 43.59 42.80 41.79 41.74 41.56 41.31 41.15 40.45 40.67
47.76 45.14 43.67 38.26 35.03 39.01 37.07 37.56 48.98 48.65 48.63 48.89 49.63 50.43 51.56 52.57 52.98 53.02 53.01 52.79 52.72 52.64 53.18 53.37 52.55 50.20 50.09 48.88 48.64 47.91 47.86 47.86 47.01 46.50 45.37 44.98 44.86 44.63 43.96 42.75 41.94 41.48 41.48 40.97 40.37 39.99 39.34 38.94 38.44

GFSSGP_sfc_wetblb_006.txt.gz
Wetbulb
59.96 57.81 57.98 55.50 48.11 48.16 45.30 50.95 56.89 55.41 56.23 59.05 60.19 58.24 57.55 60.33 58.86 53.59 66.67 69.27 71.11 70.25 70.91 71.60 72.29 72.82 72.66 72.74 73.06 72.88 72.98 72.71 72.05 71.83 71.40 71.36 70.47 69.88 69.12 68.76 68.89 69.07 69.29 69.77 69.98 70.17 70.02 69.55 69.27
57.48 58.67 56.18 52.89 46.03 43.76 47.00 54.06 53.11 55.66 57.23 57.65 58.39 57.87 58.24 56.76 62.92 62.64 64.43 69.57 70.79 70.97 71.47 71.55 72.02 72.52 72.60 72.74 72.39 72.53 72.39 71.70 71.97 71.72 71.14 70.79 70.00 69.24 68.54 68.17 68.50 68.43 68.44 68.58 68.48 68.31 69.32 68.96 68.41
59.20 58.64 51.32 48.66 46.47 43.63 47.74 52.92 55.15 55.90 57.14 57.42 56.52 61.20 59.51 58.42 62.19 62.78 67.03 69.87 71.65 71.27 71.37 71.99 71.69 71.97 72.48 72.65 72.57 72.07 71.88 71.83 71.76 71.47 71.11 69.89 69.06 68.31 67.74 67.65 68.08 67.38 67.54 67.83 67.73 67.38 66.86 66.70 67.35
56.46 54.28 51.71 45.99 44.58 50.32 51.55 54.83 55.59 55.28 57.91 58.67 58.29 56.55 60.98 63.94 62.63 64.36 67.19 68.50 68.67 70.08 70.70 70.15 70.44 71.19 72.09 72.29 72.20 71.91 71.48 70.96 71.03 70.75 70.11 69.40 68.53 67.78 67.21 66.82 66.22 65.82 65.66 65.89 66.20 66.41 66.44 66.85 67.04
56.58 52.57 45.82 46.09 48.79 52.10 54.98 55.82 55.70 54.74 55.76 56.12 57.01 56.75 59.45 63.64 64.15 64.49 65.18 66.35 66.13 68.63 69.99 70.14 69.51 70.53 71.11 71.03 70.75 70.62 70.38 70.12 69.84 69.52 68.80 68.43 67.81 66.78 66.16 65.70 65.23 64.79 64.56 64.17 63.86 63.70 64.15 64.44 65.13
49.98 50.97 44.12 43.84 48.82 52.47 54.42 55.74 55.95 56.32 56.54 55.11 55.87 57.68 59.81 64.10 63.01 63.49 64.00 64.12 65.07 66.88 68.23 68.32 69.99 69.86 69.67 69.87 69.74 69.43 69.11 69.11 69.15 68.79 67.63 67.53 66.69 66.08 65.56 65.15 64.71 64.10 63.94 63.49 63.06 62.58 62.59 62.99 63.52
49.06 47.39 44.61 48.12 48.67 50.63 53.97 57.14 53.85 53.36 54.17 53.95 57.03 56.17 60.10 62.07 63.86 63.59 62.89 62.87 64.75 65.71 65.31 66.33 67.06 67.68 68.30 68.18 68.50 68.46 68.42 68.29 67.83 67.43 67.40 66.86 66.39 65.80 65.26 64.63 63.95 63.38 62.84 62.49 61.95 61.60 61.34 61.29 62.07
51.22 49.22 45.10 49.45 47.47 48.36 52.65 53.44 54.34 53.51 53.10 56.52 56.97 54.51 55.80 61.80 64.11 63.10 61.96 61.70 63.26 65.71 66.27 66.60 66.63 66.73 66.37 66.54 67.47 67.76 67.65 67.49 67.03 66.75 66.55 66.41 66.20 65.59 64.99 64.69 63.64 62.62 61.66 61.31 60.78 60.27 60.08 60.28 60.63
52.89 45.97 46.41 46.81 47.59 47.48 50.72 48.94 51.93 52.83 54.13 54.45 57.31 57.37 61.57 63.47 63.55 62.03 60.74 60.85 62.11 64.74 66.45 66.74 66.59 66.95 67.63 66.06 66.34 67.14 67.52 67.32 66.83 66.65 65.99 65.02 65.80 65.05 64.08 63.80 63.99 62.90 62.36 61.86 60.93 60.35 60.10 60.63 61.05
49.62 46.93 46.48 48.77 48.96 47.72 48.55 48.99 48.83 49.17 51.30 51.40 54.83 60.94 63.97 63.34 62.48 60.48 59.54 59.23 61.45 63.91 65.33 67.86 67.08 66.76 65.89 65.16 65.54 66.85 66.45 66.51 66.69 66.56 66.34 66.37 65.73 65.38 64.73 64.63 63.96 63.91 63.65 63.10 62.51 61.99 61.95 61.61 59.47
49.82 46.49 48.36 48.24 49.21 49.79 48.39 48.27 49.74 49.36 48.13 50.70 52.26 56.08 62.13 62.35 61.80 60.49 59.63 60.27 62.20 64.61 65.40 67.82 68.28 67.63 66.80 65.36 65.58 65.41 65.39 65.28 66.75 67.12 65.87 65.82 65.10 65.48 64.68 64.48 63.54 63.09 63.17 63.06 61.58 61.11 60.04 60.40 58.59
47.67 49.27 49.01 48.60 49.33 48.83 47.31 49.22 47.84 49.25 49.95 53.18 54.86 56.58 61.28 60.53 60.54 61.03 60.63 60.98 62.42 63.73 63.97 67.95 67.70 67.34 66.48 66.50 65.03 65.50 64.99 64.46 64.60 64.80 65.58 64.56 63.76 63.68 62.44 61.80 60.45 59.71 59.54 59.36 59.93 59.04 59.94 59.37 57.90
48.55 48.58 49.35 49.43 49.55 50.21 50.83 48.77 49.66 49.06 51.87 53.85 55.63 58.50 60.07 60.63 61.22 62.02 62.57 62.48 62.96 62.84 64.40 66.64 67.07 66.75 67.34 65.69 66.79 66.34 65.21 65.02 64.49 64.72 64.56 63.72 62.59 62.26 61.94 60.56 59.80 59.38 59.07 58.34 58.08 57.58 57.77 57.54 56.37
50.24 49.50 49.06 49.98 50.74 50.74 49.01 49.56 50.88 51.35 52.32 51.86 54.30 57.18 59.40 60.85 61.53 61.86 62.36 62.17 61.78 63.37 65.09 67.25 67.07 66.46 65.69 65.58 65.63 65.85 64.88 64.61 64.79 62.92 61.81 62.70 62.07 61.53 60.95 59.64 59.54 58.78 58.78 58.20 57.33 56.99 57.50 57.24 56.33
51.22 48.17 49.83 50.39 51.15 50.11 50.95 48.36 48.23 52.20 52.83 51.72 52.14 54.19 57.68 60.00 60.95 61.16 61.95 62.42 63.26 63.23 64.89 65.45 65.88 64.08 64.46 64.86 64.97 64.59 61.64 61.06 61.53 61.66 61.79 61.40 61.36 60.57 60.61 59.69 59.40 59.37 59.63 58.80 58.36 58.30 57.35 56.94 57.31
48.36 49.33 45.61 49.74 51.03 51.66 50.39 45.45 50.15 52.74 52.03 51.52 52.32 52.94 54.60 58.54 59.77 61.37 62.54 62.66 62.87 64.22 61.97 64.25 66.48 64.72 63.74 64.47 62.55 62.36 62.41 61.99 61.45 61.93 61.42 61.26 61.32 60.89 59.96 59.39 59.15 59.74 59.96 58.52 57.94 57.00 56.11 55.61 55.44
48.08 43.71 46.08 47.62 51.09 50.86 49.86 47.33 51.00 53.38 52.95 51.98 53.01 53.83 53.86 55.20 59.03 60.46 61.82 62.71 63.83 62.80 63.90 65.10 64.40 63.35 62.76 62.78 62.35 62.12 61.92 60.98 60.34 59.49 60.12 60.05 59.74 60.69 59.23 58.45 58.99 59.60 58.39 57.69 57.89 56.76 56.06 55.16 54.98
43.36 44.34 45.16 44.87 48.68 48.32 47.20 47.86 51.02 52.65 52.56 52.48 52.72 53.46 54.39 54.49 56.92 60.28 60.61 61.94 63.83 63.82 63.84 65.28 62.12 59.87 61.76 62.43 61.82 60.46 59.72 59.69 59.94 59.46 58.64 59.45 58.84 58.77 58.08 57.20 57.64 59.00 57.03 56.01 56.21 56.30 55.22 55.04 54.82
46.97 45.48 44.76 47.74 49.45 47.39 47.25 48.19 49.64 52.21 52.48 53.38 54.95 53.96 54.80 55.91 59.87 60.86 61.97 62.13 62.67 63.45 62.88 61.51 62.31 61.76 61.18 60.45 58.26 57.04 56.21 57.29 57.93 58.08 58.54 57.67 57.95 56.73 55.59 54.95 55.41 54.92 53.83 53.94 53.94 53.16 52.19 52.51 53.40
47.02 45.43 45.47 47.71 48.99 47.33 48.12 47.23 49.79 51.20 51.86 52.80 52.84 53.84 55.58 56.99 57.34 58.73 59.92 61.33 62.36 61.69 61.65 60.79 60.63 59.45 58.09 57.53 57.57 57.25 57.01 56.82 56.96 57.54 56.65 57.20 56.19 55.52 54.28 54.10 53.52 53.17 52.18 51.75 52.23 52.29 50.62 50.39 50.96
47.31 45.48 45.97 45.26 48.24 49.12 47.20 46.28 47.39 50.28 51.49 52.31 53.25 54.31 55.07 55.07 55.37 56.75 58.11 58.80 59.55 58.86 58.65 57.62 57.05 56.40 56.46 57.47 56.14 55.65 55.57 54.69 54.02 54.29 54.55 54.95 54.95 54.58 54.07 53.10 53.36 52.73 50.94 49.52 49.63 49.73 48.60 47.44 48.16
44.43 48.94 47.23 45.99 44.69 41.38 47.68 39.29 45.68 48.19 48.85 50.68 51.81 52.94 53.21 53.88 54.99 55.85 56.79 56.80 56.89 57.06 57.69 57.02 56.97 56.21 56.26 56.38 55.18 53.98 52.65 52.29 54.19 54.81 54.06 54.21 53.85 53.22 52.13 51.56 51.55 51.08 50.11 48.89 49.10 49.68 48.37 47.16 44.93
46.74 49.31 47.29 46.89 44.99 44.61 45.08 42.61 45.23 48.16 46.43 48.29 50.30 51.84 52.93 54.21 54.57 54.70 55.37 55.96 56.43 57.21 57.56 57.47 56.83 56.13 56.15 55.40 54.61 53.56 53.92 53.53 53.52 53.00 52.45 51.78 51.72 50.92 50.91 50.01 48.84 49.22 48.34 48.25 48.51 47.12 46.80 46.30 44.38
50.62 48.96 48.33 47.88 46.01 40.65 44.00 43.33 42.19 45.03 46.86 48.34 50.35 51.74 52.86 53.57 54.23 54.68 55.70 56.33 56.04 57.11 56.98 56.68 55.82 55.36 55.85 55.42 55.62 53.48 51.97 51.43 50.65 50.57 49.50 48.32 48.18 48.23 48.82 49.27 48.42 48.56 47.93 47.09 47.08 45.95 44.73 42.78 42.91
49.19 46.66 41.13 39.50 39.98 38.22 45.55 42.02 43.79 47.86 49.37 49.98 50.06 51.12 52.89 54.21 54.64 54.53 54.60 54.64 55.37 55.90 56.31 56.16 55.70 54.99 55.44 54.92 53.52 53.36 52.59 51.85 50.27 48.98 47.49 46.45 45.89 46.18 46.18 47.50 46.85 46.85 46.82 47.10 46.92 46.24 44.79 43.38 40.94
47.04 45.51 40.99 32.51 34.35 37.91 44.10 38.69 42.21 48.97 50.17 50.71 51.10 51.45 52.44 53.10 54.17 53.81 54.23 54.70 54.85 55.42 55.78 56.10 54.95 54.03 54.39 54.38 53.53 53.40 51.96 49.72 48.94 48.21 46.60 45.88 45.60 45.58 46.40 46.64 46.64 45.93 45.09 44.00 44.05 42.69 43.41 41.84 41.81
46.11 42.58 45.86 41.18 38.52 36.79 40.13 44.18 47.19 48.73 48.36 49.34 49.49 50.29 51.20 52.27 53.00 53.26 54.28 54.47 55.11 55.01 55.13 55.03 54.61 53.98 54.10 54.19 52.74 50.39 49.43 49.08 48.19 46.98 46.98 46.04 46.29 46.01 45.16 44.84 44.36 44.49 43.67 43.08 41.94 40.90 40.33 40.47 40.30
47.28 47.89 41.33 43.07 33.12 30.11 36.83 39.25 39.31 44.78 46.36 47.98 48.40 49.16 50.58 52.46 53.09 53.78 53.22 54.20 54.27 54.27 54.36 55.02 54.22 52.69 51.83 49.95 48.48 48.28 47.86 48.74 48.10 47.31 45.84 45.20 44.61 44.36 44.00 43.61 43.14 42.87 42.62 42.15 41.35 40.15 40.66 40.22 39.74
45.71 44.45 44.01 42.64 40.53 33.28 31.64 36.47 46.08 46.14 47.16 47.09 48.50 49.82 50.97 51.60 52.13 52.47 52.76 52.94 53.47 53.32 53.24 52.63 50.88 50.10 49.63 49.43 48.25 47.94 47.55 47.18 46.69 45.72 44.31 43.60 43.32 42.87 41.99 42.30 42.07 41.51 40.91 40.91 40.63 39.50 39.50 38.31 37.21
46.88 44.83 43.68 38.81 35.87 39.52 37.18 35.81 48.65 48.52 48.88 48.87 48.74 49.83 51.11 51.65 51.16 51.44 51.63 51.25 51.16 50.93 50.91 50.52 50.09 49.54 49.09 48.46 47.84 46.54 46.55 45.47 44.40 44.06 42.73 42.36 41.48 42.17 41.27 40.95 40.21 40.08 39.58 39.55 38.82 38.49 38.53 37.71 36.64

GFSSGP_sfc_wetblb_009.txt.gz
Wetbulb
57.17 54.65 54.25 51.20 43.65 42.34 40.06 44.47 53.26 52.70 52.36 57.29 59.46 58.16 56.56 57.82 55.25 51.54 67.53 68.36 69.03 69.44 70.70 71.21 71.42 72.14 72.74 72.92 72.66 72.54 72.51 72.32 72.12 71.94 71.73 70.96 69.94 69.35 68.73 68.68 68.90 68.84 68.86 69.10 68.76 69.16 69.52 69.30 68.76
56.16 56.66 52.81 48.09 41.39 37.67 41.68 51.84 50.09 51.14 54.34 58.51 58.45 58.07 56.64 54.31 60.85 62.66 64.86 68.55 69.58 69.79 70.54 70.85 71.10 71.69 72.10 72.11 72.02 72.04 72.17 72.04 71.98 71.73 70.79 70.13 69.24 68.44 67.95 68.10 68.69 68.08 67.99 67.87 67.99 67.82 67.64 67.27 67.10
57.79 56.48 46.64 43.88 41.12 38.56 41.97 50.57 50.65 52.36 54.90 56.04 55.92 58.49 57.18 55.66 61.09 61.92 68.71 70.09 70.11 70.35 71.05 71.02 70.73 71.48 71.90 71.86 71.76 71.64 71.70 71.62 71.59 71.25 69.27 69.24 68.37 67.90 67.85 67.17 67.37 66.56 66.54 66.73 66.90 67.13 66.98 66.91 66.89
53.67 50.80 47.03 40.77 39.78 44.26 49.45 51.07 52.76 54.19 55.60 58.24 56.86 54.16 58.35 60.97 60.71 64.73 69.53 69.40 68.95 69.01 69.71 69.91 70.16 70.94 71.71 71.87 71.67 71.19 70.94 70.42 70.41 70.07 69.39 68.62 67.93 67.41 66.69 66.04 65.39 65.17 64.91 64.93 64.79 64.47 64.37 64.65 65.15
53.79 48.23 40.62 38.94 42.61 50.08 51.53 53.14 53.42 52.92 53.17 57.08 58.71 54.11 54.91 59.89 62.44 62.70 67.42 68.39 67.70 67.66 68.81 69.49 69.10 70.17 70.86 71.25 70.87 70.41 69.98 69.73 69.43 69.28 68.96 68.00 67.12 66.55 65.86 65.25 64.70 64.19 63.96 63.66 63.23 62.99 62.89 63.20 63.99
46.80 45.90 38.99 37.95 43.29 50.52 50.70 52.69 54.58 53.95 54.09 56.95 56.96 55.75 54.22 58.78 58.82 60.02 63.88 65.98 67.62 67.14 67.80 68.52 69.48 69.11 69.20 69.33 69.08 68.55 68.73 68.93 68.65 68.37 68.13 67.20 66.60 66.26 65.54 64.82 63.97 63.44 62.88 62.52 62.16 61.90 61.71 61.88 62.53
44.84 42.88 39.68 40.78 44.95 48.86 51.01 52.89 50.26 54.13 52.36 55.01 59.15 53.39 55.28 56.80 58.46 58.54 59.91 64.28 65.74 66.08 65.60 65.74 66.76 67.70 67.37 67.06 67.14 67.30 67.52 67.52 67.56 67.44 67.42 66.89 66.19 65.94 65.66 64.98 63.77 63.00 62.30 61.30 60.97 60.98 61.38 61.41 62.04
47.27 44.54 41.12 41.64 45.33 43.62 49.69 49.76 48.65 50.72 47.91 53.34 58.10 52.44 52.19 56.82 58.46 57.58 58.98 60.28 61.48 63.03 63.83 63.62 64.28 64.83 64.59 65.69 66.59 66.56 66.72 66.40 66.13 66.34 66.33 65.71 65.50 65.29 65.44 64.83 64.36 63.39 62.35 61.21 60.44 60.99 61.49 61.14 61.52
49.15 40.65 39.28 41.91 43.93 43.84 47.00 45.43 46.47 50.32 50.70 55.21 55.59 57.73 58.60 59.02 58.13 56.12 55.23 56.70 59.44 62.72 62.84 62.67 62.82 63.25 63.44 64.20 65.86 66.62 66.82 66.29 65.66 65.81 65.73 64.43 63.59 63.44 63.54 63.55 63.86 63.76 63.24 62.76 62.23 62.00 61.72 61.27 61.14
44.40 39.69 41.40 44.77 45.79 43.41 44.82 43.74 45.58 46.83 48.37 52.40 56.51 58.94 59.35 58.76 57.36 55.57 54.88 55.67 57.95 60.12 62.13 62.24 62.00 63.80 62.66 64.32 63.95 63.70 64.93 64.81 64.66 64.43 63.86 63.18 62.76 62.89 62.95 63.12 63.54 63.56 63.31 63.21 63.20 62.91 62.15 61.68 58.57
44.40 41.40 43.45 44.44 45.61 45.42 43.29 44.29 46.49 46.42 44.62 50.01 55.17 56.91 58.18 57.89 56.65 56.39 55.55 56.91 58.85 61.00 63.33 63.27 61.96 61.37 60.44 62.04 62.48 62.56 62.46 62.97 63.18 63.12 61.63 61.78 61.47 62.13 61.18 60.87 61.58 60.40 62.60 60.73 61.52 60.76 59.91 58.98 57.38
42.09 45.03 45.46 44.74 46.01 44.62 43.71 44.14 43.85 42.44 45.65 51.50 58.13 59.75 59.28 58.09 57.60 56.77 55.92 56.61 59.19 60.29 63.93 63.27 62.68 61.44 61.21 59.19 60.36 59.15 60.58 59.94 62.47 61.53 61.97 60.20 59.40 57.83 58.17 56.87 57.26 57.94 59.43 59.04 58.02 56.71 57.23 56.84 57.38
44.44 44.60 45.76 46.26 46.58 46.86 47.90 44.73 45.10 44.63 48.81 51.46 56.40 59.77 58.79 58.76 57.83 58.33 57.59 58.05 59.23 60.73 64.08 63.24 62.05 61.17 61.26 61.42 61.11 60.41 60.41 59.75 59.54 60.37 59.95 59.20 58.83 57.09 56.88 56.75 55.81 55.23 55.17 54.63 54.23 54.16 54.92 55.45 55.16
46.65 45.58 44.54 45.03 46.27 47.05 46.17 45.20 46.81 45.88 47.87 50.73 55.12 57.15 57.00 57.93 58.13 57.44 57.67 58.42 58.53 61.80 64.60 62.58 62.00 62.32 62.29 61.49 61.42 60.49 59.46 58.69 60.13 57.80 58.20 59.17 57.67 56.84 56.67 55.68 56.25 55.15 55.33 55.40 54.44 53.90 53.84 54.32 54.77
47.63 43.55 44.86 45.21 46.80 45.80 46.75 42.89 44.11 46.66 47.61 48.27 50.85 55.28 56.32 58.14 58.40 58.42 58.19 57.73 58.87 62.18 63.45 62.65 64.32 64.05 61.32 61.15 60.62 60.30 55.99 56.85 56.63 57.08 57.19 57.87 57.46 56.40 56.43 55.64 55.98 56.34 56.33 56.19 54.97 55.04 54.81 53.82 54.75
43.98 43.66 39.31 45.09 47.29 47.12 45.32 39.26 44.75 47.81 47.79 45.70 47.89 49.16 52.56 56.41 58.19 58.18 57.91 58.31 58.46 62.85 62.58 61.44 62.90 63.29 61.00 59.95 59.18 58.34 57.30 56.47 56.23 56.79 56.72 57.11 57.51 56.90 55.47 54.54 54.39 55.83 56.22 55.74 54.63 54.50 54.00 53.48 52.99
41.78 37.04 41.06 43.22 47.60 46.83 44.08 41.02 45.70 47.28 47.47 46.30 46.04 46.60 48.15 50.45 54.25 57.49 57.82 57.46 59.88 61.39 58.67 58.14 59.01 61.96 59.79 57.86 57.93 57.25 56.35 55.62 55.26 54.64 54.81 55.25 56.40 55.65 53.65 53.54 53.20 54.14 54.73 54.33 54.15 53.93 53.12 52.42 51.87
38.60 40.48 39.49 40.66 41.80 43.12 40.97 41.53 45.08 47.91 48.30 47.75 46.37 45.66 46.43 50.94 53.35 56.66 57.20 59.18 59.50 59.95 61.17 58.47 60.35 58.73 57.98 58.51 57.00 55.04 54.10 54.39 54.24 53.39 53.40 54.35 53.70 53.56 51.96 51.54 51.98 52.11 51.60 50.80 50.77 49.78 50.47 49.76 49.97
44.22 41.72 40.98 41.21 45.52 43.55 42.18 42.41 45.15 47.95 46.94 46.41 47.31 51.78 52.89 53.49 55.73 57.40 57.94 57.78 58.27 59.43 58.91 58.13 57.38 56.90 56.22 53.77 52.70 52.08 51.71 52.02 52.08 52.36 53.90 53.00 52.34 52.64 51.40 50.38 51.13 50.14 49.48 48.47 48.55 48.59 47.89 48.22 48.59
44.41 42.77 41.56 43.49 46.32 42.59 40.60 40.47 44.80 47.23 47.10 48.31 47.59 50.07 51.10 52.88 54.20 55.20 54.40 53.79 54.44 55.56 55.21 53.98 53.55 53.27 52.76 52.01 51.98 52.31 52.12 51.89 51.15 51.47 52.26 52.86 52.54 51.69 51.67 49.50 49.27 48.94 47.92 46.93 46.17 46.19 46.05 45.63 46.18
43.87 42.05 41.52 41.77 44.34 43.01 41.72 39.81 43.11 46.60 48.23 49.75 49.43 49.40 50.62 51.52 51.98 53.17 53.00 51.96 52.24 51.66 51.20 51.76 51.45 51.65 52.07 52.28 51.36 50.44 49.89 49.79 50.05 51.00 51.31 52.10 52.07 50.09 48.62 48.00 47.52 47.48 47.02 45.41 44.95 45.72 44.77 43.58 44.34
41.83 46.52 45.37 43.68 40.38 35.01 40.82 32.29 40.15 44.70 45.88 47.59 48.03 48.37 48.92 49.96 52.41 52.70 51.84 50.51 50.77 50.50 50.66 51.06 51.67 51.66 52.50 51.75 50.09 48.76 47.99 48.24 50.16 49.90 49.35 49.73 48.49 47.94 48.38 47.35 46.29 46.29 45.67 44.80 45.10 47.37 44.20 43.62 41.84
44.24 47.08 44.71 43.68 39.84 37.97 39.84 35.87 39.44 45.09 43.14 44.62 45.77 47.59 47.69 48.47 49.39 50.28 50.41 51.20 51.07 50.84 49.91 50.40 50.95 51.50 52.24 50.60 49.90 49.56 48.35 48.42 48.70 48.73 45.86 45.35 45.96 46.48 46.92 46.56 45.35 45.15 45.46 44.45 44.11 43.33 42.21 42.11 41.08
47.82 45.84 44.99 43.36 40.51 31.42 40.16 38.19 37.82 41.54 43.52 44.91 47.10 48.02 48.21 48.11 48.96 50.14 51.18 51.69 50.46 50.28 50.30 50.56 50.54 50.78 51.26 50.62 50.63 48.88 46.97 46.87 45.77 44.54 43.61 43.74 44.00 44.83 44.88 45.78 44.75 44.72 44.10 43.72 43.08 43.02 41.24 40.56 42.11
44.88 41.16 31.26 29.85 29.02 28.92 43.11 39.63 38.10 43.69 45.80 46.76 46.65 46.55 47.58 48.49 48.09 48.47 50.54 50.47 49.79 49.23 49.33 50.18 50.62 50.75 50.95 49.92 48.91 47.61 45.96 45.11 44.15 43.23 42.55 43.49 44.50 42.66 42.88 42.97 42.46 42.44 42.26 42.49 41.85 41.11 41.10 40.51 39.04
42.71 41.18 29.38 27.57 26.63 29.93 38.90 34.89 37.21 45.06 46.87 47.57 47.75 47.77 48.62 48.19 48.32 48.00 48.81 48.78 50.10 51.20 49.87 50.13 50.43 50.59 50.36 49.21 47.23 46.27 45.79 45.26 46.27 45.42 44.91 43.55 41.90 41.67 41.93 42.19 42.18 42.15 41.90 41.25 40.04 39.45 39.42 40.90 40.18
43.45 36.44 41.93 35.02 31.50 27.64 34.91 39.10 42.99 45.55 46.06 46.50 46.22 47.24 46.91 47.01 47.45 48.19 51.31 51.53 50.88 50.54 49.49 49.32 49.24 48.77 47.36 46.01 45.42 45.45 46.83 47.02 45.85 44.77 42.15 41.35 41.25 42.88 41.14 41.06 40.57 40.68 40.95 42.15 41.64 40.19 39.96 38.87 38.07
43.28 44.48 35.07 33.28 25.73 25.40 32.10 35.15 36.07 42.30 43.96 45.64 44.54 45.26 45.34 47.83 48.04 48.33 48.68 48.48 48.03 47.84 48.17 47.26 47.05 46.77 46.70 45.21 46.09 46.84 46.03 46.04 44.36 41.46 40.31 40.18 40.01 40.35 39.57 39.11 38.95 39.19 39.58 39.62 38.98 37.72 37.44 37.18 36.83
41.25 40.04 39.96 38.73 32.26 25.72 23.61 30.28 42.02 42.80 44.60 43.94 45.71 45.77 45.80 46.11 46.05 46.48 46.64 47.04 47.07 47.06 46.88 46.14 46.12 46.25 45.12 45.08 46.71 45.37 44.61 42.22 41.46 40.77 39.94 39.52 39.02 38.74 39.13 39.44 38.82 38.33 37.84 37.66 37.68 37.24 37.06 36.98 36.26
43.37 41.34 40.57 28.27 30.33 28.99 27.57 29.03 43.73 44.06 45.22 45.10 45.55 46.64 46.03 45.94 45.68 45.67 46.27 46.12 45.48 44.62 44.73 44.50 44.49 44.71 45.20 45.14 44.33 43.19 42.55 40.90 39.89 39.40 39.01 38.55 38.28 38.75 38.30 37.64 35.64 35.28 34.42 33.89 33.56 33.73 33.66 32.07 30.82

GFSSGP_sfc_wetblb_015.txt.gz
Wetbulb
54.51 52.00 52.81 50.39 42.80 41.34 37.94 41.43 51.56 51.17 52.76 56.85 58.63 56.96 56.54 58.91 55.17 51.61 65.96 68.02 69.36 68.92 69.99 70.59 71.19 71.63 71.92 71.96 71.81 71.99 71.53 70.93 70.61 70.11 69.53 68.79 68.16 68.18 67.94 67.36 67.18 67.10 67.01 67.20 67.27 67.20 67.27 67.01 66.92
52.89 53.42 50.91 46.26 38.76 35.50 39.10 48.53 50.32 53.45 56.58 57.93 57.92 58.53 57.78 57.78 63.07 64.11 65.16 68.95 69.20 69.18 69.40 70.39 71.28 71.61 71.91 71.76 71.82 71.69 71.42 70.85 70.35 69.74 68.92 68.21 67.97 67.17 66.66 66.37 66.45 66.09 65.80 65.63 65.49 65.14 65.01 64.76 64.81
53.88 53.90 45.63 42.45 37.80 34.28 39.17 48.30 51.84 55.37 57.39 56.80 54.82 57.03 57.95 59.83 63.62 63.84 67.23 69.10 69.19 68.52 69.57 70.65 70.53 71.11 71.72 71.58 71.60 71.29 71.29 70.75 69.99 69.10 68.31 68.04 67.15 66.48 65.73 65.44 65.23 65.01 64.77 64.51 64.18 63.86 63.63 63.39 63.39
51.02 48.56 44.60 39.93 37.90 40.33 43.05 48.66 53.87 54.74 56.38 57.68 57.21 54.23 57.65 62.75 63.86 65.80 68.31 68.83 68.11 68.09 68.88 69.14 69.52 70.40 71.04 71.51 71.53 71.28 70.70 69.55 69.43 68.82 68.03 67.37 66.57 65.52 65.15 64.79 64.44 63.91 63.80 63.39 63.02 62.65 62.30 62.22 62.51
48.46 44.78 38.99 37.11 38.72 44.37 48.27 50.58 54.51 53.60 53.97 55.24 56.31 53.43 55.78 65.31 67.17 68.01 68.10 68.60 68.04 68.74 69.24 69.37 68.79 70.04 70.61 70.88 70.59 70.46 69.64 69.12 69.11 68.47 67.77 66.75 65.94 65.16 64.55 64.06 63.60 63.21 62.92 62.46 62.54 62.24 61.93 61.84 62.34
43.48 41.46 36.98 35.87 39.62 47.78 48.82 51.48 55.51 54.22 54.82 55.93 56.24 54.21 53.45 66.11 66.29 67.17 68.08 67.78 68.45 68.93 69.64 69.79 69.84 69.64 69.59 69.92 69.65 69.00 68.71 68.77 68.65 68.10 67.47 66.45 65.99 65.45 64.42 63.71 63.31 62.64 62.24 62.19 62.17 62.16 62.01 62.18 62.48
40.48 38.98 36.40 38.18 44.31 46.80 49.62 51.18 53.36 53.74 53.71 54.23 56.46 50.45 55.29 63.23 64.51 66.63 66.76 66.96 67.73 68.45 68.49 67.45 67.91 68.47 67.89 67.44 67.28 67.03 67.43 67.56 67.67 67.64 67.07 66.59 65.86 65.46 65.08 64.39 63.38 62.35 61.95 62.23 62.35 62.61 62.43 62.52 62.37
44.08 41.15 37.03 39.09 43.40 45.25 52.15 48.22 51.94 55.48 52.23 56.94 56.29 50.19 55.17 57.34 64.34 65.47 65.42 65.65 65.37 64.76 64.95 63.57 64.12 64.10 63.43 64.00 66.10 66.38 66.45 66.31 66.71 66.60 65.90 64.81 64.56 64.87 65.15 64.80 64.16 63.53 62.53 62.70 62.98 62.80 62.56 62.77 62.67
45.17 39.25 35.63 38.63 43.65 44.46 49.28 46.12 48.10 53.78 54.51 54.30 54.03 53.81 60.61 60.42 63.29 61.79 61.11 60.06 60.83 62.41 61.82 61.46 62.23 62.30 62.17 62.55 64.45 65.71 66.15 65.71 65.60 65.51 64.99 63.22 61.69 61.24 61.83 63.60 63.45 63.97 63.37 63.22 63.30 63.51 63.18 62.52 61.67
41.94 36.52 39.07 44.09 46.21 46.65 48.44 48.37 51.20 52.69 51.94 51.77 51.75 54.44 58.19 59.47 59.19 58.34 58.18 58.17 58.92 59.49 60.55 61.04 61.42 61.47 61.85 63.97 62.95 62.34 63.55 63.00 62.71 62.56 62.47 61.88 61.01 60.65 61.65 62.36 63.33 63.70 63.83 63.46 63.51 63.66 63.31 62.53 57.79
40.57 39.37 42.31 43.65 47.11 48.34 45.97 43.67 47.33 51.05 48.86 51.99 51.18 52.38 55.33 57.12 56.74 56.64 56.79 57.37 57.84 59.27 60.35 60.46 60.03 60.43 60.75 60.96 61.71 61.04 61.70 61.63 61.93 62.11 61.67 61.23 61.60 60.45 60.76 59.42 58.91 58.35 60.53 58.47 59.15 58.49 58.25 57.00 56.75
41.76 43.73 43.86 43.23 46.24 43.62 42.00 42.84 47.46 44.89 51.94 54.92 54.80 54.44 54.64 54.70 55.61 56.13 56.89 57.69 57.94 59.03 59.62 60.42 60.44 59.61 59.08 59.51 59.78 60.17 60.95 61.12 61.44 61.58 61.22 58.71 57.27 55.90 56.82 57.35 54.82 53.69 53.01 53.59 54.14 53.60 53.09 52.23 53.39
41.82 40.95 42.74 44.17 44.19 42.27 43.62 41.44 43.80 41.99 52.35 55.85 55.47 54.28 54.34 54.86 55.15 56.79 58.20 58.88 59.04 59.27 60.32 60.43 61.13 59.16 58.74 59.52 59.59 59.74 60.21 60.95 61.29 60.78 59.87 57.82 55.83 54.56 54.38 53.15 53.78 53.53 53.73 53.34 53.03 52.74 52.59 52.92 53.28
43.54 41.67 41.53 43.67 44.47 43.04 42.45 42.26 41.88 44.19 53.64 54.17 54.27 53.54 53.81 54.24 54.64 54.51 55.43 56.72 58.55 60.42 59.95 59.63 59.57 58.89 58.65 58.87 59.53 59.01 58.92 59.58 60.00 58.97 57.76 57.45 55.98 54.52 53.75 53.37 52.99 52.08 52.66 52.41 52.05 51.97 51.54 51.16 51.49
43.38 39.73 40.76 40.72 41.73 42.02 44.18 40.35 39.75 45.02 54.43 53.78 54.11 54.56 54.31 54.84 54.17 54.38 53.87 55.78 58.92 60.59 60.52 59.77 60.02 59.47 58.82 58.85 58.51 58.08 56.69 57.73 57.72 55.93 55.84 55.60 55.43 54.37 53.33 51.22 50.03 50.68 51.15 50.58 50.47 50.20 49.56 48.64 49.43
40.73 39.37 36.11 40.92 42.81 42.36 41.10 36.75 41.58 47.83 53.80 52.48 53.61 53.97 53.76 54.23 54.64 54.28 55.41 54.05 58.57 60.09 59.69 60.73 62.41 59.38 59.55 59.13 59.01 56.90 54.11 53.52 53.70 54.26 54.03 54.19 53.88 51.98 49.78 49.07 48.86 49.62 49.73 49.34 48.53 48.31 46.73 46.21 46.10
37.86 33.72 36.29 39.20 42.83 41.65 40.29 38.19 41.91 43.08 53.70 52.67 47.99 48.29 49.91 52.11 54.28 55.41 56.88 57.11 60.36 60.07 59.36 59.61 60.76 60.13 58.37 58.46 57.85 55.52 53.03 51.98 51.79 51.82 51.16 51.30 51.48 51.45 49.48 48.78 48.64 49.13 48.08 47.21 46.98 45.90 45.60 44.96 44.96
34.31 35.54 33.48 36.66 38.69 40.83 38.25 38.39 41.67 42.20 45.05 42.60 47.44 48.56 49.35 50.56 52.96 57.14 57.63 57.44 58.07 58.35 58.90 59.34 59.12 59.21 56.94 56.43 54.13 53.18 50.98 50.53 50.03 49.80 50.22 50.69 50.97 51.31 49.25 49.25 48.12 47.65 45.95 45.05 44.36 43.66 44.22 44.17 44.36
40.22 37.55 36.27 36.51 40.85 40.92 38.95 38.84 41.00 44.91 46.93 46.86 46.87 47.70 49.05 49.70 52.24 53.66 54.57 55.95 55.47 55.34 56.84 57.75 56.77 56.48 54.17 52.13 51.28 51.46 50.83 50.89 50.69 51.31 52.14 49.91 50.30 48.56 46.33 46.15 46.39 45.72 44.02 43.08 43.44 43.34 43.24 43.16 43.59
41.64 38.53 37.15 40.14 42.44 41.21 39.86 38.19 42.03 44.38 45.11 47.15 46.57 47.16 47.86 49.80 50.71 51.28 52.38 52.61 53.61 54.30 53.26 51.76 52.33 51.52 51.27 51.99 52.17 52.62 50.94 49.93 52.10 51.32 48.13 47.18 46.68 46.42 45.84 44.40 44.10 43.89 43.62 43.11 42.27 42.53 42.16 42.31 43.01
40.44 37.86 37.54 39.01 40.24 40.48 40.57 37.96 39.63 44.26 46.22 47.86 47.78 47.40 48.15 48.96 48.82 50.45 51.30 50.02 50.16 48.99 48.82 49.33 49.19 49.61 50.93 51.86 50.47 50.04 50.75 49.83 48.63 46.75 45.23 45.12 45.72 45.14 44.54 43.90 43.44 43.18 43.39 41.97 41.91 41.86 41.07 40.03 41.29
38.00 42.44 41.48 40.23 36.63 33.03 37.48 28.42 37.49 40.42 42.59 45.22 46.17 45.91 46.56 48.48 49.32 48.42 47.69 46.72 46.91 46.74 47.18 47.78 48.72 48.70 49.27 48.79 48.07 47.87 47.51 46.87 46.39 44.52 42.66 43.02 44.13 44.20 44.85 43.88 43.26 42.73 42.12 40.98 41.69 41.43 39.33 38.89 37.73
40.47 43.19 40.80 39.69 35.60 34.59 35.45 31.68 34.91 40.63 39.40 41.81 43.21 46.04 47.00 47.01 47.37 46.76 46.67 46.99 47.05 46.65 46.18 46.58 48.22 48.56 48.38 48.01 47.77 47.43 45.74 45.35 43.87 42.60 41.89 42.93 44.39 45.16 43.56 44.12 43.42 42.35 40.98 40.10 39.59 38.66 38.14 38.22 37.54
44.14 42.42 40.95 39.21 36.24 28.93 35.89 33.24 32.91 35.99 39.52 41.30 43.73 45.81 47.33 47.23 46.17 46.94 47.54 47.57 46.60 45.94 45.79 46.52 47.20 46.96 46.46 45.36 44.73 43.93 42.92 42.12 41.24 42.22 43.39 44.58 43.52 42.73 44.47 43.28 41.25 40.98 39.86 38.71 38.25 37.55 36.95 36.78 37.52
41.87 37.57 28.84 28.14 27.25 27.38 37.22 34.21 34.78 40.02 42.98 43.82 44.41 44.57 45.02 45.82 45.81 46.30 47.85 47.85 46.09 45.73 45.96 45.80 45.54 44.84 44.90 44.00 43.60 43.42 42.93 42.51 42.18 42.71 43.32 42.95 41.78 41.19 40.10 39.86 38.79 38.47 39.14 38.90 38.30 36.95 36.14 35.45 34.87
38.37 37.18 29.08 27.96 24.90 27.22 36.27 30.81 34.93 42.33 44.92 45.96 45.42 44.93 44.85 44.97 46.51 46.47 45.89 45.49 45.05 45.14 44.37 43.97 44.01 43.69 44.04 43.93 43.43 42.98 43.09 43.91 43.43 42.40 42.00 41.26 39.99 39.66 39.91 38.98 38.59 38.13 38.37 38.05 37.45 36.20 35.62 35.25 34.06
38.78 33.63 38.61 31.17 28.55 26.38 30.90 34.70 40.17 41.75 43.10 43.96 44.12 44.29 42.47 43.11 43.44 44.04 44.98 44.57 44.20 44.18 44.52 44.43 44.20 43.51 43.66 43.72 43.07 42.73 42.96 43.71 42.76 41.88 40.38 39.62 38.94 39.95 39.24 38.79 38.78 38.52 37.78 37.82 37.09 35.69 34.66 34.22 33.88
40.26 41.59 32.56 29.81 23.69 24.01 28.37 30.69 31.60 37.71 39.90 41.32 41.07 41.43 42.19 42.79 42.93 43.43 44.02 44.34 44.13 43.63 44.34 44.41 44.93 44.81 44.40 43.36 42.74 43.32 42.01 42.22 41.88 40.35 39.17 38.55 38.51 40.39 39.21 39.12 38.89 38.26 38.17 36.53 35.67 34.76 33.53 33.59 33.54
38.10 35.53 34.86 34.31 28.68 23.70 21.27 28.23 37.79 38.96 40.52 39.93 40.14 41.67 41.92 41.83 42.29 42.53 44.20 44.60 43.54 42.93 42.78 41.84 41.66 41.86 42.48 42.54 42.03 41.50 41.24 40.50 39.80 38.80 37.94 38.26 38.17 37.11 37.98 39.14 38.54 37.18 34.89 33.20 32.35 32.37 32.34 31.26 29.30
39.27 36.87 35.14 26.32 28.82 26.32 25.04 26.73 40.30 40.48 41.51 42.21 41.92 42.88 42.59 43.14 42.23 43.79 43.45 43.42 43.19 41.47 40.82 40.07 38.63 39.04 39.60 40.05 40.29 40.50 40.41 39.60 38.27 37.03 37.21 36.89 38.20 38.11 36.78 37.26 37.64 34.64 33.95 32.29 31.97 30.55 30.54 28.75 27.48

GFSSGP_sfc_wetblb_018.txt.gz
Wetbulb
55.10 52.74 49.40 47.77 40.96 40.32 37.16 40.46 48.25 50.11 52.98 57.45 59.22 58.24 57.19 59.06 55.08 51.75 67.00 68.53 68.97 68.74 69.96 70.41 70.98 71.71 71.86 71.61 71.52 71.76 71.15 70.74 70.20 69.56 68.72 68.31 67.93 67.35 67.01 66.84 67.67 66.83 66.42 66.25 66.00 65.57 65.06 65.07 64.58
49.44 51.18 47.79 43.89 37.43 34.00 37.06 45.31 50.55 53.58 56.18 57.61 56.88 58.38 57.87 56.34 63.15 63.72 65.60 68.80 68.77 68.95 69.11 69.99 70.93 71.23 71.42 71.44 71.54 71.46 71.06 70.42 69.77 69.03 68.34 67.76 67.01 66.34 66.17 66.02 66.79 65.96 65.28 65.03 64.55 64.09 63.74 63.49 63.08
50.89 51.18 43.00 39.20 35.42 34.44 37.71 49.86 53.11 55.66 57.17 56.26 55.01 57.12 57.57 58.87 63.99 64.61 68.04 68.82 68.87 68.29 69.46 69.88 70.37 70.89 71.42 71.49 71.41 71.26 70.91 70.32 69.57 68.47 68.07 67.09 66.26 65.52 65.47 65.30 65.99 64.84 64.27 63.89 63.38 63.05 62.39 62.15 62.43
48.71 46.24 42.29 37.96 35.18 38.92 42.50 51.02 55.00 54.79 55.92 57.59 56.53 52.21 58.11 63.49 63.39 66.03 68.45 68.49 67.64 67.52 68.31 68.63 69.61 70.39 71.37 71.35 71.11 70.95 70.42 69.76 69.19 68.52 67.69 66.53 65.54 64.99 64.80 64.63 64.64 64.07 63.87 63.89 63.72 63.06 62.33 61.97 63.07
45.79 41.34 35.74 35.22 34.81 40.50 44.25 52.99 55.00 52.94 53.87 54.90 56.04 52.45 56.70 64.78 66.66 67.62 67.68 67.90 67.43 67.97 68.06 68.74 68.67 70.04 70.74 71.24 71.02 70.54 69.50 69.21 68.78 68.52 67.78 66.31 65.26 64.56 64.42 64.20 63.83 63.54 63.55 63.84 63.68 63.18 62.87 62.81 63.77
41.87 39.70 34.24 32.72 36.53 46.15 47.46 53.20 55.06 53.86 54.72 55.51 56.08 54.10 55.83 65.76 66.11 67.37 68.11 67.61 68.49 68.18 68.69 68.45 69.36 69.61 69.81 70.28 70.01 69.18 68.61 68.70 68.42 67.93 67.36 66.20 65.67 65.23 64.29 63.89 63.53 63.26 63.18 63.46 63.44 63.20 63.16 63.55 63.58
39.82 37.50 33.13 35.94 41.44 45.32 47.67 54.13 53.27 54.14 54.15 54.08 55.89 50.59 59.35 63.44 66.49 67.66 67.57 67.77 68.41 68.54 68.24 68.60 68.15 68.53 68.47 67.86 67.79 67.52 67.79 67.85 67.55 67.21 66.91 66.25 65.57 65.26 64.87 64.46 63.72 63.25 63.78 64.10 63.93 63.75 63.84 63.49 63.47
41.58 39.07 35.60 36.45 44.12 44.33 50.72 48.54 55.98 53.96 52.63 56.15 56.50 54.28 56.53 61.42 65.60 66.49 66.58 66.69 66.76 67.30 66.96 66.49 66.46 65.64 64.95 65.14 66.40 66.49 66.51 66.44 66.60 66.66 65.99 64.88 64.65 64.59 64.55 63.75 63.91 63.83 63.74 63.94 63.90 64.12 64.13 63.65 63.24
42.25 37.25 33.81 38.79 45.16 47.41 52.36 49.68 49.99 54.52 53.75 54.23 53.15 55.76 60.91 64.19 64.87 63.81 63.92 64.12 64.48 64.89 64.22 62.72 62.86 62.36 61.93 61.99 64.58 65.96 66.19 65.93 65.80 65.66 64.77 62.74 60.55 60.89 61.33 63.46 63.43 64.07 64.15 63.82 63.95 64.18 63.70 63.31 61.70
41.49 36.52 37.74 42.12 46.06 48.51 52.10 49.15 52.34 52.52 51.66 50.51 51.95 58.30 62.02 62.88 63.02 61.23 60.86 60.91 61.49 61.77 61.27 60.58 60.61 60.53 60.68 63.35 62.28 61.77 62.92 62.84 62.80 62.73 62.18 61.06 60.37 59.98 61.04 61.90 63.09 63.50 63.13 62.80 62.59 62.19 61.84 59.09 56.92
38.96 39.26 41.31 42.25 48.75 51.67 48.00 47.99 50.54 51.29 48.34 50.54 52.60 56.31 59.19 60.36 60.01 60.28 59.95 60.55 60.46 60.00 60.52 60.58 60.40 59.96 60.01 60.45 60.70 60.30 61.16 61.01 61.26 61.34 60.93 60.78 60.65 59.98 59.79 58.91 57.93 56.85 58.13 55.52 57.06 55.50 55.24 53.82 54.11
39.16 42.73 42.77 42.47 46.14 45.17 44.93 45.24 50.86 48.93 50.24 53.89 57.33 57.91 57.91 58.02 57.05 57.81 56.98 57.30 56.58 57.85 59.24 59.71 59.32 59.38 59.17 59.29 59.93 59.50 60.13 60.41 60.63 61.10 61.09 59.52 57.87 56.96 57.09 55.41 52.97 52.79 52.83 53.02 52.54 52.44 52.59 52.46 53.01
42.57 43.44 43.01 43.08 43.66 41.59 43.66 43.51 48.20 44.88 52.04 53.72 56.85 56.85 56.60 56.92 55.56 55.93 56.11 56.32 56.41 56.68 57.90 58.55 59.14 58.46 58.55 58.60 58.91 58.84 59.57 60.55 60.58 60.52 59.71 57.65 54.74 53.78 53.28 52.79 53.08 52.64 52.58 51.90 51.67 51.75 51.39 50.67 50.89
44.46 41.78 41.59 43.07 41.39 40.54 41.25 40.63 41.94 43.99 51.74 51.60 54.53 54.56 55.22 55.71 55.34 54.34 55.30 55.75 56.77 58.19 58.15 59.27 59.52 58.26 58.15 58.16 59.25 58.36 58.99 59.08 59.95 58.57 56.75 56.68 54.46 53.53 53.18 51.56 50.57 50.61 50.44 50.42 50.55 50.27 49.06 48.40 48.66
42.64 39.33 40.22 40.97 40.47 40.59 42.96 38.61 38.15 47.13 51.78 50.87 52.02 53.50 51.77 52.10 51.37 52.52 53.30 54.34 56.94 58.30 59.14 59.34 59.24 58.97 58.09 57.76 57.60 57.57 58.62 58.23 56.87 54.91 55.57 54.98 54.41 52.50 50.23 48.96 48.34 49.13 49.60 48.90 48.54 48.39 46.98 46.11 46.92
40.25 38.76 34.84 39.33 41.00 40.61 39.53 34.24 40.64 49.18 51.27 49.20 49.97 51.52 52.34 52.08 53.28 53.06 53.81 54.15 57.85 58.70 59.60 60.54 59.99 58.36 58.00 57.87 58.06 58.94 55.71 54.22 55.47 53.47 53.45 52.10 51.36 50.03 48.72 48.32 48.16 48.90 48.28 48.75 46.65 46.57 44.72 44.68 44.89
37.51 32.80 34.59 37.39 41.13 40.37 38.84 35.34 40.77 43.71 50.67 48.40 47.68 48.50 50.61 52.21 54.50 55.81 56.74 54.44 58.51 58.82 59.32 59.49 58.84 58.66 58.99 58.69 58.33 55.57 53.26 51.56 50.25 50.08 51.39 51.24 51.02 50.49 48.91 49.65 49.55 49.24 46.84 44.81 44.75 44.38 44.04 43.63 43.60
33.11 34.01 32.37 34.41 38.28 39.63 37.72 37.45 41.67 43.99 44.92 46.06 46.20 47.45 49.17 50.89 53.72 56.05 56.35 57.21 57.73 58.65 59.29 59.24 58.68 58.91 58.05 56.78 54.19 51.47 51.74 50.95 51.92 52.75 51.16 49.45 49.82 50.50 48.98 48.77 47.14 45.19 43.82 43.09 42.95 42.72 43.38 43.12 43.30
38.59 36.38 35.00 34.59 39.33 39.17 37.84 38.21 40.37 44.86 44.92 44.49 46.18 47.18 48.42 49.40 52.83 54.84 55.49 55.79 55.89 56.65 58.91 58.73 58.08 57.48 56.59 51.58 50.85 49.93 49.98 51.77 50.60 47.62 48.85 49.57 47.83 45.75 44.68 44.43 44.00 43.96 42.87 42.12 42.73 42.54 42.27 42.50 42.97
39.07 37.09 35.80 37.84 40.98 40.27 39.57 37.61 41.14 43.55 44.23 44.40 45.63 46.73 48.02 48.57 50.24 52.08 52.92 53.10 53.46 55.02 55.77 55.49 55.99 53.14 51.26 51.41 50.88 51.48 50.01 48.71 49.50 47.23 45.31 45.27 44.81 44.60 44.55 43.26 42.65 42.66 42.30 41.95 41.77 41.85 40.87 41.37 41.93
39.15 37.27 35.64 36.56 39.42 39.61 38.37 36.08 38.66 43.13 45.59 46.28 45.86 46.31 48.09 48.77 49.39 51.23 52.17 50.24 48.99 47.71 48.55 49.40 49.46 49.63 50.66 51.49 48.38 47.79 48.10 47.90 46.64 44.06 42.31 43.19 44.09 43.73 43.27 42.86 42.31 41.83 41.34 41.96 41.31 40.30 39.17 38.28 39.57
36.34 40.91 39.87 37.78 35.74 32.17 36.48 29.39 36.10 39.78 42.33 44.12 44.84 44.75 46.27 48.04 47.99 47.73 47.14 45.37 45.84 44.85 45.59 46.48 47.36 47.43 47.92 47.52 47.22 46.68 45.53 44.70 43.74 41.90 41.24 42.08 43.17 43.26 43.15 43.82 42.05 42.27 41.38 40.45 40.73 40.12 38.29 37.86 36.17
38.89 42.17 40.09 37.69 34.69 32.97 34.12 31.48 33.13 40.47 39.58 41.86 43.19 44.68 44.85 45.19 46.21 46.26 46.38 45.65 44.74 44.78 44.77 46.12 47.17 46.77 46.77 46.54 46.25 44.62 43.23 42.66 41.84 41.17 41.37 41.56 42.46 44.62 44.85 43.44 41.67 40.55 39.95 38.74 38.02 36.93 36.28 36.60 35.73
42.65 41.00 39.41 37.52 34.67 28.47 33.58 31.93 31.15 35.59 39.38 41.38 43.40 44.85 44.85 44.58 44.46 44.80 45.54 45.85 45.12 46.28 46.91 46.22 44.85 44.03 44.34 44.32 43.73 43.00 41.93 41.20 40.66 40.82 41.34 42.74 41.99 41.59 42.08 41.31 39.64 39.38 38.61 37.81 37.19 36.31 35.63 35.07 35.36
40.66 36.27 28.27 27.78 26.75 26.80 35.20 32.36 33.50 39.62 41.61 43.79 43.50 44.00 44.68 44.69 44.10 44.31 45.00 46.10 46.17 45.01 44.23 44.35 43.61 43.06 43.44 43.47 43.29 42.98 42.30 41.58 41.21 41.10 40.92 40.41 40.61 40.46 39.56 38.81 39.33 37.60 38.44 38.07 37.70 36.05 35.09 34.06 33.52
36.44 36.40 28.72 27.10 24.66 26.92 34.47 30.17 34.40 40.36 43.36 45.05 45.00 44.08 44.22 44.00 44.99 44.69 45.01 43.70 42.83 43.03 42.73 42.85 43.06 42.79 43.17 43.32 42.45 42.02 41.94 41.81 41.93 41.33 40.66 40.64 40.27 39.28 38.90 38.45 37.97 37.57 37.27 37.46 37.67 36.58 36.14 35.56 34.44
36.85 32.46 36.97 30.44 28.02 25.68 29.72 33.86 38.51 40.95 41.40 42.77 42.78 42.96 42.88 42.70 42.77 43.18 43.54 43.03 43.12 43.41 43.45 43.18 43.03 42.67 43.32 42.95 42.15 41.72 41.54 41.25 41.44 41.04 39.94 39.08 38.72 39.58 38.32 37.70 37.56 37.42 37.60 37.68 37.76 36.18 35.36 34.56 34.84
38.53 40.30 31.32 28.98 23.14 23.43 26.99 29.34 30.80 36.80 39.51 40.61 40.57 40.52 41.09 41.66 42.07 42.73 42.92 43.05 42.79 42.67 44.44 44.78 45.05 43.41 42.93 42.05 41.48 41.51 40.93 40.70 39.95 38.99 38.32 37.61 37.48 37.95 37.52 38.56 37.05 37.51 37.81 36.86 35.69 35.26 33.82 33.13 32.70
36.91 34.19 33.37 32.72 27.71 22.51 19.83 27.13 35.89 39.63 41.28 39.48 39.98 41.07 41.35 41.27 41.85 42.33 42.50 42.43 42.38 42.66 43.49 42.41 40.41 41.01 40.28 39.33 39.58 39.17 38.62 38.28 37.89 37.70 37.16 37.00 37.04 37.28 37.00 36.86 36.79 37.42 36.67 33.94 32.66 31.58 31.76 31.70 29.79
37.56 34.86 33.58 25.47 27.02 25.50 24.48 25.65 37.28 39.52 40.23 40.38 40.37 41.51 41.26 41.50 41.05 41.33 41.60 41.93 42.45 42.15 41.22 38.56 37.51 37.98 37.51 37.66 37.46 36.87 37.26 37.64 37.69 36.42 36.47 36.43 36.30 36.64 36.16 36.40 37.73 37.36 34.36 32.20 30.66 31.06 30.63 29.01 27.74

GFSSGP_sfc_wetblb_021.txt.gz
Wetbulb
60.76 55.46 55.16 53.52 46.53 46.59 42.62 43.72 52.56 53.92 55.60 59.52 61.11 59.08 57.35 59.15 56.43 53.34 67.32 68.56 69.99 70.46 71.44 70.74 70.46 71.52 71.27 71.49 71.79 71.58 71.14 70.28 69.86 68.96 68.50 68.14 67.44 67.20 67.10 67.64 67.71 67.05 65.89 65.52 64.88 64.29 64.00 63.39 63.19
53.19 53.23 53.12 50.35 44.65 41.27 43.54 50.56 53.44 56.33 57.44 58.12 58.11 58.04 56.45 54.36 63.15 64.41 65.62 69.26 70.04 70.58 71.35 70.64 70.37 71.17 71.40 71.60 71.73 71.41 70.81 70.32 69.42 68.65 68.19 67.20 66.74 66.67 66.35 66.28 66.74 66.47 64.71 64.19 63.72 63.03 63.19 63.44 63.65
54.46 53.28 49.95 47.24 43.49 41.03 43.39 53.69 55.25 56.52 57.84 56.66 55.58 58.48 58.50 55.67 63.07 64.84 68.71 69.48 70.07 70.24 70.86 70.48 70.16 70.65 71.28 71.35 71.40 71.04 70.86 70.24 69.39 68.73 67.59 66.54 65.93 65.80 65.61 65.85 66.02 65.80 64.49 64.49 63.50 63.22 63.39 63.36 63.55
53.40 52.45 48.38 45.11 41.22 43.79 46.64 55.00 56.49 55.84 56.73 57.26 56.71 54.04 60.19 64.90 64.45 66.76 69.25 69.68 69.48 70.02 70.70 69.67 69.68 70.51 71.30 71.35 71.37 70.99 70.39 69.49 69.00 68.56 67.49 65.93 65.46 64.90 64.77 65.77 65.92 65.18 65.06 64.50 64.07 63.83 63.63 63.73 64.17
51.14 48.31 44.47 42.14 41.69 44.50 47.90 57.18 56.99 54.85 55.72 56.27 56.86 52.83 58.64 64.74 68.00 68.78 68.21 68.85 68.39 69.51 70.45 70.76 68.77 69.73 70.87 71.40 71.03 70.38 69.76 69.12 68.82 68.39 67.71 66.45 64.92 64.48 64.42 65.42 65.46 65.06 64.70 64.55 64.27 64.10 64.11 64.30 64.36
49.50 47.00 42.49 41.60 44.29 49.21 52.44 56.78 55.86 55.72 55.72 56.17 56.13 56.79 59.19 66.68 66.97 67.75 68.63 68.65 69.39 69.24 70.37 70.78 69.45 69.66 70.06 70.48 70.06 68.89 68.89 68.63 68.44 67.97 67.43 66.25 65.46 65.39 64.60 64.41 64.76 64.36 64.38 64.26 64.02 63.97 64.07 64.36 64.03
47.13 44.62 41.76 42.08 46.79 48.67 51.50 57.53 55.27 55.48 55.24 55.60 57.99 55.23 61.12 64.63 67.00 68.27 68.53 69.01 69.24 69.39 69.92 70.11 70.49 70.12 68.88 68.39 68.18 67.59 67.88 67.85 67.69 67.25 66.97 66.21 65.43 65.36 65.26 64.92 64.35 64.21 65.04 64.77 64.41 64.25 64.30 64.13 63.66
47.92 46.23 41.98 44.36 46.52 47.61 51.30 53.84 55.97 55.29 53.95 58.41 59.76 56.23 57.25 63.22 67.08 67.91 68.07 68.22 68.78 68.79 68.36 68.33 69.61 69.70 69.88 69.67 67.13 67.04 66.86 66.58 66.60 66.57 65.66 64.73 64.68 64.72 64.45 63.05 64.59 64.69 64.41 64.38 64.41 64.49 64.34 63.88 62.83
47.50 44.72 41.44 44.72 48.74 49.56 54.28 52.17 54.13 57.19 56.03 56.07 55.49 60.35 62.68 64.95 66.22 65.46 65.30 65.41 66.03 66.68 66.93 66.88 67.57 68.59 68.50 68.13 67.45 66.50 66.69 66.16 65.87 66.01 64.70 63.88 64.80 64.87 64.63 63.60 63.98 64.34 64.20 64.11 63.89 63.70 63.32 61.33 61.13
47.56 43.84 43.10 46.83 53.32 50.95 52.84 52.46 53.17 55.04 54.64 53.35 57.84 62.00 64.05 64.24 63.91 63.07 63.17 63.09 63.91 64.44 64.61 65.96 67.07 66.77 66.11 65.39 66.47 66.24 65.82 65.97 65.91 65.80 65.61 65.41 65.18 65.19 64.28 63.59 62.75 62.66 61.78 61.50 61.92 61.55 60.57 60.94 61.33
45.78 44.92 45.50 45.80 52.78 54.95 52.93 51.99 54.94 53.99 52.43 54.51 56.54 58.95 61.29 62.35 62.22 62.77 62.42 63.56 63.87 64.06 65.77 65.83 65.63 65.27 64.57 64.49 65.32 64.57 65.14 65.33 65.46 65.36 65.59 65.75 65.73 65.77 65.87 65.49 63.19 62.37 59.81 61.11 60.74 60.80 60.19 60.03 59.97
44.56 46.16 45.13 46.01 49.95 52.51 50.10 51.71 53.95 55.54 54.72 56.60 60.42 62.33 61.48 61.41 61.26 61.80 62.51 63.33 63.28 64.14 64.66 64.10 64.16 63.87 63.50 63.94 63.89 63.91 64.43 64.84 65.06 65.78 65.78 66.05 65.08 64.60 64.10 61.22 60.69 60.73 60.37 59.97 59.87 59.81 59.38 58.33 57.34
45.02 46.51 45.17 45.93 46.55 49.35 49.20 50.21 53.88 53.29 55.27 58.76 61.34 62.35 62.29 61.96 62.01 62.31 62.21 61.95 62.09 61.74 62.30 62.89 62.66 62.59 62.50 62.95 63.16 63.36 63.50 64.23 64.73 64.87 64.43 64.20 62.88 61.50 60.78 60.03 59.08 58.81 58.81 58.26 58.11 57.48 56.67 55.89 55.52
47.68 45.13 44.68 44.51 44.43 45.17 46.66 45.56 50.37 49.69 54.92 58.29 59.72 60.53 60.92 60.47 60.15 59.74 58.95 59.04 59.88 60.68 61.69 62.50 62.36 62.11 62.18 62.51 62.22 62.18 62.85 62.75 63.10 62.61 62.16 61.89 61.78 60.91 59.72 57.61 57.23 57.49 57.42 56.88 56.69 55.72 54.60 54.05 53.98
44.81 43.66 44.22 44.62 45.09 45.14 46.77 44.29 42.98 50.95 54.57 56.28 57.99 57.31 57.94 58.22 58.29 58.11 58.56 59.09 60.42 61.35 62.09 62.27 62.16 62.48 61.59 61.23 61.87 60.60 58.45 57.95 58.89 59.71 60.07 59.78 60.23 57.89 56.81 56.65 56.74 56.52 56.11 55.66 55.80 54.31 53.62 53.08 52.54
43.26 43.39 40.68 44.11 45.48 44.59 44.89 40.36 45.80 49.30 52.71 52.45 54.32 54.43 55.65 55.74 56.36 57.92 57.73 59.89 61.83 62.13 62.41 62.35 61.52 61.28 61.30 61.27 61.39 60.48 58.09 57.55 57.10 57.38 57.10 56.40 56.06 56.66 56.82 54.85 54.87 54.20 53.12 53.02 51.37 52.23 51.40 50.82 50.45
42.23 39.05 39.92 42.19 45.45 45.13 44.98 41.38 46.62 48.71 52.87 51.26 52.45 53.54 54.38 55.99 57.31 57.68 58.76 60.06 61.81 62.15 61.48 61.28 62.22 62.13 61.64 60.29 59.64 58.01 55.62 54.36 53.76 55.34 55.93 56.06 55.50 55.42 54.08 51.71 52.13 52.58 51.81 51.23 50.87 50.76 50.30 49.06 49.25
39.19 39.00 39.94 40.88 43.47 45.57 44.48 43.19 46.63 48.14 51.75 51.24 51.84 52.71 53.89 54.75 55.32 55.38 57.27 59.65 60.98 61.82 61.29 61.67 61.39 59.69 59.56 57.39 56.01 54.44 54.69 54.92 55.52 54.68 53.10 53.63 53.01 53.06 52.84 51.46 51.65 51.45 50.74 50.24 50.61 50.04 50.09 49.33 48.23
41.43 40.70 40.21 41.14 43.32 44.50 42.59 43.83 45.31 47.71 49.44 49.83 50.86 51.99 52.95 53.49 55.49 57.19 58.82 60.43 60.78 60.91 60.90 60.82 59.81 58.98 56.62 54.23 53.86 54.97 54.93 54.61 51.74 51.81 51.86 51.87 51.41 51.27 51.46 50.70 50.54 50.75 50.19 49.53 49.34 49.18 47.67 46.98 47.82
42.32 40.95 39.93 42.10 44.23 44.90 43.66 43.24 46.20 47.30 46.75 48.70 50.19 51.40 52.52 53.03 54.08 55.67 57.88 59.26 60.17 60.59 60.69 60.23 60.04 59.74 56.12 56.17 56.78 57.90 56.71 54.75 51.57 50.84 50.54 50.63 50.63 50.58 50.08 50.78 50.51 50.13 49.47 49.05 47.91 47.44 45.89 45.69 46.60
41.91 41.53 40.70 41.15 43.44 44.46 43.74 41.85 44.04 46.97 48.42 49.20 50.05 51.90 53.16 53.43 54.12 55.19 55.73 57.16 57.32 57.71 59.01 58.73 56.47 56.10 56.12 56.92 55.76 54.79 54.74 53.48 52.16 49.96 49.37 49.44 49.84 49.84 49.86 49.79 49.74 49.12 48.59 47.39 46.49 45.69 44.06 41.56 43.79
40.82 43.95 42.45 41.83 41.45 38.81 41.61 37.55 41.41 44.95 46.33 48.29 49.90 52.10 52.92 54.24 55.21 53.90 52.00 52.27 53.09 52.68 54.24 54.77 54.23 53.87 53.05 53.52 54.16 53.31 52.69 51.80 49.63 49.51 49.95 50.11 49.56 49.26 49.10 49.04 48.64 48.23 47.55 46.23 45.75 44.51 43.24 41.86 38.93
42.43 44.25 43.22 41.35 40.12 39.85 39.45 39.94 39.60 44.78 44.37 47.40 48.72 49.95 51.17 52.65 52.72 50.67 50.32 50.49 50.12 51.30 52.36 52.52 51.87 51.86 52.02 52.19 52.26 51.41 49.91 49.39 49.50 49.57 48.43 49.20 49.34 49.16 48.84 48.44 47.54 46.68 46.60 45.84 44.55 43.79 43.06 43.05 40.72
45.43 44.13 43.02 41.56 40.30 35.29 38.12 38.08 38.15 42.10 45.46 47.05 48.11 48.92 49.67 50.25 49.99 49.50 49.66 49.70 49.90 51.58 51.42 51.20 50.42 49.83 50.87 51.18 50.99 50.60 49.60 48.87 49.15 48.79 48.74 49.33 49.59 49.22 48.61 47.48 46.72 46.25 45.42 44.62 44.22 43.64 41.99 41.60 40.74
44.63 42.03 35.89 34.83 34.94 33.37 37.90 36.65 40.45 43.63 46.22 48.83 47.88 48.82 49.64 50.22 49.40 49.14 49.59 50.36 50.09 50.29 49.67 50.06 50.16 49.03 50.24 50.29 49.94 49.68 49.33 48.76 48.51 48.55 48.35 48.05 48.19 48.48 47.95 47.02 45.24 44.13 44.16 43.86 43.61 42.92 42.16 41.35 40.04
41.04 41.90 36.91 29.47 30.95 34.11 37.62 35.49 40.91 44.23 46.85 50.34 50.26 49.95 49.38 49.12 49.22 49.55 50.05 49.79 49.34 48.66 49.41 49.69 49.79 49.02 49.19 49.11 48.68 48.73 48.54 48.73 48.77 48.46 47.95 47.26 46.70 46.27 46.29 46.06 44.53 43.74 43.52 43.59 43.68 42.95 42.43 42.10 41.18
40.62 38.17 41.17 34.45 31.25 32.42 35.97 38.96 43.09 43.57 44.43 47.12 47.40 48.11 48.37 48.76 49.00 49.02 48.70 48.64 48.33 48.65 48.82 49.48 49.16 48.67 48.06 48.10 48.75 48.38 48.44 47.73 46.86 45.94 46.09 45.75 45.55 44.66 45.48 45.12 44.00 43.76 43.55 43.26 42.97 42.20 41.97 41.74 40.98
43.42 42.76 36.90 35.95 28.77 27.36 32.44 34.19 37.90 40.42 42.44 45.57 45.62 46.96 48.00 48.46 47.89 48.07 47.97 48.02 48.17 48.69 48.99 49.64 49.46 47.39 46.92 47.53 46.72 46.40 45.56 45.45 45.27 45.35 44.18 44.16 44.55 44.59 44.66 44.70 44.28 43.60 42.75 42.04 42.14 41.29 41.17 39.65 39.60
40.90 38.59 36.96 37.11 33.71 29.53 27.46 33.83 41.78 43.51 44.74 44.96 46.59 47.39 47.57 47.27 47.45 47.30 47.37 47.04 47.40 48.18 48.41 47.79 45.12 45.89 45.23 44.44 44.04 44.15 44.34 44.36 44.74 43.88 43.60 43.53 43.90 43.48 42.88 43.02 42.59 42.00 40.30 40.15 40.98 39.72 38.66 37.17 37.59
42.51 39.60 38.80 34.10 31.03 30.79 30.97 34.17 41.14 43.55 45.74 46.53 46.47 45.96 47.14 47.45 47.21 47.17 46.75 46.37 45.72 45.76 44.69 42.28 43.31 42.63 42.57 43.10 43.24 42.91 43.44 43.65 43.45 43.01 42.81 43.04 42.13 42.33 41.76 41.60 41.52 40.65 39.31 41.41 39.13 37.33 36.99 36.20 35.45

GFSSGP_sfc_wetblb_024.txt.gz
Wetbulb
63.65 59.52 58.06 57.49 50.38 50.58 48.16 48.23 58.42 57.97 58.29 60.29 61.72 59.82 59.51 60.90 58.48 55.22 69.01 70.59 71.60 70.72 70.29 70.52 70.75 71.19 71.44 71.44 71.71 71.64 70.72 70.16 69.46 69.14 68.43 67.97 67.80 67.65 67.48 67.95 67.87 66.32 65.41 64.84 64.18 63.99 64.25 64.68 64.43
56.29 54.85 57.69 55.57 47.59 45.55 47.74 51.74 53.05 58.75 59.82 59.49 58.20 58.37 57.62 56.33 63.54 65.51 67.06 70.69 70.72 70.80 71.01 70.80 70.39 70.94 71.54 71.65 71.59 71.44 70.50 69.77 69.04 68.41 67.68 67.39 67.27 66.88 66.58 66.46 66.85 66.43 64.63 63.94 64.20 64.45 64.48 64.41 64.12
56.25 57.02 54.01 50.63 47.64 45.53 48.56 56.13 57.63 58.74 59.89 59.01 57.28 60.67 57.18 56.48 63.12 63.53 68.89 70.24 71.15 71.39 71.22 71.09 70.18 70.36 71.07 71.31 71.26 71.13 70.62 69.78 69.55 68.65 66.89 66.67 66.38 65.95 65.63 66.25 66.52 66.08 64.98 64.65 64.55 63.99 63.68 63.62 63.84
55.13 55.64 53.90 47.28 46.11 48.02 50.34 57.51 59.11 58.07 58.88 59.04 59.42 55.65 60.91 62.42 61.03 63.55 69.49 70.52 70.08 70.77 71.36 69.33 69.43 70.20 70.70 71.42 71.26 70.91 70.25 69.60 69.16 68.37 67.36 66.02 65.47 65.16 65.21 66.55 66.79 65.53 65.24 64.96 64.81 64.67 63.96 63.84 63.99
56.58 54.54 48.13 46.57 46.18 48.03 51.60 59.48 60.20 57.44 58.05 57.60 57.86 56.21 59.22 65.29 66.73 67.70 69.47 69.61 67.93 69.86 70.96 70.91 68.68 69.07 70.15 70.59 70.97 70.31 69.55 69.18 69.06 68.21 67.34 66.42 64.92 64.68 64.94 65.86 66.42 65.51 65.15 64.84 64.58 64.60 64.39 64.22 64.21
51.33 52.59 45.88 44.82 47.52 51.69 52.45 59.94 59.22 57.55 57.11 58.09 57.37 57.78 61.23 67.78 67.59 68.70 69.91 68.62 68.72 70.15 70.66 70.75 69.15 68.81 68.67 70.58 69.89 69.32 68.88 68.81 68.68 67.87 67.17 65.56 65.23 65.39 64.89 64.74 64.86 64.79 64.81 64.50 64.45 64.57 64.70 64.46 63.99
50.68 48.19 46.04 47.55 49.80 51.85 54.26 60.24 57.74 55.29 57.03 56.97 60.91 55.82 62.24 65.23 68.31 69.11 70.23 69.50 70.22 71.07 70.55 70.40 70.28 69.72 68.62 68.42 67.89 67.74 68.04 68.16 67.75 67.56 66.78 65.96 65.83 65.86 65.45 64.71 64.46 64.65 64.66 64.82 64.70 64.64 64.59 63.95 63.42
53.54 49.93 46.29 49.82 50.25 50.59 57.43 57.65 58.12 54.72 55.94 61.93 62.82 56.39 58.76 65.13 68.17 68.83 69.10 69.57 70.01 70.20 70.44 70.53 70.45 70.47 70.45 70.36 67.20 67.33 66.97 66.83 66.91 66.59 65.68 65.00 65.11 65.06 64.44 64.88 64.92 64.74 64.53 64.51 64.79 64.37 63.67 62.48 62.42
53.56 47.36 46.11 49.63 51.15 52.54 56.85 54.82 57.24 60.12 58.62 58.65 58.99 62.21 65.26 66.90 68.31 67.25 66.81 67.80 68.59 68.69 68.92 69.14 69.91 69.80 70.10 69.51 68.47 66.70 66.74 66.34 66.13 65.78 64.97 64.34 67.45 66.98 65.81 63.76 64.19 64.22 63.38 63.34 63.36 62.99 61.60 61.60 62.16
50.82 47.73 47.26 53.48 55.56 54.86 55.67 54.00 54.44 56.77 57.66 57.05 60.78 64.63 66.56 66.54 66.18 65.85 65.60 65.06 65.79 66.19 67.01 67.52 69.32 69.31 69.12 67.00 67.04 66.26 65.56 66.64 67.87 67.57 67.35 68.69 68.40 68.07 66.24 64.79 62.51 61.44 60.92 61.65 61.32 60.61 61.13 62.57 62.02
51.10 48.72 49.58 50.90 57.02 56.09 53.59 53.92 55.57 55.04 55.51 57.91 59.37 62.14 63.37 64.08 64.17 64.64 65.15 65.12 64.89 66.08 66.23 66.90 68.27 68.37 66.75 66.03 65.46 65.30 66.18 67.69 68.24 68.57 69.03 68.96 68.76 69.33 68.76 66.99 65.30 66.16 61.49 65.01 64.15 64.15 62.08 61.61 61.07
48.72 50.74 50.05 53.00 56.90 55.17 53.64 55.98 55.10 56.72 57.12 59.86 62.76 64.92 64.58 63.52 64.35 66.03 65.54 66.48 66.91 67.10 66.62 67.20 67.22 66.45 66.09 65.17 64.68 65.41 66.77 68.22 68.59 68.42 68.77 69.04 67.84 68.73 68.24 65.23 65.75 65.64 64.94 64.12 63.38 62.55 61.70 60.55 59.61
48.89 49.77 50.04 49.76 53.89 56.39 55.97 54.73 55.50 56.44 58.83 62.28 64.69 64.70 64.41 64.47 63.90 64.31 64.95 65.16 65.21 64.60 65.11 65.14 65.53 65.25 65.27 65.27 65.94 66.64 66.88 66.69 67.12 67.65 67.50 67.18 66.18 66.77 65.38 65.32 64.72 63.60 63.52 62.04 61.56 60.95 59.98 58.88 58.41
50.64 50.21 48.41 47.98 51.33 54.89 53.35 52.89 55.59 54.87 60.58 62.33 63.16 63.41 64.04 63.82 63.00 63.01 62.80 62.97 63.23 63.46 64.32 65.08 64.55 64.92 65.63 66.07 66.52 66.18 65.55 64.34 63.79 64.92 63.95 63.39 63.03 64.44 65.19 64.03 63.09 63.10 61.56 61.00 60.13 58.99 57.85 57.42 57.33
49.10 46.44 47.88 47.28 49.63 50.61 53.76 49.38 48.38 54.73 58.88 60.61 61.43 62.35 62.86 62.81 62.87 61.71 61.50 61.50 62.37 63.18 64.80 65.26 65.24 65.45 65.58 65.50 65.01 63.69 62.43 61.51 61.42 62.39 62.53 61.28 61.68 61.87 62.80 62.15 62.26 60.80 60.15 59.08 58.38 57.66 57.18 56.28 55.72
46.31 47.12 43.51 47.21 48.89 47.55 50.70 44.76 49.89 54.55 56.70 58.75 60.46 60.98 61.24 60.96 61.04 61.39 61.74 61.62 62.80 64.10 64.95 65.51 64.54 63.93 65.15 64.39 63.26 61.47 61.12 61.75 60.66 60.94 60.22 58.59 58.23 59.44 60.51 58.69 57.61 57.52 56.98 56.39 55.97 55.51 54.66 54.59 54.40
45.38 41.95 43.16 44.91 49.53 48.26 47.70 45.06 50.49 54.97 56.33 56.95 58.85 59.11 59.70 59.37 60.47 61.38 61.59 63.07 64.57 65.48 65.16 64.91 65.22 63.85 61.97 60.80 61.72 61.84 59.30 58.22 57.32 57.81 57.85 56.73 56.64 57.24 56.80 56.78 56.25 56.41 55.93 55.26 54.61 54.56 54.19 53.44 53.49
42.06 42.85 43.67 43.47 47.86 47.78 47.47 48.42 50.20 54.63 56.21 55.94 57.48 58.58 59.14 59.73 59.81 60.13 61.85 63.87 65.11 65.61 65.18 64.32 63.82 62.26 62.04 61.25 61.79 57.91 56.83 56.34 58.38 57.59 56.86 57.19 57.44 56.76 57.32 56.45 55.40 55.44 54.86 54.79 54.58 53.81 53.74 52.43 51.62
45.64 44.76 43.36 45.65 48.58 49.10 48.20 48.66 49.34 53.33 55.51 55.57 56.65 57.60 58.41 58.95 59.90 60.74 62.27 63.67 64.42 64.49 63.27 63.41 62.23 63.79 63.04 61.56 59.68 58.13 57.83 57.59 56.66 57.05 56.40 56.17 55.76 55.40 55.57 56.00 55.53 55.16 53.91 53.13 52.62 51.60 50.58 49.61 50.49
46.17 44.58 44.72 45.81 47.94 49.21 49.06 48.25 50.15 51.44 53.51 55.59 56.56 57.28 58.04 58.07 58.91 59.56 61.96 62.60 61.85 61.74 62.57 63.18 63.65 64.29 63.73 62.11 60.67 60.34 59.80 59.34 57.43 56.61 55.73 55.47 55.06 54.65 54.48 54.13 53.49 53.33 51.63 51.66 51.48 50.43 48.95 48.82 48.84
46.41 45.47 45.06 44.94 47.43 49.48 49.17 47.27 48.91 50.54 52.25 53.39 55.19 57.33 57.80 57.73 58.11 59.75 60.95 61.90 61.97 61.85 63.51 63.85 63.86 63.46 60.81 60.78 60.65 60.09 59.24 56.94 56.36 56.42 56.48 54.72 54.74 54.20 53.47 52.73 52.39 51.63 51.07 49.46 50.28 49.44 47.60 45.23 45.99
44.39 47.00 47.18 46.35 45.99 42.51 47.80 41.18 47.88 49.67 50.31 52.46 54.15 56.22 56.11 57.97 59.67 60.27 60.93 61.53 62.58 62.50 63.41 61.73 60.49 59.79 59.58 59.03 58.21 57.42 57.68 56.30 55.38 55.77 55.16 55.42 54.14 52.81 51.93 52.10 52.31 51.77 50.92 49.85 49.20 47.56 46.63 45.16 42.99
45.73 48.31 48.18 46.75 46.68 45.05 44.91 42.93 46.82 49.91 48.99 51.42 54.81 56.55 57.93 58.49 58.42 57.96 58.57 59.34 60.49 61.09 59.95 59.16 58.48 57.62 57.88 58.17 58.02 56.53 54.90 54.27 54.12 54.52 52.46 53.32 53.07 52.70 52.45 52.09 52.00 51.54 50.61 49.40 47.33 46.28 45.68 45.02 43.43
49.43 47.92 47.28 47.20 46.19 39.77 43.69 43.03 43.75 47.66 50.03 52.12 54.45 55.10 56.69 56.60 55.84 55.37 55.90 56.09 56.63 57.87 57.60 57.36 56.63 55.99 56.36 55.97 55.26 54.10 52.48 50.75 51.14 51.01 50.56 50.45 50.93 51.42 51.91 51.50 51.48 50.88 49.77 47.91 47.21 46.98 45.79 44.84 43.53
48.86 46.77 40.42 38.32 38.56 37.18 43.33 41.87 43.99 48.46 51.36 53.85 53.32 54.25 55.33 55.39 54.57 53.85 53.62 54.24 55.16 55.58 55.98 56.02 55.43 54.42 54.66 53.65 52.42 51.88 51.22 50.79 49.05 49.32 49.48 49.23 48.21 48.12 48.51 49.06 48.64 49.16 49.08 47.40 47.73 46.19 45.16 44.38 42.82
46.87 46.16 40.21 31.53 34.47 38.64 42.57 39.38 45.64 49.22 51.84 55.15 55.28 54.82 54.82 54.19 54.11 53.94 54.32 54.85 55.07 54.96 55.20 55.22 54.75 52.82 52.17 51.31 51.20 51.02 50.02 51.22 50.43 49.31 47.81 47.03 46.70 46.31 46.91 46.84 47.67 48.70 48.46 47.75 47.01 45.83 43.93 43.66 42.24
45.02 43.07 46.59 40.47 37.08 38.04 41.84 44.37 47.95 48.56 49.37 53.13 53.78 53.55 53.42 54.00 54.09 54.20 54.76 55.11 54.68 54.78 54.70 54.85 52.67 51.27 50.02 49.54 49.69 49.83 49.22 48.17 47.33 46.94 47.48 46.43 46.13 45.30 45.78 46.32 46.54 47.28 46.55 47.02 46.36 45.10 43.75 44.17 42.57
47.20 48.06 41.31 42.80 33.01 31.57 38.96 39.97 42.51 45.62 47.22 50.72 52.35 52.31 53.08 54.15 54.21 54.37 54.30 54.31 54.62 54.62 53.96 53.46 52.72 50.06 48.85 48.98 49.03 47.06 47.57 47.76 47.69 47.07 45.37 45.21 45.66 45.67 45.04 45.00 45.24 45.90 46.32 46.26 45.40 43.83 44.01 42.43 42.38
44.53 43.94 42.87 43.58 40.83 34.77 33.33 39.53 47.25 47.07 49.48 50.02 52.34 52.99 53.56 53.96 54.02 54.02 54.10 54.09 53.96 53.54 52.69 52.00 49.58 47.82 47.36 46.02 46.78 46.79 47.15 47.11 46.68 45.66 45.21 45.29 45.39 44.96 44.17 44.47 44.29 44.27 44.40 44.21 43.90 43.41 43.33 41.68 40.67
47.02 45.01 44.28 38.90 36.30 39.02 38.09 39.22 46.73 49.17 50.40 51.70 52.47 53.31 54.43 54.77 54.42 54.20 53.69 52.73 51.96 51.56 51.53 48.09 48.86 45.20 44.21 47.04 46.53 45.78 46.67 45.93 45.53 45.12 45.18 45.35 44.59 44.81 44.16 44.20 43.64 43.45 43.14 43.25 41.79 42.05 40.89 39.76 39.08

GFSSGP_sfc_wetblb_030.txt.gz
Wetbulb
61.29 59.50 60.53 56.61 46.91 48.53 46.12 48.23 56.72 56.87 57.80 61.47 62.18 60.42 60.16 61.33 59.29 55.08 67.95 68.82 67.69 67.63 68.88 69.79 70.76 71.13 71.30 71.73 71.53 71.30 70.86 69.58 68.75 69.09 69.31 68.95 68.61 68.05 68.07 67.51 67.04 66.99 65.95 65.86 65.53 65.37 65.53 65.60 65.37
61.08 60.97 58.31 50.91 45.18 43.47 45.88 53.81 54.77 57.81 59.83 61.43 61.11 60.91 59.99 58.99 65.00 65.63 66.78 69.18 68.64 68.29 68.46 69.21 70.69 70.91 71.24 71.30 71.07 70.41 69.87 68.85 68.97 68.78 68.41 68.17 67.21 66.45 66.64 67.59 66.88 66.87 65.31 64.71 64.60 64.40 63.93 63.48 63.19
58.90 57.42 49.22 47.23 46.46 44.38 46.03 54.93 57.58 58.27 60.02 59.87 58.26 61.10 58.86 59.44 65.40 66.35 69.36 69.92 69.13 67.62 68.71 69.83 70.20 70.33 70.58 70.97 70.67 70.00 69.35 68.76 68.43 67.95 67.16 66.39 66.16 66.58 66.59 67.18 66.89 66.95 65.67 65.29 64.97 64.32 63.60 63.32 64.23
55.23 53.03 50.10 46.14 45.27 48.67 50.83 55.06 54.39 57.85 60.31 60.79 60.00 55.82 58.98 63.43 64.54 68.46 70.13 70.04 68.69 67.75 68.96 69.05 68.76 69.27 70.11 70.73 70.42 69.89 69.01 68.14 67.74 67.47 67.27 66.11 66.56 66.72 66.93 67.21 67.05 66.08 65.83 65.59 65.43 65.08 64.60 65.45 64.89
55.70 51.09 44.92 45.13 46.14 49.36 52.26 58.51 58.26 56.34 55.72 56.79 56.11 55.17 55.71 61.94 67.04 69.35 69.39 69.96 67.93 67.61 68.25 68.42 67.61 68.46 69.99 70.22 69.97 69.38 68.54 67.80 67.37 67.12 66.83 66.76 66.09 66.31 66.46 66.76 66.64 65.87 65.42 65.42 65.18 65.05 64.84 65.26 65.08
49.68 49.75 44.06 43.53 46.34 50.45 52.46 57.77 58.60 56.53 55.17 55.76 56.24 56.72 58.24 63.49 64.63 68.18 69.23 68.09 68.19 67.41 67.46 67.68 68.27 68.65 69.04 69.36 68.89 68.57 68.10 67.58 66.90 66.62 66.60 66.30 66.14 66.51 66.53 66.47 66.43 66.26 65.84 65.35 64.98 64.78 64.59 64.40 64.25
48.71 46.68 44.16 45.65 46.72 49.85 53.45 59.55 55.83 54.12 55.51 56.23 59.37 55.88 62.16 62.97 65.31 68.13 67.18 67.80 67.21 67.30 66.70 66.81 67.42 68.53 67.81 67.38 67.41 67.34 67.43 67.15 66.71 66.57 66.36 66.32 66.10 65.91 66.22 66.31 66.08 65.78 65.78 65.52 65.11 64.69 63.76 63.64 63.63
49.83 48.83 45.54 46.74 45.47 49.82 55.92 58.73 56.79 54.40 55.01 59.69 59.90 53.04 57.57 64.22 67.44 67.18 64.75 63.67 63.71 64.27 65.93 66.71 67.16 67.81 66.70 66.00 66.56 66.48 66.55 66.07 65.63 65.68 65.39 64.85 65.01 65.40 65.85 65.72 65.49 65.10 64.65 64.46 64.33 64.09 63.17 63.59 62.70
52.66 45.64 44.28 45.81 46.77 52.35 54.63 51.44 57.78 60.46 56.52 58.12 57.51 59.12 61.56 67.19 67.23 63.80 62.30 63.46 62.28 63.63 64.83 66.11 66.28 66.98 65.89 65.59 66.09 66.34 66.67 65.73 64.87 64.76 64.99 63.70 63.55 63.53 64.63 64.43 64.55 63.80 63.64 64.10 63.91 63.18 62.30 63.57 63.25
49.20 45.74 46.02 52.43 55.15 50.72 51.99 51.52 53.14 56.24 56.10 55.80 59.37 64.56 66.53 66.49 65.44 60.30 59.06 59.84 59.19 60.41 64.04 65.60 66.45 66.88 65.69 63.79 64.12 64.09 64.25 63.29 63.41 63.47 63.29 64.26 65.73 64.34 64.42 63.92 63.78 62.72 62.55 63.25 63.09 62.52 62.90 62.63 58.67
49.77 45.92 49.91 53.83 55.16 54.85 51.84 51.91 56.90 52.98 51.40 53.56 53.56 61.32 64.28 64.03 63.89 63.44 61.56 62.18 61.03 63.50 64.69 65.76 65.32 65.89 63.85 63.53 63.44 63.45 63.91 65.24 65.30 65.99 66.32 66.11 66.60 65.49 63.80 63.79 61.17 60.75 61.76 62.12 60.26 61.22 59.91 59.40 58.49
47.61 49.73 50.73 52.67 56.42 55.62 53.31 55.56 52.28 52.78 53.47 55.51 55.30 57.46 64.29 63.26 63.23 63.55 63.61 63.99 64.35 64.60 64.91 65.89 65.39 65.11 63.63 63.57 62.62 62.73 65.10 64.99 66.32 66.24 66.33 65.60 64.94 64.60 63.65 62.03 62.13 61.76 61.01 60.49 60.38 60.03 59.74 58.91 58.15
48.53 50.14 51.71 52.95 55.64 54.93 55.27 53.40 52.57 53.07 55.89 57.51 57.84 61.13 63.44 63.13 64.06 64.89 65.15 65.14 64.55 63.49 64.72 64.02 64.42 63.95 63.60 64.25 65.04 65.42 65.66 66.09 66.52 65.99 65.25 65.64 64.07 63.46 63.35 61.88 59.79 59.38 59.82 59.70 58.70 57.82 57.15 55.69 55.16
50.11 51.06 51.24 51.20 54.21 54.44 53.43 53.15 53.87 53.65 56.91 56.38 62.12 61.29 61.47 61.47 61.43 62.36 63.79 62.81 62.88 62.98 63.31 63.52 63.44 64.13 64.45 65.41 65.31 64.46 64.18 63.89 63.46 63.18 64.25 64.67 63.30 62.65 61.43 59.88 59.15 59.49 57.52 56.87 55.98 54.77 54.21 54.42 54.99
51.60 48.23 49.84 49.24 52.72 52.98 53.54 50.28 50.26 57.61 59.43 59.55 59.41 59.70 59.30 60.21 60.69 60.64 62.14 62.11 62.82 62.65 62.96 62.69 62.55 64.00 64.92 64.39 63.56 62.83 61.97 61.89 61.88 62.49 63.15 62.80 61.26 60.29 59.41 58.59 56.48 55.87 56.26 54.82 54.51 54.45 54.32 53.54 54.00
48.56 48.35 43.53 48.75 51.65 52.91 52.73 45.61 51.31 57.48 57.23 56.58 57.66 58.02 58.30 58.58 59.29 61.15 62.48 62.38 63.01 62.79 62.63 62.86 63.85 64.56 63.89 62.39 61.90 60.37 60.99 61.89 61.10 60.71 59.03 58.45 58.63 58.97 56.34 56.35 55.88 55.72 55.71 54.74 53.59 53.59 52.50 51.89 51.65
46.95 41.92 44.11 45.70 50.53 51.85 50.19 45.55 51.13 55.52 56.44 55.99 57.37 57.61 58.33 58.52 58.86 59.85 61.00 61.31 62.79 63.28 63.39 63.93 64.76 63.37 62.20 61.94 62.28 62.03 62.19 59.59 58.72 58.29 57.51 57.41 57.44 57.74 56.88 56.39 55.82 55.35 54.39 54.00 53.98 52.31 51.22 49.07 48.14
41.53 42.54 44.39 43.67 46.97 48.84 49.05 47.83 50.34 53.40 55.63 55.99 56.83 57.87 58.77 58.06 58.65 59.99 60.41 61.39 62.80 64.45 64.08 63.87 64.56 63.43 62.61 62.23 61.93 61.41 60.06 59.05 58.67 58.20 57.30 57.71 57.53 57.65 56.88 55.27 54.33 54.43 53.53 52.18 51.55 50.54 49.66 47.34 45.97
46.14 44.80 43.93 45.64 48.61 47.58 47.99 47.57 48.66 51.75 53.46 55.93 56.42 57.27 57.65 58.00 60.91 61.78 62.02 62.64 63.88 64.75 63.69 63.49 62.83 62.59 62.19 61.47 60.52 59.41 57.94 58.11 58.32 58.25 58.18 57.58 56.69 56.12 55.46 54.66 53.96 53.28 51.13 50.17 48.99 47.38 46.43 45.47 45.94
46.95 44.80 44.41 46.51 48.55 47.69 46.24 46.16 49.10 51.25 52.46 54.95 56.06 56.93 58.11 58.85 60.46 61.28 62.17 63.50 64.32 63.73 63.32 62.43 62.15 62.11 62.82 62.71 61.65 60.91 59.17 58.56 58.23 57.08 56.58 56.38 55.74 54.93 54.84 52.98 51.73 50.52 48.77 47.99 48.00 46.77 44.98 44.48 44.72
45.81 44.82 45.12 44.50 46.27 46.36 46.57 43.78 47.53 51.19 53.25 54.13 55.79 57.23 58.39 59.00 59.84 60.57 61.51 62.84 62.91 63.12 63.20 62.32 62.33 62.68 63.08 63.11 62.07 60.67 59.65 57.05 55.46 55.26 54.82 54.51 54.88 53.92 52.67 51.56 50.15 49.27 48.65 47.12 47.11 45.96 44.68 41.43 42.34
43.51 48.98 47.49 46.29 44.70 39.89 47.59 38.23 44.49 48.95 50.81 53.22 54.78 55.69 57.19 58.67 60.93 60.82 61.59 61.79 61.73 62.54 63.45 63.46 63.22 63.32 63.37 62.45 60.00 58.37 56.39 54.07 55.36 55.55 54.46 53.81 54.23 52.66 51.58 50.81 49.96 49.52 48.59 47.28 46.66 46.54 43.96 42.76 40.35
45.26 49.19 48.26 46.94 44.88 44.06 43.77 39.67 44.28 48.53 47.22 51.37 54.72 56.84 57.98 59.29 60.27 60.45 61.26 60.75 60.73 62.38 62.86 63.62 63.54 62.64 60.83 60.16 59.44 58.04 55.24 55.46 54.52 53.11 51.89 51.44 52.26 52.15 51.05 50.25 48.44 47.16 46.92 46.75 46.52 45.58 43.74 43.04 40.88
51.09 48.63 48.45 47.50 45.43 36.93 42.02 40.61 42.09 45.01 47.44 51.10 53.92 56.19 57.88 59.20 59.64 60.78 61.34 61.27 60.80 62.43 62.99 62.32 61.76 59.28 59.44 58.54 58.45 57.02 54.51 52.28 50.62 49.95 49.40 50.11 49.25 48.70 48.27 47.56 45.74 45.68 45.12 44.73 44.75 45.22 45.39 41.85 41.31
48.28 45.64 39.48 35.34 36.24 36.59 45.25 42.25 45.04 48.46 50.95 49.61 52.88 55.38 57.55 58.59 59.48 59.79 59.97 60.02 60.35 60.45 60.38 59.43 58.24 57.02 57.67 56.72 54.84 52.96 51.43 50.74 49.69 49.41 48.69 46.32 45.87 45.30 45.30 44.94 44.35 43.71 44.16 44.58 44.71 44.21 42.83 42.09 40.79
46.84 45.11 39.54 30.86 30.88 37.96 44.79 39.88 44.16 50.83 52.69 55.74 56.80 57.51 58.30 58.21 58.29 58.33 58.79 59.13 59.62 58.39 58.05 57.63 56.66 55.86 55.63 54.12 52.41 51.88 51.37 49.34 48.79 48.67 46.63 46.29 45.14 44.18 44.66 44.05 43.98 43.80 43.80 43.48 43.57 43.41 42.84 42.40 40.88
46.41 43.08 47.44 41.87 42.70 39.55 40.65 43.18 48.77 50.89 50.78 53.68 55.61 56.33 56.81 56.63 56.14 56.31 56.82 57.52 57.65 57.06 56.84 56.54 55.73 55.35 54.15 52.16 51.32 50.55 49.03 47.85 47.17 46.70 47.52 47.02 44.97 45.05 44.70 43.80 43.31 43.26 42.88 42.87 42.59 41.80 42.02 41.68 40.92
47.41 48.77 42.26 43.25 33.80 32.23 38.36 40.50 41.94 47.10 48.01 51.26 54.06 54.90 56.45 56.57 55.58 55.51 55.54 56.31 56.55 56.87 56.64 56.90 56.44 54.68 52.23 51.84 50.83 49.27 48.18 48.25 46.81 46.97 47.18 45.09 44.46 44.63 43.79 43.44 42.76 42.44 42.51 42.13 41.22 41.06 41.07 40.35 40.06
46.08 44.24 44.65 43.62 43.43 36.53 34.49 38.66 47.40 47.24 49.33 50.31 53.57 55.47 56.14 56.31 55.77 55.45 55.53 56.11 56.59 56.61 56.26 56.20 55.70 53.00 51.05 49.81 49.28 47.74 47.10 47.62 46.87 46.90 45.94 45.03 44.86 43.96 43.87 43.38 42.28 41.69 41.38 41.32 40.14 39.38 38.96 38.69 38.41
48.40 46.58 45.78 41.58 38.21 42.02 40.76 39.17 49.46 49.51 50.25 51.95 52.35 55.04 56.35 56.89 56.47 56.12 55.74 56.14 55.95 55.76 55.71 55.32 54.38 51.79 50.17 49.59 47.71 47.00 47.27 46.71 46.40 46.45 45.83 45.16 44.22 44.61 43.92 43.19 41.85 41.95 41.35 40.60 39.07 38.50 38.39 38.40 37.73

GFSSGP_sfc_wetblb_036.txt.gz
Wetbulb
57.62 55.63 51.72 50.61 39.48 35.92 33.24 38.21 44.38 51.01 52.97 56.19 58.57 58.97 57.92 59.82 57.48 50.12 64.72 67.51 69.31 70.13 70.59 70.37 70.67 71.18 71.45 71.06 70.59 70.11 69.66 68.51 68.12 67.80 67.90 68.14 68.02 68.14 67.61 67.32 66.99 66.71 65.37 65.19 65.29 65.08 65.10 65.20 65.27
54.36 53.74 51.08 44.27 34.38 30.21 33.96 42.62 49.66 53.02 56.70 59.31 58.70 59.50 58.36 58.13 63.48 62.60 63.68 68.75 69.35 69.98 69.87 69.74 70.59 70.79 71.13 70.47 69.93 69.42 68.75 67.92 68.17 67.90 67.56 67.63 67.85 67.32 67.63 67.08 66.61 66.88 65.91 65.55 65.37 65.13 64.75 64.90 65.70
54.29 55.59 45.61 39.27 31.28 31.81 33.80 50.13 52.03 55.12 56.04 55.16 53.88 55.25 57.14 60.06 63.81 63.46 65.37 68.12 68.74 68.68 69.06 69.86 70.14 70.21 70.25 69.75 69.32 68.89 68.85 68.25 68.16 68.11 67.58 67.36 67.14 66.61 66.84 67.31 66.86 67.02 65.87 65.34 65.10 64.73 64.55 65.27 65.41
50.36 45.45 42.00 35.71 33.79 37.47 40.45 48.58 52.69 53.42 55.59 57.36 54.18 50.87 57.02 59.56 64.24 65.11 65.15 66.87 67.13 68.02 68.62 68.94 68.93 69.40 69.66 69.66 69.20 68.65 67.99 67.54 67.87 67.98 68.12 67.71 66.63 66.61 66.79 67.25 66.96 66.52 65.67 65.26 64.83 64.58 64.77 65.07 64.56
48.98 41.14 35.27 33.30 36.10 42.95 48.61 49.17 53.83 52.34 53.73 55.05 54.68 51.24 53.71 63.41 65.26 65.30 65.38 66.74 66.97 67.24 67.63 67.71 67.86 68.66 69.01 69.13 68.84 68.11 67.53 67.49 67.87 67.80 67.83 67.50 66.81 66.16 66.43 66.84 66.71 66.25 65.03 64.68 64.13 64.34 65.03 64.78 64.14
43.11 40.41 33.08 32.79 38.25 43.03 52.81 53.93 53.40 53.17 53.85 54.78 53.44 54.28 54.75 65.22 63.85 65.71 67.20 66.70 67.11 66.26 66.82 67.11 67.88 67.82 67.75 68.15 67.74 67.05 67.12 67.41 67.45 67.42 67.46 67.33 67.08 66.70 66.62 66.73 66.59 66.27 65.88 65.33 64.74 64.14 64.29 64.55 64.16
41.72 39.51 34.38 37.54 39.77 42.21 51.99 55.01 53.09 54.02 53.56 51.88 54.52 52.99 57.36 60.87 65.38 65.53 64.99 65.64 65.80 66.49 65.93 65.89 65.29 66.17 66.93 66.44 66.30 66.05 66.41 66.65 66.91 66.70 66.58 66.23 66.13 66.11 66.53 66.53 66.39 66.22 65.62 64.85 64.14 63.22 62.75 63.13 63.31
43.79 39.49 34.18 36.89 39.43 41.58 52.19 54.04 55.26 54.32 53.06 56.39 57.60 52.20 53.99 60.25 63.30 63.59 63.47 63.43 63.67 62.09 61.70 62.53 64.85 64.16 65.24 64.96 65.69 65.55 65.65 65.83 65.88 65.71 65.41 65.00 65.47 65.81 65.78 65.59 65.55 65.19 64.93 64.22 63.55 62.66 62.40 63.19 62.31
44.15 38.67 34.79 37.83 41.29 46.34 51.54 51.54 55.97 57.51 55.08 54.70 57.99 58.43 60.31 62.21 62.41 61.16 60.40 60.90 62.17 62.76 60.83 61.61 63.77 64.83 64.50 63.87 64.68 65.20 65.47 65.22 65.04 64.90 64.56 63.24 62.15 62.53 62.98 63.17 64.08 64.18 63.58 63.01 62.71 62.26 62.17 61.60 62.51
41.94 36.66 39.22 42.28 47.15 49.49 50.12 50.90 53.57 52.90 53.28 54.60 56.31 59.47 60.36 60.60 60.47 59.01 58.47 58.75 59.77 60.18 61.93 61.51 63.21 63.41 63.45 63.85 62.36 60.96 61.71 60.93 61.13 61.13 61.26 60.67 60.72 61.32 62.13 62.48 63.12 62.53 62.72 62.40 62.06 62.09 60.95 58.39 54.29
42.45 39.74 43.20 46.39 50.74 52.10 48.11 49.19 53.52 52.05 49.95 52.18 54.22 56.89 58.61 58.74 58.95 58.80 58.44 58.83 58.23 59.70 60.67 61.25 63.49 63.10 61.69 61.45 60.63 59.98 59.48 59.34 59.76 60.26 60.16 60.59 61.67 61.48 60.47 61.01 59.06 57.19 60.39 58.42 58.31 55.68 54.30 53.27 52.48
41.22 44.91 45.62 50.68 52.22 50.98 49.45 50.89 51.28 51.42 51.55 57.11 58.10 57.95 57.67 57.34 56.98 57.42 58.98 57.66 57.03 57.01 59.35 61.54 62.18 62.63 59.85 60.24 60.07 59.41 59.42 60.09 61.47 62.63 62.71 62.00 60.88 60.35 58.88 58.67 57.37 56.55 55.94 54.20 53.47 52.46 52.02 51.67 52.19
42.12 45.17 49.13 52.36 52.22 52.84 54.36 51.19 49.66 49.84 53.52 57.28 58.36 57.86 57.19 57.18 57.27 58.10 59.40 59.27 58.67 58.51 60.04 60.71 62.05 62.52 59.76 59.42 59.13 60.10 61.49 62.56 62.03 61.84 61.95 61.40 59.04 57.35 56.80 55.88 54.81 53.79 53.42 51.94 51.32 50.97 51.33 51.20 51.11
46.84 47.45 49.75 51.07 50.97 52.64 51.64 50.73 49.14 50.82 53.72 55.40 58.42 57.38 57.15 58.04 58.83 58.80 58.63 58.73 59.16 59.96 60.67 61.23 63.02 60.44 59.80 61.28 61.30 61.91 61.44 60.88 60.63 61.09 60.77 60.59 58.50 56.47 55.35 53.49 52.49 51.88 51.49 51.54 51.04 50.25 49.77 49.18 49.14
48.68 43.60 50.00 48.99 49.39 49.48 51.46 45.99 47.04 52.25 54.24 54.89 56.48 57.89 57.76 57.81 59.32 58.72 58.98 59.09 60.22 60.88 61.74 61.71 61.47 60.45 61.81 61.06 60.06 59.54 59.17 59.23 59.73 59.58 58.28 58.18 56.82 55.58 53.45 52.03 51.37 51.52 51.49 50.37 50.27 49.48 48.55 46.85 46.93
44.48 42.59 39.67 48.34 48.62 49.73 45.99 40.92 48.69 52.01 53.88 53.74 55.06 56.68 58.23 58.59 59.36 60.06 60.48 60.69 61.79 62.25 61.36 60.22 62.26 61.18 59.47 59.05 58.45 57.94 58.08 58.63 57.72 55.95 55.65 55.81 55.51 54.05 52.76 51.60 51.24 51.62 50.91 50.28 48.90 47.96 46.59 44.45 43.79
39.94 34.82 37.80 42.44 48.70 48.23 45.55 41.13 47.75 52.36 54.03 54.26 54.87 54.21 56.94 58.74 60.09 60.84 61.45 62.22 62.29 61.41 59.71 59.90 60.53 59.14 58.33 57.36 58.39 57.85 57.43 56.81 55.57 54.25 53.84 54.53 54.51 53.88 52.33 50.82 50.61 50.45 48.89 47.91 48.28 46.65 45.32 42.79 42.41
36.24 37.35 37.34 39.16 44.50 47.39 43.22 42.53 44.82 51.46 53.36 55.33 51.21 49.83 53.87 57.78 59.00 60.75 61.53 61.43 61.17 59.83 58.68 60.68 59.55 58.45 58.03 58.17 57.99 55.97 55.14 54.58 54.52 52.71 52.99 53.74 53.94 53.84 51.43 50.51 49.23 48.20 46.04 44.80 43.96 43.66 43.30 42.52 41.52
43.11 41.71 39.92 40.77 44.63 46.10 44.96 42.96 43.64 49.84 51.73 50.82 48.76 49.32 52.80 56.45 58.39 59.34 59.35 59.96 59.54 58.24 59.03 60.11 58.34 58.21 57.74 57.71 56.31 53.97 53.12 53.58 53.79 52.99 53.89 53.58 52.62 52.48 49.99 47.72 46.61 45.98 44.83 44.52 44.35 42.72 41.75 41.20 40.03
43.90 40.93 39.78 42.32 44.68 45.51 43.27 42.03 42.40 47.62 50.46 51.96 49.82 50.12 51.11 51.77 53.98 56.60 57.63 57.97 57.68 57.49 59.60 59.51 58.82 58.23 57.74 58.14 56.79 55.49 53.96 53.58 53.08 52.74 52.87 51.58 51.03 50.16 48.93 46.83 45.66 45.19 44.55 43.86 43.08 42.00 40.86 40.13 39.29
41.85 40.90 39.80 41.11 42.67 40.16 40.70 38.29 40.72 44.36 49.06 51.84 52.20 53.20 53.02 52.59 53.17 53.75 56.67 56.97 57.12 58.75 59.58 59.52 59.13 58.41 58.50 58.52 57.74 55.27 53.81 51.49 50.09 49.60 49.11 49.60 50.42 50.10 48.50 46.77 45.84 44.94 44.59 43.16 42.10 41.25 39.91 38.15 38.39
39.30 45.40 43.92 43.17 38.17 33.30 39.10 31.62 39.35 43.90 45.53 49.69 51.54 52.55 52.67 53.00 54.30 55.95 56.92 56.84 57.42 58.63 60.26 60.09 59.45 58.87 59.11 59.02 57.26 54.70 53.66 50.58 49.46 49.19 48.53 48.41 49.12 48.29 47.12 46.48 45.63 44.47 43.11 41.93 42.10 42.83 40.51 38.43 36.96
42.79 46.13 44.08 44.35 38.93 37.12 37.92 33.63 37.56 42.71 42.67 45.60 47.99 50.59 52.58 53.96 54.86 56.88 57.40 58.17 58.45 58.60 58.71 59.34 59.59 58.72 59.16 59.18 57.36 54.21 50.65 50.16 49.53 48.92 48.02 47.66 46.58 45.67 44.94 43.42 41.88 41.41 41.05 40.55 40.17 40.45 38.88 39.14 37.79
47.51 44.36 43.39 42.10 39.47 32.18 37.77 34.87 34.94 39.94 43.96 44.98 48.53 49.18 51.65 53.42 54.38 56.91 58.96 58.78 58.53 59.01 59.06 59.10 58.76 58.99 59.00 59.03 56.44 53.46 50.77 48.75 49.55 47.40 46.72 45.86 43.02 42.94 42.84 41.84 41.53 40.84 41.03 40.61 40.46 39.61 39.57 38.46 37.97
45.55 39.26 30.52 29.31 28.76 28.87 41.09 36.50 37.98 43.44 46.71 46.98 47.86 48.24 50.02 55.01 54.27 56.83 57.76 58.38 58.48 58.23 58.35 58.63 58.98 58.77 58.59 56.10 54.35 51.58 49.45 48.61 49.15 46.88 44.03 42.47 42.23 42.44 41.86 42.29 41.51 42.04 40.94 39.28 38.96 37.93 37.48 37.90 37.29
41.81 39.40 31.21 26.91 26.48 29.93 40.41 34.85 39.55 46.16 48.04 49.29 48.92 48.44 52.01 53.19 55.71 56.28 57.42 57.80 58.36 58.24 57.97 58.58 58.50 54.80 51.46 49.30 48.79 46.90 47.79 47.59 45.43 45.71 44.84 44.38 42.92 42.30 42.67 42.39 42.03 40.77 40.11 39.16 38.00 37.32 38.36 37.33 36.72
42.37 38.11 42.31 35.13 32.59 28.63 34.59 38.35 43.18 46.15 45.78 47.31 47.53 48.79 50.13 51.51 54.71 55.83 56.58 56.77 57.52 57.17 57.44 56.51 53.08 50.47 47.72 45.78 45.52 46.78 45.98 45.98 45.53 46.29 46.53 44.63 42.76 43.26 42.42 41.78 39.99 41.02 39.78 38.57 37.34 37.54 37.17 36.17 36.17
43.31 44.58 36.68 34.92 27.82 26.91 31.86 33.27 35.23 42.77 45.55 46.27 45.76 47.21 49.79 51.34 54.53 55.30 55.90 55.71 55.85 55.95 54.41 51.99 51.40 49.68 46.94 45.53 45.22 44.51 45.32 46.14 45.62 44.89 44.53 43.12 43.12 43.04 42.07 41.66 40.99 40.39 38.94 38.29 37.23 37.14 36.45 36.02 35.47
40.37 38.45 39.04 37.88 33.18 27.71 25.72 31.53 39.51 43.43 46.76 46.11 46.77 48.61 50.36 51.19 53.36 55.15 55.94 55.99 55.31 54.04 52.12 50.40 50.52 48.59 45.82 45.35 43.82 43.37 43.40 44.13 44.29 44.27 44.15 43.35 43.24 42.82 42.48 42.25 39.65 39.49 38.42 37.85 36.81 36.00 35.74 35.34 34.82
42.63 41.06 40.17 29.75 31.22 31.91 27.92 31.32 42.71 43.18 45.39 48.17 49.03 50.92 51.17 52.21 52.69 54.17 54.85 55.37 54.06 53.33 52.51 50.54 50.46 48.80 46.72 45.51 43.96 42.59 43.03 45.26 44.96 44.11 44.01 43.77 43.66 43.81 41.59 41.12 39.13 38.51 37.64 37.05 36.03 35.89 35.97 35.08 34.86

GFSSGP_sfc_wetblb_039.txt.gz
Wetbulb
56.44 54.07 50.08 48.91 38.38 34.55 31.43 36.97 40.24 46.27 52.02 55.74 57.80 57.00 56.70 58.74 55.53 49.11 64.27 66.80 69.64 69.26 70.29 69.93 70.48 71.05 70.91 70.30 70.01 69.50 68.53 67.11 66.77 66.90 67.68 68.23 67.44 67.68 67.75 67.09 66.90 67.14 66.62 65.84 65.97 65.86 66.21 67.22 67.63
52.65 52.16 48.88 40.86 33.11 28.92 32.75 38.65 44.31 48.88 56.16 59.67 58.98 58.68 57.68 57.60 62.74 62.50 63.71 68.31 70.00 69.60 69.49 69.24 70.37 70.50 70.43 69.85 69.46 68.64 68.02 67.01 67.61 67.05 67.27 67.68 66.73 67.10 67.19 67.24 66.78 67.26 67.23 65.71 65.78 65.56 65.64 66.06 67.29
52.43 52.48 45.40 36.92 29.64 30.86 32.83 41.55 50.60 53.05 55.32 54.43 52.40 55.62 57.30 59.56 62.26 62.83 65.89 68.91 69.75 69.06 69.19 69.57 69.87 69.65 69.77 69.37 68.69 68.32 68.10 68.08 68.11 67.97 67.21 67.19 66.42 66.65 66.83 67.27 66.98 67.12 67.14 66.18 65.62 65.29 65.25 65.40 65.58
48.86 45.30 40.69 33.87 32.42 35.49 38.64 41.51 48.60 51.69 54.77 56.24 53.88 50.55 56.54 63.13 63.07 64.49 67.97 68.68 68.62 68.48 68.88 68.68 68.89 68.88 69.11 68.96 68.75 68.29 67.88 67.75 67.78 67.67 67.78 67.41 66.47 66.41 66.86 67.16 66.81 66.90 66.42 65.43 65.05 64.52 65.10 64.65 64.94
46.31 39.96 34.68 31.14 35.05 39.03 48.90 51.92 48.87 50.87 52.89 53.79 53.62 50.75 54.62 62.92 64.08 65.73 66.42 67.76 67.23 67.79 68.54 68.61 67.94 68.55 69.08 68.92 68.59 67.86 67.90 67.68 67.64 67.69 67.53 67.43 67.36 66.40 66.95 66.84 66.70 66.47 66.01 65.73 65.47 65.46 64.71 63.83 64.32
41.26 38.92 33.41 30.79 35.57 40.34 50.66 52.22 52.89 52.66 53.23 53.72 53.49 53.49 57.73 64.34 63.79 64.78 66.36 66.27 66.78 66.58 67.05 67.21 68.12 67.96 67.91 67.96 67.42 67.29 67.65 67.63 67.56 67.44 67.40 67.36 67.03 66.75 66.70 66.65 66.34 65.89 65.38 65.26 65.26 64.87 64.33 63.47 62.84
40.08 37.28 35.27 34.83 37.49 39.06 50.57 53.42 52.06 52.59 52.40 52.60 54.93 51.89 58.77 62.51 63.16 64.08 63.80 61.60 61.41 63.12 65.36 65.28 65.89 67.30 66.86 66.39 66.35 66.55 67.25 67.35 67.14 66.99 66.81 66.60 66.35 66.00 66.17 66.14 66.01 65.54 64.99 64.40 64.02 63.76 64.00 63.40 62.46
42.94 39.38 35.29 36.00 35.85 37.61 51.58 53.40 54.13 53.35 52.52 56.75 57.26 52.76 54.75 61.34 62.83 62.34 61.25 60.92 60.34 60.72 62.07 61.82 62.68 63.17 64.04 63.99 65.56 66.00 66.22 66.51 66.52 66.41 65.70 65.33 65.61 65.62 65.67 65.49 65.54 65.20 64.96 64.04 63.64 63.73 63.95 63.08 62.34
42.63 38.30 34.79 37.23 36.92 43.66 50.81 49.74 54.00 56.91 54.38 56.62 58.44 57.77 60.50 62.37 62.50 61.15 60.16 60.09 59.48 60.31 60.07 61.51 62.56 61.63 62.94 63.61 64.42 65.35 66.19 65.80 65.35 65.19 64.84 63.00 61.87 61.73 61.21 63.37 63.92 64.05 63.78 63.34 63.65 62.99 61.54 61.32 61.35
41.06 37.16 38.23 41.47 44.20 48.60 50.15 50.26 52.34 52.38 53.93 54.65 57.48 60.09 61.33 61.17 60.29 59.41 58.39 58.48 57.92 58.32 59.10 60.51 61.37 61.10 63.23 63.69 62.02 61.13 62.80 61.75 61.51 60.98 60.46 60.26 60.02 60.49 61.30 62.36 62.23 62.37 62.37 62.47 62.56 61.39 59.96 56.24 52.67
40.70 40.01 41.88 43.40 49.18 50.34 47.93 47.36 52.37 50.49 48.75 54.29 55.44 56.92 58.95 59.19 59.01 58.82 59.28 59.19 58.72 58.31 58.79 59.33 60.51 62.70 62.14 61.22 60.36 59.54 59.31 59.47 59.88 60.25 59.51 59.78 60.47 60.65 59.48 59.25 56.81 56.23 59.53 55.91 54.46 52.97 52.22 51.51 50.90
40.40 44.19 43.88 48.60 50.76 49.91 48.33 50.64 49.18 49.98 50.76 57.21 57.85 58.23 57.82 57.76 58.06 57.96 57.60 57.17 59.09 58.18 58.05 59.45 62.95 62.37 60.49 60.24 59.34 58.97 58.19 58.86 59.41 59.34 59.56 59.68 60.08 59.23 58.62 57.18 56.36 54.87 53.53 52.17 51.29 51.02 51.18 50.60 50.43
40.90 43.21 48.33 51.57 51.07 51.24 52.57 50.00 49.09 49.29 56.63 58.17 57.73 57.70 57.22 56.36 57.05 58.65 58.33 57.56 57.43 58.37 59.66 60.59 61.91 61.70 59.55 58.78 58.53 58.45 59.03 61.09 61.99 61.88 61.95 60.49 59.23 56.10 56.30 54.59 53.54 52.41 51.69 50.73 50.16 50.41 50.21 49.40 48.21
45.55 45.61 48.34 49.67 49.63 50.22 49.99 49.46 49.92 50.62 56.49 55.97 56.16 55.88 56.06 55.89 56.77 57.72 58.57 56.24 56.53 57.74 59.04 60.72 60.95 61.87 59.12 58.33 58.47 60.03 61.51 61.09 60.37 59.87 59.63 59.03 56.92 55.36 53.32 51.88 51.11 50.47 50.55 50.32 49.94 48.83 47.17 46.02 45.49
47.21 43.99 47.64 48.18 48.76 48.69 50.39 45.40 45.20 52.18 56.40 54.89 55.32 55.72 55.42 56.33 57.43 56.95 58.24 56.56 57.20 58.20 59.83 59.70 60.94 59.50 58.84 59.41 60.20 60.20 60.26 59.68 59.25 59.30 58.97 57.47 56.01 54.14 51.90 50.81 50.46 50.18 50.07 49.73 48.59 47.19 45.58 44.43 44.69
43.16 41.53 39.52 46.38 48.41 48.45 46.30 39.63 47.76 52.01 53.19 54.18 55.52 55.82 55.74 57.02 57.91 57.85 58.33 58.18 58.71 59.36 59.99 60.63 62.25 59.30 59.62 59.07 58.81 58.21 57.86 58.04 57.80 56.70 56.42 55.81 54.99 53.17 51.37 50.95 50.87 50.16 49.68 48.53 47.19 46.25 43.97 42.83 42.50
38.97 33.37 36.67 41.82 47.87 46.64 44.29 42.39 47.99 51.57 53.39 53.03 54.16 55.66 55.65 55.90 57.84 58.35 58.69 58.69 59.66 59.78 60.65 59.34 59.88 59.12 57.94 57.06 57.20 57.04 57.38 56.44 55.42 54.81 54.33 54.03 53.64 52.98 50.82 50.39 49.57 48.58 47.31 46.62 47.02 44.64 43.16 41.21 41.16
34.61 35.59 35.45 37.20 43.46 44.89 43.07 42.04 47.14 50.41 53.05 53.06 53.23 54.46 55.97 56.20 57.40 58.94 59.55 59.86 60.46 60.19 58.66 59.63 59.03 57.60 57.06 57.34 56.24 55.62 56.28 55.34 53.93 52.77 53.24 53.89 53.09 52.22 50.72 49.24 47.59 45.91 44.58 43.69 43.27 41.85 41.56 41.22 40.29
40.83 39.27 37.28 39.06 43.62 44.86 43.35 41.46 46.85 49.39 51.29 52.10 51.60 50.70 54.42 56.83 59.04 60.01 59.92 60.59 60.66 57.87 57.87 58.67 57.70 57.20 57.51 56.97 55.28 53.40 52.99 52.88 52.36 52.07 53.01 53.21 52.69 51.25 48.81 47.17 45.67 44.89 44.32 42.89 42.68 41.76 40.79 39.40 38.68
41.79 40.22 39.33 42.68 44.63 43.95 41.21 41.23 41.91 48.14 51.77 52.85 51.64 48.85 52.61 56.43 57.56 59.01 59.46 60.06 59.33 57.07 58.19 58.11 57.99 56.99 57.29 57.44 54.86 54.32 53.21 53.03 52.50 52.05 52.31 51.42 51.44 49.25 47.43 45.72 44.62 44.39 43.57 42.85 41.90 41.14 40.16 39.94 38.74
40.22 38.99 38.89 40.19 42.43 38.71 39.75 38.39 39.88 44.08 49.41 51.95 51.86 50.71 52.56 55.60 55.87 57.36 58.45 57.75 58.26 56.39 57.37 58.39 58.05 57.28 57.36 57.09 55.86 53.49 52.04 50.76 50.01 49.99 49.17 49.35 49.87 48.88 47.19 45.54 44.52 43.59 43.31 42.11 41.25 40.48 40.19 38.05 38.29
37.77 43.21 42.02 40.50 38.19 32.31 37.93 30.44 38.21 41.25 45.76 48.65 50.79 49.47 50.67 54.03 55.73 56.42 56.90 56.70 57.08 56.84 58.02 58.73 58.28 57.36 57.53 57.83 55.91 52.86 51.31 50.63 49.41 49.26 48.33 48.40 49.28 48.01 46.50 45.29 44.41 43.21 42.24 40.85 41.47 41.19 39.07 38.17 37.17
40.68 44.44 42.57 41.84 38.37 35.60 35.54 32.29 35.13 40.36 40.68 46.06 48.84 49.67 50.62 52.16 54.06 54.37 56.17 56.58 57.02 57.00 57.94 58.41 58.36 58.08 58.13 57.97 57.01 53.64 51.12 49.76 49.04 48.17 47.64 46.35 45.48 45.44 45.02 43.17 41.59 41.88 41.21 41.86 40.63 38.78 38.46 38.32 36.85
45.96 42.52 41.04 39.83 37.83 30.46 36.18 33.89 33.85 38.25 42.68 43.39 48.86 50.69 51.51 51.43 51.77 53.99 56.08 56.48 56.01 57.29 57.94 58.14 58.21 58.09 57.98 57.85 56.90 53.79 51.49 49.35 48.83 46.88 45.67 44.60 42.46 41.94 41.91 41.54 42.19 42.06 41.94 41.62 38.69 38.28 38.62 38.30 37.32
42.51 37.86 30.05 28.82 28.10 28.32 38.17 34.69 37.07 42.30 43.60 44.93 45.47 47.65 50.97 51.59 51.76 54.83 55.45 56.07 56.75 56.82 57.64 58.46 58.35 57.89 57.87 57.47 56.42 53.16 51.91 49.96 50.29 47.97 46.47 42.11 40.60 40.60 40.76 41.34 42.11 42.15 40.94 40.27 39.84 37.63 37.45 38.63 37.48
39.65 38.05 29.85 25.92 25.47 28.76 38.06 32.98 38.32 44.14 45.98 46.24 46.11 47.47 47.57 51.14 53.32 55.86 56.41 56.65 56.95 57.17 57.97 58.12 58.23 58.06 57.08 56.32 55.10 52.15 50.65 49.86 49.82 47.72 45.23 44.26 43.07 42.42 42.56 42.30 42.01 42.15 41.29 40.61 39.77 38.78 38.87 37.14 36.32
40.86 37.06 40.53 33.36 31.26 27.68 32.26 36.92 41.38 44.43 45.08 45.56 45.11 48.90 48.90 50.85 53.32 55.58 57.14 57.33 57.09 57.51 58.30 57.75 57.80 57.28 54.09 52.34 49.26 47.47 46.67 45.92 48.24 47.29 46.20 44.19 43.42 42.89 42.15 42.34 41.58 41.44 41.08 40.33 39.28 38.97 36.60 36.64 36.24
42.42 43.49 34.33 33.50 27.33 26.13 29.95 31.27 33.69 40.97 43.32 45.06 44.99 46.58 48.90 50.89 52.91 54.34 56.00 56.50 57.60 57.30 57.47 57.24 56.66 54.46 49.55 46.95 47.38 46.67 47.76 47.52 48.00 46.75 44.76 43.66 43.08 43.17 42.86 41.71 41.39 41.08 40.58 39.81 37.73 36.61 36.74 36.55 36.02
39.08 37.02 36.94 36.40 31.46 26.63 24.66 30.49 37.63 41.35 43.38 45.24 44.00 45.81 48.43 50.56 53.07 54.65 55.54 56.18 56.82 57.00 56.58 56.28 53.04 49.93 46.46 45.52 45.77 45.32 46.30 45.75 45.75 45.25 44.12 43.25 43.63 42.70 41.79 41.93 41.24 40.82 39.51 36.90 36.02 36.47 36.17 36.28 35.21
41.17 39.08 37.93 29.51 30.23 30.23 27.51 30.23 40.61 41.12 43.12 45.39 46.63 47.25 48.64 50.47 53.67 54.81 55.52 55.60 55.76 55.56 55.25 55.05 52.98 50.04 48.02 46.01 44.57 44.28 44.90 45.04 44.17 44.33 43.56 43.00 41.55 40.85 42.40 42.96 41.48 39.66 38.35 36.71 35.90 35.46 35.76 34.95 33.43

GFSSGP_sfc_wetblb_042.txt.gz
Wetbulb
55.31 51.58 49.43 46.49 37.72 33.88 30.51 35.59 38.24 41.93 47.45 56.31 57.70 56.90 55.30 58.35 54.25 47.99 64.88 66.62 68.63 69.32 69.72 69.91 70.47 70.43 70.24 69.86 69.41 68.97 68.66 68.25 67.35 67.43 67.98 68.49 68.40 68.16 67.66 67.73 67.78 67.77 67.93 66.84 67.82 68.44 68.17 67.15 66.58
50.95 50.90 47.83 39.60 32.46 28.23 31.47 36.64 39.31 47.58 55.03 55.51 54.91 56.37 57.22 56.62 62.11 62.16 63.66 68.79 69.06 69.35 69.25 69.29 70.27 69.85 69.63 69.28 68.74 68.27 68.01 67.94 68.30 68.03 67.62 67.89 67.69 67.77 67.79 67.47 67.19 67.66 67.77 66.81 68.06 68.34 68.47 67.62 67.96
50.48 50.45 44.38 34.77 29.32 30.19 31.68 37.84 47.58 52.22 55.19 53.43 51.27 55.60 55.94 57.74 61.47 63.07 65.81 69.08 69.07 68.79 68.54 69.29 69.46 69.27 69.31 68.70 68.14 67.81 67.79 67.90 68.26 68.03 67.35 67.42 67.61 67.42 68.06 67.31 67.06 67.62 67.66 66.92 66.64 67.21 67.21 67.03 66.35
47.39 45.00 38.81 33.68 30.69 33.83 36.01 38.94 44.64 49.49 53.56 54.79 52.31 50.35 58.17 63.33 62.40 64.74 68.08 68.52 68.08 68.12 68.47 68.68 68.62 68.80 68.85 68.51 68.20 68.10 67.80 67.68 67.49 67.45 67.65 67.79 67.44 66.85 67.93 67.31 67.04 67.32 67.15 66.23 65.41 65.90 65.71 65.30 65.36
43.85 39.18 33.22 29.52 31.35 36.58 40.12 49.89 50.30 48.93 51.28 52.29 52.69 50.65 57.12 62.27 65.87 66.61 66.36 65.67 66.97 67.70 68.23 68.24 67.50 68.22 68.58 68.84 68.50 68.15 67.89 67.69 67.50 67.47 67.64 67.81 67.65 67.04 67.49 66.90 66.75 66.41 66.41 65.78 64.96 65.33 65.53 64.94 64.32
40.55 37.31 30.63 29.10 33.65 38.48 46.20 50.94 51.68 51.43 52.27 52.31 52.63 54.30 57.90 63.51 63.70 62.82 62.12 62.03 63.53 65.94 67.28 67.46 68.12 68.16 68.09 67.84 67.74 67.70 67.58 67.59 67.50 67.54 67.50 67.74 67.47 67.02 66.88 66.47 65.75 65.69 65.45 65.38 64.92 64.20 64.65 64.76 63.94
38.92 35.39 30.73 30.89 35.14 37.56 47.88 52.44 51.07 51.30 51.10 50.97 54.46 52.90 59.07 61.41 63.07 60.98 61.13 61.81 61.80 63.57 65.67 65.68 64.20 66.00 66.67 66.40 66.74 67.03 67.34 67.24 67.16 67.02 67.02 66.79 66.25 66.36 66.12 65.58 65.48 65.27 65.34 65.22 64.55 63.78 63.38 64.00 64.12
40.62 36.93 32.16 33.29 33.95 35.51 49.91 52.30 53.25 52.61 51.32 55.27 57.47 53.31 55.85 59.81 60.89 60.49 60.40 60.62 60.43 60.37 61.48 62.05 62.06 62.97 63.66 64.34 66.14 66.52 66.72 66.62 66.66 66.59 65.92 65.30 65.28 65.54 65.43 65.12 65.16 64.87 64.98 64.98 65.15 63.68 63.23 62.59 62.56
40.34 35.41 33.49 34.05 35.52 39.49 50.85 48.90 53.40 55.48 54.45 56.74 58.54 58.03 60.35 60.94 60.72 59.01 58.52 59.09 59.07 58.53 57.79 59.21 60.85 61.59 62.75 63.11 64.83 65.67 66.56 65.98 65.69 65.13 64.87 62.29 61.31 61.60 60.31 63.59 64.15 64.20 64.08 64.15 63.67 62.87 61.73 61.15 60.20
38.73 35.63 37.13 41.62 40.05 44.32 49.73 49.71 51.47 51.87 53.92 55.14 57.29 60.44 61.22 61.06 59.51 57.89 56.81 56.59 57.31 56.75 56.41 58.11 60.57 60.21 62.51 63.19 61.62 62.09 62.98 61.74 61.31 61.21 60.31 60.31 59.85 59.10 60.66 61.76 62.58 63.13 63.22 62.56 61.33 59.84 58.11 54.33 50.96
38.31 39.21 41.72 42.23 43.67 50.23 48.84 48.21 52.25 52.01 50.57 54.16 54.94 57.71 59.85 59.78 59.03 58.37 57.12 56.62 56.58 57.84 58.80 59.15 59.40 60.42 62.63 60.85 59.61 59.48 59.46 59.48 59.65 59.58 59.00 59.13 60.22 59.34 58.89 57.45 56.26 57.30 57.26 52.61 52.84 52.35 51.32 50.41 49.68
38.47 42.85 43.38 43.81 50.03 48.96 47.79 50.21 49.55 48.99 50.77 56.43 58.06 59.45 59.07 57.87 57.99 57.27 57.36 57.81 57.23 57.69 58.76 59.66 59.90 62.35 61.18 60.18 58.52 58.52 58.56 58.47 58.80 59.04 59.45 59.80 59.49 58.52 57.71 56.06 54.79 52.96 51.88 50.68 50.73 50.82 49.74 48.60 48.02
39.93 41.92 46.24 46.38 50.04 48.74 51.12 48.92 48.14 50.45 54.71 58.07 58.63 58.07 56.83 57.59 57.63 58.27 58.58 58.68 58.18 57.14 57.38 58.64 60.35 61.56 59.95 59.20 57.99 57.89 57.70 58.28 59.35 59.16 59.21 59.70 58.83 56.59 55.99 53.88 52.29 50.88 50.50 50.33 49.93 49.09 47.65 46.61 46.13
44.76 44.50 46.23 49.73 48.58 49.49 48.80 48.62 49.06 53.44 56.72 56.53 56.49 55.88 55.62 55.74 57.02 56.90 56.05 56.43 57.74 57.86 57.49 58.32 61.08 61.18 59.30 57.99 57.29 57.59 58.96 60.34 60.82 60.21 60.45 59.56 57.26 55.28 52.60 51.09 50.25 50.04 50.21 49.45 48.39 46.85 45.55 44.10 44.26
46.41 44.83 46.46 47.57 47.80 47.28 49.62 44.10 45.55 54.42 55.77 54.10 54.35 54.84 54.79 54.89 56.74 56.91 57.04 55.71 57.13 57.78 57.82 58.99 60.09 60.42 58.33 57.60 57.56 58.77 59.60 59.33 58.48 58.40 58.14 57.47 55.54 53.11 51.16 49.83 49.33 49.55 49.20 48.19 47.00 45.21 44.30 43.33 43.30
41.41 41.74 39.13 44.87 47.56 47.47 45.96 39.67 47.29 54.68 53.65 52.67 53.58 54.46 54.71 54.47 56.11 56.71 57.89 56.08 56.09 57.00 58.51 59.53 61.26 59.42 57.87 57.66 58.25 58.40 58.46 58.06 57.94 57.17 56.55 55.79 54.18 51.78 50.44 50.04 49.22 49.32 48.80 47.84 46.26 44.31 42.75 42.24 41.52
37.88 32.62 35.82 39.93 47.79 46.80 43.94 39.87 46.97 52.77 53.69 52.71 53.46 53.90 54.14 54.83 56.31 56.60 57.41 56.68 56.94 57.82 58.75 58.84 59.72 58.61 57.83 57.19 57.33 57.23 57.11 57.19 56.15 55.53 54.88 54.21 53.24 52.04 50.84 50.16 49.53 48.75 47.52 46.45 45.96 43.37 42.66 41.03 41.16
34.43 35.23 34.43 35.86 43.18 43.95 41.58 40.71 46.36 50.37 52.43 52.35 52.35 53.44 53.77 53.98 55.82 57.69 57.22 57.58 57.87 57.84 58.94 58.81 58.53 57.47 56.63 56.23 55.75 55.69 55.85 55.19 55.14 54.59 53.79 53.30 52.39 51.45 50.60 49.09 47.67 46.32 44.55 43.70 42.49 41.74 41.64 40.77 40.48
39.94 38.39 36.69 38.14 41.45 43.88 42.53 40.87 45.43 48.91 50.62 50.98 51.76 52.75 53.91 54.79 56.27 57.63 58.17 58.17 58.02 58.12 57.37 58.44 57.41 56.37 56.75 55.59 54.75 53.76 53.43 54.86 54.06 53.67 53.14 52.85 51.56 50.64 49.12 47.15 45.21 44.64 43.28 42.14 42.14 41.21 40.64 39.36 38.80
40.86 38.19 36.92 40.09 41.98 41.73 37.78 38.79 43.25 47.86 49.85 52.25 52.16 52.79 53.22 54.86 56.26 57.41 57.69 58.27 58.64 58.31 57.77 57.89 57.92 56.81 57.13 57.60 54.72 54.32 52.98 53.06 53.91 53.22 52.31 52.23 50.75 49.72 47.74 45.56 44.20 43.79 42.75 42.08 41.68 41.06 40.04 39.22 38.51
38.48 37.08 37.02 39.20 40.85 38.49 37.92 35.83 37.41 44.58 49.52 52.21 53.25 54.11 53.74 54.12 55.42 57.03 57.83 57.99 58.98 57.36 57.18 57.76 57.84 57.09 57.50 56.90 54.67 52.48 51.89 51.31 51.13 49.97 49.93 50.15 50.10 48.16 46.63 45.01 43.85 43.06 42.62 41.72 40.70 40.08 39.35 37.70 38.35
36.05 41.73 40.67 39.51 36.98 32.29 36.28 29.39 35.45 38.75 46.61 48.44 51.72 51.16 51.55 51.89 55.76 57.29 57.76 57.65 58.23 57.81 56.51 57.90 57.64 57.11 57.26 56.59 55.57 52.69 52.17 50.00 49.90 50.51 50.25 48.45 48.85 47.25 45.55 44.43 43.64 42.72 42.05 40.85 40.44 40.88 39.58 38.40 36.97
39.56 43.03 40.99 39.69 36.28 34.81 34.63 32.16 35.10 38.01 38.53 46.02 49.65 51.08 51.92 51.93 55.17 56.04 57.24 58.27 57.92 56.53 55.58 56.57 57.01 56.99 57.35 57.13 56.04 53.42 51.04 50.50 49.13 48.51 48.16 46.90 46.56 45.63 44.91 43.91 41.17 40.37 40.12 39.55 39.76 39.49 39.86 38.58 37.53
44.04 41.13 39.47 38.00 35.70 29.77 34.36 32.11 33.42 36.48 40.68 42.08 48.37 51.20 52.31 51.10 53.52 55.68 56.53 56.51 55.61 54.98 55.97 56.69 56.89 56.79 57.53 57.17 55.88 53.61 51.83 49.95 49.86 47.99 47.21 45.08 43.48 42.57 42.08 41.47 40.51 39.93 40.26 40.58 40.14 41.01 39.64 38.08 38.01
40.57 36.83 29.25 28.39 28.01 28.46 36.46 33.28 35.88 40.90 41.65 43.84 44.30 47.87 50.46 51.83 49.97 51.75 52.73 53.98 54.29 55.14 56.63 56.83 57.25 57.01 57.60 57.01 56.55 54.20 52.59 52.72 51.35 49.74 47.79 45.05 40.64 40.04 39.89 40.38 39.49 39.72 40.48 41.25 40.95 39.61 39.23 37.39 37.10
38.48 37.42 29.61 25.58 25.07 28.43 36.01 31.71 37.09 42.10 44.48 45.79 44.33 44.67 47.55 48.81 49.52 51.71 52.95 54.37 54.59 55.69 56.67 57.31 57.70 57.24 57.21 56.43 56.43 55.18 54.53 53.65 52.55 51.28 48.74 45.89 42.49 40.80 40.63 41.42 42.14 41.24 42.21 41.88 40.36 39.23 39.55 38.38 36.89
38.83 35.12 38.51 31.98 31.01 27.01 31.08 35.44 39.53 41.21 43.81 45.10 43.80 45.40 44.73 47.30 48.96 51.96 53.32 54.63 54.96 55.88 56.61 57.49 57.65 57.78 57.19 56.79 56.81 56.45 54.51 52.85 52.30 50.59 48.14 44.26 42.72 42.83 42.30 42.69 42.82 43.10 41.74 40.98 39.94 39.62 39.31 37.86 36.21
40.24 42.11 33.48 32.30 26.81 25.62 28.74 29.48 32.20 38.49 40.32 43.09 44.41 44.84 45.97 47.33 50.00 52.89 54.23 54.84 55.72 56.25 56.70 57.17 57.49 57.64 57.24 55.59 54.90 53.70 51.25 51.62 50.65 49.04 46.07 43.81 44.37 43.27 41.93 42.29 43.50 41.63 41.04 40.56 39.35 38.50 37.72 35.87 36.43
37.75 35.66 35.16 34.82 30.52 26.34 23.63 29.25 37.14 38.62 40.79 40.80 43.27 44.96 46.41 48.79 50.71 52.86 54.72 55.92 56.35 56.45 56.59 56.51 56.55 56.57 53.71 52.89 50.32 49.55 48.32 48.44 49.18 47.77 47.54 45.82 43.84 41.98 41.09 41.43 41.29 40.74 40.22 39.27 38.40 37.58 36.55 36.41 35.59
39.11 38.27 36.37 29.06 29.09 29.20 26.70 29.38 39.36 39.23 40.27 41.23 43.87 45.58 45.65 49.53 51.16 52.16 53.53 54.63 56.07 56.41 56.27 56.19 56.29 55.52 53.44 49.37 46.89 48.32 48.91 48.56 47.31 46.25 44.41 42.20 40.90 41.62 41.58 41.40 40.75 40.55 39.48 39.19 36.98 35.82 37.42 35.43 33.99

GFSSGP_sfc_wetblb_045.txt.gz
Wetbulb
59.74 55.36 55.91 52.05 44.98 43.38 40.16 41.72 44.41 45.54 49.48 59.73 60.61 58.59 57.67 59.10 55.83 53.63 66.39 67.92 69.82 69.32 70.01 70.42 70.11 70.47 70.48 70.09 69.65 69.26 69.25 68.91 68.43 68.69 69.12 69.10 68.81 68.62 68.89 68.34 68.41 68.81 68.60 68.60 68.25 68.63 69.30 68.86 66.95
55.74 54.38 53.63 47.58 42.04 38.24 40.04 42.44 45.16 51.95 56.48 57.52 57.03 59.87 58.51 56.51 61.67 62.44 64.41 68.85 70.16 69.22 69.81 69.97 69.65 69.81 69.86 69.41 69.13 68.75 68.77 68.55 68.69 68.95 69.17 68.52 68.60 68.62 68.40 68.25 68.15 69.23 69.59 69.36 69.01 68.20 68.22 68.37 67.52
54.78 52.87 52.00 45.99 40.51 38.35 39.74 42.89 48.55 53.24 57.50 55.97 55.64 58.75 59.15 58.21 62.06 63.36 66.13 69.38 69.60 68.67 69.61 69.77 69.12 68.84 69.14 68.64 68.29 68.32 68.63 68.70 68.61 68.59 68.60 68.69 68.64 68.54 68.42 67.82 67.84 68.51 69.78 69.35 69.05 68.69 68.15 67.40 66.68
52.49 52.18 45.46 42.20 39.18 40.05 41.57 43.95 49.68 52.99 56.20 56.48 56.55 55.84 61.52 63.27 63.09 66.11 69.06 69.66 68.58 68.53 69.41 69.03 68.26 68.26 68.56 68.43 68.27 68.33 68.41 67.93 67.73 67.72 68.30 68.52 68.77 68.60 68.21 67.55 67.43 67.95 68.70 68.66 68.50 67.42 66.13 66.02 65.57
49.51 47.21 42.98 38.77 38.61 41.68 43.31 50.27 54.03 51.43 53.98 54.45 55.50 54.74 58.32 62.56 63.09 64.39 64.81 66.93 67.68 68.28 69.17 68.78 67.30 67.83 68.37 68.64 68.56 68.24 67.87 67.47 67.37 67.57 67.87 68.21 68.27 68.15 67.57 66.97 66.83 66.80 67.31 67.55 66.56 66.12 65.53 65.10 64.75
47.64 45.39 40.49 38.29 39.53 42.52 45.45 54.47 54.63 53.85 54.26 54.78 56.17 56.15 58.57 63.93 60.97 61.93 63.74 64.06 65.83 66.86 67.93 67.74 68.01 68.12 67.98 67.98 67.99 67.62 67.21 67.33 67.59 67.52 67.72 68.05 67.66 67.27 66.85 66.50 66.43 66.07 65.79 66.21 66.01 65.59 65.11 64.52 64.15
46.12 44.49 40.41 39.24 40.16 41.98 49.31 55.36 53.51 53.28 53.13 53.65 57.62 54.66 59.27 61.17 61.06 61.89 62.12 63.01 63.65 65.06 66.53 66.13 65.76 65.03 65.20 66.96 66.97 66.83 67.26 67.45 67.41 67.28 67.25 66.85 66.12 65.56 65.67 65.93 66.27 65.77 65.16 65.01 65.25 65.46 64.71 64.00 63.39
47.00 45.02 39.81 40.51 39.86 41.02 51.96 54.09 55.42 54.02 52.81 57.85 59.38 54.97 54.74 59.21 60.94 61.17 60.21 60.51 61.72 61.87 61.04 61.97 61.85 61.95 63.75 66.22 66.47 66.72 66.72 66.85 66.76 66.47 65.70 65.18 65.29 65.43 65.40 65.11 65.39 65.95 65.61 64.77 64.42 64.09 64.09 63.07 61.40
46.35 44.06 40.32 40.44 40.56 43.51 52.97 52.22 55.30 57.35 55.87 57.59 59.14 58.83 59.99 59.65 61.14 59.65 58.83 58.00 58.82 59.20 57.93 57.48 58.74 60.73 62.26 64.37 66.72 66.73 66.67 66.14 65.46 65.16 64.73 63.42 63.19 63.46 63.34 64.01 64.39 64.72 65.00 64.39 63.59 62.14 60.87 60.63 59.68
46.58 42.61 42.21 45.31 45.14 46.21 52.39 52.45 53.42 54.56 54.63 55.57 57.35 60.04 59.91 59.07 59.95 57.94 57.71 56.11 55.61 55.67 56.67 57.69 59.50 60.25 61.53 62.58 64.91 65.03 65.29 64.22 63.82 63.62 63.47 63.46 63.99 63.58 63.28 63.22 63.45 63.88 63.17 62.27 60.99 58.95 57.69 57.96 56.20
44.57 43.33 45.35 45.97 46.38 50.73 51.87 51.20 53.97 53.94 52.41 55.42 55.12 57.02 58.50 58.57 57.80 56.94 57.53 56.05 54.41 56.05 57.18 59.10 59.56 60.00 60.69 62.17 62.97 63.38 62.85 62.66 63.14 63.49 63.36 63.75 63.45 63.62 62.43 62.19 61.92 60.88 59.47 57.98 57.44 56.90 56.16 55.28 54.22
43.49 45.69 45.96 46.64 51.39 51.41 50.35 52.91 52.11 52.28 52.81 57.74 59.30 59.22 58.87 58.05 57.50 56.63 56.51 55.00 54.12 54.85 56.55 57.98 59.43 59.11 60.19 61.16 61.73 61.43 61.12 62.05 62.12 62.53 63.40 63.57 62.08 61.83 60.54 60.49 60.63 58.14 57.66 57.47 56.91 55.57 55.15 53.82 53.43
43.99 45.49 47.05 48.86 51.57 51.64 52.89 50.88 50.46 52.86 57.40 59.51 59.69 58.05 57.42 58.12 58.06 57.34 57.64 57.19 56.67 55.97 57.77 58.63 60.97 62.14 62.48 61.39 60.91 61.03 61.50 61.48 62.72 62.40 63.15 63.37 61.62 60.89 60.55 59.10 58.92 57.54 57.38 56.89 55.36 54.79 53.89 53.21 52.47
47.07 47.17 49.06 51.05 51.02 52.02 50.75 50.54 50.79 54.66 58.01 57.22 57.47 57.17 57.78 57.48 57.68 57.80 57.89 57.71 58.07 58.24 58.76 60.36 60.98 62.50 61.74 60.38 60.20 60.71 61.94 62.27 62.38 62.83 62.76 63.98 63.86 62.32 60.14 57.78 56.59 56.61 56.95 56.24 54.92 54.21 53.47 51.97 51.51
48.25 46.45 49.46 50.61 50.52 50.08 51.97 48.51 47.97 55.52 57.13 55.34 56.20 57.16 57.11 58.36 58.90 57.92 58.53 58.08 58.87 59.32 59.78 60.03 61.50 63.24 62.34 61.78 60.76 61.13 61.59 62.62 63.75 63.89 64.48 63.83 62.41 60.75 58.85 56.71 56.16 56.23 55.93 54.85 53.77 52.55 52.48 51.32 50.35
44.28 45.79 44.09 47.76 50.20 50.51 48.56 44.26 50.01 55.20 55.56 54.60 55.41 55.86 56.58 56.40 58.62 58.59 58.58 59.25 59.84 59.97 59.32 60.06 61.70 63.15 61.95 61.29 60.83 61.55 62.79 63.88 63.31 63.13 62.79 62.00 60.24 58.63 57.14 56.03 55.96 55.74 55.16 54.44 51.96 52.49 50.85 50.35 50.56
43.20 39.91 40.05 43.07 50.28 49.10 48.11 45.80 50.05 56.05 54.62 53.87 54.66 55.37 56.35 56.36 57.84 58.93 59.17 59.46 59.85 60.29 60.11 60.20 62.15 62.93 61.96 61.74 61.76 62.01 62.98 63.27 62.78 62.07 61.15 60.03 58.24 57.28 56.98 56.36 55.85 55.97 54.49 52.83 52.84 51.18 51.08 49.86 49.49
40.18 40.12 41.20 41.33 47.30 48.03 47.12 46.90 50.13 54.03 53.89 53.02 54.50 55.34 55.95 56.36 56.65 58.46 60.18 59.90 60.12 60.42 60.88 60.97 61.91 62.84 62.63 61.78 61.33 61.42 61.99 61.87 61.67 61.54 60.56 59.27 57.88 57.24 57.05 56.34 55.60 53.55 51.26 51.64 51.10 50.50 50.43 50.02 50.22
43.50 42.37 41.56 43.65 45.09 47.32 46.95 47.26 48.67 52.41 53.28 53.29 54.25 55.14 55.75 56.41 58.47 59.28 59.46 60.96 59.95 60.48 60.80 61.28 61.67 62.26 61.43 59.99 59.61 59.73 59.86 60.09 59.53 59.71 59.25 59.04 58.15 56.96 56.46 55.08 53.63 52.74 52.19 51.19 51.10 50.08 49.51 48.90 49.41
43.20 41.59 41.46 43.54 45.16 44.80 43.61 43.87 46.25 50.71 52.92 54.27 54.43 55.14 55.90 57.03 57.46 58.57 59.51 59.68 59.95 59.68 60.60 61.17 61.37 61.81 61.55 61.22 60.35 60.47 60.87 60.47 60.08 56.61 55.69 56.14 57.20 56.16 54.42 53.47 52.37 52.15 50.83 50.63 50.49 50.57 48.88 49.11 48.88
43.05 41.79 41.46 42.07 43.71 43.18 42.57 41.74 42.60 48.03 51.30 53.06 54.90 56.36 56.80 56.93 57.38 58.36 58.74 59.36 59.89 59.71 59.83 60.91 61.48 61.80 62.07 61.83 60.34 58.97 58.93 58.02 56.98 55.58 55.50 56.06 55.81 54.25 52.64 52.57 52.22 51.63 51.36 50.13 50.17 49.89 48.36 46.40 47.16
40.05 44.33 43.73 42.78 41.81 38.38 41.86 36.29 40.18 43.55 48.15 50.85 53.06 55.13 56.34 56.98 57.82 59.30 59.70 59.59 60.02 60.52 61.20 61.14 61.51 61.24 61.51 61.21 59.93 58.62 58.98 57.62 57.69 57.33 57.01 55.11 54.62 53.06 51.13 51.37 51.82 51.05 50.69 49.76 49.35 48.51 48.17 47.03 44.13
42.98 45.24 44.19 43.43 41.53 40.13 39.32 38.45 41.33 42.63 42.90 49.15 52.17 54.51 56.36 57.52 57.92 58.75 60.21 60.94 61.20 61.74 60.94 61.41 61.23 61.20 61.14 60.44 60.64 59.18 59.37 59.61 57.98 57.01 56.07 54.01 52.69 52.11 50.45 50.87 50.72 50.39 49.97 48.95 48.32 47.18 46.64 44.30 42.80
46.29 44.19 42.21 41.61 40.87 35.70 38.51 38.64 40.48 42.36 44.73 46.17 50.02 54.02 55.77 56.74 56.49 58.38 60.89 61.82 61.68 61.71 61.13 60.84 60.66 60.40 60.85 60.51 59.92 59.11 58.31 56.55 55.53 54.97 53.52 52.24 53.13 51.51 50.46 50.33 50.12 49.23 47.78 47.14 46.87 47.17 45.48 44.34 44.52
44.46 41.87 35.96 34.02 34.32 33.73 39.47 37.84 42.03 45.83 46.02 47.12 48.34 49.76 54.52 56.67 56.66 56.94 58.63 59.78 60.69 60.01 60.42 60.61 60.42 59.82 60.01 59.72 59.22 58.62 58.31 57.06 56.60 54.99 51.77 50.06 50.94 49.97 49.57 49.18 47.74 46.88 46.91 45.83 45.77 43.63 43.20 43.88 43.31
42.17 42.38 36.66 29.45 30.74 33.95 38.69 36.20 42.17 47.01 47.82 49.24 49.06 49.02 49.73 53.78 55.48 56.37 58.25 59.34 59.77 59.75 60.29 59.75 59.54 59.77 59.75 59.38 59.51 59.51 58.68 57.96 57.07 55.14 53.06 51.40 51.03 50.63 49.56 47.63 46.55 45.97 45.07 44.84 43.86 43.48 43.23 44.92 45.23
42.22 39.79 42.65 36.09 34.16 33.94 36.94 40.27 44.78 46.38 48.09 49.22 49.73 49.70 49.31 50.51 53.52 54.80 56.87 58.15 58.99 59.21 59.52 59.53 59.34 59.91 59.47 59.45 59.61 59.46 58.57 58.22 55.18 54.08 53.67 51.61 50.82 47.68 47.82 46.41 46.55 46.95 44.49 45.23 43.10 43.42 44.19 44.69 44.72
44.03 44.88 38.46 37.53 30.61 29.08 33.70 35.36 38.17 42.86 44.50 47.15 48.76 49.89 51.14 51.83 52.22 53.65 55.26 56.81 58.49 59.22 59.66 60.29 60.47 60.13 60.41 60.16 60.07 59.65 59.57 58.30 56.88 55.53 54.09 52.16 49.70 47.83 46.53 46.25 46.37 45.45 45.38 44.10 42.71 43.94 43.96 44.00 43.67
41.72 40.48 38.85 39.53 36.36 31.90 30.10 35.32 43.25 43.74 45.14 46.45 48.20 49.59 50.78 52.62 53.50 54.56 56.36 57.38 58.22 59.16 59.39 59.71 60.11 60.26 60.38 60.12 59.90 59.50 58.54 57.72 56.98 54.88 53.75 50.53 48.97 47.41 45.91 45.87 45.72 44.89 42.52 42.75 41.46 42.04 43.06 42.24 43.27
43.79 42.41 41.27 36.98 33.94 34.23 32.88 35.44 44.22 44.80 44.99 46.00 46.92 49.66 50.94 52.20 54.44 55.41 56.92 58.07 58.21 58.53 59.13 59.29 59.49 59.67 60.22 59.60 57.78 57.64 56.76 54.94 54.43 53.00 52.16 50.77 48.03 46.25 45.39 45.12 43.63 42.37 42.25 43.00 41.97 41.86 40.05 42.08 41.90

GFSSGP_sfc_wetblb_048.txt.gz
Wetbulb
62.23 59.75 59.08 56.80 47.56 46.60 44.46 44.88 48.61 49.87 50.57 60.51 62.59 61.14 59.43 62.09 58.50 53.53 67.51 70.00 70.60 70.51 70.34 70.94 70.42 71.01 70.92 70.79 70.19 69.84 69.69 69.52 69.33 69.51 69.64 69.55 69.38 69.70 69.31 69.18 69.45 69.93 70.69 70.43 70.02 67.43 66.94 66.45 66.25
58.49 57.16 58.35 53.79 44.30 41.69 43.45 47.37 47.16 52.80 57.98 61.06 60.75 62.39 60.96 57.68 62.62 63.83 65.45 69.63 71.22 70.82 69.84 70.14 70.30 70.39 70.22 69.80 69.47 69.32 69.28 69.18 69.47 69.71 69.43 69.23 69.50 69.16 69.26 69.36 69.38 69.70 70.08 69.61 69.83 68.10 66.78 66.25 66.43
58.66 57.65 53.39 49.21 45.24 41.58 43.61 46.96 49.65 52.51 59.44 59.67 59.30 62.75 61.61 59.36 62.68 64.08 67.76 70.05 70.15 69.89 70.12 70.34 69.68 69.64 69.59 69.29 69.01 68.88 69.05 69.02 69.26 68.99 69.16 69.38 69.19 69.19 69.21 69.49 69.74 70.24 70.62 69.76 69.39 68.08 66.20 66.31 66.55
56.19 55.97 52.70 45.02 42.76 45.20 45.68 47.45 48.61 52.32 57.55 59.18 60.07 59.16 63.01 64.15 64.17 67.48 70.04 70.41 69.13 69.37 69.68 68.36 68.52 68.71 69.15 68.79 68.78 68.91 68.54 68.30 68.27 68.47 69.01 69.04 69.16 68.94 68.87 68.59 69.72 70.24 70.36 69.55 68.94 66.27 65.85 65.95 65.75
56.02 52.53 46.10 43.63 43.25 45.84 47.53 48.61 54.35 53.48 55.72 57.62 59.30 58.20 59.96 62.50 65.75 67.70 67.85 69.50 67.95 68.74 69.33 68.97 67.36 68.10 68.53 68.92 69.05 68.63 68.09 67.57 67.78 68.15 68.45 68.70 68.75 68.65 68.13 67.84 68.45 69.44 69.63 68.40 66.47 65.60 65.21 65.40 65.15
51.36 51.20 43.93 42.94 43.27 45.84 49.01 54.82 56.44 56.21 57.18 57.80 58.67 59.61 59.73 63.81 63.37 64.87 65.46 66.74 67.03 67.60 68.12 68.13 67.54 67.60 67.68 68.00 68.13 67.68 67.31 67.26 67.51 67.85 68.11 68.44 68.05 67.62 67.50 66.97 67.42 67.64 67.19 66.62 66.17 65.63 65.29 64.80 63.82
49.20 47.59 43.96 43.40 44.40 46.22 50.35 57.52 56.42 56.55 56.55 56.68 61.06 57.84 59.97 61.45 62.50 63.90 64.45 64.66 65.11 65.60 66.49 66.56 66.76 66.26 65.99 65.95 66.40 66.57 67.11 67.32 67.42 67.48 67.33 67.19 66.78 66.49 66.59 65.92 66.04 66.50 66.24 65.89 65.66 65.16 64.45 63.54 62.36
52.06 49.16 43.74 45.58 45.45 45.22 52.64 56.01 57.96 57.05 56.06 60.63 62.09 57.59 56.49 59.93 61.84 62.15 62.37 63.00 61.40 62.27 63.91 61.74 61.46 62.25 65.18 65.10 65.98 66.62 66.71 66.95 67.06 66.57 66.00 65.47 65.58 65.84 66.02 65.57 65.66 65.35 65.76 65.79 65.51 63.98 63.26 61.71 60.55
52.33 46.88 45.03 44.61 45.32 47.12 53.48 54.16 58.64 59.69 57.71 59.35 61.16 61.47 62.23 61.04 61.71 61.84 59.38 58.80 58.48 59.97 60.20 60.59 58.66 57.65 59.94 63.14 65.83 66.60 66.89 65.90 65.28 65.16 64.61 63.69 63.80 63.92 64.67 64.51 65.53 65.17 64.66 64.18 63.52 62.39 61.51 60.54 58.60
50.16 47.25 45.30 48.82 50.10 48.86 51.26 54.69 56.51 56.50 56.92 57.41 58.48 59.53 60.31 60.34 60.57 59.83 57.79 56.38 55.62 56.56 57.46 58.38 58.87 58.67 60.66 63.37 64.34 65.95 65.26 64.67 64.09 63.01 63.37 63.49 64.55 64.74 63.89 64.16 64.38 63.94 62.99 62.24 61.04 60.08 60.36 61.20 59.81
50.28 47.02 49.30 49.80 50.05 50.23 51.19 55.41 56.63 55.28 54.10 57.28 57.23 56.89 58.27 59.21 59.64 57.91 56.67 56.04 54.85 55.52 56.02 56.25 56.87 58.02 59.85 62.09 64.60 64.31 63.66 63.77 63.97 64.17 63.95 64.48 64.17 64.28 64.00 63.63 63.36 62.63 62.00 60.42 60.08 59.94 60.83 59.90 59.46
47.48 50.30 50.35 50.47 52.33 53.37 53.48 56.40 54.40 55.62 56.37 59.88 60.17 59.04 58.14 57.49 57.80 57.01 55.31 55.19 55.27 55.94 55.64 56.23 56.86 59.00 59.84 60.56 62.35 63.01 61.03 62.26 62.71 63.37 64.46 64.41 63.83 63.73 63.95 63.82 63.89 62.91 62.56 61.83 61.37 60.68 59.74 58.85 58.19
48.64 50.05 50.77 51.64 52.68 55.01 55.38 53.91 53.52 55.12 60.24 62.01 60.11 59.13 58.12 58.51 58.49 58.08 57.97 55.52 55.70 55.70 55.82 56.74 58.60 59.22 59.44 60.09 62.26 62.06 62.51 62.14 62.81 63.29 64.27 63.94 63.50 63.34 63.46 63.79 63.22 62.57 62.47 61.58 60.50 59.33 58.42 57.87 56.86
51.00 50.69 52.16 52.98 53.21 54.63 52.98 53.54 54.26 57.48 60.52 59.46 58.79 59.27 58.16 58.74 59.53 56.91 58.54 57.60 56.54 55.45 55.36 57.60 59.63 60.10 60.60 61.10 62.80 62.93 62.69 62.58 63.29 63.25 64.51 65.54 63.71 63.84 63.69 63.35 62.98 62.27 62.12 60.79 60.14 59.06 58.34 57.53 56.69
51.57 49.10 52.47 53.11 54.29 52.56 54.35 51.76 52.08 58.68 59.55 57.96 58.97 58.84 59.20 58.67 59.45 58.13 59.15 57.81 58.49 58.30 59.76 59.67 60.44 60.91 60.59 61.46 62.91 62.46 62.24 62.55 62.53 64.09 66.40 66.41 65.76 65.04 64.20 63.14 62.03 61.96 61.61 60.87 59.47 58.31 58.02 56.82 55.49
48.64 49.36 46.05 51.89 53.50 53.57 52.76 47.37 54.34 58.63 58.64 57.65 58.56 58.81 58.59 59.68 60.07 59.37 59.99 60.21 59.69 60.51 60.37 61.90 62.26 62.41 62.95 63.07 61.55 62.76 62.90 63.40 63.95 65.53 66.72 67.08 66.58 65.71 64.36 62.53 61.78 61.13 60.28 59.64 58.53 57.29 57.15 56.24 55.13
47.72 43.30 44.04 46.46 53.24 52.71 51.80 48.62 55.37 58.73 58.50 56.97 57.68 58.34 57.89 59.04 60.53 61.24 61.34 61.34 61.58 61.77 61.31 61.70 62.96 63.61 64.23 64.24 62.22 62.72 63.48 64.10 65.66 66.62 66.57 66.19 65.53 64.17 63.66 62.28 61.39 60.93 59.73 58.89 57.47 57.30 56.78 54.61 53.48
42.37 43.41 45.02 44.86 50.70 52.15 50.81 50.04 54.81 57.84 57.56 55.39 57.35 58.07 58.57 58.08 59.07 60.26 60.90 62.14 62.36 62.30 62.38 62.81 63.22 64.16 65.27 64.58 63.66 62.18 63.26 64.41 66.23 66.31 65.83 65.24 64.25 62.97 62.57 61.74 60.59 60.56 59.29 58.00 56.67 56.35 55.26 54.95 54.51
47.10 45.51 44.34 47.76 49.81 49.81 49.16 49.11 51.36 56.84 57.05 55.16 56.26 57.27 58.39 59.14 60.35 60.95 60.29 61.62 62.10 62.63 62.49 62.38 63.22 64.44 64.81 63.72 61.67 60.26 61.03 63.48 65.38 65.81 65.60 64.81 63.72 62.24 62.11 61.26 60.69 59.76 57.71 57.89 57.04 55.17 53.54 52.52 54.06
47.15 45.39 44.94 47.42 48.17 48.00 47.75 47.67 50.31 55.14 56.09 56.35 56.38 57.25 57.92 59.31 60.15 60.35 61.54 61.71 61.50 61.85 62.70 62.72 62.82 63.85 65.12 64.68 62.99 61.89 61.38 62.99 64.00 65.10 65.02 64.43 63.66 62.49 62.04 61.44 59.19 58.53 58.19 56.90 55.59 54.65 53.16 53.75 53.56
46.97 45.47 44.85 44.73 47.62 47.81 46.83 46.00 47.48 51.64 55.67 57.09 57.69 58.02 58.46 58.81 59.65 60.33 60.62 61.62 62.80 61.86 62.95 62.64 62.86 63.93 65.07 65.06 63.93 62.52 62.68 63.55 63.08 63.27 62.39 60.11 58.59 60.23 61.30 59.28 57.12 57.17 57.64 55.75 55.50 54.91 53.39 51.60 51.64
44.04 48.66 46.87 45.94 45.17 40.96 47.02 39.77 45.25 49.01 51.02 53.84 56.23 57.70 58.30 59.15 60.06 61.30 61.61 62.05 62.31 62.97 63.27 63.55 63.53 64.12 65.13 65.57 64.13 62.10 60.23 60.35 62.48 63.43 63.32 62.04 61.64 60.25 59.51 58.04 56.21 56.72 56.85 56.13 55.08 54.20 53.04 51.79 50.39
45.34 48.56 47.35 46.95 45.45 44.54 44.30 41.39 44.47 47.40 47.23 51.21 55.09 56.81 58.42 59.70 60.53 60.77 62.29 63.34 63.97 63.89 63.95 63.56 63.86 64.14 64.74 65.54 65.28 63.30 61.33 61.68 63.66 63.80 62.58 61.61 60.47 59.74 58.05 56.80 55.61 55.66 55.22 55.98 54.64 52.69 52.09 52.08 51.39
49.51 47.63 47.18 47.05 45.66 39.06 43.10 42.28 43.05 45.96 47.56 49.74 52.82 56.44 58.15 59.94 60.98 61.40 62.68 64.01 64.30 65.09 64.58 64.77 63.80 63.78 64.66 64.70 64.87 64.54 63.42 62.43 62.36 62.11 61.47 60.75 58.93 57.62 56.78 55.89 56.23 55.03 55.47 54.79 53.08 52.86 52.64 49.69 46.75
48.71 45.76 38.97 37.39 37.84 37.20 44.08 42.39 44.73 48.59 50.26 51.49 52.13 53.65 56.22 59.79 60.98 61.53 61.81 62.92 63.93 64.49 64.80 64.88 64.43 63.38 64.33 64.22 64.32 64.56 63.81 63.66 62.71 61.82 61.38 60.54 57.79 53.65 53.70 54.70 55.32 54.90 55.12 53.57 52.56 49.79 49.72 48.07 47.22
46.65 45.71 40.01 32.13 34.53 38.50 42.76 39.32 45.11 50.36 51.66 52.64 54.23 54.81 55.18 55.78 59.66 61.49 62.09 62.86 64.08 64.67 65.25 65.15 63.17 62.57 63.73 64.01 63.83 64.64 63.89 62.78 62.98 63.01 61.69 59.16 55.19 53.66 54.82 54.10 53.94 54.33 52.24 50.08 47.00 47.31 49.09 48.17 48.13
46.10 43.02 47.38 41.35 40.42 39.03 41.70 44.13 48.29 49.70 50.17 51.44 53.51 53.94 54.67 54.85 57.24 59.88 61.49 62.93 63.88 64.78 64.91 65.24 64.93 64.33 63.78 63.01 63.48 62.73 62.34 61.90 62.35 62.62 60.22 55.43 54.30 54.33 54.91 53.32 52.26 49.64 50.44 48.62 46.52 47.26 44.48 44.86 46.91
47.89 49.35 41.55 43.23 33.80 32.49 38.88 40.20 42.23 45.41 46.67 49.34 50.44 52.81 55.17 56.13 56.12 57.68 59.11 61.15 63.40 64.61 65.09 65.33 65.33 64.42 64.31 63.93 63.55 62.87 62.04 61.89 62.07 61.74 57.04 55.74 55.58 54.81 53.18 50.71 50.45 49.43 47.31 46.25 46.26 43.97 44.53 45.16 45.85
45.66 44.56 44.79 44.69 42.45 36.12 34.22 39.82 47.70 47.10 48.95 49.87 51.71 53.18 54.37 56.63 57.43 58.10 59.13 60.48 61.60 63.01 63.85 64.03 64.11 64.30 64.13 64.27 64.24 63.32 62.17 61.90 61.59 60.31 58.93 58.66 57.63 55.25 50.62 51.62 50.79 47.93 45.75 44.62 42.56 43.55 43.66 43.26 43.63
48.17 46.14 46.36 40.36 38.16 40.92 40.08 40.12 49.28 50.35 50.49 50.86 51.20 53.08 55.67 56.65 57.96 59.01 60.29 61.25 61.33 61.73 62.40 62.82 63.39 63.70 64.09 64.45 64.01 63.57 62.79 61.18 59.99 59.25 58.65 57.34 53.58 51.44 50.42 48.71 45.76 46.36 43.39 43.02 42.68 42.92 41.99 42.19 42.23

GFSSGP_sfc_wetblb_051.txt.gz
Wetbulb
64.17 63.03 60.29 56.44 48.07 47.48 43.89 46.44 50.48 49.61 52.11 58.85 60.79 59.81 59.33 57.03 54.40 52.37 68.82 71.51 71.17 68.98 70.87 72.17 71.39 71.91 71.86 71.81 71.35 70.78 70.36 70.28 70.16 70.13 69.98 70.06 70.45 70.79 71.14 71.17 70.95 70.83 69.83 68.00 67.59 67.15 66.94 66.70 66.28
62.34 57.84 57.53 53.22 45.62 42.07 44.20 47.87 47.31 50.33 56.37 61.28 61.34 62.38 60.57 57.31 61.37 64.69 66.69 70.21 71.95 68.19 70.28 71.48 70.98 71.09 71.14 70.73 70.16 70.09 70.04 69.74 69.86 70.03 70.01 70.21 70.16 70.04 70.09 70.21 70.53 70.63 70.60 67.76 67.32 67.03 66.94 66.45 66.38
59.91 58.44 53.14 50.43 46.61 42.87 43.30 48.15 49.96 52.21 56.45 59.86 58.60 62.45 62.58 61.33 64.56 65.18 69.55 69.26 70.48 68.07 68.96 70.45 70.10 70.10 70.19 69.84 69.42 69.24 69.36 69.41 69.46 69.61 70.16 69.85 69.94 70.09 70.31 69.98 69.84 70.39 70.58 68.06 67.16 66.94 66.37 66.14 66.40
57.23 56.08 53.45 45.57 43.76 47.08 46.96 49.13 50.10 50.78 55.41 58.13 59.95 58.76 64.25 66.41 66.15 68.39 69.97 70.72 69.22 68.80 67.61 69.11 68.93 69.07 69.39 69.37 69.35 69.05 69.05 68.90 68.77 69.15 69.79 69.85 69.85 70.23 70.65 70.25 70.06 70.17 70.48 67.86 66.67 65.97 65.49 65.58 65.66
56.55 53.08 46.73 45.99 45.25 46.94 49.02 49.94 50.60 51.80 53.38 56.20 58.31 58.20 61.95 64.75 67.45 69.06 70.07 71.09 70.56 69.77 69.47 69.00 68.00 68.56 68.91 69.22 69.11 68.96 68.68 68.32 68.67 68.90 68.79 69.08 69.35 69.63 70.06 69.88 69.81 69.81 69.61 67.29 65.75 64.98 64.79 64.88 64.61
52.03 52.28 45.07 42.62 44.63 47.16 49.26 53.42 55.30 53.93 55.17 57.71 58.31 58.71 61.29 65.72 65.99 66.17 67.80 68.02 70.09 67.78 67.65 67.57 68.04 68.06 68.17 68.50 68.32 68.14 67.92 68.08 68.24 68.38 68.63 68.89 68.41 68.17 69.05 69.28 68.97 68.54 67.28 66.74 65.99 65.38 64.55 63.83 63.08
50.62 48.93 45.61 45.07 45.20 47.02 50.03 57.24 57.19 57.82 56.72 57.36 62.40 58.05 61.66 63.43 63.02 65.13 65.61 65.51 66.04 67.24 66.19 66.55 67.04 67.09 66.74 66.85 66.80 66.88 67.52 67.75 67.95 67.91 67.75 67.41 66.92 66.77 67.63 67.91 67.46 66.87 66.39 65.90 65.58 65.01 64.28 62.70 61.82
51.96 49.86 46.02 46.20 45.85 46.15 53.87 56.08 59.24 58.23 57.40 62.43 62.92 58.09 58.16 61.68 61.83 62.47 62.89 62.36 63.92 63.97 65.12 64.59 64.74 65.26 66.21 67.09 65.94 66.36 66.83 66.94 67.10 66.95 66.24 65.92 65.90 65.95 66.04 66.28 66.38 66.35 66.09 65.43 64.62 63.97 63.02 61.35 60.25
53.86 47.52 44.60 45.43 46.40 48.40 53.97 53.98 59.87 61.39 59.37 60.53 63.16 63.07 61.82 62.41 62.16 60.44 58.84 60.02 59.89 60.52 59.95 62.63 62.68 62.89 64.81 65.43 65.44 65.79 66.88 66.45 65.61 65.58 64.71 63.57 62.75 62.92 64.18 64.61 65.23 65.74 65.41 64.50 63.48 62.83 61.89 60.55 59.20
50.71 48.15 46.61 50.22 51.05 50.47 52.11 54.19 57.25 57.36 57.15 58.25 58.81 60.70 61.28 61.42 61.38 59.80 57.58 56.30 57.76 57.71 57.20 57.58 58.58 60.38 60.33 63.12 64.01 64.30 65.75 64.93 64.30 64.12 64.46 62.83 64.96 64.90 62.96 64.08 64.28 64.20 63.89 63.44 62.72 61.85 61.01 61.20 59.78
51.51 47.99 50.13 50.64 51.91 52.77 52.40 55.00 57.85 56.34 52.83 57.99 58.46 56.87 59.43 59.74 60.21 59.07 57.01 55.79 56.26 57.42 57.20 56.76 58.00 58.91 58.35 60.10 61.04 61.87 63.47 63.94 63.50 63.97 63.84 65.08 64.15 63.19 63.96 62.97 61.45 61.99 61.77 60.44 59.86 59.73 61.63 61.87 61.10
48.75 51.06 51.43 51.89 52.76 53.28 54.54 56.94 55.50 55.77 57.62 61.93 59.23 58.65 59.20 59.32 58.25 57.64 55.57 54.69 53.84 54.31 56.20 57.19 58.60 58.91 60.46 60.16 60.43 61.00 62.78 63.04 62.41 63.69 65.87 65.40 64.15 64.28 63.71 63.31 63.07 62.54 62.30 61.17 61.72 62.07 61.58 60.79 59.90
49.80 50.88 51.92 53.11 53.41 55.71 56.10 54.60 54.99 57.15 61.41 61.49 59.67 58.95 58.67 59.56 58.31 56.99 55.83 55.73 53.89 53.77 54.99 56.28 57.53 57.81 59.08 60.57 60.44 61.70 61.29 60.32 62.04 63.78 64.92 64.53 63.60 64.70 64.22 64.45 63.81 63.39 63.56 62.92 62.41 61.38 60.61 59.79 58.86
52.23 51.80 52.07 53.24 53.98 53.79 53.88 54.97 56.38 58.89 61.93 59.72 58.78 58.89 59.77 60.07 58.87 55.98 55.62 55.03 54.66 55.41 55.11 56.78 58.30 58.56 59.05 58.81 59.50 60.47 61.45 61.66 63.07 63.79 64.45 65.49 64.97 65.48 63.67 64.02 63.19 63.31 63.55 63.40 62.41 61.02 60.49 59.76 58.59
52.29 49.49 51.84 52.76 53.79 53.25 55.25 50.50 53.50 59.97 61.32 59.36 59.04 59.42 59.68 59.26 59.50 58.00 56.98 55.28 54.88 55.03 55.90 56.69 57.74 57.97 57.19 57.34 58.90 60.47 62.18 62.37 62.60 63.23 66.08 66.09 65.30 64.97 65.02 64.45 63.75 63.76 64.00 63.07 62.33 61.13 60.26 59.02 57.32
48.60 49.57 45.43 47.89 53.77 54.45 52.78 42.25 56.08 59.71 59.73 58.19 58.20 58.95 59.10 59.71 59.50 60.05 59.78 58.34 57.73 57.69 57.84 58.38 58.55 59.05 58.15 59.44 60.12 60.70 62.63 62.66 62.55 63.48 65.40 66.22 65.15 65.14 64.82 63.96 63.50 63.83 63.18 62.05 60.94 60.04 59.35 58.53 56.86
48.20 43.42 45.29 47.52 52.93 53.19 52.40 44.98 56.08 58.60 59.04 57.41 58.36 58.50 58.71 59.31 60.00 60.49 59.90 59.22 59.16 58.71 57.90 59.07 59.58 58.59 60.26 62.57 62.92 63.85 63.52 61.97 61.27 63.56 64.95 65.89 66.34 66.26 66.08 64.37 64.00 63.68 62.24 61.50 60.72 59.79 59.71 57.24 55.31
43.67 44.08 45.79 45.32 49.75 51.52 50.87 50.20 54.98 57.19 57.55 57.08 57.49 58.10 58.24 58.77 59.65 60.46 60.94 60.24 60.17 61.40 61.90 61.37 61.30 61.58 62.85 63.41 62.46 61.49 62.34 62.68 63.56 64.63 65.56 66.21 66.46 65.98 65.65 64.41 63.86 62.94 61.79 60.94 60.32 59.61 58.54 57.09 55.65
47.31 46.06 45.13 47.51 51.40 50.07 49.97 50.16 51.66 56.69 56.90 56.51 56.74 57.53 57.86 59.16 61.12 61.29 60.92 61.26 61.00 62.45 62.24 62.50 62.63 63.40 63.46 62.39 60.93 59.53 60.69 61.84 62.96 64.38 65.66 65.92 65.87 65.29 64.83 63.87 63.39 62.60 61.54 60.83 60.04 58.66 56.48 54.94 55.29
47.01 45.98 45.31 48.28 50.00 49.37 48.00 48.83 50.43 55.25 56.28 56.42 56.81 57.43 57.82 58.85 60.10 60.03 60.66 61.68 61.70 61.88 62.58 62.56 62.58 62.95 64.26 63.79 62.69 61.73 61.05 61.72 62.43 64.21 65.61 65.73 65.34 64.77 64.23 63.87 62.55 62.15 60.91 59.89 59.09 57.93 55.32 55.41 55.50
46.60 46.09 45.41 45.83 48.55 49.50 47.72 45.49 48.22 51.41 55.47 56.75 57.00 57.96 58.34 59.01 59.54 60.22 59.41 60.41 61.85 61.85 62.57 62.95 63.54 64.22 64.45 64.67 64.17 62.49 61.74 62.09 61.75 62.83 64.03 64.82 65.32 64.77 63.97 63.57 62.78 61.85 60.84 59.25 58.56 57.32 56.27 53.83 54.24
43.97 48.86 47.82 46.68 45.55 41.16 48.82 38.94 46.37 49.76 51.55 54.94 56.08 56.62 57.25 58.39 60.49 60.89 61.33 60.96 61.00 61.74 63.40 63.43 63.70 64.08 64.35 65.02 64.17 62.55 60.20 58.81 61.19 62.36 63.70 64.19 64.19 62.91 62.49 62.58 62.03 60.72 60.18 58.75 58.08 57.67 57.29 55.46 52.89
46.44 49.84 48.07 47.38 45.92 45.19 44.37 42.92 45.03 49.44 48.43 51.39 55.69 57.00 57.75 58.55 59.70 60.74 61.37 62.13 62.98 63.38 63.91 64.45 63.75 63.71 64.31 64.92 64.82 64.03 62.11 61.50 62.42 63.40 63.54 64.22 63.79 63.08 62.81 62.26 61.05 59.59 58.87 58.99 57.80 57.83 56.53 54.50 53.51
50.55 48.38 47.89 48.08 45.99 39.41 44.46 43.32 42.87 46.33 48.13 50.31 53.40 56.15 58.05 58.67 59.70 60.68 62.58 63.11 63.33 64.40 64.81 64.93 63.67 63.60 64.29 64.88 64.82 64.85 63.80 62.55 61.28 63.43 63.00 63.36 63.53 62.83 62.06 60.34 60.00 59.14 58.24 57.69 57.53 57.56 55.49 54.55 52.69
49.53 46.13 39.26 37.72 38.45 37.83 45.68 43.51 44.41 48.19 51.07 51.15 51.88 54.09 57.15 58.95 59.53 60.24 60.88 61.99 63.25 64.11 64.84 65.24 63.84 62.87 63.94 64.48 64.77 64.94 64.67 64.20 63.05 62.68 63.46 62.15 61.55 61.33 60.73 59.76 58.04 56.11 56.14 55.76 57.40 56.00 53.62 50.38 48.30
47.12 46.35 40.64 33.41 35.67 38.72 45.66 40.33 44.88 51.63 52.39 52.61 53.71 55.13 56.31 57.59 59.83 60.40 61.12 61.89 63.20 64.78 65.20 64.90 64.59 64.00 63.68 62.28 63.36 65.40 65.26 65.59 64.66 64.26 63.76 62.97 62.36 62.25 59.71 56.18 55.10 55.53 55.15 55.30 52.46 48.79 50.34 50.24 48.75
47.36 43.95 48.97 42.59 44.26 39.93 43.46 45.48 50.05 51.49 49.77 51.57 52.55 54.58 55.96 57.36 57.95 59.71 61.61 62.66 63.31 65.14 66.11 66.17 65.27 65.22 64.90 62.98 62.22 61.92 65.13 65.80 64.71 64.74 65.15 63.91 63.38 58.03 55.79 54.54 55.43 55.30 55.25 51.00 48.75 48.69 48.14 44.94 47.72
48.84 50.68 43.06 44.30 34.77 33.79 40.35 42.39 42.94 46.81 47.96 49.38 50.56 52.51 55.62 57.45 57.41 58.79 60.86 62.36 63.62 65.04 66.93 66.99 66.64 65.65 65.51 65.01 64.63 64.32 65.05 64.96 64.48 64.14 63.36 62.80 60.08 57.54 56.16 55.79 55.06 53.94 49.63 49.81 49.22 45.93 45.32 44.50 44.87
46.79 46.06 46.90 46.22 43.40 36.69 36.43 41.12 49.13 48.10 49.39 49.57 51.14 52.44 53.63 56.80 58.27 58.91 59.87 61.44 62.89 64.63 65.79 66.59 66.81 66.42 66.18 66.06 65.60 64.67 63.67 63.74 62.54 61.81 61.53 59.74 59.27 58.24 56.43 55.96 53.88 49.96 50.42 48.68 44.64 45.08 43.93 43.30 43.99
49.02 47.19 47.28 41.54 40.67 43.09 41.62 41.69 50.75 50.93 51.29 51.74 52.20 52.63 54.42 55.66 58.81 60.22 60.92 60.89 61.98 63.22 64.60 65.33 65.87 65.75 65.85 65.93 65.77 64.42 62.91 62.18 61.31 60.70 59.59 59.09 58.15 55.07 53.33 50.68 49.85 47.70 45.07 44.90 43.08 43.11 43.60 42.58 42.31

GFSSGP_sfc_wetblb_054.txt.gz
Wetbulb
63.17 62.51 61.00 56.73 46.36 46.07 42.42 43.74 48.15 47.22 49.77 56.52 57.91 53.63 55.29 55.54 52.99 52.48 67.04 64.24 64.48 67.62 71.28 72.11 71.52 71.94 71.99 71.86 71.54 71.07 70.85 70.74 70.81 70.70 70.75 70.80 71.11 71.52 71.07 69.93 69.28 69.43 68.83 67.70 67.45 66.88 66.35 66.09 66.08
61.95 61.24 56.49 51.57 43.85 40.66 41.90 47.00 47.35 50.03 54.88 57.55 56.87 55.07 54.74 54.90 58.32 63.20 65.58 68.88 68.60 69.15 70.72 71.69 71.22 71.47 71.53 71.16 70.87 70.60 70.60 70.50 70.44 70.39 70.66 70.79 71.18 71.38 71.05 70.34 68.88 68.92 68.66 67.60 67.30 66.85 65.98 65.99 66.13
59.12 58.75 51.31 48.14 45.60 41.39 42.55 47.27 48.51 51.57 53.74 55.33 56.25 59.85 59.10 56.45 59.92 64.26 68.87 69.88 68.50 68.52 70.40 70.60 70.13 70.52 70.70 70.41 70.14 69.80 69.99 69.82 69.92 69.98 70.74 70.67 70.77 70.97 70.89 70.05 68.68 68.87 68.49 67.32 66.97 66.41 65.39 65.33 65.84
57.38 54.67 52.56 45.09 42.19 45.39 46.05 48.10 49.60 49.76 51.66 55.23 55.64 55.45 59.85 62.52 64.83 67.02 69.55 69.42 67.48 68.43 70.18 69.05 69.10 69.54 69.94 70.03 69.78 69.65 69.27 68.94 69.11 69.62 69.89 70.26 70.51 70.53 70.37 69.56 69.46 68.68 68.07 66.78 66.10 65.23 64.72 65.18 64.57
56.32 51.95 45.52 43.89 44.42 47.42 48.53 49.54 49.90 48.70 51.11 53.43 55.81 54.85 56.56 63.75 66.91 67.85 68.66 66.86 68.17 67.57 69.46 68.75 67.98 68.98 69.50 69.87 69.82 69.27 68.99 68.66 69.04 69.07 69.37 69.95 70.51 70.38 69.86 69.39 69.30 67.98 67.59 66.04 65.04 64.34 64.02 64.41 63.72
50.92 51.63 43.83 41.91 44.76 47.70 49.05 53.12 54.16 53.82 53.91 54.09 55.27 56.47 57.90 64.96 64.25 65.41 67.22 68.11 68.85 66.48 68.33 68.18 68.35 68.17 68.37 68.69 68.65 68.35 68.31 68.72 68.59 68.87 69.16 69.86 70.11 69.93 69.61 69.25 68.46 67.24 66.73 66.34 65.48 64.76 64.08 63.68 62.68
49.30 47.74 44.27 44.80 44.76 47.48 50.06 53.17 51.93 55.35 53.86 55.70 59.66 53.06 59.99 60.83 62.46 63.62 64.09 65.46 66.21 67.24 66.50 66.19 66.72 67.21 67.01 66.84 67.21 67.34 67.85 68.17 68.19 68.11 67.80 68.06 68.33 68.52 68.87 68.32 67.51 66.99 66.24 65.86 65.07 64.50 63.76 62.48 61.33
51.27 48.40 44.68 45.67 44.62 46.19 51.41 53.21 56.88 57.06 50.87 55.23 61.05 53.29 50.10 60.10 61.58 61.91 61.80 62.64 63.85 65.36 65.25 64.76 65.08 64.83 63.98 64.11 65.53 66.21 67.04 67.12 67.14 66.77 66.19 66.17 67.04 67.26 66.94 66.44 66.44 65.99 65.92 65.37 64.49 63.64 62.62 61.65 60.02
53.02 45.60 43.81 45.85 46.29 48.18 52.52 51.83 54.95 57.65 57.09 54.65 60.36 59.23 60.18 61.47 61.83 60.02 59.47 59.75 59.79 62.15 63.81 64.02 63.60 62.87 62.38 62.23 64.21 65.68 66.89 66.31 65.73 65.38 64.82 63.57 64.43 64.57 64.40 64.92 65.23 65.33 64.96 64.39 63.75 62.68 61.42 60.46 59.63
49.33 45.88 46.76 49.66 49.95 48.80 51.04 51.85 55.03 55.65 54.92 51.85 51.89 59.82 61.19 62.05 61.05 58.09 56.93 56.89 57.05 57.21 59.44 62.35 62.23 61.91 60.68 60.74 62.13 63.06 64.45 63.82 63.09 62.05 61.60 61.00 61.27 62.35 63.57 64.54 64.70 64.39 63.72 63.44 62.73 62.05 60.96 59.89 54.60
49.74 46.59 50.09 50.32 51.58 51.78 51.15 49.79 51.34 50.06 51.50 54.31 50.37 56.39 59.08 60.18 59.41 56.77 55.39 56.19 56.21 56.25 57.15 59.08 60.57 61.18 61.24 60.83 61.78 61.83 62.09 62.07 62.61 62.61 62.04 62.42 61.51 61.43 61.58 61.26 61.27 60.66 61.03 58.18 58.98 58.58 57.15 58.27 57.25
47.59 49.86 50.70 50.97 52.16 52.09 52.06 52.07 50.05 51.40 57.94 58.89 57.60 59.22 59.40 58.63 57.46 55.68 54.31 53.97 54.95 55.29 56.81 58.01 58.51 59.00 59.23 59.44 59.45 60.15 60.21 60.49 61.08 63.40 63.50 62.15 61.51 61.38 60.09 59.51 59.66 58.42 58.53 56.83 57.94 57.61 58.91 57.63 56.80
48.55 49.71 50.90 52.09 52.33 53.15 54.89 53.52 52.65 57.64 59.55 59.49 59.03 59.51 59.02 57.75 55.68 55.27 54.49 54.21 54.92 54.93 56.19 57.59 58.43 57.39 56.97 56.83 58.20 58.97 59.61 60.28 61.68 62.55 63.44 63.61 61.64 61.81 60.89 60.63 60.06 59.49 60.16 58.63 59.25 58.40 57.56 56.83 55.79
50.92 50.87 50.66 51.64 52.12 53.26 51.95 51.09 52.07 52.85 59.17 58.34 58.62 58.30 59.17 57.12 55.48 54.65 53.82 53.31 53.91 54.96 55.45 56.97 57.29 57.73 57.23 55.93 57.22 57.59 59.19 60.30 61.10 62.58 62.88 63.80 62.78 62.77 62.23 62.73 61.68 61.07 61.17 60.69 59.84 58.23 57.28 56.34 55.09
50.86 47.67 49.71 51.27 51.93 51.60 53.75 48.03 46.73 50.23 55.22 58.08 57.53 57.57 58.60 57.64 56.13 55.15 53.94 54.23 54.32 54.92 55.84 56.86 57.32 58.30 57.92 57.24 58.68 58.61 59.35 61.19 61.56 61.87 62.92 62.59 63.06 62.50 61.85 61.82 61.38 61.20 61.35 60.82 59.45 58.03 57.77 55.71 55.48
48.51 47.87 43.51 50.17 51.66 52.59 51.89 43.47 50.33 53.51 54.13 57.14 56.52 56.84 57.61 57.09 57.86 56.75 55.65 55.03 55.35 55.13 55.94 57.07 57.47 57.05 56.48 56.23 57.16 56.77 57.83 61.36 61.04 61.67 61.99 63.36 63.40 62.88 62.14 61.63 61.80 62.02 61.42 59.77 58.56 57.16 55.82 55.51 53.66
46.83 42.06 43.83 47.30 51.89 52.26 50.41 45.11 49.90 54.91 54.60 55.85 55.96 56.51 57.21 57.21 57.84 57.42 56.51 56.00 56.13 56.30 56.74 56.77 56.68 55.61 54.77 55.44 55.91 58.51 59.01 60.82 60.62 60.55 62.14 63.20 63.33 63.33 62.61 62.71 61.96 62.08 60.49 59.09 58.13 56.95 56.70 54.48 52.32
42.82 43.25 44.94 44.55 49.74 50.70 49.10 48.51 47.43 54.32 56.23 55.43 56.25 56.48 56.68 56.63 57.15 58.61 58.17 57.72 57.54 57.17 57.19 57.26 56.54 56.92 56.33 55.92 57.69 58.64 60.00 60.69 60.62 59.89 61.79 63.36 63.44 64.09 63.20 62.57 62.27 60.72 59.52 58.71 57.79 56.44 56.55 54.69 52.28
47.44 45.17 44.09 47.48 51.05 49.46 49.21 49.65 50.61 52.11 55.01 54.76 55.71 55.34 56.53 57.04 58.59 58.82 58.17 57.96 57.37 57.48 58.16 57.26 57.35 57.67 56.96 58.60 57.90 57.88 58.34 58.87 59.10 60.48 62.77 63.48 63.42 63.60 63.16 62.48 61.65 60.34 59.24 58.07 58.07 56.37 54.62 52.13 51.26
46.99 44.74 44.37 47.47 50.30 48.41 47.13 47.24 51.38 53.64 53.36 55.33 55.22 55.66 56.06 57.67 58.11 58.47 58.11 58.00 57.83 57.57 58.20 58.37 58.46 57.08 57.97 59.93 60.19 58.48 58.76 59.98 60.15 60.97 62.73 63.76 63.77 63.65 63.22 61.70 60.65 59.72 59.20 58.58 57.16 55.91 52.62 51.90 52.02
45.75 44.10 44.45 45.30 48.06 49.15 46.95 44.78 46.92 52.27 54.01 55.18 56.02 57.30 57.28 57.55 57.77 57.75 58.23 57.84 58.84 59.27 59.61 59.89 60.31 59.82 60.36 61.27 61.44 60.61 59.22 59.28 59.55 60.12 61.89 62.80 62.96 62.76 62.42 61.96 60.81 59.97 59.28 57.30 56.85 55.88 53.55 50.34 52.08
43.23 47.25 47.12 46.64 45.19 40.39 47.44 38.23 45.12 48.54 50.49 53.49 54.24 55.90 56.64 57.69 59.20 58.76 58.56 58.95 59.07 60.54 61.26 61.47 61.64 61.66 61.78 62.64 61.62 60.30 58.27 56.24 58.21 59.06 61.47 62.15 63.33 62.71 62.49 61.69 61.10 60.10 58.81 57.19 56.50 55.90 54.46 53.75 50.24
45.84 49.62 48.04 46.48 44.07 43.79 44.18 41.01 44.11 48.41 47.47 50.69 53.85 55.02 56.54 57.81 58.97 58.82 58.66 59.30 60.76 61.16 61.07 61.49 62.02 62.02 62.28 62.90 62.90 61.07 59.48 58.82 58.70 60.03 60.03 62.05 62.75 62.50 61.73 60.86 60.21 58.99 58.14 57.10 56.07 54.55 54.39 53.52 51.61
50.60 48.10 47.81 47.02 44.59 38.13 42.82 41.84 42.21 45.57 47.74 49.90 53.54 55.35 56.14 57.17 58.88 60.08 60.54 60.21 60.24 60.94 61.53 61.74 61.89 61.91 62.38 63.15 63.31 62.19 60.67 59.82 58.66 59.57 59.98 61.48 61.76 61.24 61.04 60.72 59.90 58.65 57.40 57.19 56.35 55.58 54.31 52.54 50.80
48.62 45.23 38.07 36.39 36.37 36.38 44.76 42.58 44.79 48.74 50.37 51.15 51.92 54.35 56.39 57.42 57.76 59.09 59.89 60.24 60.47 59.90 60.54 61.81 61.92 61.65 62.24 62.28 62.95 62.26 62.44 62.06 60.17 60.05 60.62 60.75 60.79 60.42 60.32 59.60 58.27 57.68 57.32 56.07 55.02 54.21 52.36 50.58 46.97
46.51 45.14 39.51 31.89 33.62 37.49 44.20 40.10 43.74 50.41 52.22 53.12 53.26 54.64 56.20 57.26 58.17 58.49 59.87 60.87 61.21 61.62 61.86 61.71 61.71 61.57 62.40 62.18 62.84 62.70 62.69 62.73 61.71 61.30 60.87 61.04 60.91 60.56 60.51 59.48 58.62 56.47 55.35 54.64 53.41 50.67 48.31 48.32 47.81
46.68 42.35 47.69 42.57 42.54 39.46 41.71 43.79 48.82 50.93 50.71 50.72 51.71 52.96 54.35 55.89 57.81 58.52 59.57 60.55 61.70 62.04 62.44 62.81 62.57 62.02 62.06 62.23 62.16 61.49 61.89 61.36 61.56 61.72 62.04 61.04 61.35 60.30 58.56 58.38 55.31 54.41 54.19 53.21 49.86 48.64 48.44 47.54 46.27
47.23 49.82 41.91 42.92 34.13 32.57 39.60 41.50 42.18 46.98 47.89 49.54 50.30 52.56 54.94 57.48 57.91 57.67 59.21 60.48 61.88 63.06 63.65 64.12 63.82 63.43 63.25 62.33 62.12 61.74 61.76 61.14 60.73 59.90 62.44 61.89 59.65 57.48 56.23 55.61 55.06 53.96 53.41 49.53 48.39 47.34 45.10 44.75 44.44
45.02 44.05 46.38 45.68 42.86 36.02 34.73 39.69 48.46 48.43 49.75 49.28 51.81 52.64 54.06 56.77 57.77 58.17 59.41 60.86 61.95 62.87 63.68 64.70 64.46 64.25 63.77 62.41 62.08 61.66 60.50 61.06 62.22 62.35 61.24 61.44 59.10 57.99 56.42 55.35 54.68 52.40 49.07 48.71 45.72 44.69 43.84 43.03 43.28
47.89 45.99 46.26 40.41 39.23 42.96 40.45 39.90 50.73 51.97 51.66 51.93 51.98 52.93 56.06 55.95 58.19 59.18 59.60 60.05 60.71 62.47 63.85 64.62 64.84 64.86 63.67 63.33 62.49 62.44 63.00 62.73 61.62 60.37 59.26 58.68 57.32 56.79 55.63 53.27 50.39 48.52 47.06 44.89 43.84 43.05 43.32 42.98 42.28

GFSSGP_sfc_wetblb_057.txt.gz
Wetbulb
58.48 58.72 56.29 51.72 40.23 36.39 34.35 39.02 42.36 45.70 50.93 55.51 56.25 53.13 53.72 53.75 53.18 50.98 63.39 64.52 62.90 62.84 64.34 68.84 70.47 71.60 71.99 71.89 71.41 71.21 71.23 71.50 71.27 70.96 71.03 71.38 70.85 70.08 69.83 69.17 68.83 68.92 68.54 67.02 66.63 66.93 67.03 66.84 66.60
56.29 57.47 54.28 46.29 35.50 30.45 35.93 42.79 42.52 47.37 55.07 56.08 55.74 53.95 55.56 53.04 58.02 62.75 64.27 64.23 64.77 63.78 65.44 69.54 70.36 70.95 71.68 71.27 70.98 70.85 71.04 71.22 71.00 70.82 71.35 71.52 70.64 69.93 69.61 69.00 68.42 68.81 68.54 66.72 66.13 66.81 66.84 66.07 65.88
58.12 56.07 45.02 39.74 35.88 34.53 35.82 43.25 43.75 48.18 51.91 54.49 53.93 59.96 55.62 54.41 59.73 63.02 67.66 66.00 64.38 68.13 70.58 70.55 70.35 70.58 70.98 70.81 70.39 70.34 70.47 70.25 70.30 70.47 71.47 71.60 70.86 69.83 69.49 68.63 68.44 68.64 68.08 66.22 66.07 66.27 65.30 64.94 64.97
54.04 48.55 45.72 37.56 36.01 40.63 41.63 43.86 45.64 46.19 48.12 52.58 55.17 53.86 57.55 59.98 62.44 66.66 68.78 68.29 67.39 67.84 69.66 68.93 69.11 69.65 70.03 70.42 70.19 69.98 69.64 69.35 69.60 70.18 71.00 71.01 71.02 70.10 69.17 68.44 68.32 68.42 67.43 65.54 65.24 64.69 64.14 64.55 64.14
52.05 45.10 36.93 35.80 38.61 43.56 45.07 48.25 48.36 49.90 52.00 55.43 56.36 53.30 53.15 59.31 65.35 65.91 67.69 67.48 67.05 68.01 68.62 68.61 68.28 69.07 69.32 69.26 69.95 69.68 69.16 69.33 69.23 69.81 70.23 70.80 70.39 70.07 68.82 68.11 67.82 67.47 66.82 65.19 64.19 63.54 63.54 63.63 62.82
44.06 44.06 35.66 35.79 40.23 45.13 48.17 48.38 51.26 52.12 53.07 55.20 53.79 54.64 55.29 61.86 62.80 63.94 66.33 66.49 66.40 67.86 68.08 68.19 69.02 68.93 68.73 68.82 68.57 68.40 68.88 68.90 69.07 69.32 69.75 70.05 69.82 69.52 68.84 67.82 67.31 66.88 66.20 65.68 64.51 64.11 63.31 62.59 62.79
42.22 38.62 35.82 37.72 40.88 44.11 48.08 51.23 51.90 50.76 53.26 50.36 54.09 53.38 54.61 60.18 61.81 62.90 64.92 66.13 66.98 67.61 67.18 67.20 67.52 67.65 67.07 66.87 67.03 67.33 68.19 68.40 68.70 69.02 69.32 69.16 68.75 68.50 67.83 67.41 66.95 66.51 65.86 65.14 64.26 63.53 62.47 62.02 61.61
45.41 40.57 37.65 39.34 40.84 42.23 48.59 51.64 54.76 53.72 52.33 55.77 59.26 50.13 51.46 59.48 61.46 62.21 62.68 64.90 65.82 65.36 65.18 65.00 65.61 65.37 64.91 64.85 65.68 66.43 66.83 67.09 67.18 67.79 67.70 67.78 67.77 67.97 67.08 66.54 66.44 66.01 65.36 64.68 63.51 62.64 61.52 60.66 60.18
46.48 37.73 36.16 39.99 43.51 44.88 48.70 50.02 54.57 56.25 53.42 56.29 59.30 57.17 58.31 60.91 60.89 60.80 60.89 61.02 62.39 63.59 63.67 63.66 62.79 62.62 62.22 62.33 64.58 66.82 67.00 66.35 66.02 66.58 65.82 64.93 65.27 64.65 63.95 65.18 65.38 65.23 64.66 63.99 63.16 62.05 60.86 59.84 59.02
41.86 36.69 39.79 46.50 45.37 44.59 49.62 51.27 54.28 52.18 50.38 52.48 56.31 59.72 60.37 60.92 59.06 58.58 59.27 58.07 57.65 58.85 62.07 62.22 61.49 61.11 61.01 60.74 63.48 64.00 64.47 63.13 62.26 61.77 61.04 63.24 62.15 63.42 64.24 64.45 64.45 64.33 63.84 63.22 62.75 61.51 60.40 57.91 52.27
43.65 39.75 45.16 46.83 48.25 48.90 47.31 48.83 51.95 49.85 50.06 52.39 52.04 57.04 58.95 57.90 56.77 55.95 56.12 56.42 56.20 57.25 60.52 61.08 60.56 59.90 59.82 60.32 61.25 61.75 62.53 62.30 60.52 60.64 60.57 61.55 62.32 62.03 61.98 61.26 60.85 60.17 61.34 58.95 59.63 58.39 55.31 55.48 53.70
41.97 46.13 46.66 47.29 47.98 47.75 48.56 50.86 50.91 50.51 51.56 57.67 57.61 58.15 58.70 56.28 55.23 55.07 54.24 55.08 55.28 56.62 57.67 59.35 59.48 58.56 58.84 59.72 59.96 60.44 60.98 60.82 60.12 61.41 60.70 60.36 59.83 59.49 58.84 58.50 58.32 57.00 56.92 54.92 55.42 54.97 56.01 54.22 53.72
44.80 45.84 48.06 48.57 48.88 49.10 53.94 52.33 50.97 49.58 53.85 55.80 58.52 58.63 56.34 54.95 54.72 54.78 54.58 55.39 55.71 55.98 57.51 57.81 58.21 58.21 58.13 58.43 59.00 58.78 59.39 60.26 61.06 61.71 61.63 60.95 59.44 58.42 58.25 58.19 57.34 56.98 57.15 54.95 55.81 56.06 55.41 53.59 53.09
48.15 47.29 46.64 48.08 48.01 49.00 50.23 49.65 51.28 52.42 53.65 54.02 56.91 55.57 54.91 53.47 53.66 53.41 53.83 54.29 54.55 56.16 55.78 56.06 56.18 57.14 57.65 57.32 57.73 58.06 58.80 59.45 59.88 60.99 61.94 60.99 60.47 58.89 58.97 59.05 57.30 57.28 57.89 56.34 57.34 55.45 54.51 53.56 51.97
49.63 44.66 45.99 46.30 48.32 48.43 50.58 46.57 47.09 52.83 54.35 54.27 56.12 55.82 54.36 53.70 54.17 52.90 53.62 53.91 54.46 55.51 55.94 55.92 55.73 56.70 56.70 56.21 56.77 57.37 58.26 59.35 59.05 60.39 61.35 60.99 61.02 60.71 60.17 60.72 59.24 58.72 58.99 57.81 56.60 55.66 54.80 53.70 52.39
45.07 43.90 38.45 44.63 48.50 49.75 48.50 42.92 49.14 50.73 52.01 53.22 54.97 54.94 54.24 53.66 53.51 52.49 53.63 54.36 54.76 55.39 55.64 56.92 57.54 55.38 55.54 55.78 56.08 57.19 58.49 58.56 59.09 59.71 59.80 60.44 61.00 61.13 60.11 59.45 59.50 58.83 59.15 57.80 55.98 54.97 53.69 52.99 50.08
41.35 36.57 39.15 42.27 48.61 49.25 46.96 42.99 50.30 52.76 51.07 51.69 52.77 53.69 53.64 53.93 53.33 53.33 53.57 53.42 53.78 54.29 55.46 56.01 56.33 54.94 55.26 56.93 57.14 57.04 57.38 58.48 58.75 59.04 59.44 60.32 61.48 61.88 59.44 59.94 59.64 59.76 58.39 56.88 56.14 54.90 53.98 52.66 50.74
38.52 40.00 38.83 39.49 45.57 48.27 45.49 44.70 47.81 51.11 53.47 53.24 51.30 53.26 53.16 53.46 53.21 53.68 53.62 53.90 53.79 54.27 55.26 55.09 55.79 55.50 55.91 56.35 55.47 55.09 55.67 56.08 57.91 57.61 58.55 61.06 61.21 61.45 60.87 60.43 60.25 59.16 57.61 56.55 55.49 54.24 54.36 53.15 50.17
43.95 43.19 40.12 41.50 47.10 46.16 45.79 45.26 45.79 48.46 50.55 51.23 51.57 52.57 52.90 53.84 54.86 54.25 53.99 54.39 53.99 54.23 54.54 54.49 53.81 53.20 53.66 53.11 52.87 53.39 54.16 55.08 57.37 57.88 58.31 60.54 61.25 62.23 61.61 60.85 59.81 58.74 57.23 56.26 55.59 54.01 53.27 51.33 49.89
45.80 42.20 40.07 43.69 48.89 45.28 42.54 45.06 47.04 48.62 50.58 51.48 52.06 52.37 52.90 53.36 54.50 54.74 54.06 54.36 53.64 53.68 54.68 53.77 53.94 53.01 52.73 53.02 54.17 55.21 55.63 56.18 57.47 57.92 58.26 61.35 61.64 61.88 61.30 60.57 59.40 58.46 57.07 56.23 55.27 53.88 51.51 50.42 49.01
44.14 41.46 40.35 41.17 44.75 44.02 42.53 39.50 46.02 49.56 50.40 52.55 51.87 53.43 54.55 53.14 53.18 53.77 53.44 53.65 53.83 54.07 54.46 53.83 54.74 54.03 54.41 54.96 56.34 56.55 55.46 56.24 57.14 57.15 56.85 61.05 61.38 61.49 61.39 60.48 59.24 58.38 57.53 56.31 54.83 53.72 51.46 49.05 49.33
40.46 45.88 44.80 43.52 41.22 35.70 41.94 32.29 40.46 47.21 46.98 51.06 52.29 52.64 53.78 54.17 54.79 54.40 53.94 53.28 53.70 54.16 55.75 55.52 56.24 55.47 55.18 56.96 57.24 56.79 55.51 54.32 56.91 57.47 57.66 59.73 60.97 61.19 61.55 60.91 59.39 58.31 58.15 55.84 55.13 54.70 52.24 50.06 49.29
43.59 48.40 45.94 44.55 40.05 36.99 38.22 34.89 38.72 46.94 45.45 48.60 51.34 52.50 53.58 54.75 54.88 54.67 54.24 54.87 55.63 55.60 55.65 56.21 56.97 55.59 55.69 56.13 58.23 57.93 57.63 56.46 56.24 57.48 56.47 59.29 60.68 61.06 61.04 60.52 59.28 58.06 57.69 55.94 54.95 53.56 52.38 53.21 51.08
48.46 46.08 45.11 43.38 39.34 31.54 38.54 36.42 35.81 40.63 44.85 48.95 51.09 52.37 53.62 55.20 55.41 55.84 56.49 56.17 55.97 57.50 57.37 57.65 57.44 57.47 57.02 57.77 58.62 59.04 58.78 56.06 54.86 54.80 55.72 58.45 59.67 60.40 60.22 59.53 58.09 57.51 56.28 55.51 55.29 55.41 54.31 54.26 51.44
45.16 41.92 32.12 29.70 29.94 28.83 41.87 39.02 39.91 44.81 47.76 49.21 50.38 51.47 53.17 55.00 55.93 55.58 55.65 56.33 56.47 56.81 58.03 58.44 58.62 58.45 59.38 59.15 59.56 59.70 59.62 59.07 57.03 56.54 56.43 57.57 58.96 58.37 59.19 59.75 57.25 56.22 56.28 56.81 55.80 54.64 53.22 52.10 47.78
42.84 40.83 32.68 27.90 28.57 31.71 42.08 36.19 41.38 47.22 49.40 49.84 49.74 51.56 52.55 53.90 56.20 56.17 56.32 56.67 57.36 57.82 58.12 58.46 58.65 58.85 59.55 59.46 59.87 60.47 60.75 60.62 59.36 58.80 57.97 58.76 59.26 59.82 59.97 59.23 58.39 57.45 56.79 55.25 54.24 53.64 51.25 48.85 47.88
44.17 38.99 43.69 37.14 40.56 32.76 37.38 42.44 45.55 47.43 47.24 47.87 47.32 48.44 49.73 51.59 54.95 56.71 57.03 57.06 57.26 58.14 58.13 58.72 59.03 59.28 59.74 59.54 59.54 60.50 61.28 59.38 60.27 59.76 60.26 59.31 59.21 58.88 58.31 58.33 57.58 56.50 55.63 54.85 52.47 49.91 48.28 47.98 46.59
44.68 46.93 38.05 37.76 30.56 28.80 35.69 36.99 36.84 44.06 46.17 46.42 45.70 45.83 47.86 50.71 51.78 54.55 57.83 57.95 58.14 58.25 58.43 58.74 59.77 59.70 59.92 59.94 59.82 59.87 60.52 60.52 59.59 59.22 58.95 59.29 57.40 55.58 55.40 55.08 55.72 54.75 53.51 50.56 49.34 48.05 47.28 46.20 45.08
41.72 40.96 42.86 41.63 37.81 30.74 28.19 33.37 43.42 44.28 46.98 46.44 46.39 47.45 49.84 51.29 51.89 52.43 53.36 56.91 59.45 59.84 59.42 58.94 58.99 59.62 59.81 60.13 59.93 60.29 60.28 60.45 59.38 57.82 56.99 58.42 56.30 55.98 55.72 55.35 53.88 52.80 50.20 48.70 47.31 45.65 45.16 44.62 43.82
46.02 42.49 41.86 35.48 35.33 36.77 33.30 34.16 47.14 45.56 47.29 48.97 47.41 48.58 48.73 52.13 52.19 53.28 53.96 54.74 55.72 59.49 59.99 60.10 60.28 60.08 60.39 60.51 60.17 59.96 59.74 59.28 58.85 58.82 58.44 58.81 57.34 56.40 55.43 54.41 52.87 49.41 47.68 46.29 45.24 44.45 43.69 43.41 42.75

GFSSGP_sfc_wetblb_060.txt.gz
Wetbulb
56.56 56.36 54.80 50.36 38.82 34.90 31.63 36.70 41.41 42.46 46.50 52.36 55.01 53.59 52.52 53.50 54.01 48.97 62.29 62.42 63.21 64.48 69.07 69.60 69.89 70.19 71.25 71.45 71.31 71.40 71.32 71.47 71.65 71.40 70.61 70.30 70.06 69.70 69.26 68.87 68.40 68.36 68.84 68.15 68.09 67.77 67.66 67.31 67.07
54.55 56.07 51.81 44.68 34.30 28.65 32.13 38.71 40.13 43.59 47.71 55.44 55.26 55.46 55.14 51.10 57.71 62.43 60.97 62.65 62.50 63.27 63.71 68.19 66.90 69.71 70.22 71.15 70.94 71.16 71.18 71.27 71.41 71.02 70.49 70.15 69.72 69.40 69.26 68.60 68.09 67.97 68.61 67.81 67.63 67.43 65.75 64.95 66.30
54.88 54.02 44.63 39.16 32.06 30.44 32.64 39.87 42.56 45.92 55.70 53.27 56.63 58.49 55.48 54.10 59.36 62.44 67.04 64.88 63.15 63.36 63.84 63.28 65.93 68.39 70.07 70.79 70.72 70.66 70.43 70.42 70.81 70.51 70.35 70.18 69.77 69.57 69.10 68.40 67.70 67.73 68.11 67.43 67.17 65.80 64.36 64.43 65.43
52.21 46.68 43.81 36.06 33.65 37.75 39.64 43.07 44.89 50.03 54.27 56.31 55.62 52.81 57.43 59.06 63.20 64.81 67.18 65.11 64.33 66.92 68.79 67.85 66.76 69.01 69.96 70.68 70.50 70.08 69.96 69.80 70.12 69.96 69.88 70.08 69.91 69.54 68.93 67.93 67.70 67.45 67.55 66.44 65.58 64.39 63.70 64.16 65.19
50.05 42.87 35.94 32.63 35.87 40.02 43.77 45.75 49.98 50.05 51.73 52.95 54.35 49.49 52.44 61.04 64.01 64.92 66.72 67.72 67.06 66.98 67.96 68.58 67.75 68.64 69.04 69.38 69.51 69.40 69.65 69.58 70.25 70.05 69.39 69.61 69.49 69.06 68.35 67.61 67.17 66.62 66.20 64.62 63.90 63.61 64.08 63.75 65.13
44.14 41.58 33.48 31.22 36.42 42.01 47.50 50.38 51.02 51.06 53.02 52.10 53.93 52.90 54.05 61.34 61.18 63.35 65.77 66.11 67.78 66.87 67.44 67.87 68.27 68.31 67.73 68.51 67.76 67.58 68.97 69.40 69.60 69.82 69.36 69.03 68.76 68.31 67.77 67.18 66.61 66.22 65.52 64.78 64.17 63.83 63.66 63.11 63.78
41.11 37.94 33.75 34.69 38.36 39.96 46.40 51.54 50.98 52.00 52.25 50.60 53.88 53.25 55.82 59.39 61.70 62.88 64.73 65.50 66.58 66.80 66.79 67.31 67.62 67.82 67.46 66.57 65.65 65.45 68.12 68.78 69.04 68.66 68.41 68.48 67.69 67.25 67.17 66.88 66.43 65.86 64.96 64.26 63.61 63.04 62.79 62.64 62.25
43.14 39.98 33.83 36.39 37.00 38.22 47.62 52.34 54.16 52.14 51.90 56.55 58.16 51.84 51.51 58.16 61.40 62.83 64.82 65.61 65.56 65.54 65.67 65.88 66.26 66.48 64.87 64.43 64.68 64.68 66.61 67.64 68.21 68.43 67.85 66.83 66.93 66.86 66.54 66.15 65.76 65.31 64.53 63.71 62.87 62.17 62.17 61.75 61.47
43.68 36.60 33.41 36.56 38.78 42.82 47.83 49.70 54.21 54.89 52.68 56.54 58.77 58.03 58.84 60.01 61.01 61.47 61.95 62.57 63.06 64.02 64.48 64.92 64.63 64.76 64.00 64.47 65.14 66.06 67.33 67.22 67.15 66.59 66.34 65.79 65.43 64.50 63.84 64.85 64.90 64.79 63.85 63.17 62.31 62.10 60.61 59.21 60.43
40.88 34.57 38.01 43.20 42.96 43.96 49.21 51.34 52.82 51.17 52.18 53.12 55.65 58.79 60.23 59.98 59.51 59.05 59.26 59.68 60.07 61.51 61.90 61.94 61.63 61.66 62.62 63.64 64.66 65.25 66.28 65.79 65.48 63.75 63.94 63.55 63.29 62.96 63.51 64.10 64.23 63.89 63.18 62.62 61.65 61.13 59.88 56.88 51.58
39.77 38.11 44.01 44.67 46.06 47.94 48.01 48.18 51.64 51.11 50.00 53.45 51.06 56.05 58.52 57.40 57.14 57.07 56.13 56.87 57.13 59.89 60.91 60.64 60.00 60.51 61.01 62.19 63.62 63.26 62.84 62.76 61.65 62.24 62.02 62.88 63.18 62.29 61.87 61.26 60.76 60.34 61.03 57.96 57.46 55.05 54.20 54.01 51.09
39.58 44.26 45.08 45.61 47.04 47.60 47.76 50.52 48.33 49.91 52.79 56.46 55.62 58.14 57.21 55.86 55.69 55.73 55.37 55.53 56.45 58.00 59.92 60.05 59.98 60.05 60.16 61.36 61.02 61.48 60.79 60.52 60.12 60.88 61.74 61.27 60.59 59.95 59.40 58.88 58.49 57.29 56.11 55.89 54.98 53.74 54.44 52.80 51.41
42.65 44.79 46.51 46.78 47.46 50.13 52.80 51.17 49.52 50.54 54.31 58.36 57.74 57.99 56.23 54.88 54.84 54.90 54.94 55.89 56.53 56.81 58.48 58.23 58.61 58.68 59.27 59.19 59.72 59.53 59.92 60.49 60.54 60.49 60.20 60.12 58.85 58.41 58.14 57.74 56.29 55.11 55.58 53.88 54.04 55.11 53.49 52.44 51.68
46.23 46.71 46.45 46.12 45.96 50.87 49.41 49.35 50.22 51.08 54.13 55.59 56.62 55.86 54.29 53.43 54.02 53.82 54.55 54.72 55.75 56.47 56.61 58.13 58.04 58.59 58.82 58.50 58.34 58.61 59.20 60.23 60.79 60.33 59.91 58.68 58.35 57.79 57.32 56.62 56.08 54.93 55.84 54.02 55.06 54.41 53.12 52.38 49.84
47.69 43.41 44.99 45.25 44.46 47.09 49.13 43.39 44.50 52.66 52.91 53.83 54.65 53.97 53.53 53.87 53.22 53.20 54.39 54.37 55.79 56.03 56.27 56.85 57.17 57.90 57.65 57.60 57.92 57.86 58.56 59.47 59.90 60.76 60.51 59.24 58.01 57.18 57.32 57.20 55.46 55.39 56.06 54.75 55.87 54.67 53.50 52.18 50.86
43.10 41.89 37.04 43.08 44.03 47.54 44.70 39.64 46.73 51.22 53.06 53.00 53.92 53.42 52.94 52.86 52.51 53.18 54.25 54.79 55.57 55.47 55.52 56.73 57.63 56.65 56.80 56.97 56.93 56.76 57.99 58.07 58.28 59.21 60.22 60.27 59.45 58.43 58.66 58.61 58.07 57.48 57.17 56.24 55.65 54.46 53.33 51.74 49.64
38.70 34.51 37.27 40.97 45.91 46.45 44.91 40.43 47.11 50.69 52.85 52.67 53.01 53.22 52.23 51.60 51.42 51.93 54.23 54.87 55.02 55.61 56.20 55.97 56.31 55.74 55.88 56.05 56.42 56.64 57.49 57.20 57.61 58.10 58.46 59.11 59.63 60.74 59.60 58.97 58.99 58.47 58.21 56.79 56.22 53.99 52.95 51.50 48.98
34.61 36.00 35.85 38.01 41.62 46.45 44.13 42.58 46.47 48.51 49.58 51.41 51.71 52.37 52.03 51.79 51.13 52.28 53.49 54.58 54.83 55.63 56.23 55.50 54.95 55.00 54.97 55.26 56.08 56.35 56.34 57.21 57.62 57.41 57.26 59.21 59.39 60.61 59.36 59.16 58.49 58.90 57.77 55.65 54.56 53.59 53.18 52.46 51.15
40.74 39.15 38.15 41.29 45.66 45.74 44.37 43.48 44.86 48.13 49.32 50.14 49.86 51.43 51.86 51.74 52.51 52.52 52.48 53.20 54.09 54.96 54.27 54.71 53.67 53.96 55.37 54.96 54.34 54.23 54.18 55.80 56.89 57.16 57.69 58.64 59.53 60.20 59.49 58.83 59.33 58.36 57.33 55.86 54.64 53.00 52.60 52.04 49.63
41.33 39.27 39.64 41.67 46.64 43.86 44.03 44.64 45.43 46.18 49.09 50.40 50.75 52.30 51.93 52.40 51.60 51.89 52.04 52.05 52.72 53.68 54.00 54.31 54.12 53.98 55.13 55.23 54.62 54.20 55.17 55.70 55.45 57.41 57.32 57.17 59.87 60.24 60.20 59.65 58.73 57.67 56.57 54.69 54.25 53.18 51.59 51.51 48.38
40.89 39.36 40.03 39.95 41.91 42.94 41.74 39.58 44.13 47.65 49.42 50.42 52.66 53.43 53.10 52.70 51.45 51.33 51.71 51.59 52.16 53.00 53.47 54.10 53.49 53.40 53.92 53.84 53.29 52.81 53.15 54.09 53.83 54.81 55.38 56.86 58.46 59.80 60.16 59.99 59.17 57.94 57.03 56.02 54.11 53.40 51.74 50.56 48.55
38.03 44.30 43.78 42.19 38.50 34.26 40.02 31.24 39.71 44.96 46.28 48.40 50.74 52.20 52.02 53.00 53.26 52.25 51.89 51.77 51.81 52.72 53.83 54.27 53.76 53.26 53.84 53.25 52.77 52.90 52.57 51.94 53.80 54.15 55.16 56.27 59.31 59.79 60.25 60.20 59.47 58.42 57.73 56.56 55.85 54.84 52.72 51.77 50.42
41.81 46.40 44.06 43.12 38.12 34.97 35.96 32.70 36.35 45.19 44.71 46.62 48.66 51.39 52.41 52.80 53.51 52.61 52.49 52.73 52.95 53.18 53.43 53.07 53.59 53.08 53.70 53.00 53.36 53.32 52.97 53.51 54.53 55.47 55.96 56.06 57.38 59.94 60.28 60.00 59.14 58.31 57.94 57.16 55.89 54.17 53.86 53.31 52.56
47.68 44.18 43.05 40.92 37.36 31.05 36.23 34.81 33.60 40.60 45.39 47.77 50.11 50.93 52.34 52.74 53.43 53.52 53.82 53.66 52.94 53.61 54.01 52.83 52.72 54.06 53.10 53.37 54.11 54.49 54.12 54.54 54.20 54.27 55.35 56.21 56.89 58.42 59.82 60.22 59.70 59.09 58.33 57.08 56.23 56.13 54.23 52.65 52.50
44.29 38.53 30.49 29.34 28.78 28.81 39.61 36.44 37.82 42.78 45.32 49.72 50.44 50.71 52.50 53.62 53.58 53.17 52.73 52.55 52.59 52.75 53.76 53.88 53.27 53.79 53.55 53.37 53.88 56.00 55.80 55.90 56.32 54.71 54.65 55.18 56.02 57.72 58.70 59.26 58.94 58.48 58.20 57.52 57.35 55.79 53.50 52.54 51.87
41.19 39.50 31.53 27.55 26.60 30.13 39.37 34.46 39.53 45.80 46.68 49.39 52.35 52.61 53.10 53.67 54.28 53.98 53.73 53.49 53.55 53.60 53.68 54.40 54.32 54.46 54.55 53.74 53.87 55.14 56.84 57.73 58.16 57.01 55.92 55.65 56.54 57.96 59.25 58.96 58.76 57.91 57.51 57.19 56.23 54.51 53.35 52.12 50.80
41.90 36.99 42.47 35.52 35.55 30.98 35.04 39.82 44.53 46.71 46.41 45.70 47.06 51.57 51.57 52.98 54.23 54.36 55.25 54.46 54.42 54.77 54.98 55.21 55.47 55.59 56.04 55.04 54.56 55.36 56.95 57.59 58.59 59.62 57.05 56.75 57.87 57.97 57.46 58.00 58.69 57.31 57.07 57.11 54.91 52.64 49.07 49.13 48.42
44.21 45.43 36.06 35.52 28.05 27.31 32.68 34.22 36.01 42.76 44.53 45.67 45.07 45.29 49.57 52.10 53.96 55.17 55.49 55.65 55.95 55.91 56.38 56.81 57.14 57.10 57.34 57.60 57.48 57.59 58.13 59.09 59.32 58.78 57.66 58.44 57.86 57.08 56.25 56.87 57.91 57.01 56.63 55.09 52.95 50.55 48.34 47.75 46.38
40.41 38.98 40.37 39.49 35.25 28.75 27.16 31.71 41.54 43.12 45.21 44.55 45.75 46.63 46.34 49.18 53.12 55.15 55.88 56.63 56.84 57.39 57.12 57.23 57.65 57.81 57.95 58.73 58.86 58.49 58.81 59.43 59.19 58.88 57.92 58.27 57.51 55.75 54.36 55.63 55.75 55.37 53.67 51.58 49.08 47.57 46.92 45.77 44.65
44.60 41.76 40.75 33.89 33.32 34.56 30.98 32.84 44.63 44.55 45.96 46.96 45.97 46.54 49.23 50.38 51.03 53.44 55.54 56.64 56.57 56.71 57.32 57.53 57.81 58.03 58.61 58.96 58.91 58.78 59.01 59.47 58.99 58.94 58.52 58.00 56.35 55.17 54.69 54.65 53.11 51.59 49.72 48.22 46.62 45.81 45.59 44.42 43.61

GFSSGP_sfc_wetblb_063.txt.gz
Wetbulb
56.32 56.86 52.54 47.78 37.69 34.79 30.94 34.96 38.84 40.70 41.65 50.59 53.70 51.50 51.40 52.15 52.31 45.72 61.88 63.17 64.49 67.77 69.24 67.87 68.37 68.32 68.29 67.85 69.46 71.36 71.69 71.82 71.25 70.64 70.37 70.06 69.82 69.46 68.98 68.81 69.00 69.49 69.50 68.58 68.34 68.22 68.37 67.74 67.08
52.68 55.20 49.03 41.68 33.36 28.00 31.31 36.91 38.15 41.93 45.55 53.82 56.03 54.83 52.24 50.78 56.91 61.49 60.06 62.72 63.35 65.69 68.93 66.80 67.90 66.80 67.01 67.45 68.63 70.61 71.60 71.37 70.69 70.47 70.13 69.65 69.56 69.20 68.69 68.37 68.57 69.15 69.10 68.03 67.59 67.26 67.16 67.30 67.20
52.86 51.04 43.65 37.60 30.30 29.64 31.68 38.41 40.46 47.48 54.51 52.70 55.01 55.67 54.11 53.21 59.38 62.14 66.41 64.14 62.69 62.58 64.88 67.48 67.37 66.80 68.26 68.72 68.91 69.91 70.86 70.50 70.24 69.95 69.95 69.66 69.51 68.95 68.52 67.98 68.25 68.91 68.73 66.88 65.83 65.66 66.39 67.29 66.21
50.88 46.01 41.75 35.67 32.01 36.60 38.29 42.73 42.36 47.51 51.97 54.66 54.58 50.69 56.62 58.46 62.77 63.46 66.04 64.62 61.66 62.18 64.24 66.16 67.45 67.69 69.05 68.15 68.95 70.36 70.34 69.64 69.44 69.34 69.60 69.63 69.29 68.98 68.03 67.33 67.89 68.69 67.80 65.43 63.99 65.28 66.12 65.72 64.99
47.69 42.03 34.91 31.56 33.83 38.22 41.06 43.11 48.55 47.89 50.74 51.22 53.07 48.25 51.58 60.31 63.41 64.14 65.52 64.38 62.18 62.88 65.78 65.33 65.16 67.68 68.31 69.19 69.29 69.00 69.03 69.28 69.11 69.07 69.02 69.10 69.08 68.50 67.59 67.23 67.40 67.32 66.60 64.61 64.35 65.70 66.03 64.96 64.10
42.01 39.71 33.15 30.17 34.56 40.23 41.83 47.89 48.61 49.86 51.37 51.62 52.60 52.32 53.48 60.44 60.68 62.40 64.73 64.68 65.90 66.25 66.69 66.65 66.24 67.47 67.81 67.98 66.37 66.69 67.78 68.12 68.45 68.73 68.64 68.84 68.29 67.62 67.03 66.70 66.21 65.81 65.24 64.51 64.67 65.85 65.21 64.34 63.67
40.14 36.90 32.48 32.38 36.17 38.31 42.84 50.86 49.61 50.52 50.52 50.46 53.76 52.43 54.96 57.86 60.44 62.62 63.68 63.65 65.73 65.58 66.12 66.60 66.80 67.30 66.77 66.20 65.73 65.64 66.22 67.44 67.62 68.18 67.89 67.80 67.12 66.59 66.46 65.92 65.37 64.63 64.10 63.68 63.49 63.82 64.51 64.16 63.20
41.89 39.09 32.67 34.52 35.12 36.51 45.31 50.92 52.06 50.70 50.83 55.61 57.25 50.91 50.40 56.72 60.87 62.65 64.53 64.14 65.53 64.33 65.80 65.76 65.44 65.70 64.73 64.84 64.27 63.79 64.58 66.34 66.88 67.64 67.33 66.64 66.34 66.26 65.67 64.99 64.44 63.86 63.56 63.28 63.03 62.91 63.53 63.83 62.75
41.60 35.63 31.82 35.31 35.94 38.65 47.26 47.17 52.91 53.43 51.29 56.48 57.85 57.58 57.61 59.26 61.24 61.43 61.18 62.86 63.20 64.10 64.80 65.30 64.81 63.97 63.11 62.42 62.16 63.00 64.35 65.72 66.23 66.59 66.31 65.02 64.58 63.41 62.10 63.59 63.67 63.41 63.04 63.04 61.92 61.11 62.63 62.75 62.32
39.31 33.74 36.53 40.97 40.97 41.14 48.20 50.06 51.41 50.12 50.95 52.69 54.82 57.78 59.22 59.07 59.42 58.67 58.61 59.37 60.82 61.77 62.56 63.95 63.26 62.39 61.93 61.38 61.26 60.59 61.27 62.15 63.63 64.44 64.76 63.99 62.29 61.31 62.19 62.68 63.24 62.83 62.34 62.06 61.82 60.45 58.95 56.17 55.10
38.89 37.16 40.73 43.55 43.24 46.02 47.31 47.07 48.99 49.85 47.59 51.96 51.17 55.07 57.57 56.19 56.07 56.58 56.48 56.69 57.25 60.22 60.96 61.70 62.15 62.69 61.39 61.34 60.69 59.74 60.62 61.99 63.40 63.79 63.19 62.69 61.85 61.67 60.20 60.02 59.20 58.22 59.26 55.79 54.77 54.22 52.50 50.75 50.20
37.75 42.13 42.35 43.80 43.99 45.82 46.84 48.73 48.63 49.53 50.44 55.80 53.98 56.44 55.85 55.13 54.63 55.67 55.50 55.94 56.69 59.32 59.82 60.54 61.36 61.66 61.73 62.24 61.58 62.97 63.18 63.42 63.56 62.88 62.84 61.86 60.26 59.49 58.55 58.07 57.57 56.54 55.52 54.35 53.71 53.82 52.05 50.09 48.87
40.56 43.18 45.13 46.38 45.19 46.36 51.03 48.97 47.70 48.53 53.56 56.27 56.76 56.48 54.57 53.56 52.36 53.46 55.59 55.95 57.08 57.63 58.73 59.31 60.11 60.48 60.88 61.12 61.10 60.99 61.24 61.42 61.83 62.10 62.42 61.28 58.93 58.13 57.72 57.05 55.66 54.58 54.50 53.23 53.68 52.63 51.73 50.30 49.07
44.65 45.08 45.14 45.61 45.44 50.50 49.34 48.04 47.99 49.81 53.59 54.85 55.45 53.71 52.74 52.17 51.59 52.00 53.89 55.13 56.35 57.29 57.95 58.83 59.37 59.61 60.16 60.31 59.97 59.49 60.19 59.92 60.65 60.71 60.38 59.79 58.70 57.60 56.92 55.93 54.67 53.63 53.41 53.58 53.93 52.62 51.17 50.46 48.85
45.62 42.05 42.82 43.51 43.06 47.15 48.09 42.96 45.30 50.58 52.57 53.96 54.07 53.09 52.23 52.23 50.88 53.37 54.01 54.82 56.08 56.27 57.69 57.55 58.13 58.96 58.87 58.67 58.98 58.72 60.12 60.56 59.99 59.93 58.88 57.90 57.95 57.28 56.54 55.62 54.65 54.05 54.74 53.29 54.28 52.72 51.41 49.01 48.42
41.37 39.89 35.38 41.04 42.34 44.75 44.80 38.35 45.04 50.09 50.78 51.82 52.53 52.39 52.36 51.93 52.05 50.42 54.54 54.85 55.94 55.71 56.44 57.50 58.52 58.02 57.71 57.79 57.72 58.33 58.33 59.16 59.96 59.63 58.75 57.67 57.24 57.04 56.57 55.76 54.97 55.04 55.09 53.61 54.07 53.00 51.63 49.79 48.13
36.62 32.31 35.38 39.40 43.17 42.84 41.83 39.47 45.01 49.46 50.15 51.16 51.90 52.42 51.63 50.79 50.88 50.97 52.44 54.27 55.46 55.72 56.22 56.89 56.88 56.96 56.40 56.70 56.68 57.08 57.06 57.01 58.08 58.81 58.67 58.03 58.14 58.09 57.00 56.66 56.10 55.71 55.45 55.11 54.81 53.29 52.25 50.30 48.37
32.54 33.59 33.92 35.18 40.19 43.25 41.03 41.35 44.43 48.35 50.52 51.17 50.80 52.20 50.78 50.42 50.79 51.25 53.64 54.95 55.20 56.17 56.41 56.10 56.20 56.30 56.15 55.94 56.06 56.35 56.69 56.48 56.94 56.84 58.22 58.98 58.84 59.16 57.75 57.58 57.58 57.43 56.40 55.43 54.37 53.15 52.09 50.92 49.28
38.84 36.91 35.33 38.11 42.83 43.08 42.60 41.25 44.22 45.72 47.52 47.62 49.89 50.66 50.83 50.81 51.62 51.43 52.86 54.46 54.61 55.40 55.47 55.01 55.09 54.52 54.39 54.03 54.60 54.81 54.90 55.61 56.14 56.49 57.49 58.62 58.53 59.72 58.59 57.93 57.45 57.54 56.88 56.13 54.44 52.28 51.74 51.08 49.76
38.84 36.80 36.63 39.75 43.15 43.24 41.15 42.20 43.58 45.71 47.40 48.05 49.22 50.63 51.22 51.11 50.75 51.14 50.51 52.01 52.45 54.50 54.93 54.23 53.47 53.13 53.54 54.26 54.54 53.75 55.65 55.40 55.66 56.69 57.00 57.35 58.17 58.39 58.91 58.24 57.93 57.90 56.66 55.05 53.33 52.28 51.03 51.22 48.24
38.22 36.88 37.23 37.64 40.26 39.91 40.26 38.53 41.59 45.81 46.44 49.66 50.87 52.17 52.13 51.69 50.67 50.67 50.66 50.64 52.47 53.45 53.85 53.97 52.88 53.19 53.74 53.60 54.73 52.43 53.27 53.98 53.47 53.79 55.27 55.85 56.67 58.12 58.85 58.66 58.07 57.52 56.86 55.51 53.68 52.77 52.24 50.81 49.56
35.68 41.77 41.32 40.26 36.56 32.62 39.12 30.02 36.78 42.55 44.87 47.11 49.26 50.37 51.58 52.27 52.22 51.45 50.74 50.07 51.12 52.35 53.63 53.42 53.46 53.01 53.78 53.84 51.61 51.38 51.43 51.85 53.20 54.15 53.01 53.88 56.53 57.21 58.26 58.71 58.48 57.66 57.18 55.23 54.70 54.86 53.17 52.43 49.98
39.47 43.64 41.95 40.67 37.04 33.40 34.13 30.67 35.03 42.02 42.51 45.17 47.06 50.19 51.84 52.65 52.40 51.30 50.87 51.06 51.15 51.93 52.92 52.95 53.21 52.90 53.34 53.60 52.72 52.39 51.37 52.38 52.34 51.55 51.52 52.47 54.24 56.88 57.79 57.75 57.32 57.54 57.26 57.06 55.83 54.23 53.12 53.45 52.33
45.48 42.37 41.33 38.96 35.93 29.68 34.89 33.01 32.06 38.58 42.82 45.38 48.33 49.65 51.52 51.95 52.63 52.69 52.32 52.04 51.28 51.85 52.43 52.72 52.91 52.52 52.92 53.05 52.18 51.95 51.85 51.87 51.72 50.55 51.56 53.03 53.67 54.60 56.42 57.77 57.66 57.95 57.71 57.00 56.66 56.34 55.03 54.54 54.07
41.92 37.34 29.44 27.78 27.69 28.88 36.93 33.22 37.32 40.22 44.41 46.79 47.80 48.90 51.32 52.28 52.81 52.63 51.56 51.21 51.44 50.96 51.68 52.06 52.57 52.34 52.49 52.40 52.40 51.78 52.23 52.21 52.04 52.14 52.59 52.76 53.58 54.15 55.20 56.84 57.71 58.01 58.01 57.81 57.10 56.19 55.97 54.18 53.07
39.12 38.01 30.07 26.43 25.75 29.15 36.57 32.40 37.49 43.70 45.25 46.49 48.27 50.70 51.54 52.09 52.80 52.98 52.63 52.25 51.87 51.63 51.71 52.11 51.69 52.15 52.95 52.16 52.02 52.53 52.67 53.43 53.72 54.12 53.67 53.65 54.29 54.98 55.37 55.96 57.57 57.94 57.63 56.58 56.30 56.10 54.73 53.62 53.11
39.28 35.05 41.32 33.80 32.34 29.69 33.68 37.77 41.94 44.23 44.40 45.27 45.43 48.67 49.08 51.30 52.15 52.80 53.51 52.94 52.43 52.26 52.18 52.29 51.83 51.90 53.01 52.34 52.25 52.39 53.11 54.06 53.92 54.97 55.47 55.40 54.40 55.25 55.33 56.12 56.74 57.02 56.98 56.98 56.44 56.75 55.78 52.96 51.80
41.94 43.28 34.64 33.69 27.12 26.49 30.36 32.29 34.39 40.58 43.04 43.69 44.05 45.73 48.69 51.03 52.25 53.46 53.71 53.48 53.40 53.10 53.08 53.41 53.66 52.18 52.62 53.50 52.43 52.43 52.75 53.95 55.63 56.26 57.04 57.18 56.63 56.80 57.08 56.21 56.64 57.34 57.04 56.79 57.43 56.58 52.64 50.30 48.60
38.26 37.31 38.55 38.10 33.52 29.39 27.80 30.37 39.51 41.67 44.08 43.83 44.51 44.71 47.79 49.21 51.88 53.32 54.28 54.70 54.39 54.32 53.68 53.24 53.75 53.99 53.55 54.12 53.89 52.55 52.63 53.61 55.45 56.74 57.76 58.01 57.34 57.17 56.69 56.91 56.92 57.19 56.87 55.24 54.29 51.85 49.37 48.34 46.20
41.83 40.23 40.70 34.08 32.18 32.72 30.18 34.33 42.70 43.30 44.29 44.21 44.21 45.05 45.41 47.89 51.44 53.16 54.46 55.11 54.86 54.43 54.41 54.24 54.12 54.35 55.26 55.91 56.02 55.76 56.09 57.45 57.73 58.17 58.70 59.13 58.07 57.19 57.05 55.58 55.48 54.96 54.05 52.59 50.89 48.98 47.78 46.16 45.20

GFSSGP_sfc_wetblb_066.txt.gz
Wetbulb
55.29 55.30 51.13 46.16 37.00 33.89 30.74 34.44 36.95 39.11 39.94 47.79 52.83 49.84 49.30 50.49 50.38 44.19 60.47 64.01 66.23 68.79 69.07 68.45 69.05 69.52 70.15 70.70 71.16 71.09 71.41 71.78 71.63 71.29 70.96 70.75 70.49 69.89 69.85 69.70 69.48 69.67 69.56 68.24 67.76 67.43 67.30 67.10 66.97
51.30 53.91 47.85 40.55 32.75 28.15 31.35 35.26 36.87 41.75 47.90 51.76 55.23 54.46 51.04 50.37 56.12 60.31 59.28 62.68 66.03 68.84 66.65 67.07 68.47 68.51 69.31 69.58 70.05 70.67 71.10 71.07 70.91 70.82 70.56 70.32 69.82 69.75 69.80 69.48 68.97 69.16 69.37 68.87 68.10 68.18 67.53 66.90 66.09
51.49 49.44 42.86 35.49 29.24 29.63 30.94 37.27 39.83 43.12 52.38 51.66 52.95 54.42 53.20 51.68 58.42 60.06 64.81 63.38 64.77 67.35 66.34 65.88 67.98 67.99 68.29 68.79 69.27 69.77 70.04 70.26 70.34 70.10 69.84 69.86 69.43 69.75 69.62 69.03 68.72 69.09 69.09 68.49 68.96 68.43 67.37 66.26 65.90
49.11 45.10 40.48 35.21 30.89 35.39 37.37 40.73 41.16 42.61 49.42 53.10 53.73 49.65 56.04 57.81 60.99 62.52 64.81 63.87 62.89 63.96 65.90 66.66 66.63 67.65 68.08 68.66 69.09 69.50 69.29 68.81 69.41 69.08 69.42 69.38 69.33 69.50 69.25 68.42 68.28 68.29 67.82 67.64 67.53 67.79 66.20 65.23 64.59
45.52 40.95 34.24 30.74 32.02 37.04 39.47 41.31 44.01 46.83 48.84 49.79 51.93 48.25 50.70 57.06 61.51 62.05 63.79 64.26 61.59 62.49 63.95 66.46 66.59 67.49 68.22 69.10 69.20 68.51 67.98 68.79 68.92 68.93 68.85 68.74 68.79 68.89 68.54 67.95 67.32 66.20 66.22 67.05 66.98 66.34 65.05 64.55 64.13
40.93 38.87 31.88 29.51 33.18 38.82 40.73 42.12 48.02 48.26 49.93 50.23 51.07 49.28 51.55 60.39 59.82 60.88 63.96 64.24 62.44 61.87 63.50 65.19 66.14 67.76 67.44 68.05 67.68 67.25 67.97 68.04 68.59 68.50 68.39 68.31 67.79 67.76 67.89 67.37 66.22 65.43 66.24 67.01 66.62 65.66 64.64 63.91 63.25
39.83 35.96 31.76 31.16 34.76 37.32 39.95 48.16 47.61 48.25 49.48 48.92 52.16 51.23 53.66 56.24 59.39 62.03 63.75 65.30 65.58 64.51 64.18 64.81 65.13 66.34 66.70 66.37 66.65 66.32 65.92 67.08 67.73 67.90 67.69 67.49 66.81 66.65 66.72 66.22 65.25 65.25 66.38 66.58 65.58 64.42 64.15 63.62 62.66
40.79 38.23 32.23 33.24 34.20 35.35 41.88 49.52 51.32 49.74 48.89 54.72 55.63 49.66 48.72 55.60 60.41 62.60 64.14 63.21 64.22 63.47 64.70 64.77 64.55 64.90 63.05 63.89 64.87 65.18 64.40 66.54 67.55 67.54 67.02 66.32 66.20 65.93 65.28 64.34 64.11 64.29 65.33 65.75 65.15 64.24 63.76 63.26 62.53
40.36 34.68 31.16 34.15 34.98 37.91 43.81 45.60 51.46 52.43 50.84 54.13 56.45 56.20 56.52 59.03 61.65 61.31 61.69 61.64 63.26 63.04 64.37 64.05 63.88 63.52 62.95 62.98 63.40 63.82 65.10 65.12 66.19 66.90 66.15 64.66 63.54 62.21 60.40 62.24 63.28 63.51 63.53 64.20 64.57 64.14 63.05 62.38 62.18
39.01 33.35 35.66 39.84 39.23 40.36 42.21 47.24 49.31 48.34 49.19 50.83 53.18 56.75 58.33 58.17 59.60 58.01 59.14 59.45 60.82 61.99 63.05 63.62 63.43 62.68 62.86 63.01 62.42 62.02 63.41 63.41 63.37 64.73 63.79 63.26 61.41 59.97 60.91 61.95 62.49 62.42 62.14 62.85 63.92 63.62 62.51 60.64 58.07
37.34 36.27 39.29 41.04 42.54 42.11 40.62 45.33 48.80 47.96 47.00 50.11 50.52 52.91 56.44 55.06 57.26 56.75 56.94 57.12 57.66 60.27 60.80 62.52 62.27 61.67 60.93 60.15 59.92 60.98 62.68 62.51 62.67 63.44 63.23 61.87 61.10 60.85 59.43 58.50 57.87 58.61 58.46 56.23 57.95 56.45 53.96 53.05 52.70
36.48 40.95 41.19 41.84 42.89 42.32 43.23 47.54 47.24 48.39 49.18 54.08 54.16 55.21 56.03 54.04 54.03 55.32 56.00 56.78 57.98 59.13 60.03 61.90 61.67 60.85 60.51 59.46 58.43 59.78 60.33 61.50 61.87 62.06 62.42 60.83 59.97 58.08 57.65 56.39 55.28 53.36 52.89 52.81 52.48 50.39 50.18 50.09 50.08
38.86 41.12 43.19 44.89 44.74 43.08 48.99 47.33 47.16 48.49 51.32 55.24 56.08 55.70 54.22 53.29 53.24 54.97 55.84 56.68 57.66 58.52 59.25 60.09 61.75 61.03 61.04 59.40 58.92 58.87 59.56 60.58 61.09 61.39 62.24 60.53 58.59 57.04 56.00 55.73 54.45 53.54 52.47 53.43 51.52 50.24 49.78 49.42 48.35
43.05 43.07 43.61 43.83 43.93 48.56 46.94 46.71 47.18 48.72 53.31 53.66 54.46 53.51 52.71 52.07 51.65 52.82 54.79 55.86 56.78 58.08 58.48 59.69 60.21 61.56 61.35 60.19 60.74 61.05 61.91 61.87 62.14 62.34 61.91 59.69 58.39 56.87 55.76 55.02 54.12 53.39 52.64 53.33 52.23 50.92 49.52 47.88 47.47
43.63 40.11 40.97 42.15 41.57 44.90 47.63 42.54 45.02 49.31 52.53 52.81 52.94 52.87 52.47 51.66 51.89 51.10 53.63 55.03 56.54 57.42 58.40 58.61 59.01 60.60 60.11 60.48 60.24 60.77 61.22 61.59 61.86 61.57 60.32 58.58 57.77 56.02 55.52 54.24 53.48 53.67 53.20 54.31 52.63 51.10 50.11 47.58 47.77
38.88 38.23 34.18 39.95 41.00 43.47 44.52 37.55 42.31 48.75 51.46 51.07 51.97 52.12 52.14 51.32 51.67 50.98 52.55 54.81 56.13 56.72 57.50 58.24 59.42 58.81 58.81 58.89 58.55 59.73 60.62 60.85 59.97 59.86 59.17 58.02 57.66 56.46 55.15 54.67 53.87 54.48 53.74 54.79 53.13 51.51 49.88 48.16 46.90
35.59 31.04 33.08 37.13 41.03 42.61 40.79 38.46 42.66 47.92 50.53 50.03 51.01 53.39 51.58 50.35 50.55 50.31 51.71 54.68 55.25 56.21 57.16 57.72 58.06 58.00 57.64 57.64 58.12 58.22 58.28 59.22 59.58 59.23 58.42 57.34 57.22 56.90 55.85 55.17 54.53 55.25 54.96 54.01 54.02 52.58 51.61 49.64 48.47
32.69 32.43 31.39 33.52 37.70 39.48 38.39 40.23 41.83 47.23 47.65 48.54 49.47 52.66 51.49 50.47 50.32 50.67 52.67 53.57 55.76 55.89 56.75 56.97 57.20 57.02 57.14 57.04 57.30 57.22 57.08 57.23 58.96 58.88 57.92 57.52 57.61 57.59 56.97 56.49 56.01 55.75 55.42 54.38 53.73 52.61 52.03 51.51 50.15
37.08 35.53 33.25 35.82 40.43 39.08 39.41 39.96 42.76 44.35 46.79 47.45 48.77 49.88 51.95 50.68 51.07 50.81 53.29 54.57 54.21 56.01 55.84 55.98 56.00 56.00 56.08 55.92 55.66 55.56 55.06 55.98 56.72 57.28 58.15 58.19 58.14 58.14 57.66 57.27 57.14 57.07 55.70 54.87 54.26 52.85 52.14 51.19 50.04
37.92 35.26 34.47 37.89 41.13 39.73 39.00 39.32 41.19 43.75 46.13 48.21 47.91 49.46 50.52 49.94 49.88 50.27 50.79 53.29 54.12 54.44 55.03 55.19 55.22 54.91 55.19 55.74 56.50 56.03 56.20 55.22 55.78 56.65 56.96 58.41 59.01 59.43 58.85 57.79 57.30 57.14 56.84 56.06 54.36 52.93 51.38 51.54 49.32
36.71 35.51 34.51 35.40 37.54 38.21 37.01 36.45 39.50 43.54 45.26 47.32 48.09 50.08 51.87 51.27 50.14 50.81 50.47 51.41 52.97 53.28 54.42 54.20 54.14 54.12 54.04 54.71 54.64 53.98 55.76 54.26 53.70 54.19 55.28 56.25 57.46 58.48 58.50 58.42 57.53 57.38 56.92 55.54 53.63 52.82 52.42 50.77 49.73
34.51 39.26 39.08 37.55 34.90 30.90 37.19 29.16 35.67 39.05 42.24 44.86 47.13 48.71 50.39 51.39 51.42 50.79 50.63 50.06 51.20 52.84 54.00 54.22 53.52 52.87 53.11 52.75 51.95 51.39 54.15 53.83 53.88 53.93 54.37 55.50 56.76 56.97 57.61 58.26 57.82 57.09 56.66 56.00 55.17 54.14 52.51 51.63 49.89
38.16 41.38 39.05 38.04 34.84 32.41 32.72 29.56 34.28 39.79 39.85 42.85 45.37 47.79 49.70 51.26 51.65 50.49 50.22 50.43 51.59 52.43 53.21 53.93 53.75 52.31 53.46 53.16 52.24 51.80 50.89 54.55 53.15 53.30 52.97 53.04 54.42 56.05 56.13 56.56 57.01 57.04 56.94 56.58 55.30 53.78 52.92 52.73 51.86
43.77 40.34 39.08 37.36 34.95 28.09 33.80 32.01 30.91 34.64 40.94 42.83 45.53 47.31 49.38 50.81 52.03 51.83 51.57 51.10 50.24 50.60 51.93 52.78 52.94 52.67 52.65 52.95 51.78 51.32 51.24 51.05 51.15 49.56 49.95 50.81 51.35 52.67 54.61 55.90 55.88 56.08 55.52 55.56 55.76 55.22 53.90 54.10 53.77
39.61 36.56 28.58 26.97 27.48 27.77 35.20 31.15 36.43 39.90 41.88 44.40 44.87 46.31 48.49 51.01 51.69 51.31 50.17 50.10 50.04 49.84 50.98 52.20 51.91 51.74 52.37 52.24 52.31 51.29 51.44 51.26 51.27 51.30 50.08 49.99 51.01 51.64 52.54 54.29 54.80 55.22 55.72 55.68 55.76 54.40 53.69 53.85 53.71
38.39 36.97 28.99 25.88 25.64 28.43 34.51 30.52 36.20 42.23 43.60 44.35 45.28 46.81 47.78 50.03 51.54 51.88 51.41 51.01 50.70 50.42 50.97 51.40 51.70 51.93 52.05 52.25 51.96 52.11 51.71 51.82 51.76 51.14 51.83 50.74 51.05 51.28 52.11 52.99 54.57 55.12 55.48 55.24 54.60 54.65 55.21 55.23 54.65
37.99 33.33 39.16 31.94 30.90 28.34 31.89 36.50 41.32 43.13 43.37 43.29 44.02 44.49 45.49 49.01 50.54 51.97 52.57 51.72 51.24 51.10 50.95 51.35 51.61 52.04 52.50 51.75 52.30 51.91 52.03 51.47 51.72 51.49 52.25 51.68 51.80 52.67 52.38 52.92 53.11 54.23 54.78 54.78 55.82 56.16 55.45 55.41 54.73
40.66 42.31 33.95 31.94 26.45 25.62 28.94 30.96 33.69 38.14 41.91 43.48 43.65 43.46 45.81 48.27 49.77 51.68 52.87 52.71 52.70 52.38 51.97 51.65 52.32 52.27 52.57 52.59 52.05 51.99 51.47 51.64 52.35 52.20 52.21 54.04 53.89 53.50 53.17 53.47 53.76 54.13 54.34 54.74 55.84 56.20 56.42 56.40 54.63
37.79 36.62 36.16 36.09 31.79 27.00 25.78 29.97 39.08 41.04 42.75 42.41 43.81 44.30 44.51 47.23 49.52 51.30 52.77 53.83 53.63 53.17 52.28 51.70 51.76 51.93 52.18 53.13 53.24 52.22 51.56 51.59 52.40 53.21 53.56 54.73 56.18 56.53 55.99 56.36 56.47 56.50 56.94 55.52 55.64 56.44 54.27 52.82 51.58
39.75 37.57 38.15 31.00 29.73 31.07 29.09 33.13 42.31 42.16 43.14 43.30 43.46 44.17 43.30 47.59 49.22 50.47 52.43 52.71 52.98 52.90 52.56 51.87 52.09 52.00 52.29 53.24 54.05 52.67 52.01 52.49 52.30 52.90 54.37 55.49 55.57 57.23 57.38 57.69 57.03 56.64 56.30 56.12 55.64 53.91 50.87 50.80 48.34

GFSSGP_sfc_wetblb_069.txt.gz
Wetbulb
60.00 57.91 56.63 52.34 45.42 43.96 40.78 42.11 43.80 43.88 46.76 50.60 55.67 53.83 52.84 54.99 52.87 49.71 64.14 67.22 69.35 70.39 71.28 71.11 70.65 71.45 71.64 71.99 72.04 71.91 72.09 72.00 71.98 71.80 71.61 71.49 71.43 71.03 70.40 70.16 70.11 70.10 69.99 69.28 69.21 68.90 68.23 67.33 66.95
56.86 56.25 53.47 47.88 43.55 40.34 41.49 42.40 42.65 45.81 50.54 54.50 56.17 56.88 55.03 53.50 58.81 62.26 63.29 66.55 69.18 70.08 70.42 70.60 70.29 70.74 71.31 71.59 71.68 71.72 71.98 71.91 71.60 71.48 71.45 71.11 70.83 70.42 70.15 69.79 69.16 69.15 69.06 68.09 67.97 67.80 67.57 67.23 66.57
54.83 52.22 50.59 44.83 40.63 40.41 40.83 43.03 45.44 46.48 49.01 54.59 54.61 57.23 56.09 54.58 59.41 62.30 66.74 66.12 67.75 68.68 69.60 68.98 68.72 68.93 70.78 70.90 71.12 71.31 71.25 70.90 70.90 70.90 71.04 70.63 70.45 70.30 69.93 69.10 68.76 68.96 69.06 68.38 67.58 67.40 66.79 66.21 66.23
53.50 51.63 47.29 44.23 40.24 42.61 43.46 46.11 45.76 46.76 52.62 55.77 56.52 54.04 58.24 60.52 61.97 64.17 66.06 66.53 67.12 66.46 66.61 68.06 68.10 68.58 69.83 70.99 70.84 70.73 70.31 69.86 69.87 69.89 70.14 70.32 70.47 70.10 69.32 68.52 68.72 69.20 68.33 68.83 67.69 66.87 65.81 65.49 65.08
51.22 48.76 43.54 41.28 40.52 42.87 44.50 45.83 46.68 49.30 51.94 53.42 55.48 52.86 53.77 58.95 63.99 64.14 65.31 66.85 66.91 65.41 67.03 67.57 66.99 67.94 69.02 69.95 70.50 70.22 69.68 69.38 69.42 69.36 69.26 69.63 69.71 69.20 68.60 68.11 68.51 68.71 69.08 68.98 66.89 65.69 64.91 64.52 64.31
48.44 47.10 42.03 39.65 40.09 43.15 45.29 46.98 49.17 51.28 52.36 52.82 53.42 52.86 54.78 61.68 61.87 63.07 65.09 65.99 66.03 64.20 65.61 67.29 66.87 67.89 68.25 68.79 69.02 68.58 68.81 68.87 68.73 68.63 68.67 69.11 68.60 68.27 68.23 67.49 66.99 67.70 68.02 68.08 66.43 64.95 64.10 63.88 63.69
47.32 44.67 40.98 39.96 40.61 42.46 45.01 51.65 51.41 51.35 51.32 52.23 55.95 53.04 57.00 57.91 61.77 63.50 64.74 66.33 65.46 64.71 64.92 66.55 67.74 67.77 67.61 67.34 66.84 67.11 68.02 68.21 68.12 67.83 67.84 67.83 67.45 67.36 67.08 66.18 66.41 67.52 67.48 66.75 65.75 64.80 64.24 63.64 63.13
47.52 46.50 40.13 41.10 41.15 41.88 45.90 51.53 54.20 53.03 51.95 56.77 58.09 52.78 53.32 58.26 62.09 63.99 65.04 64.41 64.87 65.53 66.43 65.64 67.08 66.28 67.83 68.32 66.32 66.11 66.51 66.59 66.59 67.40 66.79 66.47 66.71 66.74 65.83 65.44 66.66 67.27 66.67 65.70 64.86 64.24 63.63 63.26 62.86
46.79 43.83 40.60 41.28 40.74 44.17 46.41 48.07 53.31 55.01 53.78 55.30 58.63 58.03 58.37 60.08 62.36 62.48 62.32 62.43 63.38 63.99 64.82 66.35 65.92 64.27 64.31 65.32 65.59 64.57 65.04 65.02 65.23 65.80 66.03 65.43 67.09 65.49 63.56 63.68 66.04 66.52 65.42 64.51 64.26 63.74 63.21 62.47 62.27
46.42 42.64 42.50 44.74 44.62 45.12 46.69 45.90 49.97 51.67 52.06 52.82 55.86 58.62 58.95 60.05 60.45 59.61 60.60 60.39 61.79 62.64 64.00 64.29 64.19 62.61 63.15 63.66 61.90 61.67 61.78 61.18 62.77 64.16 65.97 65.88 64.48 63.62 62.24 63.49 64.56 65.19 64.75 64.03 63.81 63.10 62.51 61.30 60.87
44.19 43.27 44.34 45.05 46.46 46.07 45.66 48.38 53.33 51.56 49.96 53.36 53.53 55.62 57.41 58.27 59.07 58.94 58.50 59.17 60.63 61.55 62.31 62.92 63.30 63.26 62.54 62.62 62.58 62.76 62.19 61.37 62.50 63.32 64.11 64.30 62.93 62.59 62.27 62.70 62.91 64.38 64.18 63.47 62.67 62.01 60.48 60.70 60.14
42.86 45.19 45.55 45.66 46.26 46.91 45.69 50.43 50.64 51.66 52.86 55.57 56.01 57.36 56.80 57.29 57.24 57.79 58.25 58.76 60.19 61.66 61.46 62.66 62.84 62.08 62.42 62.27 61.87 62.97 61.91 61.87 62.30 64.00 64.76 62.90 61.42 60.26 60.64 59.91 60.04 60.74 62.96 63.19 61.89 60.26 59.60 59.56 59.30
42.84 44.99 45.31 46.38 46.80 47.11 49.19 48.88 49.69 50.70 54.22 56.74 56.87 57.46 56.93 56.73 55.98 56.77 58.09 58.34 59.55 60.41 60.77 61.59 61.75 61.22 60.54 60.07 60.98 61.95 61.26 61.10 62.19 62.98 63.84 61.40 59.06 57.95 59.63 59.28 57.93 58.47 60.08 60.11 59.50 59.12 58.18 57.86 58.26
45.99 45.01 46.38 47.44 47.66 48.25 48.12 48.99 50.46 52.35 54.33 56.14 56.59 56.65 56.91 55.72 55.04 55.15 56.06 57.54 58.41 59.97 60.28 60.26 61.03 60.72 59.71 59.03 59.91 60.59 61.29 62.57 62.83 62.53 62.79 61.48 59.51 60.01 59.01 58.46 57.84 57.80 58.38 58.06 57.69 57.26 56.61 56.60 57.06
46.57 44.17 45.46 46.23 45.96 46.18 50.80 47.02 48.51 53.20 54.59 54.49 55.82 56.21 55.76 55.22 55.21 55.14 56.20 56.45 58.73 59.15 59.67 60.36 60.87 61.27 59.47 59.06 59.65 60.48 61.61 61.61 61.54 61.81 61.42 60.23 60.57 60.58 60.18 58.43 57.63 58.29 57.90 57.12 56.19 55.78 55.19 54.07 53.99
43.51 42.93 40.11 44.02 45.76 46.77 48.61 42.93 48.91 50.15 52.87 53.31 54.86 55.62 55.38 54.88 55.24 55.60 56.11 56.03 57.61 58.57 59.37 60.75 60.43 60.53 60.14 59.95 60.58 60.93 62.16 62.07 62.34 62.10 60.52 59.73 60.61 60.46 59.74 58.13 58.05 58.72 58.83 57.42 55.92 54.58 53.42 53.36 53.23
40.16 37.62 38.23 40.95 45.05 47.58 46.58 43.68 47.13 51.19 51.93 52.10 53.99 55.24 55.21 54.56 54.77 55.24 56.35 56.14 56.73 57.86 59.19 59.29 59.59 58.82 59.77 60.43 60.90 60.70 61.23 61.36 61.13 60.62 59.86 59.96 59.88 60.38 59.65 58.67 58.19 58.97 58.85 58.00 57.07 56.18 55.13 53.18 52.52
36.60 37.15 38.39 39.74 43.83 44.38 43.83 44.17 47.53 49.02 51.00 52.07 53.30 54.74 54.83 54.80 54.83 55.02 55.78 55.37 56.13 57.33 58.37 58.45 58.82 58.15 58.69 58.87 58.91 59.49 60.67 61.18 60.87 60.07 59.36 58.99 59.77 59.48 59.54 59.10 58.66 58.97 58.90 58.32 57.85 56.97 56.83 55.51 53.96
40.86 38.90 38.76 40.93 43.34 42.36 42.26 43.45 46.56 48.20 49.78 50.34 51.38 52.97 54.94 54.26 56.30 54.98 55.61 56.31 55.51 56.13 57.18 57.84 57.07 57.63 57.68 57.76 58.80 56.91 56.59 57.52 59.19 59.17 59.20 58.11 58.85 59.16 58.73 58.54 58.94 59.16 58.32 58.19 58.64 58.15 56.68 56.11 55.65
40.44 38.96 39.07 41.93 43.27 42.44 42.64 42.58 46.54 47.23 49.04 50.83 51.62 52.44 54.34 54.64 54.08 53.88 54.93 55.06 55.29 54.84 56.59 56.94 56.99 56.72 57.35 57.98 57.97 58.05 58.13 57.96 57.88 58.97 58.85 58.44 58.88 59.37 59.11 58.15 58.92 58.66 58.83 58.77 57.76 57.65 56.80 57.26 55.50
39.96 39.05 39.32 39.05 41.16 43.08 41.88 41.38 44.36 47.52 48.62 50.03 51.96 53.44 54.76 54.90 53.22 52.55 53.39 54.34 54.65 54.46 54.46 56.16 57.13 56.50 56.92 57.24 56.31 56.82 55.93 56.09 56.43 56.87 57.27 58.13 58.52 59.40 59.12 58.99 59.91 59.66 59.96 59.00 58.59 58.01 58.02 56.96 55.66
36.74 41.99 41.38 39.66 38.51 34.50 42.32 35.06 41.04 46.29 45.58 47.27 50.39 51.76 53.42 54.93 55.28 54.19 53.19 53.08 53.39 54.37 55.22 56.97 56.99 56.82 57.97 57.23 55.26 56.06 55.19 53.58 55.44 56.20 57.13 57.48 58.60 59.32 60.04 60.04 59.91 59.44 60.21 59.94 59.04 59.80 59.05 58.59 56.71
40.16 43.05 41.28 40.79 38.11 37.52 38.39 36.54 40.00 42.86 44.38 47.25 49.71 51.17 52.93 54.35 55.47 54.60 53.71 53.70 53.93 54.46 54.78 57.03 57.22 57.07 57.19 57.31 57.14 56.32 55.87 56.15 55.58 54.94 55.55 56.74 57.09 58.00 58.70 59.84 59.35 59.87 59.30 59.51 60.54 59.24 58.50 58.43 58.01
44.73 42.14 41.26 40.17 38.49 32.46 37.51 38.04 38.40 41.93 45.19 47.48 49.60 50.89 52.37 53.66 55.10 55.59 55.67 54.87 53.74 54.39 54.08 56.26 55.82 55.98 57.02 56.32 56.66 56.66 56.93 57.06 54.28 54.30 55.36 54.88 55.74 57.13 57.89 58.45 60.40 60.88 60.64 60.80 60.73 60.38 59.92 59.23 58.69
42.55 39.69 32.70 31.43 31.42 31.13 39.09 36.83 40.71 44.85 46.73 47.84 49.24 50.43 51.80 53.51 54.64 55.03 54.33 53.50 53.35 53.15 52.85 54.73 54.77 54.59 55.88 56.22 55.62 55.83 56.18 57.08 56.76 55.22 56.00 54.31 54.47 55.24 57.06 59.11 59.33 59.54 59.95 60.12 60.64 60.32 60.05 59.74 59.12
39.99 39.70 34.08 27.45 29.69 33.54 37.38 34.55 40.27 46.42 48.10 48.34 48.73 50.06 50.74 52.32 54.60 55.13 54.90 54.36 53.51 52.81 53.04 54.18 53.26 53.31 54.61 56.12 55.96 55.84 56.34 56.57 57.23 57.38 56.40 56.27 57.03 57.23 57.96 58.35 58.97 59.29 59.66 59.90 60.34 60.39 60.38 60.28 60.04
39.56 36.46 42.56 35.40 35.32 33.44 36.79 40.21 45.00 46.98 47.96 48.01 49.22 49.13 51.06 51.32 53.83 55.03 55.57 55.13 54.64 53.92 54.05 54.24 53.07 52.96 54.02 55.65 55.84 55.98 55.84 56.11 56.13 56.80 57.08 57.70 57.53 57.53 57.87 58.15 58.19 58.95 59.38 59.79 60.38 59.95 59.91 59.79 60.18
43.40 43.97 35.97 35.86 29.01 27.95 33.86 35.61 38.94 42.87 46.11 48.29 47.91 48.94 50.57 51.22 52.83 54.76 55.62 55.30 55.55 55.21 55.02 55.01 54.72 54.03 55.00 55.77 56.06 55.69 55.77 56.09 56.64 56.93 56.47 57.10 57.75 57.25 57.43 57.77 57.94 58.30 58.80 59.31 59.61 59.80 60.19 59.36 59.96
40.10 39.14 39.61 39.50 36.48 31.55 30.09 35.21 44.03 45.63 47.34 47.48 48.71 49.57 49.86 50.31 52.52 54.44 55.80 56.61 56.32 56.21 55.44 54.81 54.74 54.84 55.50 55.77 55.92 55.88 55.70 55.73 56.01 56.20 56.61 56.38 57.10 57.31 56.71 57.60 57.90 57.73 58.13 58.94 59.03 59.22 59.52 58.30 58.08
42.91 40.49 40.83 35.18 33.89 35.56 34.60 36.11 46.49 46.51 47.09 48.03 49.30 49.20 50.03 50.20 51.96 53.94 55.62 56.23 56.38 55.73 55.53 55.11 55.07 55.07 56.00 56.38 56.03 55.93 55.89 55.45 55.42 55.39 55.44 55.98 56.01 57.06 57.44 56.57 57.19 58.58 58.48 59.14 57.93 56.31 55.49 55.28 54.80

GFSSGP_sfc_wetblb_072.txt.gz
Wetbulb
60.79 62.40 62.92 57.84 49.14 48.81 45.94 46.07 49.47 48.32 50.20 54.04 57.19 55.20 54.54 56.99 53.84 51.32 67.69 69.55 70.30 70.93 72.32 72.16 71.25 72.10 72.52 72.61 72.30 72.10 72.39 72.37 72.06 72.06 72.06 71.95 72.11 72.21 71.77 71.33 70.90 70.65 70.96 70.54 69.72 69.47 69.08 68.50 67.55
61.35 60.70 59.58 55.51 47.09 43.78 45.64 48.47 47.22 50.31 52.04 55.29 57.16 58.19 57.24 55.52 61.69 63.80 66.69 69.20 70.15 71.16 71.32 71.38 70.64 70.97 72.03 72.07 72.03 72.01 72.37 72.20 71.98 71.91 72.00 72.06 71.88 71.45 71.23 70.59 69.93 70.06 70.62 69.70 69.16 68.58 68.35 67.33 66.90
59.15 58.27 54.31 51.38 47.91 44.18 45.85 48.39 49.80 51.49 52.67 54.27 55.87 60.19 58.65 57.47 61.97 65.25 67.98 69.32 70.10 70.58 71.38 70.76 68.98 69.11 69.80 71.13 71.65 71.68 71.67 71.28 71.52 71.40 71.95 71.69 71.23 71.09 70.40 69.56 69.28 69.67 70.11 68.90 68.11 67.47 67.33 66.28 66.41
57.39 55.95 54.09 47.86 45.17 47.29 47.64 50.19 50.61 50.87 55.19 56.45 57.54 54.94 61.09 63.87 63.45 66.93 68.36 69.28 70.16 69.01 71.26 68.11 67.62 67.71 69.16 69.43 70.90 71.55 70.96 70.68 70.68 70.73 71.07 71.30 71.06 70.57 69.66 68.71 68.55 69.11 68.90 68.09 67.38 67.38 66.39 65.96 65.73
58.86 55.00 47.55 46.26 46.07 48.04 49.88 50.83 51.26 50.49 53.89 55.45 57.34 53.77 56.59 62.22 66.19 66.73 67.29 68.79 69.12 67.90 68.87 67.18 67.59 67.96 69.14 69.75 70.47 70.84 70.42 70.02 70.11 70.09 70.20 70.33 70.32 69.97 69.14 68.59 68.50 68.40 68.60 67.96 66.58 66.45 65.41 65.20 65.23
52.91 53.54 45.47 43.65 45.94 48.19 50.21 51.74 51.24 52.30 54.30 55.59 55.36 55.96 57.55 63.88 64.34 65.69 67.37 67.57 69.15 67.60 68.62 70.17 68.11 68.34 68.89 68.86 70.23 69.66 69.59 69.49 69.55 69.45 69.68 69.86 69.35 68.76 68.45 68.32 68.25 68.34 67.86 67.16 66.26 65.41 64.85 64.51 64.23
50.67 48.63 45.13 45.26 45.64 47.24 49.40 53.07 52.75 52.19 52.78 53.83 57.91 54.40 59.55 62.16 64.52 65.73 66.93 68.54 68.94 65.43 66.79 69.72 69.70 68.93 67.15 67.38 67.54 67.57 68.68 68.69 68.66 68.69 68.63 68.51 67.98 67.93 68.14 68.04 67.84 67.98 67.13 66.40 65.31 64.97 64.59 64.08 63.45
52.71 50.33 45.67 46.18 45.28 46.37 49.77 51.53 54.32 53.48 52.48 59.29 59.73 54.06 55.83 61.92 64.28 66.03 66.44 67.22 66.92 66.07 65.68 66.89 68.94 68.93 69.08 69.70 66.17 66.65 67.14 67.71 67.66 67.94 67.52 67.05 67.14 66.60 66.44 66.99 67.71 67.59 66.75 65.74 65.04 64.62 64.18 63.37 63.07
53.59 46.99 44.69 45.68 45.72 47.78 50.50 49.91 53.51 57.02 55.19 57.78 60.09 60.18 61.75 62.80 64.25 64.50 64.38 64.71 64.17 65.10 66.56 66.43 68.11 68.36 68.41 68.09 67.12 66.38 66.84 66.79 66.51 66.77 66.42 65.76 67.28 66.86 65.65 66.03 66.85 66.68 65.72 64.94 64.49 64.08 63.55 62.83 62.51
49.81 46.59 46.51 49.00 49.35 48.81 50.08 50.22 51.69 52.91 53.45 55.37 57.48 61.57 62.17 62.55 62.78 62.39 63.03 62.66 64.22 63.99 66.16 67.44 67.52 67.84 65.99 65.66 65.14 64.59 64.89 65.52 64.83 64.80 64.85 65.82 67.15 66.48 64.31 66.39 65.81 65.33 64.46 63.99 64.01 63.45 62.64 61.99 62.10
49.37 46.37 49.15 49.18 50.34 50.56 50.19 50.87 53.36 53.00 51.16 53.64 54.74 59.01 61.28 61.37 61.67 62.05 62.56 63.68 63.85 64.53 65.79 66.66 64.47 64.81 63.83 62.54 62.32 61.96 62.00 61.82 64.19 64.18 64.42 65.64 66.22 64.80 64.90 66.82 66.21 64.95 63.36 62.64 62.72 62.14 62.08 62.08 61.81
46.49 49.11 49.20 49.90 50.44 50.19 49.82 52.07 51.95 53.57 54.39 57.93 58.43 59.76 60.72 60.80 60.96 61.56 61.87 62.73 63.79 62.52 63.97 64.83 65.33 63.82 63.51 62.63 61.81 61.56 60.43 60.64 61.79 62.79 63.79 65.24 64.14 63.89 64.49 65.10 64.83 64.20 63.60 62.85 62.16 61.99 62.56 62.09 61.37
47.73 48.25 49.75 50.56 50.40 50.39 51.66 50.56 50.94 52.46 56.30 58.78 59.40 59.99 59.95 60.61 60.98 61.66 62.30 62.92 62.11 62.31 63.09 63.34 64.59 64.17 62.94 62.90 62.90 61.43 60.50 59.64 61.57 62.54 63.36 64.92 63.13 62.94 62.46 63.94 65.03 64.41 64.72 64.02 62.89 62.14 61.64 60.73 60.67
48.93 48.95 48.98 49.68 50.02 50.95 49.63 50.32 52.23 53.03 56.65 57.97 58.70 59.38 60.49 60.08 60.15 60.48 60.80 61.42 60.85 61.05 61.69 62.23 62.17 62.56 61.84 62.42 61.74 61.83 60.31 59.77 61.55 62.29 62.54 64.55 63.13 62.42 60.78 61.46 63.06 64.35 65.02 64.44 62.80 61.40 60.29 59.91 60.20
49.43 46.43 47.94 49.01 49.92 49.17 51.03 47.99 49.24 54.23 56.71 56.68 58.48 59.32 59.77 59.94 60.31 60.00 60.80 60.28 61.07 60.08 61.25 61.77 61.45 60.52 60.39 60.59 60.93 61.13 61.56 61.53 61.49 61.54 62.27 63.21 62.57 61.35 61.61 60.73 60.71 61.85 62.98 62.92 61.93 61.05 60.11 59.37 59.46
46.50 47.08 43.37 47.73 48.61 49.85 51.79 45.46 50.29 54.39 55.49 55.37 57.50 58.94 59.11 59.37 59.79 60.80 60.82 60.18 61.60 60.24 60.39 60.92 61.47 60.38 60.31 60.53 60.48 60.98 61.81 62.14 61.94 61.69 62.55 62.16 61.74 61.59 60.74 60.14 60.38 61.39 61.47 60.36 59.89 59.15 57.92 58.04 57.55
45.94 42.29 43.83 45.08 49.46 49.34 50.44 47.16 51.75 54.89 54.23 54.13 56.87 58.30 58.97 59.51 59.89 60.61 60.93 60.51 60.90 61.37 61.77 60.47 61.69 60.16 60.69 60.60 60.57 61.16 61.64 61.58 61.96 61.85 60.97 61.02 61.61 62.17 61.08 60.49 61.05 61.90 59.96 59.74 59.67 58.97 58.48 56.83 56.61
42.55 42.38 43.81 43.44 47.03 48.78 47.99 47.65 51.08 52.95 53.27 54.35 56.30 58.02 58.88 59.10 59.50 60.45 60.67 60.16 60.18 60.79 60.42 60.07 60.40 60.00 59.95 60.13 60.93 60.59 61.04 61.99 61.46 60.92 60.12 59.84 60.18 60.81 60.69 60.24 61.28 61.63 60.32 60.02 59.68 59.10 59.09 58.31 56.85
46.07 43.90 42.95 45.24 46.80 45.83 46.11 46.78 48.93 52.56 53.20 54.14 55.92 56.84 58.56 59.26 61.12 61.33 60.86 60.07 59.79 59.62 59.70 59.97 58.18 58.90 59.44 59.58 58.79 57.95 59.07 59.71 60.68 60.79 60.36 60.42 60.20 60.70 60.85 60.38 60.83 61.51 60.50 61.13 61.13 60.19 59.18 58.20 58.13
45.19 42.72 42.67 45.63 46.69 45.76 45.50 45.34 48.12 51.51 52.49 53.81 54.47 56.40 57.41 59.45 59.93 60.13 60.08 59.99 59.39 58.85 58.98 59.09 58.52 58.37 59.44 59.01 59.31 59.55 58.98 60.59 61.08 60.29 59.86 59.47 61.04 60.70 60.52 59.52 60.08 60.98 60.69 61.81 61.14 60.17 58.41 59.49 59.53
44.27 42.70 42.92 42.88 45.26 46.43 45.06 43.42 45.77 50.11 52.56 53.73 55.37 56.66 57.84 59.05 59.42 59.45 59.23 59.52 59.66 57.75 58.80 58.92 58.56 59.29 59.93 60.68 61.07 59.45 58.18 58.37 58.17 58.91 58.91 58.74 59.50 60.79 59.71 58.71 58.47 59.35 60.77 60.19 60.73 60.36 60.02 58.80 59.28
41.55 46.13 44.38 43.63 42.45 38.85 44.97 37.58 45.40 48.59 49.67 51.42 52.66 55.97 57.26 58.53 60.19 60.13 59.76 59.51 59.53 59.20 58.33 59.70 58.44 59.66 59.28 59.56 58.32 59.38 58.65 55.80 58.55 57.82 58.32 58.69 58.72 59.20 59.08 58.28 58.51 59.28 60.70 60.77 61.42 60.89 61.16 61.57 59.37
42.76 46.83 44.66 44.49 43.03 42.29 41.85 39.03 43.48 47.38 47.17 49.72 51.88 53.47 56.79 58.85 60.06 60.10 60.02 60.13 60.29 60.18 58.85 58.48 58.79 60.33 58.84 58.23 58.94 58.26 58.74 56.43 57.61 58.34 57.47 57.61 58.23 59.42 59.26 59.28 59.37 59.10 59.73 61.35 62.03 61.20 61.51 61.86 60.84
46.60 44.66 44.25 44.15 42.74 35.45 40.15 40.11 41.44 45.79 48.15 49.63 51.67 52.88 54.20 57.98 59.64 60.72 61.35 61.13 60.38 60.36 59.55 59.37 59.74 59.72 59.22 59.32 58.39 57.57 57.22 57.14 56.43 55.97 57.34 56.65 57.41 57.83 58.99 59.09 60.36 61.24 60.73 61.89 61.99 61.70 62.07 61.90 61.60
45.28 42.41 36.85 35.52 35.43 34.26 42.22 40.12 42.32 48.30 50.27 51.15 51.80 53.03 54.35 57.41 58.91 59.85 60.17 60.01 59.89 59.32 59.02 59.23 59.76 59.27 59.91 59.76 59.35 58.77 59.30 59.19 57.67 56.44 56.66 55.90 56.00 56.68 57.04 58.85 58.93 59.65 60.74 59.11 60.75 60.54 61.44 61.95 61.82
42.61 42.72 38.62 31.53 34.14 37.59 42.25 38.01 43.19 49.75 51.61 53.00 53.16 53.78 54.56 55.48 58.43 59.62 60.32 60.47 60.32 59.72 59.08 58.47 59.26 59.27 60.02 59.67 60.00 60.35 60.16 59.91 59.26 59.40 59.23 59.59 59.15 58.86 60.20 60.05 58.94 59.38 59.36 59.11 60.59 60.92 61.28 61.94 61.77
42.77 40.44 45.32 39.60 40.11 37.19 41.35 43.79 47.76 49.92 50.47 52.05 52.88 54.06 54.24 55.32 57.24 59.12 60.26 60.74 60.74 60.20 59.51 58.61 59.04 59.28 59.71 59.97 60.27 60.23 60.32 60.74 61.17 60.75 60.62 60.75 60.68 60.49 60.77 60.88 60.55 60.40 60.56 61.57 61.96 61.22 61.13 61.55 61.78
45.33 47.02 38.55 40.16 31.94 31.29 38.02 40.08 42.14 45.62 47.16 50.43 51.20 52.37 53.78 55.58 55.76 58.55 60.16 60.52 60.96 60.95 60.68 59.79 60.04 58.85 59.46 59.98 60.26 59.98 59.80 59.97 60.52 61.23 61.29 61.74 61.59 61.43 61.47 61.43 61.23 61.34 61.01 61.02 61.18 61.19 61.46 60.97 61.98
42.41 41.92 43.07 43.04 40.37 34.57 33.51 38.81 48.17 47.43 48.52 50.06 51.70 53.48 54.46 56.00 55.40 57.74 59.40 60.75 60.93 61.39 60.75 60.12 59.93 58.85 58.74 59.41 60.18 60.05 59.78 59.64 60.58 61.21 61.20 61.31 61.64 61.27 60.65 60.22 60.65 60.08 60.67 60.39 60.67 60.53 60.41 60.12 60.75
45.48 42.69 43.40 37.72 37.15 39.95 39.42 39.69 49.15 50.10 50.55 50.50 51.89 53.60 55.07 55.94 55.97 57.03 59.50 60.21 60.26 60.62 60.57 60.23 60.24 59.51 59.23 59.58 60.11 60.28 60.02 59.79 59.63 60.12 61.17 62.10 61.54 61.89 61.50 60.30 59.63 59.74 59.79 60.64 60.89 60.17 60.01 60.08 60.07

GFSSGP_sfc_wetblb_075.txt.gz
Wetbulb
61.52 62.01 62.41 58.82 50.16 49.65 47.33 48.24 50.74 49.18 50.54 54.34 55.80 54.40 53.90 55.17 53.14 51.41 69.02 70.33 70.96 71.76 72.78 72.34 71.27 71.90 72.52 72.14 72.29 72.44 72.75 72.71 72.37 72.07 72.19 72.23 71.98 71.99 72.01 71.64 71.36 71.51 71.28 70.59 70.25 70.25 69.52 69.27 68.72
61.69 61.37 60.39 56.22 47.29 46.03 48.05 50.48 48.50 50.62 52.74 54.79 55.82 55.49 55.08 54.39 59.97 61.84 66.95 70.59 71.09 71.44 71.85 72.25 70.74 71.48 71.41 71.27 71.91 71.99 72.54 72.50 71.93 72.14 72.29 72.26 72.25 71.85 71.59 71.03 70.56 70.62 70.89 70.29 70.09 69.54 68.52 67.83 67.80
61.94 60.66 55.32 52.13 49.36 46.24 47.02 50.12 50.44 51.88 53.67 53.46 53.60 58.14 56.92 56.80 61.94 65.24 69.60 70.24 71.50 71.74 71.84 71.50 70.13 68.37 66.92 65.10 65.37 70.83 71.64 71.52 71.42 71.74 72.27 72.39 72.22 71.69 71.09 70.38 69.97 70.40 70.60 69.89 69.41 68.47 67.68 66.80 66.76
57.75 56.51 54.73 47.98 47.01 49.81 49.14 50.80 51.74 51.51 53.66 55.33 55.40 53.36 60.02 65.42 63.78 67.69 69.35 69.95 70.29 71.70 71.64 68.89 66.55 66.58 66.23 64.39 62.52 68.87 70.86 70.83 70.96 71.15 71.97 71.98 71.74 71.15 70.60 69.71 69.87 70.28 70.06 68.89 68.42 67.44 66.50 66.25 66.10
58.50 55.39 49.08 47.94 48.31 49.90 51.47 51.96 52.29 51.25 51.99 53.98 55.77 53.20 55.59 64.28 66.81 67.75 68.28 69.43 69.58 71.26 72.04 70.40 66.41 66.91 67.06 65.68 66.29 64.84 69.91 70.37 70.69 70.99 70.85 70.91 70.75 70.11 69.20 68.62 69.14 68.98 68.86 68.54 67.10 66.16 65.49 65.68 65.44
53.27 53.46 47.34 45.93 48.06 50.25 51.57 52.82 52.58 51.80 53.00 54.26 54.46 54.76 56.75 66.06 65.22 67.40 68.40 68.84 69.65 70.46 71.73 68.67 67.46 66.93 66.41 68.34 63.34 64.33 68.69 69.64 70.24 70.21 70.25 70.17 69.46 68.83 68.64 68.23 68.21 68.04 67.74 67.68 66.91 65.77 65.13 64.98 64.83
52.14 50.89 47.53 47.57 47.44 48.39 50.50 53.93 52.40 52.84 52.68 52.67 56.87 53.26 58.63 63.85 66.16 67.11 67.94 68.85 68.76 69.42 70.20 71.26 70.68 68.20 67.59 67.44 65.10 64.30 67.89 68.86 69.35 69.47 69.34 68.96 68.33 67.77 68.24 68.19 68.27 67.46 66.86 66.72 66.06 65.56 65.04 64.72 63.83
53.52 51.37 47.60 48.48 46.92 47.15 52.12 52.03 54.06 53.33 52.46 58.48 57.15 53.00 55.00 64.55 65.75 66.95 67.68 68.24 68.44 68.47 68.20 69.33 70.34 70.08 69.27 69.42 66.71 66.52 67.15 67.60 68.14 68.48 68.24 67.49 67.40 67.68 67.79 67.63 67.41 66.95 66.44 65.91 65.09 64.93 64.56 63.70 63.26
54.78 47.77 46.30 47.79 48.16 48.72 52.49 50.51 54.46 55.73 54.37 55.21 57.90 59.29 63.02 64.71 65.34 65.59 65.73 65.88 67.23 67.54 66.80 66.63 69.54 69.85 70.34 69.58 68.59 67.11 66.82 67.04 66.91 67.51 66.91 65.60 66.38 67.09 67.42 66.67 66.33 66.19 65.57 65.31 64.85 64.32 63.73 62.94 62.57
50.95 47.63 47.58 51.38 50.86 49.71 51.30 51.19 52.41 52.26 52.79 54.21 55.99 60.07 64.15 64.40 64.38 63.62 63.98 62.59 65.23 65.58 67.23 68.41 68.54 68.36 68.41 66.48 65.97 65.85 67.22 68.02 66.39 66.34 65.68 64.50 64.61 67.20 66.64 66.41 65.39 65.00 64.61 64.30 64.02 63.64 62.72 61.84 60.82
51.10 47.36 50.60 51.32 51.13 51.53 51.26 51.26 53.32 52.23 51.14 53.59 54.78 55.88 62.76 63.36 63.41 63.12 63.13 63.27 63.94 65.23 66.17 67.45 68.09 68.20 67.39 66.97 67.09 66.52 65.81 65.46 65.59 63.63 63.51 63.94 64.33 65.63 65.95 66.13 65.41 64.09 62.99 61.70 62.01 61.82 61.04 61.46 60.60
48.14 50.67 51.06 51.40 51.38 50.77 50.20 52.22 51.46 52.57 53.66 55.92 57.96 59.21 61.21 62.00 62.43 62.11 63.09 63.69 63.25 65.20 65.17 66.84 66.29 65.49 65.25 64.49 63.34 64.59 65.30 63.85 62.83 62.03 62.89 63.72 62.91 64.85 66.31 64.96 64.82 62.43 61.81 61.34 60.88 60.94 62.97 62.35 61.52
49.31 50.09 51.03 51.41 51.09 50.90 51.55 50.29 51.00 52.24 54.24 55.72 58.18 59.80 60.34 61.54 62.14 62.47 63.56 64.16 64.98 64.04 63.99 65.98 66.01 65.00 64.65 63.20 61.27 61.23 61.45 62.25 62.98 62.68 62.57 63.02 62.55 63.72 64.31 65.03 64.45 62.87 63.54 62.36 61.21 62.21 61.79 61.84 61.61
51.20 50.44 50.66 51.19 50.94 50.84 49.30 49.94 50.93 52.62 55.06 55.88 57.56 59.35 60.61 61.35 61.75 61.64 61.94 62.54 63.27 63.22 63.87 64.46 65.58 64.41 63.86 63.10 62.41 60.91 60.33 60.39 61.11 61.65 62.40 62.62 62.42 62.57 64.63 64.63 64.35 64.23 64.53 63.12 62.39 61.96 61.31 60.68 61.06
51.11 47.89 49.73 50.35 50.50 49.68 51.05 48.28 48.88 52.89 53.94 54.70 56.27 59.75 60.48 61.37 61.96 60.83 61.95 62.03 63.59 62.39 62.58 63.39 63.25 64.96 63.04 63.18 62.56 61.22 59.78 60.01 61.22 60.94 61.91 61.72 62.38 63.49 64.20 64.91 64.77 64.42 65.01 65.07 63.63 61.82 60.94 60.13 60.35
48.35 48.80 45.09 49.94 50.95 50.78 49.99 44.86 51.94 53.90 55.14 55.52 57.28 59.49 59.84 60.98 61.41 61.81 62.85 62.11 63.21 62.93 61.85 62.75 63.13 62.07 62.41 62.20 61.17 60.51 59.77 59.41 60.64 61.80 61.57 61.61 62.24 62.68 63.55 63.24 64.05 64.91 64.61 63.71 61.70 60.49 59.48 59.42 59.42
47.94 43.55 45.70 47.42 50.91 49.85 49.06 47.51 52.19 55.49 54.94 54.89 57.06 58.78 59.76 60.60 61.49 62.18 63.20 62.57 62.89 63.26 62.47 62.11 61.36 60.68 60.52 60.98 60.98 61.12 60.08 60.55 60.86 61.49 60.92 61.08 61.82 62.72 62.67 62.17 62.71 64.07 62.71 62.95 61.51 60.48 59.43 58.28 58.32
43.59 44.58 46.13 46.14 50.04 49.25 48.22 48.54 51.31 54.06 54.65 54.86 56.11 57.99 59.53 60.16 60.92 62.28 63.05 62.68 62.86 63.27 63.01 61.86 61.20 61.29 60.11 60.17 61.05 60.80 60.75 60.59 61.11 60.66 60.70 61.53 62.38 62.67 62.56 61.76 61.72 61.22 60.99 60.78 60.45 61.04 60.16 59.19 58.23
47.77 46.55 45.99 48.60 50.19 47.88 47.66 48.03 49.80 52.28 53.12 53.96 54.95 56.58 58.60 60.12 62.15 62.79 63.17 62.75 61.96 62.48 61.17 62.31 60.26 60.79 60.20 59.85 59.14 58.82 58.52 59.31 60.78 60.48 59.93 60.88 61.52 61.91 61.78 61.75 62.77 62.72 61.09 60.90 62.28 60.59 60.30 58.81 59.52
47.12 45.78 46.20 48.09 49.15 47.09 46.99 46.86 49.42 50.66 51.20 53.44 54.20 55.76 57.38 59.50 61.13 62.01 62.75 62.55 61.46 61.75 60.47 60.92 60.26 61.05 60.28 59.37 59.89 59.92 59.61 59.68 60.53 60.55 59.53 59.38 60.35 60.74 61.03 61.32 61.43 62.30 60.85 61.95 62.19 62.03 59.75 59.92 60.38
46.91 45.60 45.93 45.43 48.12 48.24 46.45 45.19 47.26 50.15 51.57 52.42 54.04 55.35 56.56 58.29 60.18 61.28 61.86 62.39 61.85 61.10 60.76 61.21 60.33 59.65 60.53 61.09 60.96 60.31 60.34 60.04 59.34 59.38 59.89 59.30 59.82 60.21 60.95 61.47 61.90 62.17 61.94 61.16 61.61 62.27 61.16 59.07 59.61
43.37 48.32 46.98 45.99 44.69 40.98 48.05 39.52 46.41 49.25 49.61 51.61 53.33 54.88 55.71 57.67 59.99 61.79 61.94 61.95 62.22 61.40 61.96 61.08 60.22 60.33 60.09 61.05 59.51 58.44 57.14 56.48 57.74 58.55 58.64 58.51 59.09 60.38 60.35 60.93 61.11 61.73 62.15 60.46 62.83 62.81 62.27 60.82 57.70
44.42 47.93 47.00 46.56 44.24 44.41 44.30 41.16 44.59 48.86 47.61 49.83 52.68 53.82 55.57 57.67 59.60 61.48 61.93 62.35 62.92 62.29 61.24 62.09 59.70 60.67 60.16 60.68 60.30 58.24 57.68 57.90 59.36 58.72 57.89 57.53 58.02 59.34 60.06 60.34 59.54 58.67 59.87 59.94 61.46 61.51 61.57 61.07 59.19
47.39 46.29 45.82 46.14 44.16 38.44 43.07 42.84 43.26 46.29 48.60 51.16 52.27 53.54 54.61 56.83 59.33 61.38 62.93 63.09 62.84 62.81 61.54 61.49 60.05 59.86 60.63 60.22 61.53 60.29 61.00 59.13 58.09 57.79 57.23 56.66 57.13 57.74 58.76 58.90 59.05 58.38 58.94 58.06 60.42 62.13 61.40 61.44 61.08
45.93 43.81 37.25 35.72 36.82 36.21 45.05 42.44 44.20 48.76 50.90 51.67 51.84 53.47 54.78 56.75 58.92 60.44 61.71 62.04 62.34 62.13 61.36 60.74 60.66 60.61 59.93 59.95 60.77 61.03 61.29 60.88 58.51 59.51 57.22 56.92 56.08 57.13 57.47 58.62 58.30 57.35 57.20 58.89 58.99 60.58 61.33 58.92 57.81
43.32 43.56 38.92 32.29 34.35 38.54 45.48 39.73 44.28 50.43 51.54 53.32 53.28 54.09 55.50 56.32 58.58 59.68 61.50 62.40 62.35 62.16 61.80 60.33 60.34 60.57 61.39 59.98 60.22 60.44 60.70 60.51 60.98 59.84 59.81 60.22 58.38 58.17 58.55 58.18 57.62 57.03 57.56 59.67 59.64 59.05 60.36 58.79 60.54
41.26 39.80 45.07 39.95 42.08 38.63 42.09 45.34 48.64 50.71 50.85 52.05 52.82 54.19 54.49 55.86 57.51 59.53 60.93 62.28 62.66 62.46 62.05 61.29 60.63 60.95 61.46 61.42 61.55 60.93 61.51 61.33 60.45 61.26 61.50 60.90 60.81 60.90 60.48 59.39 57.81 57.60 57.68 59.10 60.83 57.92 58.49 59.00 59.21
43.63 46.00 38.60 40.77 32.15 31.50 38.63 41.58 43.04 47.28 48.33 50.60 51.86 53.22 54.60 55.83 56.78 58.17 60.79 61.86 62.64 62.98 62.93 62.53 61.37 60.95 61.66 61.86 61.94 61.73 61.89 62.12 62.22 62.27 61.75 61.51 61.79 61.75 60.44 60.17 59.60 59.06 58.59 59.65 61.02 60.39 60.16 57.81 58.47
41.95 39.75 41.81 43.13 40.71 35.09 34.12 40.08 49.33 48.85 49.82 49.78 52.53 53.50 54.66 55.87 56.60 57.92 60.53 61.94 62.87 63.20 63.01 62.34 61.62 61.07 61.10 62.16 61.88 61.86 62.30 62.58 63.34 62.71 62.85 62.89 62.66 62.12 61.89 61.28 60.77 60.36 60.27 60.87 60.58 60.13 60.76 59.85 60.18
44.78 42.13 42.73 37.70 37.12 40.84 39.70 40.37 50.21 51.08 51.47 51.36 51.89 53.05 54.90 55.75 56.67 57.39 59.14 61.11 62.17 62.43 62.56 62.31 62.01 61.52 61.63 62.88 62.67 62.56 62.55 62.07 62.32 62.73 63.44 63.58 63.04 63.04 62.39 61.99 61.35 61.08 60.76 61.16 61.02 60.28 60.00 60.00 59.78

GFSSGP_sfc_wetblb_081.txt.gz
Wetbulb
58.58 56.15 52.58 51.64 42.05 38.57 35.84 41.03 44.82 44.93 47.12 48.97 52.47 50.86 49.03 49.39 53.25 49.58 65.99 68.48 70.75 69.79 70.74 71.77 72.09 72.69 72.45 72.56 72.46 72.50 72.58 72.36 72.72 72.56 72.32 71.81 71.85 71.88 71.61 71.30 71.43 71.88 72.25 71.70 71.03 70.46 70.25 70.69 70.70
55.28 55.66 51.37 47.96 38.37 33.18 38.43 44.44 43.50 47.66 50.14 51.60 52.21 51.37 49.21 52.86 60.59 64.60 64.70 68.72 69.63 70.15 69.65 70.12 71.15 72.26 72.52 72.33 72.10 72.26 72.75 72.58 72.64 72.41 72.15 71.92 72.07 71.85 71.51 71.71 71.36 71.65 71.90 71.20 70.40 70.33 70.25 70.47 69.89
56.34 56.18 46.51 42.36 37.96 36.78 37.19 44.74 45.82 48.88 51.24 50.10 48.79 50.41 53.25 56.67 61.99 64.64 66.47 68.78 69.46 69.54 69.98 69.93 70.22 71.19 69.54 68.67 68.69 70.43 70.89 69.84 71.58 72.07 72.33 72.05 72.17 72.15 71.99 70.97 70.71 70.96 71.41 70.91 70.47 69.81 69.72 69.45 68.72
52.22 50.18 46.70 38.26 37.09 42.48 44.45 45.98 47.88 47.65 49.51 51.76 51.14 48.27 59.41 61.32 62.39 66.02 67.01 68.61 67.92 68.50 69.35 67.94 68.83 68.65 68.35 67.72 68.33 67.85 67.13 65.91 64.84 67.32 71.77 72.15 72.12 72.07 71.17 70.27 70.30 70.54 70.84 70.48 69.18 69.14 68.83 68.14 67.86
48.74 45.10 38.26 36.56 39.71 44.99 48.19 48.04 47.15 46.03 47.95 50.86 52.00 48.73 55.46 62.69 65.29 65.65 66.18 67.11 66.31 67.72 67.98 67.04 67.51 68.05 68.55 67.68 68.22 67.41 66.78 66.64 65.08 64.15 68.05 70.86 71.60 70.92 70.51 69.89 69.61 70.08 70.14 69.38 68.55 68.45 67.61 67.29 66.36
43.59 43.66 35.11 33.88 40.35 45.83 47.40 48.20 48.69 48.94 49.66 51.09 49.62 50.07 56.45 63.22 64.24 65.35 66.03 65.72 66.54 67.38 66.93 66.70 67.48 67.72 67.38 67.63 67.38 66.58 66.88 65.67 65.89 64.89 63.61 69.71 70.34 69.96 69.77 69.23 68.98 69.14 68.59 67.92 67.55 67.03 66.78 66.45 65.66
42.17 39.41 36.00 38.56 41.73 44.54 47.03 49.12 49.06 49.83 50.21 48.94 51.07 48.72 57.49 61.40 64.25 65.16 65.67 66.33 66.64 66.52 66.78 65.55 66.06 67.00 67.06 66.30 66.27 65.46 65.12 65.67 63.52 62.75 64.86 68.29 69.13 68.80 68.93 68.69 68.72 68.25 67.56 67.11 66.69 66.34 66.01 65.54 64.46
46.07 41.66 38.14 40.33 41.21 42.06 47.90 50.15 50.97 50.36 49.93 54.08 51.38 48.04 54.53 60.70 63.53 64.71 64.68 64.07 64.63 65.81 65.11 66.24 66.67 65.53 64.88 64.51 65.13 64.40 64.16 64.18 63.35 62.91 63.47 67.98 67.83 68.07 67.98 67.95 67.60 67.18 66.98 66.39 66.18 65.46 65.11 64.37 63.19
46.13 38.70 38.14 39.35 42.04 44.23 48.31 46.86 51.92 52.08 50.23 52.92 51.89 52.55 59.56 63.11 63.46 62.46 62.38 61.52 63.19 64.53 64.55 64.81 66.84 66.69 64.91 64.79 64.25 65.02 64.53 64.24 64.25 64.42 64.59 66.18 67.00 66.77 66.60 66.40 66.21 66.27 65.94 65.52 65.28 64.84 63.86 62.86 62.34
44.08 36.42 40.67 45.54 46.79 45.05 48.16 47.58 49.85 48.25 49.42 49.02 50.39 60.67 62.44 62.18 60.62 59.90 60.88 60.48 61.45 62.02 63.24 64.21 64.65 64.52 65.39 66.76 64.12 63.71 63.98 62.78 62.66 63.00 66.05 66.11 65.71 65.09 65.29 65.60 65.44 65.51 65.11 64.89 64.22 63.56 62.72 60.20 57.19
44.05 41.12 44.98 46.79 48.46 48.77 46.61 46.17 46.67 46.03 45.36 48.97 50.53 58.16 60.16 59.85 59.23 58.65 59.32 60.52 61.12 62.01 64.04 64.31 64.58 64.32 64.51 64.61 63.99 63.99 63.89 62.80 62.19 64.02 64.96 65.07 64.90 64.61 64.34 64.11 63.76 63.45 63.31 61.72 61.04 60.12 57.91 55.96 56.13
42.58 45.90 46.82 47.39 48.92 47.90 45.49 46.29 46.46 45.22 48.48 52.12 52.22 57.00 59.63 58.95 58.16 58.17 58.28 59.98 60.51 61.38 62.78 64.41 64.66 63.65 64.09 63.50 62.91 62.73 63.78 63.78 63.41 64.33 63.97 63.31 63.17 63.23 62.87 62.24 61.92 61.58 59.11 58.07 57.27 56.38 55.96 55.06 56.57
45.02 45.99 47.64 48.18 47.72 47.28 48.27 46.20 45.72 47.98 49.69 50.12 51.36 53.83 54.36 54.46 56.71 57.71 58.28 60.26 61.39 61.24 61.72 62.80 63.76 62.92 61.45 60.53 59.88 61.84 63.10 64.07 63.77 63.71 63.63 62.72 62.80 62.67 62.02 61.44 60.10 59.21 59.18 57.37 55.84 55.89 55.50 55.22 55.93
47.78 47.29 47.09 46.92 46.38 47.60 46.83 45.83 44.21 48.02 50.05 49.02 49.18 48.53 53.37 54.49 55.53 55.58 58.47 60.48 60.99 61.45 61.22 62.07 63.03 61.88 60.21 60.36 60.15 61.78 62.47 63.32 63.17 62.60 61.96 62.17 62.99 63.13 61.48 59.10 57.83 57.44 57.66 56.25 56.27 56.77 55.49 55.08 55.85
48.45 43.82 45.66 45.52 46.21 45.13 47.42 43.05 44.32 48.68 48.94 48.37 48.08 48.30 53.56 54.72 56.00 56.33 56.95 60.30 60.45 61.10 61.85 61.34 61.80 62.05 59.77 58.86 59.84 60.51 61.66 62.21 62.02 61.98 61.73 62.06 62.69 62.53 60.67 57.50 56.51 56.43 56.35 55.24 56.64 57.00 56.64 55.68 56.74
43.93 42.97 38.30 45.02 46.15 47.31 43.37 40.45 46.55 48.15 47.63 47.03 47.29 47.07 52.70 54.75 56.66 56.24 57.08 58.71 59.76 61.17 60.95 61.91 63.35 61.73 61.01 58.84 59.24 60.18 61.02 61.20 61.68 61.52 61.54 61.87 62.10 62.33 61.08 57.34 58.04 57.14 57.38 55.60 57.33 57.20 55.26 54.97 55.18
39.94 34.92 38.75 41.88 46.95 46.39 44.02 42.10 47.00 48.79 48.14 48.17 47.08 48.54 52.33 53.88 55.71 56.00 57.18 59.60 59.51 60.44 60.57 60.76 61.32 61.73 61.39 60.20 58.76 59.64 60.07 60.39 60.74 61.38 61.19 61.19 61.79 61.83 61.51 58.81 59.28 58.27 58.27 56.68 57.96 56.49 55.41 54.43 53.90
35.13 36.50 37.20 39.07 44.42 46.68 43.46 43.40 46.06 47.26 48.43 48.54 48.28 48.52 52.36 53.66 55.37 56.74 57.63 58.04 59.72 59.45 59.81 60.20 60.23 61.52 61.18 60.05 59.31 58.96 59.68 59.88 60.51 60.36 60.50 60.88 61.19 60.91 61.30 60.47 60.53 59.95 58.39 57.50 56.45 55.90 54.76 54.61 55.26
41.88 40.14 39.18 42.23 46.07 46.03 45.15 42.87 44.19 46.17 46.27 46.68 47.63 48.30 51.31 54.18 56.31 57.81 58.19 57.37 58.63 59.17 59.21 58.99 59.51 60.13 60.36 59.14 58.08 57.36 57.86 58.74 59.07 59.28 58.95 59.40 60.04 60.22 60.34 59.84 59.96 59.84 58.79 56.80 56.23 54.63 54.39 53.07 53.93
39.13 37.41 37.89 42.25 45.64 45.03 44.39 44.26 45.26 45.09 46.23 46.44 48.84 48.69 50.08 54.36 55.14 57.07 57.16 56.59 58.46 58.45 58.56 57.67 58.60 59.72 59.73 59.71 58.91 58.39 58.21 58.95 58.96 58.93 57.60 59.31 58.99 58.94 58.61 58.96 59.01 58.15 57.21 55.98 54.93 55.05 54.53 53.44 54.08
39.01 38.10 38.71 38.94 43.70 45.82 44.59 41.97 43.47 45.86 46.71 47.90 47.82 50.76 51.30 54.35 54.85 56.67 56.74 56.24 57.64 58.03 58.13 57.83 58.12 58.96 59.30 59.88 59.60 58.95 58.83 58.75 58.45 58.26 57.68 58.34 58.42 58.61 58.80 58.23 58.48 57.17 57.48 55.67 55.70 55.76 54.71 53.34 53.92
34.75 41.93 42.23 41.60 40.02 35.38 43.54 33.70 42.47 43.65 45.29 47.55 48.63 46.59 47.10 51.79 56.55 57.30 57.02 55.74 56.51 57.40 58.51 58.45 58.71 58.39 58.91 59.80 58.80 58.02 57.01 56.13 57.82 57.59 57.06 57.71 58.12 58.28 58.40 57.60 57.56 56.64 56.57 56.01 56.68 56.96 55.99 55.33 53.03
37.75 43.15 42.02 40.92 39.55 39.23 39.85 37.05 40.68 44.72 42.83 45.34 47.74 48.31 47.42 48.90 56.08 56.94 57.29 56.82 57.03 57.38 57.15 57.65 58.77 59.16 59.47 59.47 59.19 57.96 57.28 57.52 57.78 57.92 56.63 56.64 56.98 57.71 56.48 57.50 57.36 56.61 57.18 57.20 57.08 57.10 57.25 56.89 54.68
44.59 41.49 41.20 40.13 38.81 33.35 37.11 36.74 36.99 41.47 44.36 46.33 47.84 48.64 48.90 49.16 55.74 57.75 58.56 58.17 57.11 57.32 56.78 57.43 57.46 58.42 59.00 59.23 59.25 58.19 57.44 57.14 56.69 56.75 56.60 56.13 56.42 55.14 56.16 57.42 58.17 58.01 57.54 57.50 57.49 58.02 58.08 57.92 56.62
40.55 37.97 32.16 30.34 30.82 29.21 39.65 36.76 39.44 45.29 48.10 48.50 48.99 48.03 49.42 50.25 54.12 56.95 57.25 57.49 57.26 56.61 56.34 56.92 56.73 56.39 58.87 58.73 59.09 58.88 58.21 57.69 57.00 56.98 56.68 56.25 56.12 55.59 56.07 56.56 57.83 58.37 58.55 58.32 58.79 58.30 58.24 57.46 56.68
38.06 36.83 32.42 26.38 27.69 31.78 40.38 34.40 39.00 47.14 49.50 49.42 49.05 48.98 49.89 50.32 53.82 57.22 57.75 57.90 57.60 56.93 56.63 56.87 56.51 57.04 57.27 58.88 58.69 58.67 58.99 58.19 57.90 57.85 57.51 56.87 56.87 56.61 56.38 56.87 57.79 58.12 58.36 58.06 57.78 57.89 57.91 56.86 56.70
37.01 33.33 39.42 33.71 35.77 32.44 36.24 40.94 45.66 47.51 48.35 48.05 47.88 48.94 48.98 51.05 53.29 57.07 58.04 58.12 58.03 56.89 56.96 57.44 56.58 56.97 57.56 57.50 58.14 58.31 57.80 57.74 57.56 58.19 58.19 57.90 57.63 57.50 57.07 56.22 56.38 57.22 57.16 57.28 56.75 56.73 55.83 56.26 56.52
39.17 42.19 34.21 34.10 27.56 27.19 34.40 36.96 38.90 44.00 45.23 47.40 46.98 47.26 48.48 50.40 51.94 53.48 57.98 58.06 58.63 57.84 57.41 57.32 57.32 56.75 57.76 57.94 58.11 58.99 58.53 58.49 58.56 58.48 57.63 57.95 57.68 56.32 56.50 56.32 56.65 56.85 56.60 56.48 56.07 56.02 55.78 55.72 56.05
37.73 35.90 37.13 37.55 35.06 31.76 30.29 35.60 45.38 44.10 46.87 47.43 47.64 48.64 49.59 49.59 50.81 52.95 54.57 58.67 59.03 58.65 57.54 56.91 57.23 56.91 57.04 57.83 57.98 57.91 59.13 59.63 59.69 58.85 58.66 58.68 58.60 57.30 55.77 55.69 55.62 56.04 55.97 55.51 54.64 54.73 54.69 55.07 55.56
41.79 38.14 37.68 33.25 32.86 35.32 35.15 34.78 47.91 47.94 48.42 48.17 47.70 48.79 50.11 49.88 50.03 51.53 53.17 57.55 58.20 58.65 58.02 57.26 57.13 57.06 57.53 58.01 57.63 57.28 57.62 58.20 58.69 58.94 58.64 59.01 58.55 58.44 57.21 56.40 54.95 55.19 55.75 55.48 54.72 54.05 54.61 54.16 54.51

GFSSGP_sfc_wetblb_084.txt.gz
Wetbulb
58.54 53.80 50.91 50.47 41.20 36.33 33.54 38.34 42.89 43.41 45.36 47.90 50.80 49.34 47.85 49.53 51.28 44.65 64.12 69.27 69.54 69.71 71.18 71.77 71.65 72.25 72.51 72.58 72.50 72.42 72.77 72.94 72.82 72.35 72.14 71.97 72.03 72.18 71.90 71.69 71.87 72.30 72.70 72.06 71.63 71.35 71.25 70.75 70.89
53.86 54.00 49.76 45.02 36.83 31.18 34.94 41.63 42.52 45.69 49.34 50.01 50.88 49.81 48.15 54.14 62.60 63.48 64.36 69.62 69.72 69.61 70.48 71.62 71.59 71.79 72.41 72.22 72.24 72.35 72.63 72.72 72.51 72.23 72.02 72.07 72.07 71.88 71.66 71.35 71.18 71.66 72.06 71.61 70.98 71.00 70.58 70.90 69.91
54.17 54.57 45.79 40.74 34.46 32.58 35.95 42.19 44.59 47.59 49.54 48.79 47.55 49.30 53.41 55.83 64.09 64.32 65.44 68.82 69.86 68.55 69.26 70.32 71.19 71.29 72.11 71.92 72.05 71.97 72.03 72.04 72.22 71.70 70.93 71.22 71.91 71.86 71.78 71.31 71.02 71.36 71.12 70.06 70.93 70.65 70.60 69.64 68.67
50.72 48.43 45.02 36.95 35.89 39.81 41.23 44.76 47.15 45.87 48.23 49.49 49.10 51.15 57.75 60.47 64.18 65.56 67.44 68.85 68.70 68.42 68.65 69.12 69.84 70.64 70.98 70.31 71.68 70.66 68.80 67.77 66.53 65.46 64.92 67.88 69.69 72.01 71.76 70.98 70.90 71.00 71.00 71.05 70.93 70.05 69.63 68.87 67.54
46.46 42.61 36.48 33.16 36.14 40.60 44.21 45.94 46.67 45.87 47.24 49.02 50.48 47.63 55.20 62.08 65.15 65.90 66.89 67.81 67.02 67.17 67.31 68.18 68.64 68.85 69.58 69.65 69.56 68.74 68.34 67.49 66.60 64.68 64.21 67.03 68.33 70.06 70.90 70.39 70.38 70.27 70.11 70.02 70.00 69.57 68.85 67.96 67.18
42.05 40.71 32.99 31.89 37.42 42.87 44.95 46.48 46.37 46.98 48.52 50.39 48.72 50.77 55.77 62.70 63.58 64.32 65.58 65.64 67.14 66.31 66.18 67.33 68.47 68.01 68.14 69.05 68.59 68.37 68.03 67.15 66.14 65.69 64.95 67.72 67.42 68.88 69.50 69.84 69.07 69.29 68.99 68.95 68.93 68.24 67.56 66.51 65.46
40.46 36.97 33.10 34.38 38.34 41.39 45.22 47.75 46.79 48.21 48.28 47.21 50.09 49.79 56.90 60.52 63.34 64.51 64.89 65.66 66.28 66.12 65.19 65.28 66.16 67.28 67.48 66.88 66.68 66.12 66.48 66.78 65.99 66.26 66.01 67.16 66.93 67.56 68.24 68.39 68.81 68.59 68.31 68.20 67.85 67.08 66.07 65.55 64.59
42.77 40.03 35.25 36.22 38.01 38.85 45.71 47.66 48.79 48.87 48.63 52.45 50.51 51.80 53.80 59.47 63.48 64.49 64.39 63.88 64.23 64.48 64.86 64.18 65.69 66.21 64.86 64.48 65.90 65.59 66.26 65.19 64.66 65.92 65.66 66.86 66.73 66.97 67.73 67.73 67.96 67.85 67.60 67.38 67.08 66.03 65.39 64.63 63.43
44.76 36.30 34.07 35.65 38.91 41.59 45.97 44.73 49.82 50.92 48.95 51.12 50.57 51.95 57.27 62.63 64.23 62.31 60.80 60.36 62.13 63.23 63.40 64.85 65.42 65.63 64.43 63.36 64.31 64.95 65.10 64.44 63.98 64.99 65.21 64.75 63.62 65.92 66.61 66.57 66.85 66.98 66.36 66.15 65.92 65.13 64.25 63.17 63.45
41.63 34.93 39.32 42.52 43.77 43.14 46.23 46.46 46.63 47.47 47.56 47.35 50.97 59.82 61.58 62.16 62.16 61.21 59.91 59.23 60.39 61.25 61.88 63.46 65.63 65.28 64.58 64.14 63.41 62.77 63.44 63.14 62.28 62.91 62.13 63.63 65.72 65.55 66.34 65.79 65.79 65.95 65.59 65.19 64.77 64.04 62.89 60.02 58.52
41.00 40.27 43.93 44.58 44.98 45.90 44.82 45.00 45.23 45.38 44.01 47.73 48.85 57.53 59.73 60.29 59.97 60.47 60.53 60.22 61.00 61.36 61.98 63.02 63.72 63.98 64.50 64.63 62.92 63.10 61.84 62.14 61.17 62.08 63.21 65.07 65.19 65.63 64.97 64.47 64.14 63.73 63.84 61.77 61.47 60.68 56.46 55.80 56.53
40.73 44.26 45.18 46.01 47.06 45.30 44.51 46.45 44.51 44.79 47.29 50.58 53.17 59.48 59.21 58.02 58.05 58.31 58.41 59.91 60.04 60.80 62.14 62.84 63.28 62.66 62.40 63.93 63.80 62.88 62.57 61.13 61.31 63.90 64.62 64.75 64.42 63.86 63.67 63.19 62.74 61.81 59.73 58.19 56.97 55.56 54.48 54.96 56.02
42.47 45.65 47.55 47.45 46.80 46.28 46.97 45.37 45.54 46.59 48.13 49.23 50.12 58.76 58.09 57.56 57.35 57.80 57.56 60.57 60.26 60.50 61.51 62.04 62.26 62.26 62.99 62.19 62.15 62.96 62.98 62.23 63.21 63.51 64.31 64.06 63.39 63.13 62.60 62.25 61.53 60.36 59.25 57.27 54.65 54.31 54.34 54.55 56.02
46.31 45.99 46.40 46.74 46.02 46.17 44.41 44.44 42.85 46.63 48.38 47.64 47.72 51.51 55.29 57.05 56.94 54.61 57.96 59.53 60.48 61.04 61.19 61.10 60.62 60.87 60.14 58.96 60.80 62.14 63.57 62.61 63.28 63.91 63.42 63.47 63.18 62.32 61.42 60.76 59.98 59.23 58.37 57.14 56.17 55.11 53.14 54.05 55.28
47.35 42.85 44.66 44.85 44.67 42.97 45.58 42.22 42.12 47.40 47.35 46.83 46.26 46.30 49.44 53.12 53.77 56.00 59.06 60.35 60.98 61.00 61.29 60.44 59.34 59.03 57.74 57.88 59.50 61.72 62.98 63.27 62.82 63.20 63.39 63.11 62.89 61.84 60.17 58.68 57.64 57.98 56.80 55.76 55.65 54.53 54.14 53.97 55.59
42.67 41.10 36.44 43.33 43.50 44.79 42.53 39.56 44.34 46.56 45.46 45.53 45.30 45.49 47.72 51.98 53.44 55.83 59.66 60.70 61.18 60.83 60.49 60.42 60.83 58.32 57.68 58.34 59.86 60.61 61.88 62.74 62.76 62.27 62.22 62.48 62.94 61.48 58.71 57.22 56.90 56.91 54.24 54.98 54.67 55.00 54.26 54.50 54.38
37.98 33.92 36.47 39.50 44.30 43.40 41.69 40.78 44.94 46.98 45.83 45.64 45.21 45.52 45.92 50.53 52.80 55.27 59.08 59.95 60.67 61.34 61.10 61.24 59.91 58.68 58.50 58.54 59.76 60.25 61.17 60.93 61.83 61.80 61.53 62.33 62.43 61.19 57.84 56.51 56.80 56.41 53.48 54.25 55.80 54.43 54.61 54.37 54.27
33.99 34.68 33.32 34.53 40.06 43.26 41.11 41.38 44.57 47.10 45.90 45.30 45.67 45.04 46.63 51.59 53.52 55.66 58.21 59.98 60.74 60.75 61.08 61.08 61.17 60.46 59.30 58.29 58.82 59.67 59.83 60.47 61.23 61.13 61.29 61.80 62.03 61.67 58.67 57.16 57.65 57.41 53.70 54.94 55.55 54.93 54.68 55.22 54.38
39.19 37.60 36.08 37.97 42.78 43.05 41.07 41.43 43.28 46.52 47.46 46.09 44.30 45.33 47.20 51.69 55.38 56.31 58.52 59.12 59.50 59.74 59.66 59.68 60.47 60.86 59.33 58.12 57.44 57.07 57.68 58.96 59.55 60.72 60.90 61.38 61.55 61.51 60.09 58.75 58.41 58.03 55.65 55.87 55.69 54.27 54.52 53.41 53.93
38.26 35.76 34.04 38.62 42.45 43.21 41.83 41.56 44.06 46.15 45.90 44.46 46.32 45.80 46.77 51.30 53.33 55.15 56.78 57.95 58.29 58.72 58.77 58.13 59.58 60.32 59.57 58.76 58.40 58.64 58.53 58.90 59.13 59.47 60.08 60.34 60.60 60.57 60.60 58.88 59.13 58.05 58.05 55.83 55.23 53.65 52.38 52.03 52.67
35.59 34.88 35.07 36.06 41.36 42.16 42.22 39.58 42.13 46.20 48.29 47.50 45.96 47.63 48.76 51.76 53.32 54.66 55.49 56.91 57.36 57.62 57.77 57.48 58.51 59.93 59.84 59.56 59.05 58.10 58.39 58.35 57.90 57.91 57.65 58.88 59.11 59.27 60.38 59.32 58.74 59.02 57.72 55.63 54.44 54.42 54.16 52.22 52.49
33.26 39.51 39.58 38.77 37.75 31.81 42.81 31.50 39.73 43.93 45.13 47.75 47.05 45.34 47.49 50.05 54.59 55.06 54.89 56.02 56.75 57.13 57.41 56.93 58.18 59.08 59.61 59.63 58.39 57.05 56.69 54.95 56.32 57.41 57.88 58.33 58.51 57.94 58.11 58.86 57.99 58.14 57.15 55.96 55.52 55.15 54.42 53.20 52.30
36.54 42.62 40.58 40.04 36.90 36.99 36.76 36.02 38.11 43.42 42.76 45.56 47.16 45.89 45.22 48.94 54.02 54.85 54.91 56.29 57.21 57.51 57.09 56.87 57.97 57.90 58.39 59.42 58.83 57.65 57.00 57.54 58.13 56.65 54.38 56.70 56.93 57.59 57.35 57.80 57.23 57.00 58.75 56.45 56.22 55.10 54.74 54.26 53.07
43.58 40.79 40.19 39.62 36.96 29.42 34.64 36.21 35.72 39.59 43.37 46.03 47.03 46.54 46.97 46.42 54.26 55.97 56.04 56.61 56.64 57.51 57.20 57.24 56.92 56.88 57.67 59.00 58.95 58.16 57.35 57.21 57.16 56.76 55.56 55.81 56.59 56.51 56.24 56.91 57.13 56.80 57.82 57.96 56.28 56.62 55.77 55.81 53.81
40.37 35.69 29.89 29.32 29.41 25.57 37.58 35.80 37.49 43.65 46.39 47.68 47.75 47.15 48.31 47.95 54.19 55.37 54.63 54.64 55.29 56.04 56.39 56.97 57.05 56.29 57.48 58.69 58.67 58.33 57.78 57.38 57.04 56.96 56.03 54.77 55.13 55.16 56.02 55.86 56.99 56.70 57.27 57.38 57.10 56.90 56.49 56.21 55.23
36.96 35.78 30.51 25.47 25.93 28.97 37.88 32.23 36.45 46.13 49.09 50.19 49.83 48.47 48.89 49.64 54.94 55.44 55.25 55.15 55.30 55.52 56.01 56.72 56.61 56.55 57.35 58.34 58.42 58.49 58.20 57.69 57.69 57.65 57.26 55.83 55.45 56.42 56.90 56.42 57.14 57.79 57.68 57.74 57.63 57.39 57.04 56.88 56.24
36.34 32.53 38.46 33.28 34.92 30.01 33.08 38.81 44.41 48.28 47.49 48.40 48.12 46.60 46.16 50.38 54.39 55.51 56.22 56.01 55.80 55.62 55.68 56.45 55.90 56.19 57.18 57.27 58.39 58.74 58.56 58.23 57.50 57.86 58.07 57.46 56.23 56.61 56.65 56.14 56.86 57.46 57.81 58.23 58.31 57.88 57.36 57.34 57.03
38.55 40.92 33.68 34.64 25.89 26.35 31.63 34.47 38.19 42.90 44.71 46.64 46.97 45.58 46.29 49.81 54.63 55.87 56.63 56.83 56.64 56.48 56.10 56.65 56.58 55.91 56.73 57.26 58.06 58.54 58.75 58.63 58.33 58.22 57.65 57.59 57.57 56.45 56.44 55.97 56.27 57.17 57.37 57.63 57.17 57.56 57.41 56.96 57.14
36.09 34.98 36.30 36.25 33.32 27.81 29.14 34.63 44.93 44.59 46.24 45.53 46.93 47.74 47.66 48.35 49.18 53.51 56.94 57.61 57.18 56.97 56.33 56.06 56.01 56.62 56.13 56.67 57.01 57.73 58.05 58.40 58.14 57.40 57.29 58.06 58.09 57.37 56.67 56.62 55.22 55.90 55.94 56.10 56.00 56.78 56.79 55.88 56.48
40.03 37.97 37.38 32.60 32.15 33.68 33.86 33.81 46.66 46.16 47.18 47.19 47.46 48.97 48.38 49.08 50.10 52.02 55.03 55.85 56.28 55.79 56.37 56.34 56.30 56.06 56.97 57.07 56.83 56.83 57.89 57.86 57.51 57.67 58.05 58.32 57.99 57.96 57.18 56.65 55.96 54.99 55.20 55.67 55.25 55.36 56.03 54.40 54.71

GFSSGP_sfc_wetblb_087.txt.gz
Wetbulb
58.51 52.34 49.51 49.16 40.54 35.63 32.06 37.00 39.30 42.21 43.85 46.94 49.04 47.49 46.66 47.54 48.05 41.33 60.89 67.42 68.97 69.20 71.01 70.92 71.46 72.20 72.33 72.15 72.17 72.61 72.66 72.72 72.60 72.71 72.65 72.61 72.67 72.67 72.44 72.40 72.26 72.50 71.98 71.85 72.61 72.66 71.86 71.22 71.11
52.14 52.03 48.64 42.98 35.87 29.94 32.67 39.36 40.64 43.49 46.98 49.06 49.22 49.59 49.88 52.50 61.67 62.24 64.08 68.81 69.06 69.66 70.71 70.61 71.24 71.83 72.16 72.13 72.22 72.47 72.68 72.34 72.37 72.32 72.38 71.39 71.27 71.83 71.38 71.57 71.85 71.59 71.91 72.11 71.89 71.87 71.05 70.78 70.20
52.86 52.19 45.07 39.49 32.69 31.00 34.11 41.05 42.64 46.85 47.98 46.81 46.05 49.35 52.22 54.70 63.05 63.52 64.94 69.08 68.67 68.59 70.17 70.76 70.86 71.28 71.85 71.96 71.86 71.99 72.05 71.74 71.80 71.85 71.51 71.07 70.95 70.63 71.16 71.03 71.10 71.60 71.79 70.60 71.56 71.30 70.32 69.68 68.70
48.64 47.53 43.76 36.29 34.07 37.11 39.28 43.27 44.30 43.74 47.39 48.06 47.02 49.78 56.46 60.80 63.55 65.18 67.25 69.50 67.85 67.74 68.70 69.70 69.92 70.83 71.61 71.85 71.73 71.66 71.38 69.30 68.67 69.48 69.72 69.65 69.48 69.75 70.14 70.16 70.17 70.81 70.80 71.01 71.32 70.04 69.81 68.35 67.57
44.86 42.03 35.68 31.76 34.35 37.93 42.57 44.66 44.11 43.89 45.16 47.20 48.33 48.46 54.14 61.76 64.84 66.23 66.96 68.56 67.18 66.50 67.36 68.66 69.43 70.41 71.34 71.77 71.22 70.87 68.40 67.14 66.14 66.91 67.47 66.77 67.58 67.63 68.04 68.96 69.50 70.14 70.14 70.73 70.34 69.42 68.39 67.60 67.06
40.59 39.34 31.74 30.77 35.01 39.99 43.23 44.74 44.58 45.40 46.26 48.30 48.05 52.81 54.51 61.81 63.35 64.50 66.02 66.35 67.13 66.09 66.20 68.37 69.50 69.78 69.58 70.45 70.11 68.72 67.78 66.64 65.89 66.04 66.72 65.98 66.43 67.74 67.26 68.10 68.70 69.53 69.04 69.45 68.86 68.62 67.56 66.61 66.10
38.90 35.41 31.56 31.52 35.14 38.81 42.68 45.43 44.67 45.80 46.26 47.00 50.00 52.39 55.76 60.03 62.24 64.13 65.52 65.76 65.71 65.30 64.91 66.99 67.42 68.07 68.37 68.14 67.89 66.66 67.44 66.73 66.24 66.04 66.58 67.25 66.64 66.63 66.78 67.83 68.11 68.61 68.37 68.15 68.35 67.76 66.21 66.07 65.29
41.38 38.73 33.29 34.92 36.13 38.11 44.02 45.42 46.23 47.03 46.99 50.54 55.36 52.56 53.04 59.18 62.95 64.09 64.44 63.97 64.10 63.98 63.76 64.16 65.02 66.48 66.28 65.37 66.44 66.19 65.65 66.05 66.46 66.65 65.96 66.58 66.52 65.98 66.68 66.75 67.18 67.60 68.43 67.83 67.40 66.35 64.92 65.30 64.41
41.86 34.71 33.33 35.55 37.64 38.63 43.23 43.45 47.20 48.22 46.86 49.60 50.16 56.10 56.99 62.11 63.56 61.97 60.42 60.42 61.31 62.69 62.72 62.94 65.91 65.67 65.38 63.50 64.46 65.90 66.30 65.50 65.70 65.97 66.44 65.12 64.11 65.97 65.37 65.70 65.93 66.91 67.00 67.05 66.05 64.89 63.86 64.35 63.76
40.57 33.99 36.39 41.27 42.79 40.34 43.88 44.64 45.77 44.78 45.42 46.18 49.56 58.53 60.81 62.43 62.31 60.72 59.02 59.52 59.91 60.61 61.58 63.28 63.26 63.76 64.38 64.34 62.53 61.69 63.17 62.86 62.54 63.52 64.14 65.07 64.16 65.23 65.06 65.23 65.51 66.00 66.10 65.84 65.10 63.44 63.56 62.80 60.88
41.48 38.48 42.52 42.53 43.93 43.61 40.91 42.60 43.71 42.93 43.04 46.10 47.10 55.83 59.42 60.98 60.76 60.10 59.57 59.62 60.35 60.54 61.18 62.22 63.33 64.19 63.20 63.31 62.35 62.16 62.78 62.74 61.89 61.45 61.56 62.32 62.61 64.61 64.98 65.09 65.41 64.51 64.75 63.12 62.09 59.55 58.05 59.52 59.14
39.01 42.13 45.54 44.11 45.54 43.19 42.06 43.94 43.11 42.80 46.21 48.60 49.17 56.85 58.75 59.22 59.56 59.72 59.45 58.76 59.42 59.58 60.80 61.65 62.45 63.86 64.30 63.30 62.08 61.83 61.57 61.55 60.72 62.31 61.80 61.94 63.10 63.34 64.14 64.45 63.95 62.87 61.93 59.95 58.58 55.10 55.06 56.80 57.02
41.35 43.52 45.51 46.51 45.91 44.35 45.42 44.22 43.49 45.23 47.90 47.94 47.88 57.77 58.00 58.50 58.79 58.87 59.50 59.82 59.42 59.49 60.54 61.25 61.64 61.45 62.12 63.37 63.06 62.38 61.49 60.77 60.88 63.20 62.47 62.69 63.14 63.15 64.09 63.23 62.49 60.77 59.90 58.69 56.83 54.16 54.74 55.75 56.57
44.38 45.36 45.65 46.29 46.06 45.86 44.55 44.72 41.23 44.95 46.92 45.83 45.75 54.92 56.81 57.28 57.60 56.03 56.16 59.04 59.59 60.72 61.30 61.18 61.37 61.42 61.17 61.82 62.58 62.70 62.08 61.31 61.73 63.23 63.37 63.63 63.99 63.63 63.04 61.84 60.66 60.17 59.62 57.12 55.76 53.82 54.01 55.37 56.66
45.88 41.96 43.77 43.03 43.31 42.81 44.35 38.83 39.88 45.40 45.85 45.11 44.73 48.85 55.44 56.73 56.27 56.02 57.22 58.68 60.31 61.01 62.00 61.27 59.87 58.92 59.18 59.10 60.95 62.44 62.57 62.31 62.60 62.80 63.35 63.56 63.63 62.75 62.19 60.99 59.58 58.98 58.80 57.41 56.45 53.14 53.50 54.99 56.80
42.05 40.30 35.52 42.00 43.22 44.32 41.79 38.60 43.20 45.88 44.34 44.10 44.54 43.69 45.24 53.15 56.04 57.15 57.20 59.65 60.39 60.81 61.01 60.03 60.40 57.20 56.52 58.42 59.55 61.48 62.80 62.49 62.68 62.98 63.24 63.02 62.82 62.16 60.78 59.36 58.40 57.73 56.65 56.13 55.71 54.28 53.35 54.92 55.59
36.81 32.27 35.02 38.64 43.47 42.85 40.43 37.94 42.13 45.06 44.97 43.75 43.98 43.80 44.19 45.02 50.45 53.51 58.09 60.20 60.45 60.65 60.71 59.91 57.94 56.37 56.88 57.81 58.59 59.94 61.56 62.24 62.46 62.30 62.72 62.80 62.38 60.94 59.23 58.25 57.22 55.60 54.93 55.10 55.19 53.82 54.14 53.80 54.13
33.92 33.23 31.92 34.62 38.87 40.56 38.83 39.13 42.20 44.25 44.06 43.60 43.23 44.35 44.25 43.59 49.80 53.78 58.63 60.49 60.39 60.61 60.99 60.38 58.00 56.62 57.27 58.61 59.31 59.73 60.40 60.72 62.04 61.82 61.93 62.58 61.90 59.83 57.67 57.08 56.40 55.67 53.61 54.38 53.75 53.71 53.32 53.64 54.45
38.10 35.57 33.78 36.09 41.04 40.84 39.48 39.78 41.87 43.68 42.75 43.58 43.79 43.29 44.64 44.58 49.28 53.72 58.73 59.82 60.41 60.87 60.41 59.65 58.68 57.54 56.96 56.96 57.32 57.98 58.14 59.53 60.15 61.19 61.72 62.05 61.61 59.08 57.18 57.37 56.07 54.92 53.60 54.61 54.78 53.65 52.93 51.78 52.95
37.56 35.06 33.29 36.54 40.01 40.79 38.65 38.78 42.61 43.39 45.13 44.48 45.56 45.61 46.75 45.73 50.48 54.33 57.54 59.21 59.90 59.84 59.34 59.32 59.11 57.69 57.02 57.45 57.36 57.55 58.29 59.00 59.57 60.20 60.99 61.99 61.64 59.49 57.56 57.78 55.79 55.28 53.41 55.10 53.92 53.58 52.33 51.85 52.61
33.55 32.04 32.40 33.90 39.33 39.34 39.29 37.07 39.91 44.20 44.51 45.72 47.04 46.08 45.52 46.79 50.59 53.85 56.59 58.06 59.13 58.87 58.36 58.41 59.04 58.68 57.65 57.47 58.16 58.41 57.22 58.36 57.98 58.14 59.31 59.61 61.12 60.50 58.68 58.30 57.02 56.63 54.23 55.03 54.92 53.73 52.82 51.55 51.97
30.78 37.77 37.85 37.25 35.05 29.06 39.15 28.35 37.85 41.77 43.28 45.35 46.68 46.26 45.26 46.11 52.52 53.94 55.69 56.48 57.83 58.81 58.82 58.18 58.57 58.47 58.71 58.19 57.21 57.35 56.17 55.86 57.29 57.71 58.33 58.74 59.02 60.11 59.70 58.38 58.49 57.50 57.28 55.39 54.96 54.88 54.55 53.45 52.36
35.92 41.06 39.35 38.52 34.50 33.71 34.39 31.66 34.15 40.89 40.21 43.61 45.37 46.51 46.23 44.81 52.23 53.32 55.30 56.46 57.29 58.51 57.54 57.11 57.88 58.05 58.30 58.31 57.98 57.40 56.87 56.69 56.88 57.67 57.39 58.11 57.76 58.23 59.29 59.07 58.22 58.17 57.55 56.56 55.20 53.95 53.58 53.51 52.91
42.57 38.83 37.89 37.91 35.20 26.79 31.79 32.33 31.97 35.62 39.74 43.70 46.87 47.72 46.87 44.28 51.53 54.16 55.30 56.54 56.36 57.36 56.91 56.36 56.88 58.06 58.00 57.96 58.46 57.53 57.14 56.25 56.20 56.16 55.90 56.52 57.45 57.21 57.24 58.40 57.85 57.60 57.64 56.18 55.89 55.02 53.96 53.18 53.65
38.58 32.76 21.60 22.12 27.22 24.44 34.53 32.43 33.72 40.69 43.84 45.56 46.71 47.63 48.10 46.08 49.38 53.18 53.15 54.73 55.98 55.89 55.91 56.87 56.59 56.14 57.63 58.61 58.35 57.71 57.43 57.15 56.15 55.69 55.34 55.70 55.98 55.90 55.74 56.11 56.99 56.95 57.85 57.70 56.63 56.14 55.24 54.73 53.69
36.02 33.13 23.63 21.01 25.15 28.69 35.57 29.69 34.56 44.50 46.91 47.35 48.28 48.44 49.03 47.94 47.30 53.05 53.86 54.91 55.48 56.05 56.20 56.18 55.93 55.61 56.08 56.98 57.82 58.08 58.06 57.77 56.57 56.41 55.72 54.63 55.36 56.01 55.48 55.08 56.34 56.62 56.76 57.82 57.17 56.30 56.39 56.26 55.32
36.02 31.55 36.37 30.65 30.74 28.74 32.32 35.92 40.88 46.19 46.31 47.12 46.83 46.47 45.23 46.93 46.75 52.83 54.23 54.92 55.56 55.82 56.07 56.41 55.75 55.75 56.12 56.04 56.97 57.68 58.25 57.78 56.98 56.85 56.23 55.18 54.88 55.81 56.73 56.32 56.19 56.79 56.62 56.53 57.14 56.97 55.89 56.25 56.06
36.92 39.27 30.28 34.08 24.37 23.22 29.78 32.00 36.71 41.82 43.43 45.69 45.24 45.15 46.03 47.10 49.56 53.47 53.78 54.70 55.76 56.21 56.21 56.65 56.49 55.97 56.02 56.58 57.48 57.39 57.43 57.96 57.89 57.73 56.81 56.78 55.32 54.74 54.51 54.77 55.86 56.59 57.07 57.02 56.77 56.38 56.87 56.38 56.36
34.24 33.59 34.78 34.90 33.78 28.40 24.91 32.77 44.26 43.03 43.72 44.44 45.70 46.68 46.79 47.69 50.74 53.36 53.93 54.60 55.31 55.65 55.95 55.99 55.88 55.84 56.10 56.37 56.91 57.03 57.26 57.98 58.08 57.64 57.60 57.89 57.20 55.62 54.66 55.16 55.18 55.32 56.43 56.96 56.85 56.80 56.86 56.14 56.07
36.45 34.94 35.49 30.50 29.71 34.42 32.36 32.14 46.04 43.83 44.19 45.68 46.17 47.26 48.39 50.27 51.95 53.40 54.63 54.84 54.60 54.67 55.08 55.14 55.58 55.16 55.54 56.35 56.49 56.19 57.05 57.92 58.05 57.67 57.90 58.06 57.49 57.66 56.61 55.19 54.96 54.48 55.28 55.77 55.87 55.96 56.38 55.24 55.61

GFSSGP_sfc_wetblb_090.txt.gz
Wetbulb
59.21 50.35 48.54 47.93 39.57 35.18 30.90 35.46 37.86 40.49 41.73 44.76 47.44 46.70 45.93 45.63 45.64 40.80 58.14 67.52 67.95 68.37 70.03 70.62 71.42 71.97 71.98 72.01 72.08 72.60 72.93 73.10 73.64 73.47 73.10 73.08 72.98 72.65 72.80 72.53 72.47 72.66 73.15 72.98 72.66 72.73 72.09 71.32 71.10
52.76 50.24 47.74 42.27 34.68 29.11 31.05 37.52 39.33 42.54 45.63 46.84 47.84 49.57 48.37 47.86 59.71 60.23 62.77 67.06 68.26 68.91 69.48 69.90 71.27 71.54 71.76 71.77 72.05 72.29 72.23 71.65 72.08 73.20 73.10 72.13 72.07 71.90 71.75 71.53 71.59 71.89 72.43 72.81 72.45 72.36 71.74 71.04 70.54
51.66 50.69 44.57 38.92 31.65 29.75 31.65 39.58 41.77 44.37 46.65 46.13 44.23 48.12 49.96 52.13 61.66 62.21 64.18 68.17 68.26 68.94 69.75 70.03 70.74 70.89 71.56 71.75 71.73 71.87 72.13 71.87 72.22 72.36 71.64 71.62 71.71 71.66 71.61 71.13 71.13 71.47 72.19 72.09 71.94 71.84 70.94 70.19 69.28
48.05 46.38 42.66 36.00 32.16 35.89 37.05 41.25 42.60 44.34 45.81 46.52 46.14 46.62 54.75 60.05 61.96 64.23 66.79 68.40 67.47 68.08 69.35 69.25 69.77 70.45 71.45 71.53 71.70 71.64 71.47 71.31 71.16 70.93 71.22 71.44 71.34 70.83 70.62 70.51 70.46 71.00 71.25 70.98 71.23 71.19 70.19 68.74 68.25
43.58 41.56 34.91 30.95 32.64 36.74 40.06 42.29 42.79 41.78 44.29 45.17 47.86 46.38 51.78 60.18 63.93 65.26 67.97 67.95 66.39 66.34 67.54 69.07 68.98 70.23 71.10 71.55 71.37 71.05 70.44 70.12 69.65 69.81 69.92 69.93 69.58 69.89 69.17 69.25 69.08 69.20 70.17 70.75 70.54 70.12 68.88 67.92 67.49
40.05 38.86 31.21 30.47 33.37 37.52 40.32 43.01 42.71 44.02 45.22 46.28 46.68 50.24 52.75 60.78 63.60 64.82 66.85 66.62 66.42 65.69 66.21 68.69 69.99 69.96 70.46 70.71 69.68 68.61 68.13 68.29 68.49 68.66 68.90 68.30 68.14 67.84 68.42 68.56 68.55 68.10 68.96 69.61 69.42 68.72 68.12 67.38 66.87
37.05 34.77 31.28 30.38 33.11 36.42 40.16 44.19 43.20 44.61 44.44 43.72 49.50 49.35 53.89 59.54 62.11 64.38 65.13 65.69 65.35 64.70 66.38 68.01 68.90 69.91 69.04 68.24 68.17 67.16 67.02 66.73 67.56 67.16 66.80 67.15 67.02 67.17 67.74 68.01 68.41 68.74 68.88 68.90 68.52 67.77 67.10 66.72 65.95
39.86 37.01 31.03 33.41 35.56 35.65 42.41 44.01 44.63 44.43 44.81 49.17 53.12 49.59 49.98 58.76 62.51 64.25 63.92 63.99 63.58 63.62 64.91 66.55 67.13 68.33 68.58 68.12 67.20 67.11 66.76 66.15 65.95 66.46 67.16 65.81 65.70 65.48 67.46 67.34 66.99 67.37 68.24 68.19 67.78 66.43 66.46 65.70 64.71
40.72 33.77 31.23 34.06 35.75 37.02 40.94 41.19 45.90 46.40 45.39 47.48 48.66 53.30 55.87 61.02 63.12 61.95 61.07 62.83 63.25 63.56 63.47 64.95 66.19 65.92 66.00 66.16 67.18 67.00 66.78 66.06 66.02 66.69 66.53 65.19 64.44 65.22 65.31 66.05 66.47 67.23 66.74 66.95 66.25 65.83 65.53 64.56 63.76
39.09 33.41 34.77 39.59 40.24 39.08 41.80 42.64 43.93 43.24 43.00 43.26 46.38 56.37 60.10 61.62 61.84 60.84 59.54 60.46 61.39 61.93 63.02 63.75 65.05 64.94 63.70 64.91 63.23 62.97 64.30 63.64 63.39 63.69 63.50 65.45 63.54 63.01 64.30 64.75 65.29 66.06 65.98 66.08 64.70 64.80 64.42 62.97 61.07
39.76 36.59 39.55 41.27 42.95 43.07 39.83 42.08 43.42 40.79 41.51 44.19 44.90 47.44 58.77 58.98 60.47 60.18 59.88 60.04 60.63 61.23 62.43 63.72 63.33 63.77 62.43 63.35 61.95 60.85 61.90 62.41 61.61 62.00 64.07 64.21 62.51 64.15 63.26 63.37 64.56 65.43 65.58 63.36 61.98 63.08 61.45 60.40 59.95
37.43 40.63 42.55 42.56 43.99 42.41 41.27 42.47 41.49 42.06 45.09 47.85 47.24 47.70 58.01 58.61 59.63 59.83 59.81 58.91 58.73 59.00 60.86 62.87 64.16 63.70 63.28 63.38 62.68 62.21 62.22 61.89 61.44 61.71 62.08 63.66 62.28 63.68 63.23 63.37 64.03 64.60 63.51 60.70 58.11 58.25 59.20 58.96 57.71
39.21 41.83 43.44 45.46 44.91 44.05 44.69 42.23 43.21 42.72 46.16 47.87 46.46 48.55 55.41 58.44 59.49 60.34 60.03 59.25 58.51 58.44 59.57 60.93 63.45 63.39 63.56 62.59 62.20 61.76 61.21 61.06 60.90 61.61 61.31 62.29 63.08 62.64 63.44 63.67 63.93 63.04 62.19 59.41 55.76 55.81 57.73 56.25 56.44
42.90 43.84 44.71 45.15 44.58 43.96 43.50 44.34 41.00 43.63 46.27 45.06 44.48 45.48 53.79 57.02 58.71 57.08 57.41 58.35 58.45 59.63 59.49 60.27 62.02 62.12 62.67 63.06 62.17 61.98 61.90 61.15 60.54 61.66 62.18 61.73 62.50 62.63 62.75 63.30 62.62 61.06 61.02 59.27 55.67 55.90 56.66 56.22 56.26
42.44 39.25 41.71 42.05 42.47 41.84 43.65 38.02 38.97 44.78 45.48 43.72 44.15 43.12 49.22 55.86 56.28 56.49 58.09 58.67 59.37 60.05 60.35 61.81 62.10 60.06 61.28 61.74 61.84 62.41 62.13 61.47 61.07 61.81 62.60 62.38 62.26 62.41 62.43 62.57 61.34 60.42 59.02 55.96 53.84 54.02 54.99 55.45 56.05
39.65 38.70 34.05 40.47 42.04 43.39 42.52 37.52 42.61 44.43 42.00 42.52 43.04 43.01 43.70 52.38 55.66 56.93 56.56 56.34 58.82 59.76 61.01 61.96 62.11 59.60 57.81 57.45 61.24 62.50 62.42 61.74 61.73 62.28 63.04 62.96 63.27 62.94 62.45 61.06 60.11 59.83 58.27 56.56 54.01 53.92 54.57 55.22 55.11
36.31 31.54 33.86 36.87 42.04 41.02 39.78 36.27 41.01 43.77 43.59 42.88 42.94 43.13 42.30 42.79 47.01 55.70 55.87 56.86 59.35 60.32 61.70 60.61 60.24 58.79 59.23 59.56 59.48 61.27 62.29 61.96 62.28 62.62 62.95 62.67 62.34 62.16 61.20 59.99 58.33 58.00 57.91 56.77 54.52 53.66 55.43 54.62 54.71
31.80 31.85 30.64 32.88 36.97 38.23 37.30 37.66 39.91 43.52 43.30 42.47 42.19 43.04 43.02 43.27 43.73 46.78 54.37 57.52 59.61 60.33 61.60 60.71 58.69 57.59 57.50 57.58 58.03 59.49 60.79 61.33 62.32 62.21 62.57 62.39 61.29 60.45 59.26 58.30 56.44 56.83 56.14 55.71 54.47 53.95 54.55 55.01 55.06
36.52 34.51 33.30 33.90 39.96 37.19 37.02 38.21 39.12 41.75 40.81 40.97 41.97 42.99 43.70 44.53 46.27 46.10 52.38 58.22 58.99 60.43 60.77 59.88 57.81 56.98 57.44 57.40 56.68 57.35 58.11 59.74 60.62 61.47 62.07 62.39 60.95 59.17 57.94 57.23 56.13 55.16 55.00 54.83 53.87 52.95 53.42 52.77 54.53
35.97 34.03 32.59 35.96 38.29 39.00 36.67 37.21 39.16 40.67 42.39 42.77 42.97 43.09 44.26 44.57 46.22 51.09 56.14 57.88 58.93 60.04 60.46 59.82 58.41 56.90 56.74 57.20 57.32 55.96 58.80 59.32 59.89 60.80 61.32 62.14 60.38 58.93 57.81 56.55 55.70 54.24 54.13 54.44 53.53 53.05 52.25 52.15 54.42
32.59 31.74 31.40 32.73 36.84 36.91 37.24 35.31 38.07 40.70 42.07 43.46 43.84 45.30 45.46 45.38 45.23 51.54 55.82 57.40 59.23 59.66 59.81 59.20 58.85 57.82 56.93 57.27 57.33 57.32 58.23 58.59 58.19 59.10 60.16 60.93 59.87 58.99 58.59 57.29 56.02 53.75 53.86 54.29 53.98 52.46 51.90 52.46 52.78
29.39 35.75 35.72 35.99 32.57 26.77 36.62 26.10 35.45 39.05 40.30 41.47 44.10 44.38 46.39 46.27 46.87 51.36 55.27 57.36 58.21 59.47 59.94 59.58 58.99 57.59 57.00 57.41 57.09 56.49 56.15 55.44 57.34 58.15 59.07 59.72 59.64 58.29 58.50 56.87 56.08 54.86 53.65 54.67 54.91 54.41 52.92 53.23 51.58
34.11 39.74 38.05 37.89 33.09 31.90 32.11 27.70 30.11 37.05 36.60 39.25 41.73 45.12 45.57 46.08 45.83 50.89 54.80 56.80 58.19 59.67 58.79 58.80 58.70 57.90 57.67 57.05 56.99 56.07 55.31 55.10 57.64 57.87 57.93 58.09 58.69 58.50 58.60 57.39 55.84 55.69 54.94 55.30 55.25 54.24 53.67 53.74 53.17
42.30 38.06 37.64 36.72 33.77 24.91 30.75 29.41 28.69 31.53 35.40 41.59 45.48 45.52 46.62 46.42 44.80 50.38 54.38 56.71 58.01 59.16 58.00 57.93 57.79 57.43 57.58 57.11 56.92 56.27 55.94 54.85 56.40 56.94 56.86 57.47 57.33 58.37 57.97 57.99 56.94 55.76 55.61 55.56 55.10 55.05 54.01 53.89 53.97
37.24 32.65 22.02 19.53 25.48 22.03 32.46 29.65 31.98 37.86 41.58 45.32 44.58 45.08 45.78 46.14 44.40 48.50 53.06 54.93 56.51 57.54 56.34 56.91 56.81 56.28 57.26 56.94 56.69 56.27 56.40 56.40 55.63 56.42 56.60 56.68 56.78 56.70 57.91 57.78 57.07 56.46 54.21 53.85 56.02 55.11 54.46 54.14 53.45
34.62 32.68 25.13 19.70 23.93 26.61 33.62 28.73 32.17 42.12 46.38 47.30 47.77 46.98 46.16 44.91 44.21 49.03 52.88 54.89 55.72 56.90 56.05 55.72 56.02 56.06 56.91 56.53 56.49 56.76 55.98 56.81 56.96 56.67 56.40 56.13 56.72 57.11 56.93 57.93 57.52 56.91 57.12 56.41 56.36 55.60 55.03 54.70 53.81
35.25 30.41 34.84 28.56 29.45 24.49 28.04 33.80 38.89 44.44 43.80 44.78 45.57 46.63 46.59 47.68 46.19 46.66 52.75 54.91 55.27 56.11 56.13 55.67 56.20 56.05 56.18 56.83 56.78 56.82 57.20 55.75 56.92 56.63 56.70 56.20 54.67 56.53 55.88 55.74 56.32 56.75 56.58 57.73 56.15 56.11 55.68 56.00 55.05
36.32 38.48 28.26 31.65 24.60 22.94 27.36 29.57 32.20 38.86 41.99 43.80 44.27 45.14 47.59 49.59 48.80 47.12 52.85 54.46 55.31 55.98 56.42 56.60 56.61 55.93 55.12 55.89 56.42 56.87 56.89 56.74 57.04 56.54 55.33 54.25 53.97 54.84 54.67 55.11 54.71 55.35 55.44 56.36 57.13 56.56 56.38 56.20 56.32
34.51 32.94 33.61 33.27 31.02 25.83 23.31 27.50 41.33 40.43 43.56 43.21 44.53 46.52 48.06 48.27 52.17 52.14 53.21 54.98 55.52 56.26 56.16 55.72 55.70 55.66 55.75 55.79 56.22 56.30 56.92 56.67 57.62 57.01 55.48 54.93 53.96 53.90 54.04 54.76 54.86 54.89 55.25 55.93 55.21 56.05 56.38 55.33 55.67
36.46 34.68 34.44 26.19 25.45 32.28 31.18 28.78 43.68 44.19 45.24 45.42 44.54 46.69 48.36 47.67 49.82 53.10 53.45 53.91 54.05 54.95 55.41 55.48 55.62 54.96 55.88 56.39 56.50 56.14 56.31 56.28 57.15 57.22 57.34 57.01 55.81 54.58 54.29 54.17 54.18 54.50 54.97 55.59 55.35 54.99 55.22 54.64 54.54

GFSSGP_sfc_wetblb_093.txt.gz
Wetbulb
62.01 55.33 55.43 54.69 47.57 45.50 41.57 42.78 44.81 44.98 46.62 49.65 51.37 50.63 50.72 51.27 51.39 48.33 64.05 70.13 70.17 71.16 71.90 71.81 70.78 71.56 71.56 72.23 72.47 72.73 73.27 73.96 73.76 73.42 73.37 73.21 73.32 73.08 72.91 72.96 72.88 73.12 73.34 73.51 72.69 73.27 72.87 72.17 71.86
56.97 53.35 54.00 49.91 44.15 39.76 40.94 43.97 44.62 47.72 49.70 50.58 51.21 52.90 52.61 51.30 60.61 62.42 65.49 70.06 70.43 71.14 71.47 71.82 70.94 71.34 71.94 72.17 72.39 71.77 72.50 73.61 73.66 73.41 73.41 73.32 73.08 72.86 73.00 72.76 72.33 72.50 73.12 73.34 72.47 72.49 71.71 71.45 70.88
54.97 53.98 51.58 48.18 42.67 39.06 40.12 43.93 48.06 48.66 50.31 49.61 50.54 53.46 53.35 54.88 63.48 64.63 67.80 70.67 70.77 70.47 70.58 71.40 70.18 70.69 71.09 72.01 72.10 71.85 71.37 72.21 72.95 72.23 72.48 71.99 71.78 71.76 71.78 71.23 71.68 72.34 72.70 73.10 72.89 71.98 71.58 70.62 69.50
53.43 52.84 48.58 43.58 40.92 43.10 42.33 46.53 47.45 48.38 49.46 49.80 50.52 49.79 57.55 62.49 64.80 67.15 69.17 70.68 70.43 69.68 70.70 69.96 69.42 70.22 71.03 71.65 71.86 71.99 71.16 71.15 71.76 71.75 71.76 72.10 71.73 71.59 70.60 70.35 70.33 71.12 72.15 72.45 72.25 71.71 70.66 69.43 68.98
50.71 49.67 43.15 41.13 40.77 43.32 45.52 46.62 48.34 47.45 48.03 49.33 50.49 49.70 55.75 62.75 66.21 68.11 69.60 70.20 69.96 68.92 69.81 69.67 68.89 69.90 70.85 71.25 71.61 71.40 71.09 70.93 70.93 71.34 71.57 71.52 71.41 71.04 70.33 69.54 69.27 69.84 70.55 71.38 71.24 70.64 69.56 68.65 67.98
46.76 47.30 40.70 38.02 40.17 42.25 45.20 47.95 47.60 47.38 48.56 49.34 48.80 50.69 56.18 63.94 66.31 68.29 70.11 70.14 70.73 70.29 69.69 69.23 70.24 69.96 70.13 70.62 70.51 70.35 69.90 69.58 69.61 69.99 70.10 70.34 69.80 69.49 69.23 68.99 68.65 68.45 69.31 69.89 70.09 69.29 68.74 67.93 67.35
45.37 43.90 40.09 39.08 39.04 40.59 43.90 48.46 46.92 48.38 47.68 47.98 52.06 50.14 57.72 62.68 66.62 68.80 69.88 70.16 70.20 70.12 70.19 69.22 70.47 70.53 69.32 68.57 68.51 68.06 68.71 68.47 68.86 68.45 68.84 68.51 67.99 67.81 68.14 68.10 68.56 68.77 68.47 69.06 69.01 68.31 67.69 67.33 66.55
46.06 45.33 39.22 39.81 39.60 40.34 46.08 47.30 48.52 48.41 47.96 52.24 57.60 52.01 53.64 61.33 66.38 67.99 68.72 69.14 69.05 69.06 68.20 68.22 69.83 70.79 71.43 70.62 67.41 67.16 67.18 67.58 67.39 67.86 67.21 66.09 65.84 66.25 66.82 66.47 67.90 68.12 67.85 68.58 68.50 67.42 66.98 66.27 65.34
46.35 41.27 38.60 39.70 39.60 42.07 46.51 46.14 48.93 50.04 48.52 49.65 51.80 55.47 59.72 63.42 66.05 66.22 65.23 64.60 65.64 66.34 66.41 67.85 68.44 69.32 70.35 69.01 67.75 67.52 67.11 66.67 66.65 67.07 66.24 65.42 66.65 66.73 66.54 65.79 66.08 67.42 67.10 67.45 67.16 66.58 65.78 64.76 64.25
45.18 40.70 40.39 43.25 44.26 43.60 45.85 46.12 46.99 47.04 46.88 48.17 49.10 58.35 62.11 64.03 64.90 64.59 63.77 63.27 64.40 65.06 65.00 66.36 67.23 68.81 69.23 68.36 68.64 67.03 66.63 66.60 66.51 67.38 67.42 67.58 67.29 67.25 66.49 66.84 65.95 66.46 65.82 66.33 66.20 65.63 64.41 64.42 65.15
44.79 41.17 43.30 44.15 45.73 45.89 45.53 45.99 47.64 46.86 45.68 48.46 48.56 50.23 59.57 62.21 63.51 64.03 64.48 64.56 64.09 64.60 65.00 64.86 65.74 66.71 68.83 67.27 67.73 66.29 66.17 65.82 65.78 65.78 66.49 67.19 67.65 67.23 66.83 67.45 68.18 67.27 65.68 64.99 65.26 65.16 65.58 65.19 64.40
42.25 43.95 45.44 45.98 46.06 46.33 44.92 46.92 46.08 47.19 48.45 51.57 51.42 51.50 54.63 59.42 61.73 63.15 63.45 64.09 64.37 64.17 64.14 65.07 65.11 64.68 66.40 66.93 66.57 65.49 64.97 64.75 64.63 65.74 67.19 66.89 65.89 65.89 66.19 65.71 67.08 66.90 65.19 62.99 63.96 65.02 64.55 64.17 63.34
43.30 44.74 45.50 47.00 46.61 46.32 47.16 45.55 46.00 47.15 49.46 51.45 50.07 49.86 50.50 54.80 59.02 62.85 64.39 64.64 64.45 64.23 65.40 64.58 64.94 64.65 64.61 64.14 64.33 64.37 64.89 64.41 65.01 64.15 65.12 66.23 64.01 64.70 66.06 64.72 66.22 64.33 62.63 61.20 62.87 63.14 63.62 63.07 62.08
45.15 45.81 46.03 47.05 47.14 46.83 45.77 46.61 46.61 47.50 50.13 49.68 49.05 50.40 50.84 53.06 57.49 61.22 62.91 63.28 63.38 64.03 64.37 65.83 63.98 65.56 64.34 63.29 63.35 63.71 63.81 63.15 62.95 63.56 63.39 65.75 64.71 65.45 65.71 64.72 64.40 64.66 61.73 60.07 61.39 63.10 62.67 62.15 62.14
44.61 41.12 43.49 44.97 46.41 45.69 47.12 43.55 44.13 49.05 50.36 49.25 49.94 49.94 49.51 50.26 56.68 60.04 61.97 63.21 63.95 63.91 64.36 64.32 64.34 64.93 63.84 63.34 63.30 63.41 63.49 63.63 62.45 62.66 64.21 64.61 64.98 64.96 65.07 63.33 63.02 63.75 62.42 59.25 60.35 61.84 61.97 61.57 61.57
43.53 41.80 37.56 43.34 44.42 45.69 45.85 40.56 46.47 48.57 46.58 47.11 48.24 48.77 49.11 50.78 54.18 58.74 61.62 62.55 63.90 64.04 63.45 64.41 63.88 62.67 63.28 63.28 63.37 62.96 63.14 63.30 63.88 63.45 63.74 63.35 62.90 63.61 62.84 62.75 61.95 61.72 58.66 57.46 58.95 60.54 60.23 60.29 60.47
39.70 36.35 37.80 40.80 45.25 45.10 43.84 42.04 46.36 47.32 47.30 47.45 48.96 49.89 50.01 49.97 50.86 52.21 58.75 61.51 62.35 63.73 63.76 64.11 63.55 61.77 62.50 62.10 62.79 63.10 62.87 62.85 63.67 64.25 63.43 63.81 63.19 62.75 62.61 62.24 61.54 60.36 58.53 57.49 59.24 59.55 60.20 59.33 59.65
34.82 36.24 37.97 38.90 43.61 43.34 42.90 41.76 44.64 47.36 47.65 47.97 48.72 49.31 49.66 49.82 50.93 53.72 53.27 57.84 61.32 63.29 64.17 64.43 62.69 61.80 62.21 62.10 60.95 62.06 63.31 63.50 63.56 63.43 63.43 63.11 62.51 62.42 62.39 61.37 60.34 60.35 58.78 58.30 59.22 58.96 59.35 59.86 59.58
39.68 38.39 37.94 40.10 43.26 41.62 42.15 42.49 44.70 46.15 46.99 46.23 47.61 48.64 49.50 50.55 53.07 53.67 53.91 54.50 59.81 62.39 63.25 63.56 60.29 60.27 59.94 58.30 58.28 59.50 60.16 61.27 62.41 62.96 63.81 62.68 61.09 59.86 58.89 59.23 59.64 60.66 59.27 58.59 59.20 58.28 58.86 58.26 59.69
38.81 37.16 37.12 40.21 42.21 41.02 41.24 40.66 43.66 44.66 45.54 47.12 47.65 48.45 49.05 50.04 51.47 52.56 54.87 56.71 59.39 61.18 62.80 62.08 59.65 59.62 59.51 59.60 59.98 59.88 59.61 60.61 61.31 62.00 62.31 61.85 60.11 59.45 59.45 59.04 58.53 59.06 57.90 56.64 57.36 59.02 57.98 58.13 58.50
36.79 35.91 35.92 36.58 39.67 41.21 40.45 38.19 41.59 44.68 45.74 46.81 47.43 48.76 49.56 49.78 50.78 52.34 55.29 58.03 59.85 60.62 61.93 60.91 59.77 59.44 59.23 59.59 59.66 60.14 60.31 59.74 60.22 60.98 61.88 61.44 60.15 59.38 58.68 59.10 58.43 58.39 57.93 56.62 57.57 58.23 57.97 55.48 57.66
32.29 38.00 37.71 36.55 36.24 31.72 40.33 30.33 38.51 41.77 42.62 43.84 45.70 48.29 49.36 49.75 51.36 52.20 54.63 58.07 59.31 60.75 62.48 61.15 59.86 59.30 59.20 59.10 58.33 59.13 57.72 57.07 59.11 60.01 60.76 60.57 60.05 59.45 58.30 57.26 55.81 56.09 57.30 56.35 56.62 57.43 58.53 58.30 56.10
35.17 39.06 37.70 38.99 36.83 35.90 35.50 32.71 35.95 39.94 38.87 43.88 48.07 49.69 50.28 51.20 51.19 51.93 53.96 57.48 59.98 61.50 62.10 60.85 60.17 59.14 58.47 57.96 58.37 58.27 57.65 58.38 59.96 59.82 59.43 59.97 60.12 59.46 58.67 57.43 55.81 54.85 55.67 55.93 55.24 56.03 57.80 58.27 58.16
42.73 40.24 39.42 39.04 36.74 28.97 33.30 32.60 33.28 37.52 39.03 43.79 47.71 49.17 49.83 50.84 51.43 51.97 54.09 57.96 59.64 61.45 61.71 60.59 59.84 58.80 58.78 57.89 58.35 58.72 56.92 56.95 59.05 58.83 58.14 58.49 58.01 58.35 57.86 57.22 56.65 55.35 54.93 55.56 56.01 56.01 55.81 57.30 58.76
39.22 35.75 29.31 26.48 27.01 26.74 34.21 32.84 35.18 41.54 45.50 45.63 46.01 47.88 49.76 51.80 52.94 52.45 51.56 56.59 58.86 59.85 59.53 59.81 59.13 57.76 57.96 57.66 57.85 57.83 57.04 58.35 59.47 58.80 58.25 58.04 57.14 57.40 57.40 57.06 56.48 55.27 54.66 54.57 54.67 55.82 55.19 56.44 56.67
36.59 36.44 29.75 22.49 24.94 28.70 34.96 29.36 36.19 45.48 47.10 48.15 48.62 48.95 49.79 51.31 52.47 53.96 52.51 55.91 58.58 59.78 59.08 58.75 58.31 57.50 57.49 57.55 57.53 57.83 57.82 59.57 59.88 59.38 58.68 58.98 57.72 57.84 58.17 57.50 56.22 55.29 54.85 54.10 54.14 56.58 55.38 56.15 56.72
36.48 33.32 36.94 31.43 31.28 28.34 30.97 34.99 41.16 44.90 45.78 47.17 47.11 47.73 48.15 50.29 51.32 53.47 55.33 55.80 58.18 59.50 59.20 58.00 57.62 57.72 57.34 57.52 57.50 57.34 58.12 59.40 59.30 58.80 59.00 58.12 58.73 58.34 58.24 58.01 56.87 55.76 54.59 54.30 53.21 56.03 55.21 55.59 57.15
38.85 40.30 31.64 32.44 24.47 22.54 29.41 31.58 34.58 41.13 42.85 45.50 46.10 46.22 47.25 48.69 49.51 53.74 55.42 54.53 57.93 59.44 58.55 57.72 57.63 57.39 57.28 57.73 57.37 57.35 57.94 58.38 59.28 59.41 58.47 57.38 57.37 58.55 58.30 57.20 57.44 57.40 55.66 53.71 53.59 55.89 57.28 55.71 55.92
36.12 34.83 35.18 35.13 32.10 26.52 24.84 30.69 43.38 42.63 44.37 45.16 46.44 45.75 45.73 46.37 47.56 53.36 55.50 56.50 57.62 58.67 57.10 56.89 57.35 57.33 58.73 58.01 58.12 59.13 58.42 58.26 58.51 58.15 57.98 57.26 57.95 58.86 59.55 59.37 57.58 57.03 57.78 58.02 57.30 58.04 57.01 55.72 55.57
39.04 36.14 35.75 30.98 27.91 30.98 30.12 30.86 44.81 45.00 45.74 46.49 46.30 46.35 45.00 45.35 46.24 48.31 54.06 56.08 56.25 56.32 56.22 56.29 56.89 56.74 57.61 58.08 57.40 57.79 58.77 57.92 57.98 59.06 58.42 58.97 59.12 59.38 59.30 59.30 58.81 58.55 59.04 59.30 58.93 58.00 57.31 56.35 55.78

GFSSGP_sfc_wetblb_096.txt.gz
Wetbulb
61.75 62.74 58.91 58.80 49.84 48.60 45.80 45.84 50.86 49.83 50.40 53.54 54.39 53.33 53.52 54.63 53.97 51.48 67.49 71.52 72.07 72.62 74.18 72.79 70.97 71.72 72.32 72.54 72.97 73.17 73.85 74.02 73.73 73.29 72.94 72.90 73.62 73.75 73.56 73.44 73.14 73.37 73.97 73.67 73.23 73.40 72.81 72.63 72.07
60.94 57.95 57.87 56.14 45.99 43.45 45.14 48.68 48.09 51.35 52.85 54.06 54.37 54.40 53.65 53.27 58.82 63.28 67.65 71.64 71.27 72.00 73.40 73.61 70.86 71.35 72.06 72.70 72.95 72.87 74.06 74.00 73.81 73.61 72.26 73.60 73.63 73.51 73.24 73.15 72.56 73.02 73.53 73.93 73.25 73.13 72.73 72.02 71.38
59.71 57.16 53.01 49.24 46.45 43.22 44.86 47.81 49.57 52.35 53.10 53.08 53.51 56.28 55.63 55.25 62.81 64.59 69.21 72.40 71.91 72.04 73.00 73.21 70.57 70.73 71.87 72.36 72.30 72.15 72.64 73.31 73.21 73.31 73.28 72.69 72.87 72.73 72.56 72.49 72.30 72.72 73.55 73.53 73.08 72.81 72.17 71.04 70.34
56.26 54.78 53.43 46.60 44.33 47.47 47.31 48.84 52.15 51.64 52.66 53.43 54.31 52.87 57.62 62.94 64.65 67.53 71.02 72.33 71.34 72.05 72.68 70.61 69.37 70.25 71.31 71.96 72.36 71.92 71.97 72.10 72.39 71.93 71.89 72.41 72.15 71.45 71.45 70.73 71.44 72.43 72.38 72.36 72.36 71.88 71.04 69.93 69.32
56.49 53.41 46.38 44.98 45.10 47.74 50.30 50.70 52.89 51.75 50.73 51.67 53.24 53.00 55.14 64.16 67.96 69.87 71.32 72.33 71.22 72.24 73.05 72.75 68.88 69.89 70.74 71.94 72.25 71.67 71.09 71.22 71.77 71.89 71.66 71.96 71.91 71.59 70.92 70.50 70.73 69.95 70.00 70.65 71.42 71.09 69.97 69.26 68.56
50.73 51.47 44.08 42.65 45.05 47.54 49.61 51.36 51.37 51.09 51.43 51.29 51.79 52.94 55.17 65.65 67.55 70.34 72.21 72.15 72.53 72.40 72.89 72.69 70.15 69.79 70.08 70.83 71.21 70.84 70.74 70.74 69.98 70.86 70.93 71.39 71.20 70.48 70.21 69.71 69.31 68.85 68.41 68.30 69.51 69.25 69.28 68.43 67.78
48.99 47.22 43.75 44.60 44.79 45.92 47.57 51.06 49.57 49.75 50.05 51.21 54.02 51.90 56.90 63.45 68.23 71.16 72.06 72.87 73.01 73.74 72.95 72.56 72.06 71.09 69.20 69.14 69.30 69.33 69.71 69.64 69.67 70.00 70.12 70.06 69.25 68.99 69.10 68.76 68.73 68.61 67.21 67.51 68.50 68.54 67.70 67.45 66.98
51.00 48.52 44.81 45.20 43.47 44.01 48.56 49.73 50.80 50.61 50.58 54.45 55.63 52.75 54.78 62.75 69.11 71.22 71.84 72.42 72.39 73.18 73.20 71.10 71.22 71.43 72.83 72.68 67.99 68.28 68.80 68.67 68.56 68.80 68.10 67.43 68.05 68.05 68.17 67.60 67.97 68.29 68.55 68.50 68.42 67.63 67.23 66.51 65.91
53.10 45.50 43.38 44.68 44.04 45.29 49.11 48.24 51.59 52.88 51.96 52.56 54.31 55.02 61.22 64.89 69.30 69.63 69.69 70.29 70.72 71.18 71.70 70.49 70.50 72.22 73.24 72.50 70.85 68.48 68.37 68.16 67.91 67.99 66.51 66.31 70.34 69.47 67.85 67.25 67.21 68.11 68.02 67.47 66.95 67.00 66.36 65.22 64.94
48.87 46.02 46.29 49.34 48.49 47.07 48.28 49.03 49.90 50.31 50.56 51.47 52.37 57.83 61.59 63.87 66.52 67.12 67.02 66.99 68.37 68.77 69.15 69.90 70.29 72.00 72.33 71.67 72.06 71.18 71.19 69.93 70.54 70.52 69.48 70.07 70.22 69.80 68.08 66.86 65.27 66.16 66.09 66.34 65.93 66.11 64.99 65.39 66.99
48.85 45.50 50.04 49.76 49.56 49.73 48.59 48.59 50.37 48.69 47.41 51.35 51.64 52.78 54.76 60.13 62.02 64.28 66.40 67.35 67.94 69.19 68.88 68.54 69.33 70.65 71.77 70.61 70.78 69.74 69.43 69.22 68.69 69.50 69.50 69.66 69.10 68.48 67.92 68.40 68.75 68.43 66.90 68.10 65.13 64.77 66.62 67.07 67.28
45.68 48.99 49.41 50.17 50.23 49.27 48.21 49.97 48.67 49.30 49.72 52.18 53.57 53.87 54.63 55.08 58.67 61.15 63.15 65.95 67.84 68.60 68.86 68.16 68.51 68.52 71.03 71.09 68.94 68.88 68.10 67.67 67.08 67.21 68.54 68.51 68.51 68.24 68.10 67.91 68.68 68.30 68.75 67.34 66.57 64.63 66.37 66.83 66.77
47.57 48.79 49.41 50.05 49.82 49.68 49.54 48.04 48.43 49.22 51.42 52.85 52.65 52.72 53.53 54.62 56.34 59.49 62.28 64.62 67.25 67.98 68.62 68.12 67.68 67.95 70.05 70.03 68.94 68.28 67.98 67.26 67.80 66.77 67.40 67.38 67.62 67.10 67.00 68.01 68.34 67.90 67.31 66.44 66.04 64.29 65.80 66.09 66.03
49.17 49.19 49.10 49.46 49.28 49.72 47.93 48.73 49.66 50.66 52.93 52.71 52.92 53.10 53.99 54.76 56.09 57.96 60.53 63.09 65.74 67.74 68.82 69.55 66.54 67.43 68.58 68.99 68.27 67.07 67.02 68.24 67.67 66.88 66.57 67.15 67.37 66.90 66.87 67.39 67.33 66.91 65.72 65.47 64.31 65.04 65.62 65.92 65.55
48.33 45.14 47.40 48.17 49.25 48.84 50.28 46.87 47.49 51.46 52.67 51.94 52.72 53.10 54.04 54.87 56.36 57.08 60.02 63.15 65.44 67.23 68.57 69.48 67.75 67.70 66.93 67.87 67.32 67.80 66.22 67.54 67.15 65.78 65.62 65.92 67.70 67.51 66.39 66.92 66.22 64.94 63.38 64.85 63.57 64.67 64.91 65.07 64.75
44.75 45.75 42.06 47.87 48.32 48.79 48.57 44.16 50.51 52.45 51.94 51.60 52.69 53.49 53.64 54.55 55.66 57.51 60.60 62.85 64.65 66.44 67.79 68.79 68.24 66.37 66.58 67.34 65.65 65.34 65.62 65.70 66.08 65.91 65.48 65.71 66.43 66.61 65.87 64.87 65.98 64.46 62.78 63.25 61.50 63.28 63.19 63.79 63.85
44.64 40.82 42.79 44.93 49.36 48.07 47.08 45.50 50.72 52.34 51.52 51.19 52.45 53.47 54.04 54.93 56.06 57.54 58.98 62.14 63.83 65.74 67.57 68.05 68.64 66.30 66.25 66.68 66.04 65.31 66.32 64.47 65.35 65.76 65.44 66.14 65.73 65.39 64.40 64.18 64.01 61.97 61.02 61.42 61.63 63.23 63.57 62.70 62.58
39.59 40.07 42.39 41.71 47.25 47.76 46.69 46.57 49.65 50.40 50.60 51.23 52.35 53.33 53.97 54.41 55.25 57.21 58.48 59.10 61.63 64.45 66.92 68.16 68.23 66.79 65.52 65.52 65.02 64.67 65.18 64.38 65.53 66.11 65.44 65.79 65.56 64.10 63.00 63.05 62.10 60.54 59.05 59.01 60.24 62.10 63.33 63.69 62.76
42.40 40.95 40.72 44.41 47.12 45.36 45.68 46.58 48.58 50.65 50.79 50.76 51.79 52.67 53.56 54.51 56.64 57.70 58.73 59.45 59.38 62.41 65.06 66.94 67.54 65.73 64.12 63.44 62.63 62.42 62.49 63.22 64.21 66.33 65.00 65.20 63.81 62.46 62.62 62.29 61.30 60.24 58.78 58.38 59.72 62.26 62.29 61.82 62.85
38.78 38.01 39.78 43.72 46.25 45.45 44.92 45.04 48.31 49.61 49.76 50.76 51.53 52.44 53.37 54.56 55.59 56.55 57.96 59.16 59.92 61.48 64.14 66.03 67.17 63.93 63.99 64.99 65.27 63.76 62.91 63.37 63.96 64.51 64.13 64.67 63.19 60.52 61.35 61.45 60.57 59.99 58.68 58.49 59.51 61.99 61.01 60.74 61.83
39.13 38.58 38.79 39.32 43.62 45.13 43.72 42.07 45.15 48.75 50.09 50.87 51.51 51.84 52.08 52.54 53.40 54.57 55.87 58.02 60.39 62.32 63.81 65.05 66.67 62.96 63.75 66.26 65.32 63.33 63.46 62.56 62.42 63.15 62.45 60.80 60.24 59.99 59.68 60.50 60.38 59.93 59.32 58.74 61.17 62.32 61.33 59.25 60.99
36.11 41.76 40.50 39.76 38.64 36.39 43.48 36.36 42.35 45.33 46.21 47.58 48.39 51.94 54.10 55.49 56.22 56.56 56.49 56.58 58.64 62.42 64.48 65.32 65.72 61.52 63.06 65.20 64.52 63.67 61.78 60.02 61.45 60.89 63.16 61.84 61.44 59.82 59.72 59.10 59.64 59.30 60.28 60.89 60.41 61.97 62.51 61.38 59.12
37.84 41.37 39.37 39.66 38.29 38.72 39.51 37.30 40.67 43.36 42.15 45.59 49.12 52.20 54.56 55.78 56.65 57.23 57.33 57.38 58.33 62.38 64.28 65.17 63.22 61.29 62.01 62.99 65.27 63.58 63.12 62.41 61.92 62.18 62.34 61.72 60.96 60.97 58.99 59.25 60.31 60.32 60.52 60.35 62.17 62.27 62.73 62.10 61.08
42.26 39.60 40.12 40.77 39.47 33.40 38.28 37.91 38.32 41.65 43.12 46.78 50.27 52.24 53.75 54.91 56.43 57.83 59.46 58.47 58.31 62.19 64.55 64.33 60.93 60.50 61.53 62.88 63.95 63.74 62.96 61.49 60.87 60.78 61.34 59.41 59.55 58.99 58.73 57.62 57.45 58.76 59.92 59.58 59.12 58.78 58.67 59.02 60.60
41.73 38.91 32.27 30.80 31.26 30.87 38.20 36.59 40.46 44.55 47.82 48.42 49.25 51.44 53.33 54.21 55.74 56.55 57.82 59.24 58.36 61.72 63.86 62.58 59.83 59.59 60.70 61.52 62.47 62.15 62.66 61.40 61.74 60.69 60.41 59.41 58.71 58.49 57.37 57.05 56.43 56.69 57.39 57.19 56.95 56.98 56.79 57.63 57.98
38.20 38.15 34.14 25.45 28.25 32.50 38.70 34.33 40.20 47.70 49.12 50.75 51.47 52.04 53.00 53.10 54.22 55.05 56.51 58.88 59.05 60.99 63.58 61.08 60.15 60.46 60.25 60.87 61.02 60.69 62.60 59.11 61.99 61.08 61.00 60.22 59.54 58.84 58.25 57.88 56.94 56.62 56.93 56.99 56.87 56.49 56.59 57.63 58.43
38.72 36.39 40.56 33.16 34.42 32.88 36.73 38.93 43.77 47.05 47.82 49.37 50.12 51.10 51.54 52.03 52.63 52.79 53.05 59.31 60.41 60.44 63.03 60.88 60.08 61.29 59.45 60.27 60.61 59.70 61.18 59.70 60.76 62.62 62.77 62.11 60.93 59.25 58.36 57.90 57.09 56.46 55.55 55.37 54.75 54.22 56.10 57.36 56.92
42.28 43.41 34.82 36.39 26.99 26.89 34.03 35.64 39.04 42.74 45.53 47.77 48.86 49.79 50.43 50.54 49.81 48.51 48.70 58.57 59.53 61.05 62.89 60.83 60.46 59.94 58.99 59.59 59.70 59.17 59.06 59.53 60.94 62.59 60.78 60.81 61.93 59.87 59.06 58.21 56.94 55.81 55.20 55.35 56.09 53.78 53.96 55.61 56.53
38.86 37.86 38.63 38.61 36.44 31.45 30.42 35.10 45.58 44.79 46.11 46.31 47.42 48.57 48.62 47.63 47.31 44.31 45.58 54.37 59.70 61.54 60.92 59.23 59.06 58.63 58.28 59.44 59.32 59.19 58.87 59.45 60.38 61.24 60.73 60.53 59.81 59.89 59.62 58.83 57.12 55.51 55.08 54.58 54.17 54.04 54.06 54.82 57.25
41.97 39.38 39.42 34.06 30.87 35.30 34.46 36.69 47.67 45.93 46.65 47.64 46.52 46.74 47.32 46.35 45.77 42.65 43.52 47.35 56.08 58.28 57.13 57.83 58.48 57.69 58.03 58.51 58.61 58.78 58.89 59.02 59.23 59.54 60.63 60.65 59.12 59.53 59.80 59.92 57.69 57.21 55.68 55.16 54.20 54.08 54.95 55.45 56.72

GFSSGP_sfc_wetblb_099.txt.gz
Wetbulb
63.06 63.05 60.56 57.75 50.06 49.95 46.33 48.65 51.57 50.76 51.53 55.08 55.55 54.40 54.44 56.17 55.08 53.87 67.13 70.68 69.75 71.98 74.09 72.69 71.53 72.34 72.51 72.83 73.03 73.38 74.15 74.11 74.06 73.40 73.36 72.98 73.51 73.58 73.90 73.78 73.72 73.84 74.28 73.88 73.11 73.11 72.86 72.44 72.24
60.90 60.57 57.43 54.06 47.81 44.67 47.00 51.06 49.02 51.51 54.40 55.81 55.82 55.03 54.34 53.93 58.48 63.91 66.65 70.10 70.27 71.45 73.69 73.47 71.06 71.75 72.29 72.54 72.86 73.50 73.91 74.31 73.85 73.46 73.31 73.30 73.61 72.90 73.66 73.36 73.23 73.44 73.98 73.85 73.08 73.13 72.79 72.20 71.61
62.90 59.59 52.51 50.10 47.50 44.91 46.19 50.29 50.57 52.10 54.98 54.61 54.55 56.81 56.17 55.49 60.97 63.23 68.67 70.73 70.56 71.28 72.91 73.56 70.64 71.10 72.16 72.49 72.79 72.92 73.61 73.67 73.33 73.26 73.29 73.59 73.48 72.60 72.38 71.79 71.89 73.01 73.80 73.48 73.15 72.56 72.20 71.40 70.51
59.00 55.83 53.13 47.52 46.42 48.91 49.66 51.36 51.29 52.03 54.04 55.12 55.82 53.80 57.69 62.38 63.32 65.29 70.39 70.67 70.23 71.52 72.46 70.18 69.77 70.58 71.65 72.34 72.36 72.37 72.62 72.56 71.83 72.15 72.93 72.43 72.61 72.65 72.01 70.86 70.80 71.99 71.67 72.49 71.65 71.52 71.50 70.35 69.88
57.62 53.46 46.87 45.77 46.08 48.75 51.47 51.82 52.71 52.24 52.56 53.29 55.02 53.70 56.38 62.93 65.73 67.50 70.43 70.29 70.02 71.30 72.98 72.68 69.54 70.11 71.29 72.10 72.45 71.78 71.79 71.96 72.17 72.09 71.60 71.92 72.49 72.01 71.67 70.92 70.10 69.93 69.00 69.30 69.32 70.58 70.13 68.86 68.03
51.98 52.04 45.45 44.19 46.53 49.60 51.50 53.13 52.43 52.67 53.72 53.47 52.64 53.83 56.21 63.54 65.57 68.74 71.32 71.16 71.80 72.04 73.18 72.95 70.22 69.92 70.42 71.14 71.51 70.99 70.74 70.88 70.13 70.87 70.89 71.41 71.43 71.16 70.91 70.94 70.21 69.86 68.88 68.74 68.66 68.30 68.50 67.61 67.36
50.88 49.21 45.66 46.58 47.20 48.78 50.62 53.26 51.45 51.48 52.55 52.56 54.70 52.16 57.04 61.98 66.23 69.42 71.43 72.57 72.98 73.51 73.32 73.58 72.54 71.20 69.48 69.54 69.92 70.00 70.22 70.31 70.13 70.38 70.38 70.51 70.17 69.65 70.09 69.66 69.47 69.25 68.83 68.56 67.57 66.91 67.16 67.14 66.60
52.86 50.89 47.11 48.12 46.48 47.17 51.70 51.57 52.38 51.32 50.78 55.11 55.63 51.89 53.79 63.17 67.72 70.42 71.56 72.26 72.95 73.79 73.58 73.21 73.37 72.66 72.56 72.22 68.59 69.15 69.41 69.45 69.25 69.12 68.91 68.80 68.30 68.80 68.78 68.51 68.88 68.13 67.98 67.72 66.83 67.00 67.63 67.18 66.04
55.23 47.52 45.53 47.11 47.76 49.18 51.32 49.87 52.70 53.86 51.77 53.85 55.04 56.40 61.43 62.91 68.28 69.47 69.98 71.15 71.66 72.44 73.02 72.87 72.79 72.76 73.10 72.58 71.41 69.14 69.12 68.71 68.41 68.82 67.72 67.75 71.38 70.15 68.63 67.69 67.98 68.17 67.23 67.21 67.14 67.15 66.30 65.61 65.48
51.49 47.63 47.67 51.61 52.06 50.84 50.35 50.48 51.31 50.55 50.84 51.93 53.50 56.74 60.69 62.09 65.21 67.34 67.89 68.38 69.33 70.34 71.68 71.46 72.20 72.62 72.82 71.32 72.49 72.18 71.58 71.25 71.08 70.98 70.85 72.08 71.00 70.76 69.30 67.69 66.84 67.49 67.25 66.96 66.73 65.81 65.54 65.27 66.14
51.27 47.94 51.64 52.25 53.35 53.26 51.03 50.70 52.32 50.61 49.53 51.61 51.84 54.87 59.15 59.78 61.95 64.73 66.27 67.53 68.32 69.94 70.63 71.21 70.96 72.67 72.18 71.76 72.14 71.80 71.55 70.71 71.20 71.21 71.03 70.86 69.94 71.38 70.62 68.80 67.30 67.60 65.94 67.45 66.46 66.22 65.18 64.92 65.63
48.52 51.06 51.53 52.15 53.49 52.59 50.66 52.32 50.95 51.00 51.60 53.55 53.85 55.74 56.36 55.57 58.01 60.16 63.13 65.18 66.90 68.64 70.20 70.97 71.08 71.47 72.17 71.60 70.84 70.95 70.91 70.81 70.41 70.72 70.92 70.61 69.78 69.80 68.92 68.51 69.08 69.59 69.71 66.99 67.22 66.48 64.77 64.10 65.36
48.97 50.20 51.89 52.69 52.53 52.52 52.50 50.86 50.76 51.61 53.36 54.02 53.87 53.55 54.72 54.78 55.95 58.17 60.52 62.85 64.49 66.94 69.82 71.16 70.60 70.25 71.38 71.00 70.36 69.87 69.36 69.21 69.19 68.53 69.80 70.16 69.07 68.60 69.09 68.74 69.33 68.88 68.39 68.16 67.51 65.02 64.98 63.84 64.62
51.13 51.02 51.41 52.26 52.11 51.69 50.29 50.55 51.24 51.94 53.75 53.32 53.56 53.02 53.54 54.12 55.22 56.78 58.45 60.45 62.85 65.50 69.01 71.42 69.93 69.39 70.98 70.78 70.97 69.07 69.68 69.79 69.61 68.04 67.68 68.66 69.05 68.64 68.28 68.16 67.78 68.35 67.90 67.83 65.22 64.51 63.85 63.71 64.18
49.90 47.90 50.37 50.78 51.65 51.06 51.78 48.41 49.14 53.02 54.18 53.08 53.79 54.00 53.99 54.95 55.98 56.07 58.48 59.63 62.14 63.98 67.56 70.83 70.13 68.78 70.20 70.42 70.37 68.93 68.81 69.10 68.54 68.65 69.05 67.25 68.05 67.83 67.81 68.12 67.94 67.42 67.96 66.67 66.18 64.39 63.64 63.14 64.96
46.21 47.27 43.45 49.35 50.13 50.91 50.45 44.89 51.51 54.37 53.68 52.86 53.71 54.80 54.41 54.56 55.32 56.93 58.63 59.24 60.98 63.66 66.03 70.15 70.49 67.97 68.35 69.77 69.74 69.00 68.51 68.52 68.40 68.57 69.01 67.91 68.20 67.05 65.41 65.93 66.36 67.74 66.92 66.60 64.46 64.44 62.54 62.45 64.18
44.75 40.48 42.55 44.95 50.49 49.86 49.10 46.23 51.17 54.01 53.67 52.79 54.07 54.79 55.27 55.40 55.60 57.00 57.92 59.09 60.68 62.93 65.22 68.37 70.85 69.39 67.51 68.16 69.00 68.54 68.87 67.84 67.62 68.14 67.55 68.23 67.60 67.25 67.33 66.46 66.54 67.21 65.23 65.00 63.60 63.98 62.69 61.78 62.72
40.64 40.66 43.71 43.81 48.59 49.79 47.90 47.35 50.25 52.80 52.64 52.73 53.46 54.60 55.12 55.45 55.90 57.10 57.99 59.14 60.65 62.79 65.09 67.65 69.74 69.98 68.46 67.46 67.37 66.31 66.23 65.85 67.08 67.60 66.06 66.33 67.23 66.67 66.64 66.34 64.69 64.73 63.69 63.58 62.21 62.35 62.10 62.62 61.94
42.34 41.82 41.24 45.28 48.72 47.96 47.29 47.61 49.43 51.65 52.16 52.05 52.95 53.97 54.71 55.62 57.54 58.39 59.09 59.56 60.26 61.73 63.99 66.66 68.77 69.65 67.40 65.59 64.47 64.60 64.67 64.47 65.87 65.53 67.14 66.98 67.02 66.21 65.56 63.57 62.03 61.73 60.77 60.75 61.44 62.40 60.53 60.52 62.92
41.90 36.70 39.94 45.30 47.13 47.07 46.60 45.90 49.33 51.20 52.01 52.61 52.75 53.34 54.51 55.62 56.54 57.62 58.78 59.85 60.38 60.75 61.39 64.34 67.27 68.79 67.59 65.25 65.61 66.10 65.44 65.14 66.65 66.17 66.22 66.39 66.48 66.02 64.14 62.59 61.52 60.44 59.93 59.65 60.18 60.57 60.23 61.97 62.23
40.70 37.94 39.51 40.06 43.08 45.48 45.42 42.97 44.71 49.09 50.76 52.11 52.87 53.77 54.56 54.72 55.03 56.17 57.13 58.66 60.20 60.65 61.92 62.06 65.42 67.79 67.46 66.76 66.95 66.79 66.28 64.82 64.68 64.35 65.38 65.64 65.66 65.31 63.29 61.92 61.33 59.81 59.92 59.05 59.70 60.28 59.89 59.45 61.75
36.71 42.99 41.07 39.53 38.47 34.83 44.68 35.88 44.01 46.30 48.10 50.13 51.20 51.17 53.62 55.52 56.87 57.73 58.35 58.97 59.76 60.56 62.46 63.64 64.84 66.97 66.84 67.55 66.92 66.29 64.08 62.47 63.45 64.55 64.33 63.99 63.60 61.20 60.98 60.81 61.35 60.05 59.64 59.15 59.74 61.32 60.60 61.09 59.28
39.57 43.05 40.89 40.54 39.55 39.23 39.48 38.13 42.02 46.33 44.28 47.10 49.50 52.21 54.37 56.14 57.11 57.82 58.77 60.07 60.49 60.76 62.12 64.58 65.17 66.73 65.79 67.20 67.48 66.16 65.31 64.55 64.30 63.72 62.90 61.86 61.35 61.19 60.22 60.03 60.21 59.63 59.52 59.52 59.97 60.67 61.75 62.33 60.71
43.30 40.37 40.39 40.42 38.37 32.12 38.23 38.37 38.96 40.95 43.45 46.52 50.83 52.86 53.89 55.29 56.51 57.66 59.33 60.30 61.05 61.24 62.38 64.60 65.19 66.64 65.08 65.24 67.05 66.10 65.46 64.73 62.83 62.08 61.69 62.27 60.75 59.68 59.24 60.33 59.63 59.70 59.55 59.94 60.40 62.55 62.29 61.50 61.19
40.14 36.68 29.67 27.91 29.84 30.52 40.67 38.14 40.45 46.44 48.96 49.32 49.68 51.75 53.74 55.21 55.52 55.84 56.75 58.21 59.81 61.71 60.57 63.61 65.13 63.93 63.62 63.23 65.91 66.37 66.10 65.06 62.96 62.65 61.30 60.50 59.24 58.92 58.65 59.16 58.90 59.68 59.92 59.82 60.29 60.57 60.55 61.89 61.64
38.45 37.29 32.14 25.42 27.89 32.08 39.93 34.01 39.58 48.89 50.50 51.44 51.31 52.43 53.45 54.39 54.63 54.29 54.93 56.39 58.38 61.44 61.47 63.51 64.65 61.95 61.27 61.96 65.39 66.16 66.14 64.37 63.31 62.72 61.94 61.52 59.60 59.44 58.72 58.36 57.57 57.64 58.65 59.54 58.95 58.17 57.93 58.27 58.23
38.00 35.06 41.14 34.45 37.36 34.82 37.11 41.18 46.34 48.70 48.76 49.84 50.07 50.74 50.30 52.23 52.64 52.44 53.03 53.28 57.25 57.79 62.05 63.72 62.80 60.74 60.69 61.42 64.64 65.24 65.17 64.01 62.65 62.80 62.79 61.85 61.43 60.37 59.90 58.41 56.78 57.22 57.33 57.33 57.25 57.23 57.21 57.46 57.91
40.71 42.53 34.67 38.05 25.83 27.16 34.95 36.56 38.06 43.00 44.96 47.59 48.69 49.43 49.26 51.32 50.58 49.90 49.30 48.73 52.56 54.96 62.11 64.78 62.08 61.17 60.88 61.14 62.36 63.12 64.41 62.83 63.17 62.87 61.85 61.83 62.82 60.66 59.43 58.75 57.23 56.56 56.96 57.70 57.29 56.65 57.30 56.49 57.64
39.62 38.19 39.44 39.08 36.25 30.41 28.96 35.39 45.42 43.90 45.80 46.55 48.22 48.75 48.69 48.70 47.44 46.27 43.96 44.17 47.95 50.69 62.10 63.18 60.88 60.33 59.91 60.43 60.34 61.42 63.14 62.53 62.44 62.14 62.50 61.00 61.88 60.91 59.37 58.08 57.63 56.06 55.33 55.37 54.73 55.29 55.05 55.35 55.82
42.23 39.73 39.33 33.52 32.56 35.81 34.64 35.33 46.84 45.81 47.42 48.50 47.93 47.30 47.79 46.72 45.77 43.59 39.79 41.17 42.32 43.71 52.61 59.80 59.78 59.08 59.60 59.64 59.97 59.80 61.12 61.43 60.86 60.89 61.98 62.04 61.64 61.76 61.16 59.56 57.87 56.34 55.54 55.25 54.89 54.54 54.21 53.40 53.31

GFSSGP_sfc_wetblb_102.txt.gz
Wetbulb
62.20 61.70 61.05 56.75 47.67 48.05 44.41 46.20 51.19 50.33 50.96 54.43 55.12 53.90 53.61 55.29 55.73 53.70 65.86 69.57 72.89 71.20 71.29 71.41 71.90 72.62 73.01 72.87 73.36 74.14 74.10 74.09 74.01 73.96 73.81 73.81 73.87 73.97 73.87 73.90 73.52 73.95 73.79 73.67 73.14 73.29 72.62 72.74 72.46
58.54 59.36 58.62 52.25 44.68 42.27 44.26 49.90 49.00 51.18 53.29 56.03 55.52 54.83 53.41 53.23 60.76 63.31 65.16 68.76 72.22 71.98 71.60 71.23 71.60 72.25 72.67 72.96 73.12 73.67 74.14 74.24 73.98 73.47 73.32 73.57 73.49 73.76 73.75 73.50 73.06 73.22 73.52 73.30 73.12 73.07 72.70 72.18 71.62
58.63 59.10 52.71 47.66 44.61 42.60 44.85 49.48 50.69 52.38 55.06 54.43 53.19 55.74 54.89 55.65 59.92 63.66 67.47 70.08 70.85 71.91 72.20 71.20 71.03 71.49 72.37 72.73 73.02 73.18 73.71 73.74 73.43 72.97 73.53 73.39 72.82 73.39 73.57 72.40 72.31 72.16 71.83 72.75 72.70 72.48 72.33 71.30 70.46
56.85 57.09 53.01 44.24 43.28 47.18 47.32 50.23 51.95 51.38 53.60 54.46 53.77 52.39 56.90 63.63 62.44 66.40 67.92 69.04 70.12 71.15 73.10 69.56 70.19 70.82 71.81 72.43 72.62 72.69 73.18 73.08 72.70 72.46 73.01 73.02 72.76 72.86 72.40 71.04 70.45 70.25 69.89 70.62 70.85 71.37 70.60 70.13 69.85
55.96 53.26 45.28 43.36 43.77 47.25 50.78 52.15 52.36 50.63 51.89 52.88 53.11 51.57 55.80 62.52 64.74 68.17 68.18 68.90 70.04 71.74 72.03 70.30 69.67 70.56 71.49 72.14 72.30 71.69 72.01 72.36 72.33 71.78 72.09 72.42 72.58 72.31 71.68 71.05 70.09 69.53 69.30 68.09 68.63 69.21 68.96 68.21 68.30
51.00 51.07 43.39 42.07 44.49 47.96 50.46 51.67 51.38 51.24 53.00 53.00 52.13 52.59 55.69 62.83 64.13 68.53 69.55 69.84 71.51 72.46 72.40 70.65 70.24 70.37 70.52 71.41 71.46 70.88 70.96 71.14 71.25 71.49 71.75 72.02 71.99 71.09 70.67 70.68 70.18 69.34 67.99 66.80 67.06 68.23 67.96 67.36 66.78
50.87 48.20 44.39 44.56 45.28 47.23 50.13 53.49 51.68 51.28 51.73 51.97 54.48 50.64 56.14 62.11 65.40 68.21 69.63 71.41 72.81 73.51 72.41 70.99 70.48 70.10 69.84 69.72 69.89 69.95 70.25 70.28 70.20 70.46 70.42 70.77 70.36 70.00 69.47 69.67 69.57 69.29 68.93 68.98 68.85 68.13 67.44 66.80 66.91
53.48 50.49 45.94 46.98 45.88 46.11 51.36 52.56 53.05 51.76 50.94 55.42 55.36 50.97 53.63 62.49 65.97 68.54 70.25 71.82 72.60 73.16 73.28 71.83 71.51 70.65 70.55 70.51 68.73 69.35 69.64 69.51 69.38 69.89 69.57 69.02 69.03 69.28 69.20 68.80 69.11 69.24 69.07 68.88 68.11 67.67 67.20 66.80 66.44
55.01 47.14 44.42 46.00 46.94 48.59 52.56 50.93 53.34 53.90 51.55 52.99 53.73 54.59 60.79 64.14 68.33 68.42 68.61 70.34 71.50 71.84 72.01 72.99 72.25 71.55 71.66 71.32 70.18 69.06 69.36 69.06 68.64 69.22 68.83 67.74 69.54 69.03 68.44 68.60 68.24 68.32 68.02 67.35 66.86 66.80 66.51 66.15 65.53
49.16 47.05 46.75 50.39 51.09 50.30 51.89 52.13 52.04 50.62 50.42 50.41 51.70 55.27 61.67 62.83 66.24 66.43 66.86 67.67 69.30 70.55 71.09 71.59 72.08 71.71 72.36 70.76 70.33 70.50 70.32 69.63 69.54 70.03 69.39 70.11 69.37 68.70 68.33 67.57 67.38 67.28 67.08 66.69 66.49 66.51 65.64 65.68 65.04
49.90 45.82 50.55 51.20 52.30 52.81 52.04 52.02 52.59 50.06 48.82 51.01 51.87 54.32 59.19 60.01 61.85 65.04 65.97 67.70 68.50 69.70 70.54 70.36 70.85 71.91 72.02 70.37 71.49 70.65 70.51 70.28 69.89 70.12 69.94 69.79 68.48 68.46 67.20 66.43 67.09 66.06 66.37 65.90 65.97 65.13 64.50 64.36 64.35
46.52 50.49 51.12 51.72 53.00 52.52 51.49 53.09 51.95 50.58 52.01 54.39 54.77 54.77 57.74 57.98 58.59 61.17 63.89 66.08 67.89 68.69 69.85 70.32 70.26 71.10 71.24 71.50 71.17 70.58 69.64 69.67 68.76 69.84 70.09 69.01 68.15 67.90 67.01 66.31 65.80 66.28 65.90 65.52 64.68 64.47 64.38 63.67 64.26
46.59 49.65 51.32 52.53 52.26 52.16 53.01 51.41 51.44 51.97 53.74 54.17 54.07 54.05 54.86 56.28 55.58 57.55 60.46 63.23 66.01 67.42 68.95 69.45 69.74 70.09 70.86 71.66 69.47 69.89 69.45 69.29 68.46 69.32 69.45 68.70 67.89 67.16 66.94 66.39 66.61 65.95 65.95 65.22 64.69 64.40 64.03 63.49 63.40
47.72 48.54 50.15 51.53 51.37 52.21 50.52 50.69 51.69 52.41 54.09 53.44 53.60 53.13 53.21 53.72 54.97 55.31 56.92 59.02 61.66 66.14 68.41 69.75 69.38 69.80 70.43 70.25 69.89 69.32 68.56 68.73 68.79 67.76 68.40 69.09 67.98 67.12 66.51 65.75 65.73 66.31 65.53 65.57 65.03 64.53 63.41 62.54 63.40
48.26 44.61 47.48 49.77 50.63 50.13 51.94 48.21 48.33 53.05 53.61 52.56 52.76 53.29 53.88 54.04 53.88 54.38 56.07 58.05 60.56 62.54 68.88 69.51 69.50 68.89 69.41 70.01 70.06 68.71 68.05 68.65 68.17 67.58 67.96 68.16 67.95 67.77 66.33 65.64 65.48 66.00 65.48 65.53 64.69 63.46 63.68 62.91 63.47
44.42 45.30 40.90 47.04 49.34 50.90 50.09 44.24 50.44 52.79 52.25 51.80 52.57 53.17 53.88 54.61 54.41 54.69 56.70 57.21 59.28 61.02 65.42 70.06 69.89 68.29 68.10 69.54 69.49 68.11 67.45 67.89 67.96 67.87 67.38 67.09 67.02 66.95 66.26 65.82 65.68 65.32 65.59 65.06 63.85 62.24 61.77 61.80 62.05
41.85 38.46 40.61 43.35 48.64 49.07 48.23 45.54 50.14 53.25 52.62 51.93 52.61 53.56 54.11 54.99 55.05 55.37 56.68 57.30 58.40 59.63 63.98 69.29 69.21 67.86 67.16 68.43 69.35 68.62 67.55 66.88 67.05 67.40 67.56 67.33 66.99 66.62 66.13 65.11 65.01 64.66 64.41 64.17 63.83 62.36 61.26 60.90 61.19
35.92 38.32 40.81 41.42 46.20 47.69 46.71 46.47 49.54 51.78 52.02 52.40 53.11 53.86 54.26 54.33 55.45 56.87 56.80 57.30 58.10 59.25 63.26 69.66 69.40 68.05 67.30 67.34 68.41 67.68 67.59 66.30 66.61 66.43 66.24 66.05 66.74 66.40 66.08 64.88 64.50 64.17 64.10 63.50 63.33 61.99 62.12 61.26 60.88
40.94 40.08 40.40 43.80 46.81 45.48 45.46 46.34 48.41 50.81 51.08 51.29 52.82 53.38 53.78 55.08 56.44 57.39 58.63 58.24 60.28 61.34 63.49 67.65 68.90 68.67 66.99 65.66 65.18 64.73 64.37 64.60 64.49 65.73 66.42 65.57 65.44 65.46 65.08 64.21 63.79 64.01 63.16 62.48 63.07 61.77 61.04 60.11 61.05
39.18 39.43 39.87 42.83 45.67 45.48 44.59 44.29 49.26 50.44 50.97 51.22 52.00 52.60 53.62 55.09 56.02 57.48 58.63 59.07 60.04 60.93 61.47 63.42 68.09 69.01 67.65 65.90 65.71 64.68 64.26 64.43 64.40 64.69 65.47 65.44 65.33 65.26 64.47 63.61 62.90 63.13 62.39 61.96 62.01 61.00 59.83 59.75 60.52
38.22 38.15 38.98 39.30 43.39 41.30 41.12 38.62 44.28 49.52 51.15 52.23 52.92 53.38 54.01 54.37 54.81 56.30 58.09 59.17 60.82 61.61 62.14 60.72 64.49 68.39 68.15 66.67 65.49 64.91 64.87 64.49 63.51 64.47 64.31 64.59 64.46 64.42 64.05 63.30 62.13 61.56 61.33 60.50 60.64 60.68 59.58 58.05 59.52
35.58 42.19 42.27 40.89 36.44 32.38 42.07 32.35 42.21 46.55 47.01 48.68 51.03 52.73 53.05 54.19 56.21 56.93 57.86 58.63 60.01 60.73 62.00 62.01 61.36 64.81 68.07 66.18 64.50 64.09 63.16 62.22 62.87 63.71 63.94 64.06 64.03 63.94 63.62 62.82 62.32 60.95 60.87 60.24 60.30 60.86 60.13 59.08 57.46
38.32 43.34 42.03 40.64 36.58 35.21 36.41 33.41 39.40 45.72 44.36 45.91 48.92 52.16 54.09 55.60 56.49 56.65 57.34 58.66 59.93 61.21 61.31 62.07 61.89 62.16 67.29 65.72 65.42 64.61 64.00 63.68 63.55 63.31 62.99 62.53 62.69 62.12 61.05 60.79 61.10 60.28 60.34 60.22 59.99 60.18 60.04 60.08 58.41
43.13 40.28 39.59 39.36 36.22 29.13 35.32 35.54 37.49 42.08 44.70 46.84 50.05 52.09 53.88 54.61 55.39 55.86 57.03 57.65 58.17 59.95 60.59 62.05 63.01 62.43 66.83 66.14 65.63 65.27 64.55 63.50 62.59 62.09 61.42 61.21 60.09 60.88 59.75 60.00 60.12 60.81 59.92 59.68 59.79 60.02 59.67 59.77 59.41
41.31 36.95 28.72 26.77 27.44 26.82 37.32 35.30 38.27 44.83 46.76 48.85 50.02 51.32 52.73 53.42 52.87 53.55 53.49 53.90 55.14 56.47 58.64 60.58 61.72 61.96 65.64 65.45 65.39 65.91 64.96 64.74 62.95 61.25 60.87 59.88 58.97 58.55 58.70 59.56 59.08 59.11 59.56 59.67 60.31 60.56 60.12 59.89 59.32
37.78 37.03 30.39 22.71 24.46 28.41 36.81 31.99 37.38 47.26 50.10 50.85 51.47 51.23 51.65 51.86 51.97 51.32 51.06 51.58 51.00 53.75 54.95 58.27 56.65 62.26 64.39 64.19 64.66 65.78 65.34 64.86 62.93 61.27 61.98 60.87 59.14 58.65 58.74 59.22 59.38 59.23 59.59 59.85 59.80 60.35 59.97 59.95 59.67
37.20 33.63 39.97 34.81 35.79 31.55 34.33 37.27 42.62 47.23 48.24 49.02 49.12 49.43 49.24 49.92 49.23 48.90 48.02 46.81 46.24 49.58 50.80 52.91 53.88 61.94 62.56 62.61 63.27 64.58 64.48 64.45 62.24 61.69 62.39 60.69 59.97 59.20 59.08 58.67 58.34 58.71 59.31 58.81 58.25 57.39 57.21 57.83 57.67
39.38 41.13 31.34 33.34 27.84 26.58 32.72 35.22 36.20 42.02 44.19 46.48 46.03 46.14 46.14 47.19 46.78 46.12 44.07 42.40 43.70 44.89 47.46 51.56 57.95 61.92 61.07 61.66 61.96 62.72 63.64 63.59 62.64 61.79 61.21 61.20 59.78 59.29 58.25 57.48 57.70 57.59 57.51 57.65 57.86 57.33 57.43 57.41 57.39
36.45 34.06 36.11 36.80 34.89 28.84 28.09 33.39 40.75 40.98 44.56 45.10 44.72 43.95 43.58 43.82 43.79 42.82 41.07 40.50 41.52 42.42 43.90 46.57 60.30 61.23 60.58 60.97 61.08 60.98 62.31 61.74 62.12 61.33 61.50 61.10 60.70 59.71 58.94 57.75 56.84 56.71 56.86 56.99 57.09 57.08 56.82 56.69 56.77
40.85 37.89 37.64 32.05 31.42 34.36 32.73 32.66 44.36 45.37 46.13 44.49 42.40 41.99 42.22 42.12 41.61 40.80 39.32 39.01 39.16 38.95 40.55 42.29 44.72 59.74 60.51 60.72 59.94 59.88 60.46 60.89 61.13 61.08 61.25 61.24 60.31 59.33 58.60 58.44 56.88 56.43 56.45 56.78 56.23 55.71 56.13 55.89 55.81

GFSSGP_sfc_wetblb_105.txt.gz
Wetbulb
57.61 57.53 55.10 51.66 40.01 37.66 34.07 39.41 45.55 45.75 45.79 48.54 52.20 50.97 49.54 53.67 55.21 50.54 66.56 67.95 69.04 69.04 70.99 71.60 71.80 72.66 73.15 73.65 73.72 73.41 73.64 73.90 74.04 73.94 73.61 73.66 73.72 73.77 73.85 73.68 73.63 73.91 73.29 73.50 73.18 73.08 73.08 72.71 72.29
54.50 56.51 52.25 47.47 35.57 30.32 34.84 44.74 44.48 47.09 50.86 52.77 53.12 51.72 50.44 54.94 60.92 63.64 65.59 68.89 69.35 68.85 70.12 70.38 71.47 72.22 72.71 72.93 73.43 73.52 73.90 74.00 73.96 73.89 73.74 73.60 73.64 73.45 72.81 73.23 73.09 73.62 73.15 73.01 72.76 72.98 72.60 71.92 71.47
55.34 56.18 45.63 40.84 34.72 33.18 35.34 44.41 46.76 49.37 52.37 51.10 49.27 51.67 51.76 55.21 62.04 62.21 68.75 70.00 69.24 69.12 69.98 70.69 70.98 71.32 72.31 72.47 72.80 73.12 73.29 73.39 73.27 73.27 73.54 73.62 73.34 73.51 72.75 72.54 71.53 71.20 71.62 71.25 71.37 72.03 71.61 70.81 70.00
50.23 50.06 47.36 37.00 34.87 38.85 41.77 45.14 47.45 47.35 50.49 51.15 49.36 48.37 56.21 60.04 62.58 64.58 69.41 70.21 68.78 69.62 69.76 69.39 69.75 70.74 71.83 72.42 72.50 72.61 72.90 72.61 72.35 72.47 73.21 73.46 73.32 72.56 72.53 70.88 70.80 70.26 69.66 69.55 69.66 69.76 70.00 68.72 68.52
48.52 45.63 37.70 33.96 36.46 41.57 44.70 46.63 47.59 46.41 47.65 49.52 49.89 47.36 54.91 61.27 64.95 66.39 66.95 69.36 69.43 68.88 68.70 69.23 69.21 70.13 71.29 72.14 72.15 72.18 72.37 72.30 72.10 72.09 72.33 72.37 72.66 72.27 71.21 70.50 70.28 69.01 67.79 69.06 68.95 68.49 68.89 68.07 68.10
43.24 43.75 33.86 35.62 38.99 43.19 45.58 47.25 47.67 47.88 48.71 50.64 49.06 49.79 53.57 61.69 63.71 64.60 66.71 68.49 70.07 68.29 68.36 68.80 70.13 70.11 70.55 71.11 70.94 70.71 71.10 71.52 71.88 71.61 71.55 71.98 71.69 71.10 70.62 70.08 69.76 66.81 67.92 68.61 68.14 66.39 67.46 68.17 67.83
42.95 39.16 36.88 37.47 39.12 42.00 45.56 48.64 47.54 48.88 48.59 48.69 50.18 48.30 52.90 59.78 64.38 65.52 67.14 69.65 69.86 69.25 67.89 67.74 68.46 69.58 69.55 69.48 69.42 69.41 70.12 70.20 70.03 70.44 70.54 70.68 70.16 69.64 69.54 69.64 69.65 68.44 67.99 67.40 68.07 66.97 67.16 67.83 67.56
47.72 44.29 41.19 42.29 40.42 41.23 47.46 49.58 50.55 49.63 48.74 52.98 51.38 47.88 48.37 57.76 65.15 66.36 68.22 69.05 69.33 68.54 67.81 67.23 67.00 67.63 67.63 67.72 68.59 68.90 69.03 69.27 69.24 69.58 69.20 68.89 69.03 68.98 69.12 69.00 69.23 68.07 67.74 67.55 68.53 67.87 67.06 66.58 66.24
47.75 41.96 40.26 41.76 42.47 44.17 48.72 48.01 52.15 51.09 48.72 51.49 50.64 51.56 59.61 64.39 65.92 66.81 67.32 67.14 67.91 69.00 68.23 67.76 67.23 67.45 67.61 67.34 68.50 68.99 69.27 68.87 68.57 68.90 68.59 67.25 68.12 68.25 68.17 68.10 68.32 68.13 67.97 68.16 67.85 66.95 66.33 65.84 65.59
43.22 38.85 41.87 46.43 47.24 46.60 49.54 50.15 51.06 47.44 47.48 47.10 48.68 57.25 60.30 63.08 63.97 64.81 65.53 65.93 66.51 67.04 67.74 68.67 67.67 67.74 68.16 69.29 67.18 66.68 67.74 66.46 66.73 67.36 67.11 67.61 67.11 67.36 67.93 67.65 67.34 67.69 67.42 67.22 66.82 66.31 65.60 65.11 63.75
42.52 40.90 45.61 46.72 49.08 50.49 49.18 49.06 50.92 47.24 44.52 47.39 48.01 54.39 57.54 58.66 61.79 62.56 65.16 66.92 67.70 68.15 68.31 68.31 68.27 68.47 68.53 68.56 67.11 67.81 67.13 66.18 66.07 66.75 67.11 66.91 66.66 66.08 66.28 66.35 66.62 66.30 66.06 64.88 65.28 64.53 63.54 63.35 63.37
37.68 43.44 46.89 47.65 48.88 48.67 47.88 50.53 48.74 48.68 48.39 50.97 50.54 52.97 56.24 55.83 57.43 60.48 61.70 66.05 66.96 68.15 68.08 68.03 68.13 67.76 67.85 69.19 68.25 67.90 67.52 66.72 66.03 66.26 66.93 65.86 65.74 65.24 64.77 65.64 65.38 64.72 64.60 63.56 63.70 63.15 62.54 62.35 62.94
41.06 41.88 44.27 47.13 49.23 49.21 50.33 48.86 49.00 49.51 51.59 50.91 51.12 50.91 53.97 55.09 54.80 57.78 60.27 63.23 67.09 67.18 68.01 67.89 68.03 67.89 68.09 68.72 68.54 67.65 66.77 66.84 66.31 66.78 66.89 66.40 65.41 65.16 64.78 64.41 65.43 64.66 64.75 63.74 63.20 62.76 62.62 61.87 62.34
44.54 44.47 44.08 45.39 46.84 49.26 48.40 48.70 48.89 50.17 51.42 50.22 50.63 48.13 48.14 53.31 53.14 52.41 54.34 56.77 63.45 67.39 67.78 67.79 67.76 68.06 67.98 67.29 67.11 66.53 67.24 66.35 66.04 66.10 66.08 65.84 65.34 65.36 64.97 64.48 64.83 65.19 64.45 63.80 63.57 63.05 62.48 61.66 61.89
42.83 39.71 43.03 44.63 44.98 44.67 48.40 45.02 46.39 50.60 50.47 49.31 48.74 48.85 49.35 49.31 50.60 50.20 50.86 51.37 54.86 65.48 67.88 67.41 67.21 67.62 67.86 67.11 66.31 65.66 66.06 66.00 65.22 64.92 67.14 65.77 65.17 64.93 64.54 64.27 63.72 64.02 63.87 63.32 63.30 62.99 62.50 61.28 62.02
38.34 38.87 33.68 41.83 44.49 45.25 45.25 40.53 47.42 49.70 49.19 48.80 48.39 48.13 49.70 50.01 50.50 49.08 50.36 50.79 51.71 57.09 66.81 67.44 68.05 67.41 67.06 66.78 66.62 65.82 65.02 65.13 65.35 64.98 65.27 65.61 65.27 64.61 64.29 63.65 63.49 64.00 63.21 63.76 62.74 63.40 61.87 60.79 61.43
34.58 30.33 33.25 37.29 44.67 43.99 43.29 41.22 47.37 49.65 49.28 48.59 49.11 49.18 48.68 49.35 50.47 51.34 49.84 50.43 51.55 53.97 66.90 66.89 67.39 66.68 66.62 66.24 66.67 65.24 64.84 64.55 66.29 65.88 65.50 65.43 65.27 64.87 64.01 63.81 64.05 63.90 62.89 63.12 62.49 61.51 61.90 60.07 60.61
28.42 31.47 33.70 34.25 40.01 43.31 41.79 41.84 45.88 47.97 49.54 49.47 49.27 49.26 49.82 50.21 51.11 52.71 53.07 51.29 51.82 51.75 67.26 67.32 67.02 66.14 66.21 66.70 65.56 65.15 64.62 63.43 63.71 65.13 65.64 65.39 65.46 64.87 63.97 62.71 62.47 61.93 62.51 62.42 62.51 60.96 60.92 60.60 60.23
33.28 33.57 33.77 36.90 41.61 42.45 42.36 43.08 43.32 47.55 48.83 47.86 48.22 49.50 50.01 50.48 52.48 53.40 51.74 51.04 50.71 51.27 66.38 67.14 66.06 65.44 65.11 65.26 63.91 64.42 63.35 62.80 61.80 63.05 64.75 65.44 64.99 64.85 64.20 63.35 61.89 61.68 61.79 61.90 61.96 61.08 59.77 59.05 60.18
32.80 31.51 32.02 37.14 42.65 41.55 39.38 39.42 42.48 44.16 45.68 47.82 49.20 47.71 47.32 49.64 50.42 52.79 51.85 50.92 51.37 53.25 63.01 66.69 66.09 65.19 64.84 64.94 65.17 63.62 64.52 63.41 64.07 62.35 62.75 63.57 64.40 64.04 63.46 62.50 61.98 61.78 62.09 61.58 61.62 61.10 60.13 59.70 60.48
33.31 30.77 31.70 32.43 40.02 42.14 39.00 36.27 39.40 45.12 47.28 49.59 50.79 50.64 50.09 49.96 50.69 52.16 53.52 52.85 53.36 54.06 55.42 65.34 66.34 65.28 65.13 64.62 64.42 62.64 62.65 63.12 62.61 62.85 62.71 62.06 62.46 63.01 62.57 61.75 61.87 62.09 62.81 62.04 61.95 61.50 60.26 58.38 59.90
29.28 35.39 34.88 34.63 35.69 31.87 39.71 29.28 37.80 42.31 44.33 48.10 49.56 48.58 49.85 52.11 53.00 53.46 53.11 53.42 54.21 55.08 56.69 56.74 65.45 65.86 65.09 64.44 63.72 62.36 61.50 60.90 62.12 62.42 62.34 61.76 62.43 61.81 62.40 61.52 61.11 62.09 62.20 61.67 61.74 61.83 60.62 59.74 58.08
33.69 37.19 35.59 35.98 34.22 33.71 34.58 32.22 34.92 43.35 41.69 45.53 48.04 51.18 51.34 51.93 51.32 50.87 51.08 52.21 53.11 53.66 54.72 56.49 57.58 61.86 65.50 64.26 63.89 62.56 61.54 61.82 61.32 62.07 62.62 61.25 60.69 61.46 61.82 62.54 61.47 61.22 61.11 61.26 61.24 61.12 60.44 60.05 59.09
39.95 38.79 38.65 37.24 34.81 24.42 32.77 32.85 33.87 38.63 41.97 45.48 49.14 49.47 49.26 49.16 48.81 48.57 49.52 49.64 48.77 49.83 51.26 53.11 54.37 56.55 62.70 64.02 63.37 62.73 61.73 61.50 60.59 60.77 59.92 59.47 59.94 59.72 60.42 60.28 60.74 61.10 60.72 60.50 60.53 60.90 60.43 59.63 59.71
39.00 34.05 24.23 26.13 23.68 22.88 35.03 32.01 35.30 42.48 46.60 47.54 47.46 47.71 47.93 46.84 46.25 45.39 44.96 44.60 45.05 45.74 47.68 49.59 49.95 52.00 54.33 63.52 63.21 62.97 62.53 61.95 61.23 60.61 60.04 59.51 59.19 58.98 58.86 59.07 58.74 58.85 60.10 60.12 60.34 60.26 60.12 59.88 58.97
34.51 33.35 24.96 20.69 21.85 25.11 35.29 30.10 34.71 45.44 47.70 48.06 47.44 45.79 45.50 44.38 43.89 42.51 42.33 41.99 42.30 44.22 44.75 45.21 46.09 48.05 51.23 61.41 63.17 63.21 63.12 62.41 61.94 61.05 60.27 59.56 58.71 58.48 58.59 58.40 58.09 59.22 59.76 59.78 59.97 60.02 59.74 59.89 59.26
34.95 31.07 36.34 31.07 33.36 25.07 30.10 36.44 43.11 46.29 44.54 44.20 42.73 42.01 41.25 41.36 41.32 40.17 40.10 40.36 41.11 42.29 42.90 43.42 44.25 45.71 50.07 54.73 63.41 62.49 62.10 63.27 60.77 59.91 60.29 59.43 58.92 58.04 58.48 58.61 58.04 59.03 59.29 59.30 59.58 59.69 59.27 59.34 59.30
35.97 39.44 26.91 30.49 24.76 24.28 30.85 33.28 34.82 38.33 39.20 40.35 39.16 38.82 38.51 38.97 38.68 38.67 38.34 38.74 40.94 41.13 41.57 42.44 44.33 47.72 52.90 61.03 60.57 60.94 60.94 61.60 61.03 60.88 59.75 58.69 58.21 58.58 58.31 58.20 58.10 58.39 58.57 59.00 58.34 58.29 59.34 58.97 59.25
34.31 33.48 35.21 35.77 32.38 26.28 27.72 30.31 39.66 40.34 39.79 38.06 37.87 37.79 37.57 37.67 38.04 38.41 38.29 38.84 39.56 40.20 40.08 40.47 42.28 45.07 52.99 58.39 58.43 58.48 59.61 60.58 60.58 60.76 59.47 58.49 58.15 58.62 58.47 58.07 57.46 57.28 57.32 57.32 58.10 57.28 57.58 57.74 57.90
39.30 35.92 36.31 30.37 30.75 32.97 31.99 29.94 41.61 40.36 39.31 38.52 37.59 38.05 38.02 38.07 37.74 37.44 37.01 37.92 38.03 38.13 38.74 38.81 40.24 42.08 45.31 50.42 58.29 58.47 58.96 59.89 60.08 60.14 59.80 58.79 58.09 58.67 58.47 57.73 57.22 56.94 56.80 56.88 56.74 56.70 56.98 56.84 56.62

GFSSGP_sfc_wetblb_108.txt.gz
Wetbulb
55.93 55.40 53.46 50.09 38.79 35.10 31.58 36.89 41.05 43.01 44.48 46.78 50.06 48.93 49.45 53.30 53.54 49.13 64.73 66.68 68.67 69.78 71.07 71.71 71.94 73.07 73.19 73.18 73.07 73.11 73.51 73.63 73.64 73.54 73.43 73.57 73.70 73.66 73.75 73.69 73.93 74.01 73.68 73.29 72.67 73.04 72.22 72.70 72.32
52.31 54.84 50.35 44.31 34.11 28.46 32.29 39.08 42.49 45.32 47.73 50.60 51.52 49.61 50.76 54.77 60.44 63.86 63.21 67.27 68.44 69.89 70.56 71.08 71.79 72.37 73.06 73.07 72.91 73.03 73.61 73.58 73.65 73.50 73.50 73.44 73.52 73.46 73.35 73.17 72.76 72.70 72.72 72.92 72.50 72.50 72.46 71.94 71.41
52.40 54.11 44.41 40.13 31.93 30.30 32.55 40.14 43.32 46.09 48.37 48.37 48.90 49.40 52.15 56.27 63.83 64.01 65.82 67.82 68.49 68.96 69.87 70.64 71.21 71.52 72.27 72.57 72.72 72.88 73.22 73.15 73.14 73.16 73.63 73.52 73.56 73.53 73.23 72.09 71.59 72.21 72.40 72.64 72.08 72.25 71.72 70.96 70.32
48.79 48.62 45.11 36.09 32.90 36.07 38.43 41.49 43.03 44.48 46.88 48.43 48.23 46.96 56.18 60.47 64.92 65.83 67.18 67.48 67.52 68.10 69.31 69.59 70.04 70.96 71.89 72.27 72.69 72.76 72.67 72.29 72.16 72.61 73.30 73.40 73.51 73.42 72.74 71.24 70.94 71.33 71.48 71.44 71.36 71.74 70.76 69.68 69.42
46.62 43.14 36.61 32.70 35.04 38.12 41.54 44.16 42.96 43.82 45.18 46.98 47.67 46.17 54.33 60.75 65.53 67.60 66.83 67.16 67.16 67.46 68.46 69.25 69.03 70.42 71.58 72.15 72.43 72.42 72.02 71.75 71.66 71.94 72.41 72.72 72.89 72.74 71.30 70.49 70.46 70.41 70.74 70.67 70.98 70.75 69.82 69.18 68.34
41.86 41.03 32.20 33.57 38.02 40.81 42.49 44.50 43.58 44.65 46.54 47.46 47.17 47.79 53.84 62.01 66.72 67.52 67.34 67.23 68.16 66.74 68.06 68.73 69.69 70.13 70.62 71.13 71.15 70.89 71.15 71.48 71.27 71.41 71.78 72.23 71.83 71.39 70.47 69.72 69.30 69.60 69.69 69.24 69.25 69.11 68.97 68.95 68.50
40.50 36.46 33.68 37.96 36.51 38.86 43.24 46.22 45.26 46.32 46.89 46.14 48.53 47.05 53.17 61.75 64.67 66.60 68.33 68.39 67.63 67.30 67.37 67.64 68.33 69.57 69.30 69.03 69.16 69.43 70.25 70.65 70.78 70.54 70.47 70.72 70.18 69.72 69.95 68.58 67.43 67.87 69.04 68.78 67.59 67.18 67.38 68.10 68.09
44.87 40.89 36.80 39.54 38.74 38.48 45.03 47.51 48.29 47.05 47.84 53.01 49.97 46.63 52.55 58.72 63.31 67.12 68.26 67.61 66.63 66.49 66.71 66.67 66.98 67.48 67.50 68.27 68.11 68.69 68.85 69.00 69.30 69.88 69.45 69.15 68.90 69.17 69.29 68.32 68.11 68.40 68.60 67.91 67.55 66.52 66.93 66.98 66.67
44.68 36.27 38.00 39.08 40.27 41.95 47.61 46.41 50.68 50.74 48.06 49.14 48.95 50.39 56.69 63.46 66.38 66.92 66.67 66.13 65.54 65.75 65.52 65.76 66.26 66.23 66.08 66.41 68.17 68.67 69.18 68.62 68.51 68.98 68.78 67.55 68.53 68.07 68.60 67.92 67.23 67.45 67.20 67.64 67.48 66.89 66.36 65.94 65.78
40.76 35.98 40.54 44.16 45.58 43.99 47.98 48.30 49.35 47.74 47.79 46.28 49.15 57.91 62.21 64.87 65.21 64.63 64.79 64.91 65.05 64.87 64.86 65.47 65.68 65.97 65.90 67.79 66.64 66.23 67.52 66.28 66.33 66.98 67.32 67.66 67.16 66.94 68.00 67.50 66.83 66.96 66.92 66.83 67.28 66.47 65.58 65.07 63.33
37.86 39.92 44.36 46.15 46.91 47.11 46.29 46.42 49.64 47.79 46.54 47.01 46.55 56.23 61.22 63.30 63.80 64.16 64.56 65.47 65.88 66.34 66.47 66.38 66.00 66.38 66.64 66.81 66.09 65.98 65.43 64.44 65.04 65.61 66.42 66.33 66.60 66.73 66.85 67.37 66.89 66.26 66.81 66.08 65.65 64.39 63.23 62.27 62.09
34.30 40.39 42.94 44.29 46.79 46.00 45.08 47.61 46.56 46.53 48.31 50.87 50.63 54.32 59.16 61.58 62.76 63.45 64.32 65.08 65.76 66.74 67.32 67.28 66.90 67.05 67.41 66.93 65.82 66.12 65.64 64.88 64.60 65.31 65.97 65.79 65.35 64.92 65.28 66.05 66.13 65.58 64.24 62.87 62.87 61.89 61.56 61.49 61.88
37.47 39.66 41.06 42.10 42.23 44.21 47.43 46.34 46.58 47.63 50.70 51.31 51.52 51.73 55.72 60.78 62.14 64.11 65.26 66.15 66.65 66.45 67.15 67.63 67.52 67.23 67.48 67.00 66.44 66.48 66.03 65.58 65.31 65.60 66.06 65.43 64.95 64.25 64.59 64.79 64.99 64.91 63.77 62.90 61.89 61.17 61.14 60.84 61.33
40.08 40.60 42.03 43.82 43.29 43.15 42.17 43.83 45.79 48.33 50.78 49.83 49.84 47.53 52.43 54.18 55.97 58.00 62.15 64.74 66.57 67.37 67.15 67.66 67.62 67.82 67.76 67.79 66.76 66.64 66.57 66.04 65.77 66.10 66.11 64.90 65.21 64.15 64.06 64.20 64.26 64.12 64.13 63.30 62.43 61.88 61.33 60.62 61.00
38.40 34.85 38.25 39.88 41.53 41.78 43.77 40.13 41.20 47.57 49.32 49.21 49.29 47.69 47.76 51.82 51.77 54.85 56.45 62.03 65.88 67.33 67.95 67.23 67.36 67.64 67.20 67.78 67.25 66.62 66.81 65.93 65.27 66.11 65.50 65.06 64.88 64.47 63.74 63.59 63.44 63.41 64.18 63.37 62.08 61.17 61.45 60.23 61.30
33.72 33.52 28.99 37.00 40.05 41.73 40.64 36.16 43.42 46.67 46.77 47.74 47.34 47.38 47.74 48.19 51.79 50.98 52.55 53.45 60.67 66.50 66.84 67.54 67.93 67.01 67.11 67.10 67.01 66.27 66.69 65.85 65.12 65.81 66.38 65.07 64.61 64.75 63.89 63.37 63.20 63.51 62.88 62.89 62.18 62.24 62.01 61.38 61.14
31.52 25.11 28.01 31.56 39.14 38.82 38.35 37.09 43.53 46.25 46.47 47.30 48.43 46.75 47.35 47.55 48.10 49.73 49.69 48.79 48.72 62.92 66.31 66.71 67.08 66.11 67.26 66.86 66.51 65.60 65.55 65.36 64.96 64.46 64.75 66.03 64.27 64.28 64.16 63.53 63.13 62.99 62.71 62.51 62.16 62.52 62.53 61.30 60.80
25.65 25.75 27.75 29.04 36.18 37.59 36.32 37.33 42.62 44.85 45.60 46.87 48.61 48.32 45.79 46.87 48.98 49.61 49.69 49.35 50.49 53.76 65.67 66.49 66.71 66.18 66.92 66.04 65.05 64.11 64.07 64.05 65.11 64.58 64.49 64.87 65.07 63.99 63.51 63.02 62.83 62.60 61.91 62.43 62.72 62.57 62.00 60.70 60.36
31.92 29.24 27.32 30.99 35.38 36.12 36.06 36.84 41.71 42.92 44.47 46.19 46.80 45.33 48.65 49.34 49.72 50.59 51.16 50.37 48.97 50.61 63.81 65.59 65.67 65.69 65.98 65.27 64.25 63.32 63.06 62.89 63.95 64.66 64.79 64.44 65.19 64.31 63.49 62.80 62.15 61.73 61.63 62.21 61.93 61.49 60.46 59.51 60.37
31.41 30.81 28.59 32.28 35.42 34.86 36.91 37.09 40.62 43.05 44.69 44.51 44.60 45.43 46.26 47.21 50.17 50.98 51.21 50.80 50.56 50.72 62.06 64.93 65.54 65.24 65.66 66.44 66.02 64.83 64.43 63.24 63.29 63.89 64.58 64.63 64.27 64.36 63.87 62.94 62.01 61.21 60.50 60.74 61.42 60.96 59.81 59.62 60.62
29.22 28.55 30.28 29.49 33.04 36.30 37.04 34.92 38.27 43.23 45.06 46.76 47.75 48.06 48.64 49.36 50.70 52.00 51.72 51.31 52.89 53.55 55.81 63.68 64.03 64.64 65.48 65.83 64.96 62.27 61.77 61.63 61.30 61.68 62.28 63.38 64.07 63.71 63.64 62.94 62.44 61.33 61.43 61.13 61.51 61.44 59.93 58.42 59.81
26.31 33.91 32.80 32.16 29.27 24.33 36.76 24.93 35.14 39.41 41.38 44.84 46.69 46.51 49.07 49.05 49.03 48.95 48.23 47.60 48.49 50.08 52.66 54.06 63.29 64.66 64.45 63.04 64.20 62.67 62.48 61.28 62.50 62.73 62.01 62.45 63.31 62.94 62.67 61.76 61.67 61.33 62.30 62.34 61.94 62.24 60.95 59.18 57.62
31.33 35.52 32.52 32.90 28.67 28.65 31.78 30.11 32.49 39.67 39.39 42.06 44.77 46.31 45.97 45.76 45.18 44.14 44.28 44.93 45.51 46.71 47.76 50.74 51.41 56.44 59.20 63.32 63.55 62.52 62.61 62.45 60.38 61.05 60.96 61.91 62.07 61.99 62.80 61.35 60.89 61.01 62.03 62.24 61.56 61.26 61.07 60.15 59.29
37.59 34.89 34.73 33.76 29.69 21.52 29.22 30.48 29.87 36.97 39.40 44.71 44.43 43.92 42.84 41.84 41.23 41.54 42.56 43.49 43.37 44.51 45.01 47.03 47.17 49.48 51.81 56.14 63.49 63.02 61.86 60.58 60.32 60.25 60.15 61.15 61.61 61.70 62.24 61.67 61.55 61.65 61.28 60.77 60.93 61.33 61.04 60.45 60.04
34.61 31.56 21.37 19.57 20.98 21.89 32.85 31.00 33.19 42.78 45.70 43.93 40.63 39.68 40.06 39.55 38.65 38.36 38.37 39.16 41.08 41.81 42.45 44.54 44.39 45.28 47.83 48.93 55.73 62.93 61.94 60.99 60.63 60.37 60.48 60.15 60.06 60.75 61.22 61.67 60.98 60.81 60.97 60.88 60.80 60.68 60.91 60.61 59.78
32.32 31.20 23.95 20.45 22.59 25.58 34.47 28.43 34.51 41.71 42.20 41.10 39.74 38.74 38.40 37.74 37.63 37.35 37.74 38.43 39.24 40.61 41.09 41.29 42.55 43.99 46.05 47.29 50.45 61.58 62.94 61.83 61.29 61.00 60.86 60.15 59.91 60.05 59.85 60.00 59.20 59.02 59.29 60.09 60.53 60.31 60.43 60.45 59.60
32.30 29.19 34.39 30.72 30.55 23.00 29.66 35.83 39.98 40.64 39.33 38.33 37.07 36.82 36.41 36.92 37.20 37.42 37.86 38.15 38.54 39.16 39.50 40.06 41.56 42.61 44.90 47.79 49.19 56.55 63.48 61.56 61.48 61.04 60.35 60.08 60.02 58.72 58.06 58.81 58.22 57.74 58.12 58.96 59.39 59.55 59.53 59.67 59.60
35.03 37.61 28.48 27.71 16.81 14.40 28.28 30.59 33.06 34.64 34.69 35.85 35.75 35.52 36.05 36.52 36.44 36.68 36.99 37.74 38.11 38.58 39.24 39.98 41.22 41.13 43.83 47.14 52.01 57.63 63.06 61.88 61.44 60.37 59.76 59.43 59.09 58.32 57.42 57.32 57.06 57.84 58.21 58.50 58.93 58.99 59.33 59.13 59.31
33.32 31.61 34.20 34.29 31.47 23.54 24.37 28.12 37.31 34.61 35.33 33.40 34.48 35.88 35.62 35.53 35.69 36.06 36.55 37.25 37.58 38.64 38.86 39.28 40.25 40.34 42.11 45.66 54.06 59.74 60.46 59.69 59.64 60.09 59.87 59.40 58.87 57.92 56.88 57.10 57.64 57.65 57.77 58.23 57.99 58.33 58.95 58.53 58.59
37.93 35.51 35.83 27.96 27.15 31.10 30.36 25.84 35.29 36.81 36.37 35.29 34.98 35.39 35.38 35.37 35.24 35.41 35.56 35.96 36.31 36.33 37.03 38.15 39.15 39.47 41.40 43.95 48.05 58.68 58.92 58.61 58.62 59.40 59.15 58.99 58.16 57.80 57.24 57.20 57.22 56.98 56.96 57.33 57.37 57.07 57.81 58.32 58.05

GFSSGP_sfc_wetblb_111.txt.gz
Wetbulb
54.08 52.69 51.87 48.07 37.96 33.87 29.95 34.91 36.68 39.08 41.43 44.10 47.38 46.99 47.38 51.06 52.11 47.31 62.91 65.69 68.71 68.85 70.79 71.55 72.01 72.55 72.81 72.97 72.86 72.90 73.29 73.46 73.39 73.36 73.40 73.53 73.73 73.88 73.95 73.91 73.57 73.20 73.52 73.14 72.99 73.05 72.82 72.62 72.37
51.02 53.18 48.56 42.10 32.46 27.19 31.11 36.74 39.41 41.50 45.44 48.08 48.05 48.54 47.53 52.45 60.48 62.27 62.25 67.14 68.49 69.56 70.45 71.26 71.72 72.12 72.71 72.50 72.62 72.93 73.45 73.41 73.23 73.27 73.53 73.55 73.76 73.83 73.85 73.62 72.69 73.07 73.41 73.22 72.74 72.70 72.49 72.25 71.84
50.69 51.59 44.04 39.07 30.40 28.28 30.83 36.21 39.73 44.02 47.19 45.37 45.07 47.91 51.36 55.18 63.08 62.97 64.39 67.48 69.13 69.32 70.24 70.77 71.25 71.75 72.27 72.27 72.41 72.79 73.00 72.68 72.70 72.80 73.47 73.54 73.65 73.65 73.47 72.60 71.92 72.63 73.17 73.20 72.60 72.52 72.06 71.31 70.62
48.15 47.16 43.02 34.84 32.37 34.37 36.24 38.49 39.94 42.34 45.38 45.87 44.65 44.30 52.34 60.84 63.30 64.45 66.30 67.72 67.84 68.82 69.62 69.96 70.20 71.12 72.20 72.25 72.35 72.51 72.38 71.83 72.02 72.37 72.99 73.35 73.45 73.36 72.69 71.29 71.42 72.24 72.84 73.02 72.38 72.00 71.27 70.06 69.57
44.83 42.53 35.24 31.77 33.22 37.23 40.13 41.28 40.55 40.50 43.37 44.60 45.05 44.12 50.60 61.36 64.85 64.98 65.60 66.94 66.30 67.17 68.56 69.71 69.17 70.49 71.59 72.44 72.49 72.31 71.91 71.41 71.60 72.13 72.43 72.78 73.22 72.79 71.20 70.73 70.88 71.35 71.54 71.99 71.89 71.24 70.29 69.53 69.13
40.25 39.96 31.46 31.22 36.13 38.47 40.93 43.64 42.32 43.20 44.33 45.55 45.52 44.49 51.75 61.75 63.64 63.75 65.03 65.09 66.02 66.56 67.97 69.10 69.93 70.22 70.58 71.50 71.55 71.15 71.15 71.10 71.22 71.49 71.81 72.39 72.16 71.42 70.60 70.37 70.18 70.44 70.52 70.55 70.46 69.83 69.53 68.85 68.67
38.60 35.30 32.13 34.55 35.07 37.56 41.62 45.31 43.72 45.32 44.92 44.64 47.07 45.40 51.84 62.34 63.89 64.33 64.25 66.03 65.42 66.69 67.07 67.86 68.76 69.82 69.55 69.19 69.46 69.73 70.25 70.52 70.46 70.62 70.79 70.80 70.23 69.81 70.08 69.78 69.66 69.73 69.29 69.13 69.21 68.91 68.45 68.36 67.96
42.92 38.33 33.51 35.63 37.15 37.65 43.94 46.69 46.36 45.68 45.99 50.85 47.98 44.53 50.87 59.34 65.05 66.46 66.03 64.87 64.92 65.72 66.17 66.55 66.70 67.41 67.36 67.93 68.43 68.81 69.33 69.48 69.50 69.81 69.49 69.11 69.05 69.22 68.77 68.59 68.76 69.00 68.75 68.72 67.98 66.92 67.31 67.63 66.94
42.54 35.23 35.86 35.49 37.37 39.52 45.84 44.45 48.78 49.52 47.76 49.40 47.68 49.41 55.02 62.09 66.67 65.65 64.51 63.57 63.57 64.52 64.95 65.94 66.39 66.12 66.05 66.10 67.95 69.10 69.53 69.28 69.10 69.32 68.76 67.48 68.47 68.72 67.72 66.27 67.32 68.14 68.09 67.50 67.04 66.51 66.04 66.32 66.18
38.79 32.47 37.48 42.14 42.82 42.83 46.18 47.41 48.19 46.38 47.19 47.14 48.39 51.61 61.19 64.55 65.19 63.94 63.36 62.97 62.97 63.10 63.81 65.24 65.83 65.80 65.55 67.54 66.01 65.85 67.84 67.43 67.79 68.22 68.24 67.61 67.03 67.55 67.68 66.58 66.79 67.05 66.85 66.64 66.55 65.96 65.36 64.79 63.34
37.82 37.75 41.32 42.49 44.92 45.94 44.42 43.85 45.81 44.65 44.81 47.21 47.39 48.01 58.49 61.95 63.72 63.63 63.79 63.83 63.50 63.85 64.10 64.46 65.02 65.40 65.51 66.44 66.57 64.78 64.94 64.69 65.12 65.79 66.89 66.26 66.06 66.87 66.64 66.47 65.69 64.95 65.82 64.12 65.00 64.28 62.50 61.46 61.74
33.47 37.53 38.56 41.69 44.95 43.05 41.62 44.16 44.05 44.75 46.67 49.20 50.13 50.03 54.84 59.83 62.12 63.13 63.27 63.88 63.86 63.60 63.70 64.30 64.69 65.18 65.56 65.83 66.15 65.42 64.67 63.40 63.76 65.08 65.85 66.12 65.69 65.30 66.26 66.34 65.98 65.36 65.08 64.20 62.84 61.91 61.14 60.76 61.20
38.49 39.63 41.10 41.38 40.16 39.58 41.59 40.31 42.51 45.21 48.90 49.88 50.03 50.25 48.86 54.98 61.66 63.46 64.10 64.61 65.05 64.45 64.74 64.55 64.83 65.01 65.77 65.43 65.28 64.81 64.24 64.00 63.91 64.90 65.45 65.79 65.20 64.83 65.64 65.91 65.67 65.24 64.13 62.59 61.25 60.58 60.36 60.25 60.18
37.34 36.60 36.16 37.74 37.83 39.34 40.22 41.10 39.73 42.99 46.61 46.73 48.55 49.05 47.89 50.48 59.85 62.51 62.48 63.40 64.79 65.66 65.94 65.87 65.13 65.35 66.25 65.79 65.03 65.27 64.97 64.07 63.63 64.72 65.29 65.03 65.23 64.39 64.93 64.57 64.56 64.43 63.28 61.69 61.46 60.52 59.80 59.46 59.81
36.45 32.90 35.58 36.13 35.51 36.18 39.71 36.17 38.04 43.62 44.49 45.04 46.50 48.76 47.26 49.08 55.31 60.65 62.44 63.23 64.72 65.75 66.53 66.45 66.09 66.20 66.11 66.22 65.46 65.52 65.70 65.32 64.52 64.95 64.68 64.62 64.44 63.85 64.01 64.43 63.69 63.60 63.05 61.22 60.40 59.68 59.78 59.06 59.88
33.66 32.92 27.83 34.70 34.66 36.26 35.53 31.40 39.32 43.27 42.60 43.21 44.81 46.38 48.95 48.49 51.17 53.97 57.29 62.96 64.76 65.97 66.19 66.79 67.57 66.38 66.36 66.56 66.06 66.04 66.10 65.45 64.84 64.97 65.22 64.33 64.25 63.82 63.31 63.32 63.19 62.51 62.73 62.26 60.72 60.87 60.60 60.86 60.34
30.31 24.83 27.19 30.16 36.16 34.81 33.60 31.07 38.12 41.83 42.75 43.21 44.62 44.89 48.24 47.29 46.94 50.24 53.22 57.84 63.86 65.76 66.52 66.36 66.63 66.29 66.18 66.94 66.83 65.79 65.84 65.47 64.73 65.24 65.18 64.05 64.05 63.69 63.37 62.84 62.65 62.28 61.99 61.94 61.39 61.57 60.65 60.36 60.14
25.39 25.78 26.65 26.93 32.01 33.04 31.29 32.31 37.80 40.76 41.88 42.68 43.47 44.89 47.12 48.06 47.63 49.03 50.26 51.94 54.43 62.11 65.79 66.64 66.58 66.25 66.36 66.24 65.35 63.72 64.81 64.61 64.52 64.80 65.03 64.54 64.44 63.73 63.32 62.63 61.93 62.04 61.72 61.38 61.24 60.79 61.82 61.37 60.26
28.60 26.73 25.65 30.34 34.20 32.10 30.91 31.19 33.98 37.94 40.50 41.99 43.51 44.05 44.94 47.83 48.11 47.89 48.64 48.29 45.96 48.43 62.73 65.42 65.58 65.44 66.00 64.96 64.41 63.75 63.93 64.21 64.05 64.43 64.55 64.55 64.10 63.39 63.00 62.65 61.73 61.55 61.41 61.44 61.46 61.73 61.46 60.52 60.51
30.51 27.51 26.86 30.54 33.95 33.44 31.94 30.17 34.09 37.60 41.70 42.95 43.84 43.62 43.35 45.30 48.85 51.32 50.66 51.11 51.50 51.57 52.91 61.22 64.89 64.95 65.80 65.45 65.18 64.85 64.85 63.49 64.09 64.01 63.77 64.39 64.15 63.69 63.31 62.46 61.69 61.15 61.21 61.40 61.87 61.04 59.98 60.16 60.35
29.55 28.13 28.05 26.97 31.11 34.77 33.21 28.34 31.43 37.56 41.53 44.55 45.65 46.58 46.06 46.42 47.14 47.68 46.68 45.50 46.29 46.66 48.98 58.64 63.01 64.55 65.14 65.05 64.92 62.24 62.28 61.83 60.00 63.02 63.83 63.74 63.91 64.06 63.71 62.72 62.70 61.56 62.03 61.54 61.59 60.94 60.34 58.68 59.49
26.02 33.78 32.09 29.34 27.07 20.67 31.71 19.69 30.20 35.18 38.18 42.11 43.75 44.13 43.64 43.30 42.94 43.22 43.35 43.22 43.51 44.25 45.95 49.12 59.98 64.89 65.14 65.23 64.96 63.11 63.11 62.06 62.47 62.60 64.09 64.53 63.77 63.02 63.93 63.82 62.95 62.02 62.39 61.87 61.99 61.43 60.87 60.25 58.23
30.15 35.32 33.02 31.45 27.77 27.39 27.50 23.35 27.06 37.35 37.17 40.29 41.43 40.61 39.64 39.49 39.62 39.87 41.04 41.89 42.36 42.86 43.32 46.44 49.29 51.42 53.15 63.05 65.04 63.71 62.94 63.37 60.50 60.86 60.63 62.42 63.23 63.08 63.34 63.15 62.88 62.61 62.74 62.70 62.27 61.71 61.34 60.86 59.82
36.59 33.32 32.76 31.10 28.04 21.31 25.93 25.84 26.22 32.09 38.21 37.90 37.91 37.20 37.57 37.75 37.59 38.22 39.73 41.05 40.54 41.30 41.66 43.64 45.05 47.21 49.31 50.68 55.95 63.25 62.67 62.10 60.29 60.73 60.05 60.87 61.46 62.68 63.05 62.84 62.39 62.17 62.05 61.53 61.90 61.94 61.37 60.99 60.21
32.23 28.68 19.47 20.81 14.92 19.00 28.93 25.83 29.10 37.40 38.32 38.09 37.26 36.28 37.04 37.47 37.46 36.47 36.78 37.52 39.00 39.23 39.94 42.06 42.51 44.22 45.68 47.20 49.44 53.33 62.78 60.75 61.15 60.98 61.12 60.24 60.25 60.07 61.17 62.19 61.57 61.47 61.75 62.01 61.66 60.81 60.70 60.52 59.79
30.34 29.32 23.44 16.39 20.83 24.19 33.09 25.78 31.90 37.03 37.60 38.46 37.68 37.54 37.14 36.65 37.39 37.55 37.32 37.52 37.86 38.86 39.70 40.10 40.75 42.48 44.30 45.97 46.73 49.55 52.52 62.82 61.18 60.73 60.92 60.49 60.53 60.66 60.24 61.31 61.72 61.66 61.33 60.76 60.24 60.18 60.05 60.32 60.37
31.76 27.96 34.16 27.73 29.95 26.35 29.87 34.51 35.85 36.41 35.20 34.24 35.46 36.15 35.70 36.30 36.55 36.40 36.95 37.25 37.59 38.31 39.17 39.66 40.40 41.84 43.18 44.47 46.65 49.72 51.00 60.57 62.33 60.88 60.48 60.43 60.52 59.87 60.20 61.15 60.68 60.43 60.37 60.07 59.97 59.83 59.67 60.01 60.03
34.54 37.48 29.48 30.08 21.25 12.75 26.65 28.28 27.23 30.45 32.52 32.91 31.83 33.65 34.47 35.20 35.73 35.74 36.00 36.66 37.21 37.41 38.23 39.25 39.91 40.68 42.11 43.29 45.25 48.65 52.44 56.44 63.08 62.24 60.19 59.81 60.11 59.36 59.41 59.33 59.12 58.42 58.24 58.27 58.29 58.41 58.83 58.85 59.29
32.83 30.61 32.81 33.33 28.75 19.64 19.56 24.88 33.79 31.46 32.37 32.19 32.01 32.69 33.37 33.56 33.80 34.45 35.22 36.08 36.62 37.02 36.93 37.04 38.15 39.21 40.34 42.44 44.43 47.52 55.33 58.56 62.48 61.64 60.36 59.95 59.76 58.72 58.52 58.02 57.58 57.62 57.18 57.52 57.43 57.58 58.10 58.17 58.63
37.42 34.22 34.61 26.40 25.85 29.84 27.39 24.40 33.82 34.80 34.32 33.95 33.13 32.55 33.50 33.88 33.64 33.90 34.41 34.76 34.83 35.21 35.94 36.13 36.38 37.78 39.51 41.33 42.76 44.30 46.50 49.84 59.75 60.25 60.14 59.60 59.42 59.11 58.65 57.90 57.24 57.32 56.80 57.40 57.12 56.96 57.47 57.83 57.89

GFSSGP_sfc_wetblb_114.txt.gz
Wetbulb
53.18 51.27 50.39 45.90 36.65 33.07 28.60 33.11 35.14 37.17 38.77 42.01 45.58 45.09 45.30 48.20 52.36 47.48 62.09 65.38 67.40 68.53 70.54 71.05 72.10 72.68 72.71 72.64 72.62 72.71 73.07 73.52 73.57 73.31 73.48 73.51 73.67 73.59 73.54 73.58 73.70 73.98 74.04 73.67 73.27 73.77 73.07 72.68 72.62
50.15 51.54 47.68 40.69 31.55 26.18 29.69 34.56 36.50 39.62 42.13 45.41 46.39 45.95 45.96 49.73 58.40 61.18 62.77 66.07 67.64 69.36 70.26 70.66 71.67 72.30 72.60 72.48 72.58 72.87 73.33 73.39 73.38 73.33 73.45 73.77 74.01 73.93 73.77 73.20 72.91 73.42 73.81 73.99 73.12 72.84 72.83 72.41 71.73
50.12 49.95 42.63 38.05 28.52 27.37 30.02 34.90 38.72 41.91 44.23 44.02 43.62 45.04 47.61 53.22 61.07 62.23 63.52 67.45 68.12 68.92 70.27 70.60 71.29 71.47 72.23 72.38 72.42 72.65 72.67 72.59 72.83 73.01 73.60 73.74 73.93 73.91 73.47 72.47 72.37 73.14 73.66 73.80 73.09 72.80 72.61 71.48 70.65
47.74 45.89 41.49 34.01 30.40 32.95 34.96 36.27 38.28 40.91 43.46 44.14 42.70 42.06 47.39 57.61 62.38 63.98 66.01 67.95 67.63 68.60 69.92 69.84 70.22 70.98 71.87 72.09 72.45 72.34 72.19 71.59 72.01 72.55 73.23 73.67 73.87 73.74 73.02 71.82 71.89 72.94 73.46 73.10 73.30 72.87 71.71 70.34 69.81
44.17 41.27 32.61 29.96 32.14 36.44 38.72 39.59 39.85 40.21 41.96 42.42 43.32 42.02 44.79 55.07 64.16 64.62 65.91 67.49 66.80 67.97 68.71 69.71 69.48 70.58 71.58 72.25 72.34 72.01 71.46 71.19 71.66 72.22 72.55 72.85 73.22 73.08 71.98 71.10 71.66 72.28 72.80 72.83 72.57 71.66 70.47 69.83 69.36
38.43 39.04 30.55 29.08 32.06 37.15 40.02 41.96 42.15 42.64 43.00 44.32 43.41 42.56 45.94 58.79 62.91 63.42 65.31 65.53 67.14 67.16 68.44 69.12 70.24 70.40 70.94 71.38 71.52 70.94 70.78 70.79 71.08 71.62 72.07 72.53 72.35 71.31 70.90 70.73 70.98 71.25 71.37 71.54 71.10 70.24 69.77 69.26 69.02
36.62 34.61 29.26 30.19 32.79 35.85 39.97 44.04 42.46 44.19 44.14 43.25 44.66 43.22 46.64 57.74 62.73 63.56 63.35 64.28 65.18 66.64 68.04 68.96 69.50 69.91 69.91 69.64 69.71 69.60 69.95 70.28 70.50 70.61 70.91 71.18 70.53 69.89 70.20 70.12 70.32 70.27 70.33 70.29 69.81 69.30 68.88 68.75 68.26
41.69 36.87 30.17 31.27 33.05 34.78 42.80 44.76 45.21 44.61 44.36 48.66 47.61 43.48 43.70 54.81 62.78 64.25 64.15 62.92 63.95 64.96 66.83 67.49 68.40 68.69 68.44 69.39 68.87 68.94 69.10 69.21 69.54 69.76 69.63 69.30 69.21 69.24 69.26 69.09 69.46 69.55 69.29 69.38 69.09 68.38 67.99 68.19 67.25
41.40 33.47 31.01 33.44 35.56 36.36 43.58 43.31 47.64 48.19 45.89 48.91 47.89 47.85 50.84 59.26 65.18 63.44 61.73 61.66 62.91 64.61 65.64 66.49 66.92 67.95 67.20 67.09 69.05 69.48 69.66 69.30 68.71 69.36 68.78 67.52 68.49 68.31 68.06 67.65 68.21 68.51 68.15 67.82 67.55 67.38 67.12 66.72 66.47
37.05 30.24 33.66 39.72 40.69 40.20 43.79 45.14 46.28 45.30 46.80 44.99 47.72 50.13 59.51 64.14 63.03 61.01 61.04 60.39 61.16 62.37 64.00 65.51 66.45 66.81 66.46 67.50 68.17 68.69 69.79 69.88 68.94 68.60 68.06 67.45 67.61 67.14 66.47 65.85 66.83 67.38 67.16 66.42 66.12 65.68 65.82 64.85 63.85
34.14 33.26 37.50 39.82 41.08 42.97 39.79 42.62 45.60 44.62 43.71 45.73 46.28 47.43 52.89 59.96 62.61 62.16 60.79 60.71 60.63 62.29 63.49 64.96 65.71 66.20 66.56 66.94 67.16 67.50 68.15 67.99 67.95 67.00 67.09 66.09 67.25 67.11 65.44 64.51 65.17 64.72 66.07 64.27 64.69 63.87 62.58 61.89 62.65
33.78 35.54 35.70 36.40 38.90 37.40 35.89 40.90 39.74 41.96 44.30 47.80 48.52 49.33 49.58 55.55 59.62 62.08 62.46 61.78 60.92 61.80 62.65 64.01 64.99 65.28 65.79 66.40 66.29 66.56 66.58 65.55 66.07 66.34 66.25 66.48 66.46 66.44 66.53 65.08 63.90 63.65 63.22 62.60 62.72 61.64 61.03 60.72 61.75
33.94 36.32 39.39 37.63 36.16 36.13 38.38 36.69 38.85 40.54 44.02 45.08 45.44 48.09 48.51 48.15 55.62 61.02 63.81 63.24 63.01 62.13 62.62 63.29 64.05 64.57 65.23 65.24 65.45 65.15 65.75 64.92 64.51 65.14 66.23 66.37 66.24 65.80 66.38 66.02 64.53 64.93 64.73 63.51 61.58 60.76 60.45 60.06 60.68
34.39 34.78 35.04 34.77 35.16 35.29 35.71 35.46 36.58 40.26 43.17 42.82 43.24 44.05 46.67 48.04 48.41 54.93 61.22 62.97 63.47 63.76 62.80 63.27 63.56 64.01 64.98 64.57 64.67 64.64 64.52 63.20 63.59 65.26 66.40 65.36 65.67 65.65 65.62 65.42 65.24 64.97 64.18 61.38 61.28 60.73 59.81 59.51 59.84
35.47 31.15 35.30 35.84 33.78 33.60 35.32 32.74 33.02 38.78 40.11 41.02 42.75 43.64 44.97 47.31 47.19 49.90 58.10 61.84 63.84 64.89 64.61 63.28 63.44 63.77 64.23 63.92 63.91 64.20 64.23 63.36 63.50 64.42 65.45 64.79 64.45 64.89 65.14 64.86 64.49 64.42 63.58 60.89 60.39 59.67 59.29 59.75 59.76
31.11 30.87 26.92 33.31 33.03 35.51 31.47 27.66 35.39 37.36 38.12 38.66 40.51 42.88 44.20 45.73 46.78 49.04 56.63 62.02 63.81 65.03 64.93 65.11 64.69 64.07 64.31 64.69 64.19 64.32 64.23 63.98 63.62 63.93 65.23 64.27 64.14 63.90 64.39 64.17 63.90 64.19 62.92 61.10 60.21 60.29 59.87 59.47 60.37
27.33 24.15 26.60 29.76 34.60 33.02 30.75 28.57 35.06 36.67 37.41 37.56 39.42 41.28 43.26 44.61 46.72 47.48 52.31 60.91 63.60 64.86 65.41 65.71 65.53 64.56 64.56 65.21 65.01 64.42 64.37 64.42 63.68 64.08 64.75 64.37 63.58 63.36 63.49 64.05 63.66 63.18 62.77 62.21 61.50 60.74 59.30 58.82 59.91
23.04 23.20 24.77 25.72 32.45 33.37 31.02 30.35 34.86 37.22 36.53 36.90 38.33 40.61 42.37 43.82 45.84 48.57 47.91 55.69 62.97 64.63 65.65 65.94 66.20 65.60 65.39 66.13 65.93 65.48 65.19 64.83 64.68 64.16 64.11 63.78 63.96 63.09 62.90 62.32 62.03 62.82 62.34 62.14 61.57 61.20 61.23 59.10 60.20
27.99 25.70 23.55 27.88 32.41 30.17 29.49 30.09 32.79 35.70 36.79 35.97 36.83 38.69 41.63 43.48 47.19 49.56 50.19 48.66 46.69 50.73 62.94 65.52 65.37 65.54 65.96 65.75 64.68 63.82 63.63 63.95 64.36 64.57 64.33 63.83 63.47 63.13 62.75 61.99 61.21 62.37 62.03 61.65 61.08 60.64 60.24 60.12 60.65
28.99 26.32 25.75 29.56 32.85 31.81 29.66 28.94 32.77 35.44 36.24 37.40 37.73 38.12 42.03 42.35 46.95 47.51 45.91 45.30 45.77 47.41 50.45 58.34 64.85 64.93 65.80 65.95 65.57 64.98 65.21 65.07 64.82 64.93 64.41 63.97 63.27 62.93 63.05 62.80 61.95 62.11 62.06 61.53 61.17 61.17 60.54 60.29 60.69
27.83 25.98 25.80 25.86 30.84 32.80 29.15 25.70 29.37 34.64 36.41 38.04 39.75 42.04 43.75 43.29 42.71 43.58 43.76 42.34 42.61 43.06 45.10 51.06 61.89 64.53 65.39 65.76 65.58 62.42 63.38 62.86 63.33 63.66 63.55 63.65 63.39 62.98 62.88 63.01 62.59 61.84 62.25 61.36 61.70 61.53 60.77 58.86 59.65
23.34 30.97 29.82 28.75 27.76 21.60 30.02 18.70 27.86 31.63 33.41 36.76 38.53 37.67 37.53 38.16 39.52 40.34 40.50 40.35 40.34 41.19 44.25 45.94 53.16 61.74 64.97 65.98 65.07 63.82 63.05 62.41 63.63 64.27 64.60 63.99 63.10 64.04 63.58 63.14 62.63 62.29 62.29 61.97 62.02 62.06 61.23 60.40 58.08
27.75 33.64 31.28 30.35 28.05 26.68 25.86 23.29 24.79 33.86 33.46 36.34 36.86 37.10 36.38 36.24 36.55 36.86 37.95 39.69 39.86 40.62 42.00 44.22 48.98 49.73 51.01 54.91 65.22 64.26 63.50 62.99 61.32 62.00 63.51 63.90 63.85 63.81 63.73 63.62 63.08 62.69 62.45 62.63 62.30 61.74 61.18 61.06 60.21
34.88 31.25 30.92 30.49 26.66 20.35 24.89 23.43 22.95 33.35 36.62 36.50 37.52 37.18 37.89 37.18 37.07 37.88 38.51 39.19 39.26 39.96 41.52 43.54 46.12 46.43 48.15 50.61 52.36 60.98 63.69 62.84 60.87 61.30 62.15 62.74 62.91 62.75 63.43 63.49 63.36 63.12 62.84 62.50 62.27 62.20 61.59 61.13 60.97
31.21 27.26 19.58 18.16 20.38 19.26 27.27 22.42 26.91 34.40 36.36 35.98 35.83 36.78 37.07 37.93 37.34 37.11 37.19 37.83 39.20 39.47 40.46 41.75 42.86 43.92 45.85 47.51 49.50 51.04 53.72 63.02 61.76 61.20 61.73 61.84 62.09 61.86 62.30 62.80 62.49 62.83 62.87 62.76 62.29 61.83 61.56 61.38 60.68
28.25 28.23 23.59 17.10 18.71 23.75 30.36 24.25 27.85 34.67 35.91 36.35 36.67 36.86 36.94 36.72 37.15 36.95 36.89 36.82 37.39 38.24 39.00 39.95 40.91 42.55 44.14 45.51 47.62 49.72 51.66 52.90 62.24 61.27 61.34 61.08 61.45 61.79 62.90 62.70 62.54 61.92 62.32 62.31 62.11 61.83 61.72 61.07 60.76
28.98 25.90 33.86 27.44 28.25 24.45 29.69 30.00 33.29 34.48 33.22 33.58 33.14 34.86 34.65 35.33 36.04 35.95 36.60 37.03 36.97 37.38 37.73 38.27 39.47 40.87 42.24 43.41 46.35 48.10 50.06 52.35 53.75 61.78 61.21 60.51 60.39 60.57 59.56 61.60 61.23 61.42 61.48 61.71 61.58 61.03 59.96 59.86 59.92
32.98 36.00 28.39 28.73 21.38 18.68 25.55 24.76 24.60 27.74 29.89 30.82 30.75 31.17 33.23 34.74 34.78 35.07 35.52 35.99 36.95 37.20 37.86 38.41 38.23 39.23 40.43 41.99 44.13 46.35 48.68 53.08 53.13 57.34 60.68 60.59 60.13 58.88 59.06 60.12 60.79 61.21 60.95 61.09 60.54 60.22 59.92 59.44 59.52
32.28 30.00 32.62 32.35 28.81 22.67 19.82 22.25 32.49 29.71 30.23 29.99 30.50 31.76 32.31 33.62 33.57 33.81 34.27 34.95 35.37 36.68 36.43 36.82 36.73 37.08 38.68 40.39 42.41 43.91 45.11 47.36 52.95 56.19 61.91 61.06 60.44 59.65 58.84 59.87 60.15 60.05 59.46 59.46 59.12 58.74 58.18 57.94 58.00
36.41 33.70 33.85 28.25 25.17 29.23 26.78 21.98 33.05 33.55 33.23 33.05 30.67 30.91 31.96 32.94 33.05 32.34 33.05 33.75 33.63 34.04 34.68 34.90 35.56 35.82 37.02 39.40 40.57 41.84 42.89 44.07 45.07 47.65 49.33 60.98 60.26 60.16 59.65 59.63 59.30 58.80 58.38 58.18 57.76 57.14 56.98 56.78 56.47

GFSSGP_sfc_wetblb_117.txt.gz
Wetbulb
57.03 56.00 56.45 52.70 44.07 43.51 39.05 39.93 42.16 42.93 44.61 47.92 48.69 48.34 47.95 51.00 55.96 51.82 66.51 68.15 69.51 71.23 72.81 72.98 72.19 72.71 72.79 72.73 72.77 72.87 73.47 74.12 74.35 74.03 73.84 73.70 73.83 73.73 73.75 73.87 74.03 74.30 74.62 74.44 73.97 74.07 74.20 74.00 73.01
55.15 54.67 53.94 48.57 40.30 37.03 38.57 41.98 42.04 44.98 46.59 48.14 49.35 49.10 49.59 52.84 58.12 63.41 66.54 68.61 69.96 71.72 72.46 73.01 71.93 72.27 72.45 72.50 72.48 72.82 73.52 73.87 73.93 73.94 73.70 73.67 73.80 73.83 73.70 73.48 73.33 73.82 74.12 74.17 73.49 73.29 73.35 73.16 72.11
54.79 53.13 49.50 46.77 38.75 37.50 38.63 40.48 42.97 45.28 46.92 46.77 47.14 49.29 49.15 53.22 61.99 65.91 68.54 69.05 70.25 71.44 72.30 72.72 71.39 71.76 72.21 72.18 72.44 72.57 73.03 73.05 73.18 73.46 74.02 73.99 73.80 73.95 73.64 73.05 72.87 73.59 73.99 74.07 73.79 73.47 73.02 71.77 71.00
53.06 53.09 47.97 41.56 38.56 40.53 40.36 43.41 43.41 45.30 47.28 47.33 47.51 46.86 50.54 55.98 63.13 67.27 68.08 69.37 70.44 71.23 72.04 71.08 70.54 71.14 71.96 72.21 72.43 72.45 72.17 71.95 72.31 72.80 73.57 73.94 74.05 73.87 73.08 72.33 72.60 73.49 73.74 73.97 73.77 73.52 71.80 70.48 70.20
50.94 48.51 40.99 39.02 38.60 41.76 44.54 44.71 45.87 45.41 46.61 46.83 47.84 46.50 49.05 54.50 65.53 67.74 68.68 69.48 69.84 70.87 71.91 72.04 69.78 70.74 71.72 72.33 72.39 72.13 71.59 71.56 71.83 72.52 73.01 73.33 73.70 73.37 72.22 71.61 72.14 72.87 73.17 73.35 73.09 71.95 70.79 69.97 69.62
46.09 46.90 39.20 37.43 38.29 41.99 44.99 47.61 46.30 45.86 46.91 47.99 47.15 47.33 50.04 58.68 65.41 66.64 68.53 69.44 70.11 70.73 71.47 72.06 70.63 70.59 70.96 71.49 71.56 70.92 70.82 71.02 71.48 71.84 72.48 72.86 72.72 72.22 71.63 71.22 71.56 71.80 72.03 71.94 71.38 70.55 70.19 69.71 69.39
43.24 42.73 38.14 38.00 38.76 41.15 44.81 48.69 46.29 47.22 47.61 48.38 50.10 47.88 52.60 56.69 64.07 66.55 67.59 68.68 69.62 70.58 70.94 71.38 72.11 71.80 69.81 69.65 69.83 69.62 69.77 70.33 70.76 71.06 71.21 71.60 70.92 70.41 70.70 70.77 70.98 71.20 70.88 70.76 70.20 69.74 69.28 69.21 68.81
46.85 45.14 38.71 39.22 39.81 41.09 45.60 47.52 48.58 47.76 48.00 52.10 51.21 48.20 49.82 55.45 64.71 66.34 66.93 67.76 68.52 69.03 69.82 69.83 70.33 71.53 72.15 72.45 68.97 68.90 69.17 69.17 69.84 70.36 70.16 69.74 69.60 69.51 69.66 69.56 70.14 70.19 70.24 69.91 69.42 68.89 68.72 68.47 67.76
47.29 41.04 38.11 39.93 40.51 42.87 46.86 45.95 50.39 51.73 49.78 51.41 52.21 52.13 54.71 64.96 66.06 65.08 65.10 65.56 66.28 66.25 67.95 68.68 68.75 69.52 71.14 70.69 70.96 69.85 69.51 69.28 69.08 70.07 69.26 68.88 72.46 71.83 70.90 69.13 68.57 69.05 68.95 68.86 68.62 68.20 67.82 66.95 66.93
43.52 38.96 38.38 42.90 44.63 43.73 45.14 45.70 46.22 46.97 47.83 48.63 50.46 53.86 56.07 55.68 60.75 62.82 63.69 63.67 64.45 65.25 65.98 66.88 67.63 68.35 68.98 68.93 70.02 70.84 71.02 71.72 71.86 71.94 72.14 72.83 72.38 72.18 70.78 68.82 67.53 67.79 67.50 67.53 67.33 67.08 66.46 67.23 69.90
39.35 36.89 40.06 41.05 42.78 41.14 40.68 40.59 44.29 43.01 42.18 46.29 45.78 46.52 49.23 50.31 52.95 57.20 63.72 64.00 63.93 65.31 66.02 65.48 66.44 67.82 68.05 68.40 68.97 69.19 70.02 70.42 70.60 71.86 71.99 71.73 71.02 70.88 70.32 69.95 69.47 69.68 67.32 68.46 67.65 67.56 69.12 69.34 69.48
37.56 39.89 39.56 40.25 41.39 39.06 38.12 40.26 39.35 40.25 41.76 45.18 46.04 47.23 47.99 48.10 49.01 50.52 57.74 64.64 64.27 64.23 65.37 65.60 66.25 66.53 67.38 68.21 67.89 68.03 68.50 68.96 69.14 70.41 71.52 70.18 68.43 68.76 69.70 69.19 69.37 69.02 68.80 68.12 67.74 66.60 67.03 67.82 68.43
36.64 38.12 39.44 39.76 39.39 39.86 40.32 38.78 38.68 39.41 42.61 44.85 45.26 45.43 45.93 46.91 48.63 50.86 53.24 59.15 66.02 64.58 65.10 65.62 65.48 65.37 66.30 66.83 67.01 67.08 67.43 67.64 68.00 69.22 69.58 70.13 68.19 67.75 69.08 68.80 68.57 68.24 68.15 67.84 67.41 66.64 65.99 66.20 67.18
38.49 38.31 38.12 38.85 38.92 39.75 37.92 38.45 38.40 40.26 42.65 42.52 42.75 43.07 44.09 46.35 48.35 50.47 52.16 54.87 64.20 66.29 65.70 66.15 65.34 65.24 66.02 66.10 66.30 66.54 66.80 67.03 67.43 68.01 68.65 69.48 68.47 67.64 67.53 67.84 67.61 68.09 67.85 66.20 67.25 66.50 66.04 65.91 66.47
37.90 34.44 37.49 38.29 38.85 37.92 39.11 35.30 36.65 41.05 41.88 40.87 41.53 42.54 43.69 44.96 46.86 48.85 51.30 53.15 57.21 66.03 67.14 66.26 66.42 66.87 65.93 65.46 66.01 65.40 65.96 67.41 68.71 67.85 68.23 68.62 68.45 67.09 67.19 67.34 67.11 67.86 67.35 65.68 66.97 66.65 66.30 65.39 65.22
35.27 35.61 30.63 36.44 38.23 38.95 37.60 30.85 38.43 41.91 40.71 40.43 41.67 42.45 42.98 44.35 44.92 47.48 50.53 52.45 54.61 61.63 66.84 66.85 66.20 66.35 66.58 66.11 65.67 65.29 66.41 67.81 68.44 68.08 66.91 66.97 67.91 67.85 66.95 66.18 66.63 68.01 65.63 64.96 65.86 64.53 64.45 65.01 64.49
31.98 28.15 29.88 32.19 38.04 37.05 35.75 32.14 38.13 41.46 40.63 39.56 40.76 41.57 42.51 43.95 45.90 48.03 50.22 51.82 53.72 58.34 66.39 67.18 66.98 66.13 66.77 66.99 66.92 66.88 66.68 67.26 67.80 67.96 66.31 66.12 67.47 68.02 66.93 66.14 65.88 65.99 65.45 64.40 64.48 63.12 64.18 62.92 64.03
27.60 27.54 29.73 28.93 34.36 35.10 33.20 33.05 37.23 39.41 39.50 39.10 40.27 41.34 42.16 42.66 44.51 46.54 49.95 53.07 53.44 55.99 65.94 68.02 67.10 66.87 67.03 67.05 66.53 66.45 65.73 66.28 67.25 67.34 67.30 66.37 66.76 67.23 66.93 66.23 65.83 65.16 64.47 63.33 63.94 63.36 63.95 64.44 64.49
31.46 29.13 27.88 31.43 34.88 33.08 32.16 32.72 35.34 39.12 39.56 38.90 39.52 40.70 41.52 42.24 45.05 46.77 52.18 51.99 52.00 56.43 64.03 67.15 67.19 66.63 66.06 65.85 64.62 63.73 63.16 64.00 64.70 67.03 67.34 66.55 66.19 66.58 66.92 65.32 64.61 64.18 63.41 63.05 63.36 63.14 62.74 62.57 64.41
30.77 28.46 28.43 32.06 34.89 33.43 32.46 32.27 36.41 38.36 38.67 39.59 39.47 39.80 41.12 42.52 44.12 46.58 49.00 48.22 48.85 50.09 54.11 66.35 67.32 67.21 65.98 66.21 65.95 66.40 65.47 65.38 65.30 65.70 65.78 66.50 66.93 66.01 66.18 65.43 63.74 63.40 63.28 63.06 62.73 62.63 61.29 61.76 62.87
30.62 28.53 28.92 28.58 32.77 34.10 32.53 30.92 34.10 38.30 39.64 40.59 40.98 41.67 42.80 43.36 44.02 45.05 45.41 45.43 46.52 47.09 49.52 53.94 64.84 67.75 67.21 66.81 66.60 66.41 66.16 66.23 64.95 64.70 64.68 65.01 66.86 66.39 66.31 65.70 64.79 63.85 63.54 62.82 62.55 62.31 62.35 59.99 60.95
27.17 33.12 31.59 30.28 28.98 24.67 33.65 22.02 32.21 35.90 38.05 38.90 39.08 38.39 37.50 38.79 40.82 41.82 42.50 43.16 43.70 44.92 47.86 51.94 56.34 65.80 66.78 66.47 66.31 64.92 64.35 63.04 64.76 65.22 65.34 64.57 65.66 65.77 66.20 65.56 65.21 64.39 63.92 63.39 62.76 62.57 62.86 62.71 60.34
31.05 34.06 32.90 32.31 29.98 28.92 29.93 25.30 29.58 36.08 32.83 34.81 35.59 37.28 38.03 38.47 39.46 39.52 40.08 41.80 42.64 43.76 44.95 47.80 51.39 51.72 54.08 62.80 66.03 64.81 64.99 65.74 65.66 65.47 64.57 64.97 64.96 65.30 65.84 65.49 64.72 64.70 64.15 64.22 63.92 63.39 62.70 63.54 62.99
36.70 33.93 33.81 33.25 29.91 22.49 28.19 26.64 28.30 28.52 30.32 32.71 34.10 36.58 37.49 37.98 38.79 39.30 39.70 40.56 40.90 42.02 43.41 45.49 48.39 48.93 50.18 52.69 54.88 62.59 65.21 64.90 63.53 64.48 63.89 64.41 64.90 64.39 65.41 65.34 65.28 65.37 64.97 64.99 64.97 64.21 63.49 63.67 62.99
34.18 31.42 25.13 23.40 23.78 21.91 30.81 25.91 27.44 32.71 33.37 33.15 31.83 33.10 36.37 37.39 37.96 38.18 37.90 37.81 38.83 38.96 40.18 43.27 45.64 45.40 47.00 48.96 50.73 51.98 53.74 58.51 63.73 64.02 64.45 63.62 63.46 63.84 64.36 64.40 64.23 64.44 64.66 64.35 65.34 64.64 64.01 63.20 62.29
32.60 31.50 25.62 18.99 21.24 24.34 31.46 24.86 26.54 34.50 34.19 34.13 34.39 32.36 34.20 34.99 36.43 37.64 37.72 37.21 36.95 37.95 38.39 39.44 42.33 43.49 45.16 47.70 48.79 51.07 51.99 53.38 54.98 63.25 64.44 64.83 63.75 63.95 64.48 64.06 64.40 63.98 63.81 63.48 63.95 63.94 63.20 63.20 63.23
32.23 29.30 35.03 28.72 29.38 25.47 28.41 29.25 32.71 32.48 31.82 32.30 32.07 31.80 31.35 32.85 34.51 35.07 36.55 37.28 37.34 37.59 37.71 38.00 39.28 40.52 41.84 44.06 45.95 48.03 50.19 51.29 54.11 55.24 61.72 63.72 65.23 64.15 64.08 63.99 63.51 63.14 63.32 63.14 62.91 62.91 62.55 62.30 62.30
35.80 37.14 30.43 30.51 22.50 20.63 26.29 24.48 23.38 27.11 28.81 29.72 29.02 29.44 30.38 32.38 32.49 34.14 34.80 35.25 36.03 36.68 37.56 37.97 38.33 38.36 39.71 41.41 43.63 45.51 47.12 48.50 51.44 55.77 55.83 61.18 62.75 63.55 63.45 63.20 62.91 62.71 62.61 62.24 62.20 62.25 62.73 61.67 61.64
34.00 32.41 33.90 34.41 31.16 25.28 23.14 22.69 31.64 29.42 29.75 28.16 28.58 29.69 30.08 30.67 31.34 32.14 33.82 34.41 34.56 35.40 35.84 36.17 36.43 37.23 37.95 39.81 41.29 42.35 43.63 45.21 46.86 49.36 53.43 53.86 61.69 61.76 61.38 62.01 62.31 62.09 61.31 61.25 60.91 61.64 61.67 61.05 60.38
37.55 34.95 34.83 28.00 26.97 31.15 26.23 22.43 33.10 33.07 31.76 30.09 29.19 29.33 30.26 30.73 31.48 31.69 32.61 32.72 33.08 33.27 33.83 34.05 34.82 35.45 36.89 38.14 39.36 40.03 40.88 42.10 43.02 43.72 45.31 48.67 50.61 61.63 61.20 60.85 60.69 61.09 61.23 61.46 60.33 59.79 60.06 59.94 59.17

GFSSGP_sfc_wetblb_123.txt.gz
Wetbulb
61.92 61.05 60.05 57.81 49.99 49.04 46.97 48.28 50.99 48.91 49.54 53.08 53.34 51.39 51.05 52.35 52.10 51.87 64.55 72.17 72.23 72.31 76.18 74.27 72.30 73.03 73.25 73.60 73.63 74.06 74.59 74.74 74.49 74.05 74.01 74.08 74.19 74.33 74.48 74.68 74.62 74.61 75.29 75.04 74.01 73.93 73.78 74.52 74.09
60.78 58.37 58.37 55.92 47.89 45.91 47.33 51.09 48.43 50.42 51.52 52.32 52.19 52.01 51.65 52.44 58.54 60.16 63.82 69.28 71.97 73.04 75.86 74.81 71.99 72.42 73.01 72.91 73.27 74.13 74.74 74.85 74.38 74.17 74.19 74.21 74.27 74.49 74.50 74.32 73.95 74.03 75.07 74.32 73.80 73.82 74.44 74.05 72.84
58.96 58.55 54.79 52.30 49.46 46.67 47.80 50.81 50.01 50.63 51.04 51.23 50.74 53.29 52.46 53.60 57.79 61.42 66.68 71.26 72.82 73.29 75.40 74.98 71.73 71.77 72.45 72.46 72.93 73.75 74.17 74.21 73.80 73.71 74.29 74.25 74.30 74.52 74.51 73.87 73.25 73.77 74.19 74.00 73.70 73.29 74.23 72.43 71.70
57.64 56.72 54.93 48.88 47.81 51.23 50.84 51.97 51.38 51.51 52.80 52.87 52.82 51.38 55.23 57.08 60.12 63.97 66.94 71.45 72.20 73.27 75.06 71.46 70.72 71.29 72.11 72.32 72.64 73.41 73.51 73.33 73.18 73.47 73.92 74.25 74.36 74.33 74.06 73.36 73.51 73.53 74.12 74.37 73.79 73.19 72.50 71.12 70.71
57.04 55.32 49.66 48.54 49.06 51.53 53.64 53.77 54.28 53.06 53.74 53.84 54.08 52.32 54.61 58.94 63.28 65.65 67.76 69.70 71.78 72.66 75.05 74.91 70.09 70.96 71.90 72.46 72.62 72.79 72.67 72.70 72.87 73.07 73.44 73.74 73.92 73.94 73.38 72.88 73.20 73.50 73.90 73.81 72.99 72.54 71.32 70.64 70.39
51.30 52.69 46.61 45.86 48.23 51.47 53.10 53.60 53.07 52.89 53.84 54.41 53.98 54.24 55.43 60.08 63.51 65.36 68.31 70.08 73.12 72.56 74.56 75.95 71.48 70.96 71.31 71.69 71.78 71.41 71.61 72.04 72.43 72.55 72.97 73.47 73.06 72.20 72.53 72.50 72.76 73.11 72.96 72.59 72.06 71.16 70.80 70.41 70.04
49.80 48.03 45.84 46.29 46.33 48.11 50.30 53.17 51.46 51.33 51.45 52.01 55.07 51.81 56.06 58.76 62.32 61.64 65.29 70.35 72.64 74.56 74.58 75.71 74.51 72.74 70.58 70.23 70.06 69.97 70.55 71.23 71.73 71.91 71.97 72.20 71.42 71.49 71.74 72.07 72.23 72.44 72.18 71.74 71.20 70.42 70.01 70.13 69.61
49.96 48.32 45.05 45.79 45.13 46.48 50.91 50.68 52.40 51.27 50.70 55.75 55.59 51.34 53.93 58.62 60.23 60.16 60.93 64.19 70.88 73.34 75.05 75.24 75.18 74.20 73.66 73.41 69.72 69.48 69.72 70.18 70.68 71.19 71.17 70.46 70.25 70.84 71.01 71.10 71.61 71.69 71.73 71.35 70.65 69.81 69.66 69.39 68.90
50.71 43.50 41.84 43.99 44.84 46.59 50.16 48.78 52.66 53.35 50.28 51.00 52.59 54.42 56.20 57.91 58.61 57.33 58.09 60.40 63.15 70.80 73.52 75.00 74.97 74.65 74.49 74.28 72.89 70.08 70.00 69.91 70.03 70.92 70.37 69.71 73.00 73.08 72.55 70.91 70.10 70.84 70.50 70.03 69.77 69.41 68.81 68.26 68.19
45.30 43.43 43.33 46.85 46.76 46.69 47.93 47.86 47.60 46.74 46.61 47.06 49.20 52.69 53.58 53.51 53.41 52.67 53.93 56.47 58.53 60.92 70.72 73.30 74.16 74.16 74.09 73.15 74.36 73.29 72.75 72.30 72.67 72.67 73.23 73.02 72.79 73.07 71.93 70.38 69.21 69.53 69.23 69.03 68.79 68.48 67.76 67.76 70.75
44.65 41.53 44.81 44.68 46.31 45.90 44.63 44.96 46.92 44.87 43.38 46.27 46.41 48.29 50.04 50.75 50.88 50.97 51.64 54.02 56.48 58.39 60.86 71.55 72.78 72.70 71.92 73.18 72.79 72.82 72.46 72.13 72.56 73.02 73.82 73.35 72.97 73.87 72.22 72.79 71.41 71.60 69.08 70.42 69.40 69.48 70.32 70.04 70.21
42.78 45.59 45.04 45.16 45.77 44.79 43.46 45.18 44.00 44.94 45.48 47.88 48.39 48.94 49.19 49.07 49.68 50.53 50.85 51.71 54.42 56.86 58.65 66.71 71.80 71.02 70.75 72.20 71.68 71.80 71.77 72.33 71.94 72.29 73.10 73.57 72.89 72.66 72.03 71.01 71.23 71.88 70.56 70.39 69.72 69.39 69.90 70.34 70.37
43.18 44.39 44.99 45.44 45.24 45.09 45.63 43.93 44.12 44.88 47.42 48.69 48.43 48.09 48.11 48.60 49.30 50.64 51.21 51.66 52.79 54.12 57.98 63.06 69.53 71.16 70.91 71.25 71.67 71.80 72.05 71.48 72.02 72.27 73.03 73.49 72.38 72.25 71.52 71.81 71.04 70.67 70.62 70.60 69.37 70.09 69.85 68.87 69.52
45.37 44.61 44.45 45.32 45.52 46.04 44.28 44.37 44.77 45.88 48.17 47.63 47.65 47.30 48.44 48.68 49.20 50.11 50.74 51.28 52.51 53.62 55.66 63.02 65.07 71.71 71.01 70.40 72.77 72.28 72.59 71.57 71.51 71.73 72.06 73.75 72.69 72.55 71.84 71.33 70.79 70.61 70.77 70.48 70.27 68.92 68.35 68.89 69.45
44.98 41.74 44.42 45.38 44.64 43.77 45.32 41.28 43.42 47.00 47.57 46.56 47.07 47.96 48.59 49.00 49.98 49.96 51.23 51.73 52.47 52.98 54.27 59.56 64.13 71.21 71.33 70.31 70.76 71.78 71.24 70.91 70.15 70.99 71.84 72.91 72.60 72.94 73.08 70.76 70.72 70.11 70.86 70.24 69.91 69.74 69.07 67.91 68.05
42.80 43.70 40.37 44.35 44.64 44.43 43.79 38.18 44.24 46.84 46.08 45.43 46.19 46.94 47.35 48.20 48.97 50.04 51.34 51.59 52.38 52.45 53.29 57.28 58.27 63.22 71.75 70.60 70.39 70.94 70.58 70.55 70.20 70.46 70.55 71.53 71.96 71.54 72.55 71.03 70.55 70.90 69.57 69.87 69.32 69.30 68.13 67.81 67.43
43.37 38.81 39.98 41.38 45.24 43.66 42.45 40.27 44.93 47.41 46.21 45.50 46.61 47.27 48.05 48.99 50.08 51.41 52.10 52.20 52.40 52.54 53.33 55.94 59.65 61.65 68.37 71.02 70.37 71.41 71.73 70.31 69.87 70.83 70.43 70.38 70.87 70.70 70.81 70.78 70.62 71.95 69.96 69.64 68.97 68.89 68.54 66.93 66.65
37.99 38.27 40.00 39.53 43.23 43.77 41.72 41.55 44.46 46.51 46.51 46.27 47.84 49.03 49.47 49.79 50.84 52.58 52.91 52.87 52.31 52.98 54.12 55.44 57.11 61.00 63.28 70.50 69.95 69.73 69.84 69.59 69.66 70.52 70.96 70.78 70.02 69.92 69.75 69.38 69.28 70.21 69.36 67.34 68.66 68.55 68.40 67.91 66.29
40.55 39.36 38.92 41.76 44.12 41.20 41.23 41.60 43.65 46.56 47.49 46.37 46.20 46.09 46.39 46.94 49.14 50.57 52.79 53.79 53.26 52.58 53.15 53.72 55.82 60.40 61.83 68.66 68.24 68.47 68.03 68.56 69.26 69.63 71.47 70.53 69.42 69.14 69.34 68.71 68.57 68.97 68.54 67.44 67.44 67.76 67.65 66.69 67.91
40.81 39.28 39.75 42.39 42.74 41.87 41.29 41.70 44.69 45.36 46.00 44.97 44.02 43.98 43.65 42.86 44.33 46.06 47.98 51.25 53.74 54.76 55.53 56.38 56.79 57.83 60.48 62.26 69.18 68.92 68.67 68.86 69.28 69.63 71.08 71.76 69.55 68.57 69.14 68.42 67.88 67.85 67.14 66.98 67.16 67.02 66.02 66.81 67.70
41.12 39.76 39.94 38.51 40.95 42.41 42.30 40.45 42.47 45.70 46.01 44.39 43.97 43.45 42.28 39.27 38.87 41.15 42.66 44.35 48.42 49.28 51.30 53.90 55.34 56.78 59.13 62.45 67.80 67.34 69.70 68.77 68.21 68.45 69.45 70.86 70.11 68.10 68.22 68.77 67.65 67.19 67.12 66.34 66.78 66.71 65.90 64.88 66.66
37.71 42.96 40.30 39.05 38.16 34.54 42.15 32.72 41.44 42.14 41.27 40.79 41.20 40.41 38.29 38.75 39.27 37.83 39.18 40.36 42.15 44.22 46.66 48.49 51.80 55.46 58.64 61.25 63.17 65.84 67.09 66.03 66.76 67.94 68.87 70.15 70.89 68.41 68.19 68.35 67.41 66.88 66.44 65.85 65.91 66.98 66.58 65.85 62.56
39.21 43.17 41.07 40.72 39.12 38.95 39.02 36.67 40.50 40.75 35.75 36.22 38.11 37.39 36.34 36.94 37.22 35.82 36.13 37.28 40.38 41.92 41.57 43.49 47.15 53.19 54.60 57.12 61.28 67.13 65.42 68.35 68.35 68.91 68.96 69.74 70.32 69.67 68.00 67.71 67.59 66.29 65.93 65.92 66.45 65.77 66.20 66.75 64.31
44.23 41.76 42.38 42.89 40.66 32.92 38.62 37.12 36.50 31.77 31.73 34.15 35.50 35.33 35.03 35.31 35.82 37.25 36.61 36.68 38.29 40.74 41.13 41.70 45.04 48.55 49.88 54.69 63.33 68.44 65.36 67.62 65.42 67.71 68.43 68.30 68.20 68.58 69.69 68.02 67.87 67.27 66.26 65.40 66.07 66.08 66.14 65.86 65.59
42.80 39.76 32.92 31.70 31.66 30.93 39.01 36.67 31.80 35.91 35.46 34.05 33.33 33.43 34.33 35.09 34.47 34.61 33.09 33.69 35.22 37.59 39.49 41.49 43.37 45.47 47.50 51.87 54.61 56.04 65.26 65.58 67.86 63.91 66.17 65.98 65.14 65.89 68.14 69.14 68.85 66.79 66.25 66.07 66.26 65.62 65.23 66.03 64.29
39.79 39.43 32.84 24.25 27.79 30.98 38.35 32.41 30.84 37.93 38.37 36.51 35.63 34.68 34.34 34.00 33.87 32.30 31.99 33.41 33.38 35.97 37.54 40.47 41.87 43.10 45.51 49.02 50.95 52.98 54.29 58.85 59.82 58.00 59.17 64.11 65.26 65.69 67.08 67.48 67.87 67.85 67.10 66.36 65.97 65.36 65.01 65.88 64.71
39.66 36.45 41.72 34.58 35.83 31.94 35.05 34.29 36.28 37.49 35.64 34.09 32.13 32.96 31.85 32.61 32.72 31.24 31.41 32.42 32.55 33.32 33.61 38.63 40.34 41.44 43.05 44.78 47.92 49.74 51.04 54.57 55.84 56.68 58.00 58.74 59.67 62.09 66.71 67.29 66.45 66.32 65.95 65.90 66.01 64.97 66.54 66.77 66.36
41.55 43.05 33.98 35.17 26.78 26.07 32.50 29.50 29.46 29.49 29.63 31.76 30.82 30.26 31.59 31.65 31.61 31.07 30.79 31.56 32.21 32.43 34.66 38.71 40.16 39.66 41.30 43.33 45.28 46.95 47.49 49.06 49.82 50.19 51.24 52.65 54.89 56.70 57.39 66.15 66.60 65.46 64.82 65.35 65.35 64.99 65.44 65.55 65.26
39.67 37.97 37.45 37.36 34.75 28.37 27.42 27.76 32.27 30.48 30.57 29.70 30.51 30.80 30.98 31.34 30.98 30.39 30.32 31.41 31.84 32.84 33.31 35.96 39.49 39.36 39.03 40.13 41.12 42.47 44.46 45.58 45.13 45.54 46.60 49.05 52.26 51.69 53.56 59.65 64.58 64.61 64.16 63.66 63.63 63.42 63.58 63.58 62.73
40.58 37.96 37.61 30.57 30.62 32.58 34.23 27.59 34.13 32.70 32.10 31.05 30.61 30.80 31.16 31.86 30.98 31.01 30.54 31.10 30.66 30.83 32.67 35.88 35.74 37.95 38.62 39.59 39.65 40.43 40.91 40.83 40.76 41.63 43.17 46.12 46.96 48.12 47.43 49.88 50.23 57.23 62.16 63.42 62.21 61.77 61.95 62.63 62.89

GFSSGP_sfc_wetblb_126.txt.gz
Wetbulb
60.66 60.46 60.58 56.68 48.67 48.41 45.19 46.93 51.38 48.92 49.46 52.31 52.35 50.48 49.08 50.59 49.95 50.83 65.42 68.56 71.05 74.49 73.56 72.95 72.38 73.03 73.47 74.01 74.02 74.25 74.59 74.55 74.42 74.05 74.21 74.12 74.14 74.42 74.55 74.38 74.49 75.06 75.76 74.94 74.59 74.19 73.93 74.49 73.89
58.68 59.18 57.37 54.01 47.13 43.86 45.47 50.64 48.48 49.72 50.96 52.21 52.19 51.74 50.75 51.32 57.36 59.90 63.09 68.55 72.06 72.71 74.14 73.56 72.08 72.62 73.05 73.32 73.68 74.21 74.82 74.65 74.27 74.01 74.12 74.02 74.17 74.44 74.49 74.32 73.97 74.34 75.28 74.61 73.83 73.68 74.29 74.01 72.75
58.71 59.01 53.21 50.95 48.02 44.54 46.05 50.73 50.27 50.94 51.38 51.33 50.71 53.26 52.49 52.31 57.25 61.53 65.97 68.91 72.22 72.92 75.22 73.87 71.58 71.83 72.59 72.94 73.37 73.84 74.26 74.14 73.79 73.77 74.15 74.08 74.28 74.50 74.49 73.89 73.54 73.79 74.85 74.64 73.36 73.62 73.48 72.48 71.73
57.26 55.76 53.45 47.41 46.01 49.56 50.19 52.54 51.82 51.74 53.07 52.62 52.88 50.86 55.38 57.83 59.02 64.01 67.10 68.95 71.96 73.43 75.03 70.60 70.65 71.30 72.17 72.70 73.31 73.78 73.75 73.25 73.24 73.41 74.02 74.18 74.39 74.43 74.13 73.26 73.19 73.65 74.26 74.44 73.84 73.64 72.73 71.17 70.83
55.89 53.16 47.36 46.36 47.31 50.35 52.69 53.76 54.06 52.14 52.96 53.82 54.43 51.73 53.83 59.98 63.64 63.93 67.10 69.96 71.35 73.51 73.74 72.45 70.02 70.99 71.86 72.52 72.90 73.22 72.95 72.67 72.89 73.18 73.41 73.84 73.92 74.16 73.44 72.90 72.87 73.06 73.25 73.86 72.99 72.45 71.28 70.65 70.33
50.11 50.99 43.76 42.41 46.03 49.45 51.32 53.75 53.05 51.79 52.25 52.88 52.58 53.03 55.19 61.61 60.16 60.40 62.11 68.07 72.01 73.16 75.39 72.54 71.22 70.99 71.30 71.54 71.74 71.87 72.07 72.20 72.49 72.73 73.02 73.34 73.41 73.09 72.76 72.47 72.34 72.54 72.82 72.66 71.86 71.29 70.67 70.28 70.20
47.95 46.35 42.87 43.94 44.43 46.35 49.02 52.64 50.34 50.56 50.56 50.79 53.65 50.62 55.36 57.89 59.75 60.35 60.71 63.85 71.89 74.23 75.36 74.36 72.97 71.54 70.64 70.23 70.15 70.22 71.13 71.58 71.66 71.91 72.06 72.24 71.86 71.63 71.97 72.17 72.08 72.41 72.25 71.76 71.16 70.44 70.04 70.03 69.78
48.71 45.92 41.68 42.95 42.98 43.85 48.67 49.94 51.28 50.77 50.00 53.28 53.01 48.98 50.79 56.75 57.87 58.12 58.29 60.35 64.52 73.10 75.03 75.27 74.08 72.54 72.06 71.91 69.85 69.62 70.09 70.62 70.98 71.31 71.31 70.59 70.58 70.91 71.33 71.11 71.45 71.96 71.65 71.36 70.53 69.73 69.63 69.54 69.05
48.46 41.83 39.76 41.51 42.82 44.21 48.40 46.59 50.55 51.37 48.13 48.93 50.05 49.90 52.46 55.88 54.56 54.32 54.81 57.08 60.51 64.30 71.28 74.74 73.07 73.38 72.88 72.55 71.40 69.88 70.14 70.32 70.35 71.10 70.44 68.95 71.78 71.49 71.11 70.60 70.19 71.00 70.32 70.19 69.89 69.30 68.83 68.59 68.30
44.27 41.22 41.75 45.53 45.11 43.33 45.49 45.31 46.03 45.10 45.07 45.37 46.99 50.23 52.06 52.38 51.85 51.36 51.37 52.11 55.90 59.92 62.96 73.45 73.92 72.35 73.43 72.76 72.40 71.12 70.80 70.76 71.53 72.03 71.96 72.15 71.88 71.51 71.20 70.08 69.34 69.77 69.51 69.21 69.03 68.61 68.07 67.38 68.45
45.23 40.99 44.48 44.86 45.60 45.85 44.35 44.25 45.87 43.53 41.93 44.80 45.13 46.95 49.37 50.37 50.61 50.23 50.25 51.63 53.17 55.03 59.43 61.82 73.17 72.03 71.77 72.56 72.70 71.69 71.18 70.62 70.75 71.29 72.00 71.81 71.44 71.24 69.98 69.84 69.75 69.87 68.88 68.79 68.31 67.78 68.33 68.03 67.94
42.37 45.14 45.74 45.39 45.91 44.73 43.14 44.94 43.61 44.36 45.25 47.98 48.19 48.54 48.71 48.12 48.71 49.22 49.82 50.40 51.30 53.94 56.04 59.32 66.17 72.09 71.43 71.54 71.21 72.05 71.01 70.75 70.48 70.96 71.73 70.60 70.55 70.70 70.17 70.00 69.74 69.60 69.11 68.50 67.66 67.84 67.72 67.66 68.01
43.01 44.07 45.41 46.00 45.33 45.00 45.64 43.87 44.04 45.13 47.19 48.35 48.59 48.75 48.17 48.05 48.64 49.85 50.16 50.62 51.10 51.84 54.48 56.66 61.02 71.14 70.92 70.63 70.00 71.05 70.92 70.35 70.21 70.84 71.44 71.34 70.42 70.19 69.69 69.43 69.40 69.21 69.17 68.60 67.27 67.34 67.24 67.40 67.17
45.27 44.90 44.49 45.00 44.95 45.65 44.31 44.19 44.29 45.47 48.18 47.23 47.23 47.16 47.82 48.33 48.92 49.45 50.14 50.58 52.51 52.93 53.25 55.09 56.49 62.16 70.55 69.51 69.24 69.98 69.70 70.59 71.03 70.59 70.89 71.39 71.07 70.21 69.52 69.16 69.03 68.72 69.11 68.40 67.70 67.12 66.86 66.77 66.97
45.56 41.53 43.49 45.19 45.79 44.29 45.50 41.52 42.27 46.87 47.29 46.34 46.96 47.36 47.56 48.12 48.86 49.03 50.36 50.98 51.41 51.76 53.05 55.03 56.65 58.32 64.77 69.89 69.65 69.39 70.11 70.43 69.24 71.02 70.82 71.05 71.64 70.47 69.65 69.09 69.02 68.77 68.84 68.22 68.17 67.60 67.58 66.57 66.90
42.16 42.98 39.43 44.53 45.37 45.63 43.92 37.52 43.85 47.02 46.45 45.81 46.50 47.25 48.41 50.06 51.88 52.39 52.63 52.92 54.09 53.98 53.04 54.77 55.92 55.76 57.51 67.53 69.51 68.85 68.73 69.81 69.79 69.99 70.83 70.89 71.39 71.01 70.39 69.13 68.89 69.25 68.59 67.92 67.10 66.52 66.12 65.46 65.77
42.61 37.89 40.08 41.04 45.41 44.07 43.18 39.74 44.39 46.83 46.15 46.03 47.62 48.13 48.21 48.57 49.36 49.39 50.31 50.72 51.40 53.28 54.34 54.68 56.02 56.20 57.50 58.93 68.93 68.31 68.33 69.27 69.49 68.87 68.59 70.38 71.01 70.59 70.13 69.37 68.76 69.37 67.98 67.59 66.81 66.45 65.78 64.68 65.20
38.13 37.74 38.81 38.46 42.83 43.59 41.96 40.88 43.84 45.74 46.23 47.22 46.78 46.23 46.06 45.75 45.52 46.58 47.00 48.36 49.06 50.96 52.69 54.16 54.83 56.39 58.11 57.83 65.22 67.96 67.61 67.74 68.80 68.89 69.01 69.45 69.97 69.82 69.28 69.13 68.91 69.15 67.64 66.43 66.97 65.95 66.33 65.15 64.25
40.35 38.32 37.77 41.04 44.28 42.29 40.64 40.68 42.32 45.34 47.10 45.47 44.68 44.03 43.67 43.49 44.56 45.22 45.26 45.55 46.43 47.61 48.81 50.89 51.80 54.43 55.45 53.95 61.88 65.12 65.35 65.82 67.59 68.07 69.12 69.30 69.21 69.57 68.63 68.00 68.29 68.22 67.61 66.71 66.29 66.28 65.14 64.64 65.19
39.80 38.38 38.34 42.12 44.26 42.20 40.44 39.54 43.05 45.62 44.84 43.76 42.78 41.91 41.54 40.86 41.38 42.27 42.31 42.21 42.73 43.72 45.52 46.89 48.15 49.69 51.53 54.61 57.10 62.28 64.47 65.74 66.85 67.67 67.97 69.32 68.73 68.84 68.45 67.58 67.29 67.22 66.80 66.49 66.08 65.81 64.73 64.57 65.10
39.78 38.98 39.14 39.07 41.19 42.11 40.56 39.15 41.37 44.07 43.93 43.41 42.45 41.23 40.25 38.61 38.04 38.95 39.64 39.43 40.55 40.49 42.23 44.02 45.25 46.22 48.63 51.01 54.71 55.94 57.55 64.85 64.74 66.14 66.58 69.06 68.94 68.82 68.15 67.50 66.82 66.82 66.24 65.96 65.38 65.13 64.41 63.11 63.98
36.67 42.94 41.29 39.46 37.90 32.78 41.41 31.30 39.81 42.62 40.95 39.87 38.94 37.90 36.92 36.94 37.62 37.77 37.87 37.31 37.37 38.20 40.48 42.20 43.44 44.12 46.16 49.70 51.08 54.59 54.64 55.54 63.43 65.39 66.33 68.40 68.78 68.34 68.05 67.48 66.72 66.04 66.23 65.29 65.71 65.25 64.98 63.89 62.55
39.74 43.13 41.15 40.23 37.82 37.47 38.44 35.64 34.88 40.52 35.33 35.74 36.25 36.09 35.51 36.24 36.23 35.55 35.46 35.63 36.67 37.00 38.12 39.62 41.62 42.56 45.14 47.21 51.49 51.25 52.56 55.33 60.64 65.31 65.29 66.98 68.05 67.89 67.62 67.04 66.66 65.89 65.44 65.44 64.99 64.74 64.59 64.10 63.25
44.05 41.18 41.10 41.16 39.39 32.13 37.74 35.14 30.58 31.14 32.83 34.24 35.15 34.58 34.23 34.68 34.95 34.35 34.50 34.62 34.96 36.33 36.89 36.97 38.95 41.55 44.33 47.35 48.95 52.09 53.58 55.53 57.35 64.29 64.08 65.83 67.58 66.70 66.28 66.66 66.60 66.17 65.24 65.03 64.76 64.77 65.01 64.01 64.00
41.94 38.54 31.00 29.45 30.98 30.36 38.54 35.22 32.52 35.34 35.53 34.56 33.14 32.62 33.13 34.48 33.33 32.80 31.94 32.64 33.51 34.06 34.39 35.64 36.89 39.57 43.41 44.83 49.16 52.53 54.97 58.23 60.46 63.28 64.28 64.68 66.02 66.27 65.47 65.69 65.75 65.55 65.31 64.99 65.11 64.92 64.46 64.06 63.49
40.06 38.52 31.04 23.55 25.76 30.20 37.69 31.31 29.76 37.17 36.80 35.56 34.06 33.33 32.48 32.66 33.10 32.34 31.79 32.35 32.48 32.87 33.33 33.76 35.34 38.18 41.78 44.18 48.31 49.32 51.66 55.12 56.36 55.32 59.76 63.13 64.50 65.25 66.66 65.32 65.47 65.48 65.52 64.88 64.95 64.48 64.70 64.35 63.62
39.22 35.77 41.28 34.19 34.78 30.31 34.02 34.12 37.43 36.23 33.74 32.76 31.20 31.09 30.94 31.69 31.68 31.56 31.76 32.17 31.61 31.58 31.70 32.37 34.40 38.40 41.23 43.00 45.29 46.38 46.90 48.78 50.97 51.76 52.52 56.40 56.24 57.41 58.87 63.68 65.35 65.84 65.21 64.99 64.45 64.36 64.07 64.02 63.85
40.54 42.74 33.94 35.60 25.29 24.24 31.58 31.63 30.13 28.77 29.09 30.91 29.69 29.43 30.34 31.38 30.89 31.32 31.12 31.17 31.92 31.68 32.00 33.17 35.23 37.49 39.60 41.69 42.27 42.90 43.15 45.36 47.04 48.62 48.54 49.95 50.33 50.99 53.22 54.26 61.26 63.72 64.35 64.04 64.42 64.26 64.17 63.62 63.40
38.74 37.18 38.14 37.00 34.34 27.13 26.01 27.00 32.13 29.98 29.99 28.84 29.10 30.21 30.34 30.55 29.88 30.85 31.21 31.17 32.39 32.17 32.04 32.27 34.45 36.40 37.93 39.41 39.63 39.23 40.44 41.55 42.18 42.87 44.55 45.82 45.70 46.15 47.17 48.51 49.21 49.95 54.11 59.04 62.89 63.71 63.73 63.88 63.62
41.07 38.54 37.07 30.04 28.78 32.54 30.03 27.94 34.20 32.59 31.51 30.48 29.00 30.72 31.45 31.33 30.73 30.83 31.25 30.84 31.46 31.59 32.12 32.03 33.52 36.01 35.46 39.43 37.77 38.66 38.89 39.44 39.23 39.11 40.82 41.56 41.78 42.32 42.11 43.34 43.87 43.96 42.78 43.92 46.62 49.27 57.44 61.08 61.54

GFSSGP_sfc_wetblb_129.txt.gz
Wetbulb
57.69 54.73 53.65 51.79 41.62 38.95 35.15 40.48 42.91 44.30 44.66 45.40 48.39 47.47 45.85 47.79 50.39 49.61 61.92 66.70 72.12 71.20 72.13 72.29 72.00 72.86 73.50 73.77 73.97 74.00 74.12 74.33 74.08 73.87 73.92 73.73 73.88 73.86 73.84 73.79 74.19 74.99 75.06 74.85 74.37 74.40 73.18 73.18 72.86
56.74 55.62 51.72 46.46 38.50 33.51 36.99 43.92 41.26 44.23 47.03 48.67 49.64 48.53 47.26 50.75 58.54 60.45 61.60 66.67 70.05 72.18 71.66 71.78 71.93 72.25 73.02 73.33 73.63 73.78 74.45 74.41 73.98 73.92 73.87 73.88 73.95 74.00 73.88 73.59 73.46 74.29 74.54 74.82 74.20 73.82 73.95 73.17 72.31
56.37 56.00 46.07 42.71 38.55 36.03 37.53 44.76 43.72 46.15 48.98 47.92 46.99 49.37 50.06 51.67 59.69 61.00 64.78 68.12 70.61 72.46 72.48 71.89 71.28 71.53 72.44 72.75 73.21 73.55 73.80 73.60 73.45 73.50 74.05 73.99 74.13 74.23 74.00 73.09 72.96 73.79 74.31 74.49 73.62 73.85 73.39 72.14 71.26
52.85 48.86 46.51 39.34 38.70 43.58 44.94 48.00 48.16 47.47 48.48 50.08 48.80 47.61 55.65 57.37 58.87 60.17 67.00 68.73 70.37 72.30 72.94 70.35 70.45 71.14 72.01 72.56 73.01 73.29 73.18 72.52 72.52 73.01 73.79 74.03 74.15 74.27 73.74 72.81 72.74 73.62 74.18 74.29 73.90 73.56 72.31 70.75 70.38
50.47 45.19 38.78 37.71 40.88 45.45 48.62 48.69 48.59 47.42 48.48 49.72 50.67 47.92 53.04 56.38 57.41 57.93 59.45 67.65 68.02 71.69 71.36 70.71 69.70 70.59 71.45 72.41 72.80 72.91 72.58 72.31 72.21 72.70 73.06 73.43 73.79 73.73 73.02 72.24 72.48 72.78 73.20 73.45 72.96 72.32 71.06 70.18 69.99
42.89 42.97 35.48 33.97 39.86 44.48 45.84 47.35 48.52 48.44 49.05 49.64 49.15 49.72 52.58 56.76 55.97 55.79 56.29 57.68 68.65 71.09 71.61 71.15 71.03 70.71 70.77 71.27 71.72 71.71 71.74 71.85 71.96 72.16 72.35 73.11 73.05 72.71 72.20 72.06 71.84 71.99 72.20 72.18 71.61 70.84 70.31 69.97 69.84
40.17 37.71 34.01 36.74 39.75 42.34 44.87 47.57 47.24 48.21 48.06 46.43 47.41 46.23 51.35 52.82 52.83 52.87 52.63 53.13 56.49 69.11 71.62 70.58 70.60 70.96 70.35 69.64 69.84 70.16 70.95 71.31 71.42 71.60 71.56 71.85 71.74 71.44 71.60 71.52 71.53 71.54 71.66 71.19 70.76 70.17 69.50 69.62 69.42
40.61 37.99 34.68 36.59 38.18 39.97 44.98 47.37 47.89 45.52 47.33 49.34 48.02 45.23 43.97 49.62 50.76 50.88 50.53 50.96 51.85 61.80 68.76 70.99 70.32 70.16 69.47 69.07 69.13 69.40 69.87 70.21 70.51 70.98 70.80 70.48 70.59 70.90 70.98 70.89 71.05 71.30 71.28 70.96 70.04 69.46 69.09 69.14 68.82
40.91 33.82 32.34 35.83 36.65 38.58 43.16 42.75 46.98 46.48 44.98 46.99 46.66 46.47 48.43 50.20 50.09 48.41 48.09 48.24 50.07 53.58 54.51 69.15 70.49 70.12 69.89 69.53 69.73 69.48 69.95 69.99 69.97 70.53 70.21 68.75 70.39 70.57 70.78 70.31 69.97 70.55 70.22 69.97 69.47 68.78 68.52 68.16 68.16
38.15 32.89 35.55 40.74 39.59 38.82 42.92 42.78 43.34 41.74 42.04 42.78 44.85 48.37 49.53 49.58 48.58 46.14 45.78 46.50 46.97 48.81 50.11 60.89 69.18 70.19 69.91 71.07 69.52 68.41 69.00 69.00 69.54 70.29 69.99 69.92 69.56 69.92 70.62 69.71 68.99 69.42 69.26 69.15 68.56 68.23 67.62 67.12 66.87
37.52 34.80 39.21 41.25 42.82 42.13 39.32 40.31 42.40 40.11 38.96 42.23 42.88 44.97 46.91 47.25 46.28 45.99 46.68 46.82 46.29 47.94 50.00 50.56 62.51 68.75 70.01 70.68 69.74 68.93 68.87 68.55 69.20 69.67 69.90 69.92 70.01 69.81 69.49 68.30 69.21 68.68 68.55 68.28 67.78 67.83 67.37 67.08 66.61
36.23 40.42 41.05 41.30 42.29 40.14 38.52 40.84 40.48 40.55 42.28 45.26 45.63 45.93 45.87 45.20 44.71 45.33 45.39 46.02 47.04 48.05 49.36 51.29 52.02 64.53 68.28 68.76 69.15 69.78 69.23 68.56 68.51 68.98 69.47 69.70 68.93 68.50 67.82 68.00 68.39 68.25 68.12 66.61 66.69 66.51 66.76 66.23 66.82
38.07 39.92 41.91 42.10 41.94 40.80 42.57 40.16 40.16 42.19 44.37 45.06 45.44 45.10 43.56 43.93 43.42 45.83 47.91 48.50 48.94 49.01 50.35 50.76 51.54 54.93 65.76 68.69 68.41 68.05 69.86 69.22 68.50 68.79 69.27 69.52 68.73 67.89 67.73 67.89 68.27 68.25 67.78 66.88 66.00 66.11 66.42 65.79 65.88
41.70 41.58 41.01 41.30 41.42 41.55 40.93 40.25 39.13 42.81 44.81 43.74 44.27 41.68 42.01 44.67 45.82 46.31 46.72 46.85 47.95 49.12 50.09 52.10 53.32 51.61 58.72 67.57 67.68 66.91 67.95 69.18 68.75 68.89 69.27 69.47 68.58 67.83 67.76 67.97 67.86 67.77 67.52 66.93 66.32 65.94 65.41 65.06 65.12
42.12 37.76 39.16 41.03 41.14 40.24 42.01 36.31 38.00 43.35 43.89 43.29 42.35 43.91 45.75 46.56 45.41 44.25 44.65 44.38 45.40 46.69 47.98 50.22 51.73 53.14 52.57 64.57 67.76 67.68 67.65 68.29 67.44 68.77 69.17 69.85 68.72 67.74 67.46 67.29 67.24 67.36 67.63 66.37 66.21 64.97 65.13 64.61 65.49
37.28 37.11 32.34 40.57 41.41 41.74 39.70 32.99 40.32 42.39 41.89 40.78 43.23 44.21 44.67 44.68 44.04 43.96 44.39 43.67 43.77 44.33 44.95 47.34 50.11 50.61 51.87 52.79 63.27 67.58 67.26 67.47 67.95 67.30 68.79 69.44 69.40 68.57 67.53 67.30 67.03 67.21 66.88 66.27 65.70 64.54 63.94 64.75 65.40
35.23 30.01 33.63 36.82 40.90 39.62 37.88 33.74 38.84 41.96 42.44 42.82 41.16 41.91 42.57 42.09 42.12 43.14 43.59 42.60 42.37 42.16 42.87 43.65 45.86 47.17 48.77 49.77 53.51 62.18 65.99 66.44 67.46 67.26 68.65 68.37 69.10 68.84 68.06 67.54 66.88 67.14 66.69 65.14 65.56 64.20 63.64 63.44 64.39
31.55 31.83 30.40 30.79 36.65 39.31 36.88 34.88 39.19 41.55 42.43 40.75 39.50 39.80 39.73 39.30 39.73 42.05 42.11 41.93 41.90 40.94 41.68 42.18 43.66 44.68 46.47 47.51 49.91 54.69 63.36 66.30 66.48 66.94 67.86 68.87 69.26 69.10 68.23 67.24 66.75 67.38 66.48 65.46 65.04 63.91 63.32 63.17 62.46
37.32 34.31 31.82 33.60 39.45 39.05 36.64 34.52 37.08 38.25 39.58 38.04 37.23 37.09 36.90 37.04 39.38 40.57 40.59 40.04 40.43 40.10 39.86 40.22 40.71 42.65 43.72 44.44 45.54 48.20 51.64 58.44 64.28 65.70 67.36 67.12 68.85 69.25 68.72 67.06 66.66 67.08 66.03 65.47 65.14 63.81 63.19 62.57 62.97
36.83 34.48 33.31 37.13 41.10 38.64 35.17 34.10 37.36 39.82 38.71 37.20 36.13 35.32 34.98 35.54 36.54 37.90 37.96 37.82 37.41 37.44 37.65 38.39 39.43 40.37 41.99 42.92 44.29 46.23 49.33 54.22 56.83 63.56 65.82 67.44 67.24 68.77 68.55 67.41 66.79 67.07 65.94 64.75 64.39 63.84 62.16 62.67 62.88
35.91 34.48 34.67 35.73 38.05 37.87 36.67 33.41 35.20 38.81 39.14 38.69 37.40 36.17 35.02 34.27 33.82 34.64 35.03 34.50 34.80 34.41 35.70 36.96 38.12 38.35 40.31 41.98 43.37 45.28 47.69 52.45 55.20 57.75 63.03 65.78 67.29 67.87 68.22 67.13 66.91 65.99 66.06 65.04 64.88 64.26 63.60 62.00 62.08
32.41 39.49 39.48 37.55 34.33 26.87 36.53 24.34 34.64 36.31 35.38 35.79 34.91 33.08 32.53 33.06 33.69 33.54 32.97 32.39 32.53 33.33 35.09 35.54 36.05 36.63 38.71 40.95 41.81 43.17 44.85 47.76 51.07 54.24 56.78 61.90 66.39 67.25 67.66 66.98 66.35 66.16 65.54 65.57 64.84 64.32 63.81 63.41 61.09
36.16 41.52 38.49 37.80 33.34 31.18 33.17 29.05 31.05 37.37 32.63 32.60 33.05 32.84 31.87 32.48 32.77 32.41 32.01 31.70 32.52 33.21 34.04 35.05 35.14 35.59 37.92 40.50 42.09 44.19 45.50 48.08 49.93 51.85 54.78 56.21 63.34 66.96 67.10 66.94 66.13 65.74 65.52 64.60 64.83 64.00 63.67 64.26 63.01
42.66 38.65 37.56 37.33 34.02 23.45 33.17 32.90 28.48 28.01 29.97 30.98 32.19 31.37 31.51 31.67 33.13 33.11 32.52 32.24 31.86 32.61 33.18 33.92 33.79 35.57 37.29 40.34 42.77 44.12 44.74 46.37 48.39 50.65 53.11 54.65 58.96 64.90 67.21 66.88 65.83 65.80 65.41 64.80 64.54 64.50 63.94 63.73 63.60
38.80 32.86 24.40 22.47 22.44 23.92 35.25 29.48 25.54 30.86 31.64 31.14 29.97 30.28 31.40 32.18 31.95 30.53 30.09 29.95 31.31 31.92 33.07 34.04 34.53 34.83 37.22 39.93 42.61 44.38 46.39 49.89 50.50 50.79 53.34 55.66 55.07 56.45 66.50 66.61 65.19 65.15 65.23 65.15 64.62 63.93 64.22 63.85 63.03
35.98 34.80 26.86 19.03 19.35 23.41 34.59 25.56 25.27 32.68 33.72 33.05 32.25 31.92 31.64 31.17 30.34 29.97 29.49 30.08 30.83 32.57 32.62 33.19 33.68 34.52 36.88 39.54 41.56 44.35 47.19 49.56 53.34 53.68 55.92 56.41 53.69 53.52 65.97 65.86 64.86 65.23 64.77 64.51 64.40 63.95 64.02 63.89 63.50
36.60 31.98 37.95 31.06 31.26 21.73 26.87 30.35 34.13 33.22 31.43 31.69 30.53 30.37 29.83 30.21 29.17 28.43 29.41 29.84 31.19 31.94 32.04 32.47 33.50 34.16 34.92 37.99 40.64 42.42 43.26 46.35 50.55 51.82 51.16 54.13 51.70 52.77 55.50 64.84 64.61 65.01 64.42 64.10 64.00 63.62 63.60 63.50 63.42
38.09 39.76 29.53 29.98 19.07 19.92 25.58 25.62 22.05 24.34 28.15 30.06 28.77 28.74 29.82 29.72 28.25 28.21 28.97 29.70 31.51 32.01 32.24 32.55 33.22 33.41 33.85 36.48 38.97 40.69 41.23 42.52 44.34 44.81 45.16 48.47 52.05 51.60 48.49 50.22 55.79 60.71 62.33 63.96 63.59 63.22 63.29 63.30 62.97
35.70 33.51 36.70 35.64 30.24 18.88 13.24 22.33 31.60 27.22 25.27 27.06 28.41 28.99 29.91 27.66 26.80 28.08 28.92 29.96 31.59 32.14 31.84 31.93 32.14 32.16 32.62 34.63 36.53 37.99 39.04 39.48 40.04 40.27 40.86 42.48 44.84 44.98 44.21 45.74 45.48 46.52 47.66 50.11 53.33 57.28 60.74 62.80 62.73
39.85 37.80 37.20 26.17 25.21 25.52 26.01 20.49 33.06 31.11 30.44 30.18 29.34 30.04 26.13 27.47 25.90 28.26 29.64 30.14 30.38 31.31 31.60 31.82 31.61 31.65 32.40 32.95 32.95 36.77 37.49 37.80 36.83 36.78 38.08 39.38 39.80 41.33 40.49 40.50 40.89 41.35 43.79 45.21 47.27 48.53 51.08 53.15 53.23

GFSSGP_sfc_wetblb_132.txt.gz
Wetbulb
57.33 53.99 50.93 49.57 41.29 37.09 33.68 38.77 40.22 41.96 42.79 44.02 46.90 47.63 47.91 50.47 52.97 48.48 60.93 67.04 71.59 70.46 71.40 72.20 72.07 72.98 73.43 73.76 73.65 73.34 73.69 73.82 73.75 73.52 73.25 73.31 73.39 73.56 73.73 74.09 74.49 74.93 74.88 74.14 73.72 73.64 73.24 72.83 72.50
56.75 55.15 49.61 44.10 37.01 32.34 35.70 41.37 40.76 43.35 45.67 47.15 48.47 47.08 51.03 52.28 59.19 61.03 62.18 67.34 71.64 71.29 71.23 71.43 71.77 72.40 73.05 73.06 73.50 73.59 74.04 73.92 73.69 73.59 73.60 73.63 73.51 73.32 73.56 73.62 73.74 74.25 74.70 74.67 73.99 73.47 73.20 72.68 71.75
53.63 54.45 44.98 40.23 34.96 33.59 36.59 42.83 44.92 45.81 48.32 47.26 45.64 52.23 51.84 51.48 57.26 62.11 64.37 70.13 71.96 71.07 71.59 71.51 71.10 71.61 72.49 72.84 73.05 73.22 73.60 73.25 73.20 73.20 73.65 73.70 73.74 73.59 73.25 72.74 73.18 73.72 74.54 74.69 73.77 73.87 73.49 71.71 70.72
51.04 47.12 44.37 38.10 35.60 39.92 42.27 43.99 44.74 44.96 48.50 50.01 49.77 49.70 53.99 55.83 55.60 57.11 60.48 70.19 71.33 71.42 72.01 69.89 69.70 70.84 71.77 72.61 72.78 72.97 72.93 72.32 72.40 72.60 73.33 73.78 73.88 73.79 73.10 72.16 72.74 73.57 74.02 74.38 74.14 74.09 72.20 70.61 70.10
48.20 42.25 36.73 34.44 35.50 41.40 42.80 45.54 45.19 45.44 46.59 48.20 51.22 49.06 50.91 55.48 55.85 54.25 54.39 60.56 70.18 70.21 70.45 70.47 68.83 70.08 71.40 72.39 72.77 72.79 72.41 71.83 72.00 72.42 72.80 73.24 73.64 73.43 72.65 71.91 72.26 72.85 73.07 73.46 73.11 72.40 70.86 70.14 69.72
41.44 40.12 33.14 31.58 34.91 41.26 42.65 44.10 44.54 46.19 45.48 46.58 47.50 50.45 49.90 52.90 50.21 50.83 51.91 51.81 59.85 70.42 70.17 70.43 70.81 70.34 70.40 70.82 71.65 71.37 71.59 71.56 71.42 71.69 72.18 72.82 72.82 72.42 72.10 71.67 71.61 71.98 72.04 71.99 71.59 70.82 70.31 69.76 69.57
38.73 35.94 32.07 33.33 35.44 38.24 41.06 45.30 44.38 45.26 44.08 44.35 46.43 46.98 48.60 47.41 48.90 49.90 49.49 49.90 51.75 68.52 69.75 69.53 69.58 70.34 69.81 69.26 69.42 69.59 70.36 70.79 70.87 71.19 71.20 71.41 71.07 70.82 71.37 71.41 71.35 71.40 71.30 70.94 70.67 69.92 69.48 69.50 69.23
38.90 36.19 30.81 32.33 34.71 35.02 41.25 44.30 44.06 43.15 43.74 47.51 46.47 42.79 43.47 45.96 48.17 48.47 49.16 48.81 49.29 51.97 58.14 68.93 68.53 68.91 69.05 68.76 68.75 68.96 69.32 69.64 70.02 70.38 70.23 69.75 70.00 70.26 70.48 70.25 70.49 70.90 70.79 70.57 70.07 69.28 68.79 68.84 68.35
38.43 32.64 29.92 32.35 34.66 36.20 40.48 40.45 44.21 44.60 43.21 46.08 44.94 46.16 47.37 49.36 48.36 46.05 45.68 47.41 48.67 50.03 49.38 61.25 69.27 68.80 68.42 68.44 69.08 69.22 69.61 69.59 69.37 69.98 69.69 69.10 70.27 70.20 70.40 69.79 69.45 70.07 69.98 69.71 69.13 68.57 68.10 67.61 67.52
36.25 30.64 32.91 37.89 36.82 37.59 40.72 40.97 41.78 39.99 40.58 41.08 43.30 46.61 47.94 48.00 45.82 43.95 44.22 44.93 46.42 47.97 49.45 49.79 56.07 66.19 68.67 69.99 68.80 67.97 68.48 69.10 70.15 70.27 70.34 70.38 68.92 69.51 70.61 69.38 68.46 69.05 68.89 68.64 68.33 67.90 67.41 67.18 66.36
33.67 33.49 36.71 38.63 39.01 39.66 36.36 37.51 40.49 38.52 37.47 40.77 41.56 43.71 45.52 45.79 45.06 45.85 46.30 46.40 46.55 48.65 49.69 51.11 52.64 53.44 60.86 68.20 68.69 67.54 67.72 67.63 68.56 68.92 69.77 69.25 69.44 69.05 69.35 68.56 69.05 68.83 68.35 68.44 67.52 67.04 67.57 66.48 65.66
34.35 38.24 38.22 39.16 39.89 38.05 36.65 38.43 39.34 38.17 41.39 43.62 44.02 44.02 44.69 44.04 44.35 45.01 45.03 45.01 45.50 46.38 47.15 48.35 50.62 51.84 52.36 53.68 66.58 68.15 67.49 67.63 67.70 68.69 69.17 69.42 68.78 68.04 68.17 67.99 67.95 68.29 68.51 67.15 67.09 66.87 66.40 65.87 65.72
35.98 37.98 40.74 40.79 40.22 38.72 40.95 38.23 38.59 40.73 43.05 43.67 43.54 44.07 43.88 43.58 42.99 43.68 43.83 43.99 43.91 43.99 45.58 45.94 47.87 49.35 50.60 52.01 54.03 63.46 67.65 67.81 67.90 67.81 69.25 69.73 69.10 68.04 67.63 67.47 67.90 68.33 67.86 66.82 66.18 65.46 65.75 65.31 65.25
39.31 39.40 39.00 39.59 39.93 39.20 38.80 38.87 38.58 41.83 43.19 41.91 43.37 42.30 42.30 41.72 41.80 41.77 41.84 41.37 41.89 43.09 42.86 44.12 45.27 46.93 48.22 49.05 50.42 51.85 62.69 68.13 67.72 67.72 68.36 69.57 69.11 68.35 67.45 67.34 67.61 67.52 67.50 66.66 65.96 65.46 65.08 64.79 64.91
40.66 36.48 37.74 39.12 39.38 38.58 39.76 34.93 37.02 42.28 41.76 42.38 41.60 41.84 41.26 41.15 41.03 40.23 40.80 40.37 40.37 40.96 41.56 42.45 43.52 44.73 45.21 46.60 48.22 49.49 53.06 62.69 66.87 67.81 68.05 68.49 69.02 68.15 67.50 67.21 67.12 67.39 67.19 66.46 65.61 64.65 64.14 63.71 64.44
36.36 35.15 31.19 38.53 39.07 39.77 39.29 32.03 38.93 40.65 41.11 39.29 39.35 39.55 39.51 39.51 39.66 40.41 40.50 39.76 40.01 40.17 40.26 41.37 42.86 42.31 42.72 44.06 45.81 48.58 50.31 54.17 63.11 66.67 67.69 68.25 68.88 68.10 67.76 67.07 67.03 67.52 66.89 66.18 65.35 64.70 64.11 63.65 63.92
32.12 27.71 31.22 35.20 38.58 37.80 35.60 32.58 38.33 40.71 40.77 37.84 36.35 36.50 37.19 37.38 38.25 39.35 39.61 39.06 39.23 39.12 39.37 39.40 39.87 39.98 41.37 42.26 44.06 45.99 48.28 51.10 60.58 65.40 66.13 67.36 68.49 68.41 67.71 67.35 67.00 66.89 66.65 65.78 65.60 64.45 64.29 63.31 63.53
28.96 29.39 28.75 30.19 35.19 35.88 33.06 33.61 36.90 38.41 37.08 35.24 34.08 34.73 35.04 35.47 36.25 38.55 38.17 38.36 37.72 37.42 37.73 37.57 38.29 39.47 40.04 40.80 42.23 43.66 45.76 48.81 51.09 55.71 64.89 65.72 67.30 68.12 67.74 67.56 66.71 66.58 66.22 65.44 65.20 64.42 63.97 63.47 63.92
35.18 32.93 30.91 32.04 37.29 35.14 34.85 32.25 33.60 34.82 34.71 33.37 33.44 33.21 33.40 34.12 36.48 37.30 37.11 36.49 35.66 35.25 35.36 35.39 36.24 37.05 37.66 37.60 38.02 40.20 41.02 43.99 47.06 53.32 56.30 63.00 65.65 66.79 67.26 67.18 66.29 66.60 65.80 65.65 64.94 64.24 63.14 61.44 61.68
35.69 32.86 31.41 34.25 38.75 36.84 32.85 30.33 33.74 35.37 34.75 33.58 32.84 32.01 32.21 32.85 33.82 35.13 35.24 34.55 33.66 33.19 33.79 34.40 35.06 35.54 36.07 36.59 37.51 39.39 41.01 43.29 46.86 48.42 53.97 59.70 61.15 65.14 66.39 66.98 66.05 66.53 66.15 65.34 64.42 63.59 61.48 62.28 62.58
35.41 32.90 32.11 32.71 35.58 36.19 34.18 30.41 32.60 35.66 35.99 35.52 34.24 33.51 32.75 31.75 31.84 32.71 33.29 32.66 32.24 31.97 32.52 33.43 34.14 34.75 35.82 36.49 37.27 38.94 41.06 43.54 45.40 48.95 52.63 56.30 60.06 62.04 65.51 66.51 66.67 65.94 65.85 64.96 64.29 64.07 63.00 61.32 60.83
32.46 37.85 36.84 35.65 32.40 25.91 34.01 21.65 31.26 33.50 32.69 32.61 32.34 30.84 30.40 30.81 32.01 32.03 31.35 30.95 30.99 31.53 32.92 33.30 34.48 34.88 36.57 37.03 36.92 36.77 37.65 38.96 43.25 47.34 50.26 51.58 55.10 58.50 62.16 65.55 66.39 66.16 66.16 65.25 64.72 64.61 63.50 62.73 61.31
34.59 39.62 36.75 35.38 31.58 29.07 31.17 24.78 27.93 34.97 31.13 30.20 30.60 30.61 30.20 30.71 30.96 30.24 30.33 30.64 31.16 31.76 32.23 33.67 34.32 34.68 35.81 36.42 37.77 37.59 38.89 41.84 43.97 46.19 47.59 49.01 51.98 56.27 58.36 57.96 64.64 65.88 65.87 65.91 64.98 64.27 63.59 63.48 62.74
40.70 37.18 36.12 34.89 31.60 22.61 30.93 28.70 25.89 26.34 28.16 29.63 30.17 30.26 30.25 30.26 30.55 30.31 31.08 31.27 31.40 32.18 33.33 33.24 33.97 34.45 35.92 37.52 38.55 39.14 40.16 40.98 42.20 43.92 45.75 48.32 51.44 54.51 57.03 57.19 56.01 65.51 66.07 65.33 64.98 64.47 64.14 63.59 63.44
37.93 31.34 22.94 22.03 21.62 23.27 33.68 28.24 25.09 29.08 29.81 29.69 28.71 29.43 29.68 29.77 29.59 28.81 28.59 30.05 30.65 31.36 32.25 32.91 33.36 33.25 34.51 36.02 37.19 39.36 41.53 43.50 45.06 46.26 47.69 49.07 50.11 53.32 56.51 57.26 56.69 56.93 64.63 65.38 65.31 64.80 64.32 63.74 62.69
35.32 33.47 25.00 20.00 18.66 23.14 33.74 25.90 24.24 31.09 32.25 32.13 31.12 30.13 31.12 28.82 29.47 28.63 28.25 29.55 30.14 31.62 31.98 32.58 32.91 33.08 34.33 35.58 36.15 39.17 41.84 43.39 45.11 47.81 49.10 50.11 52.91 53.64 53.41 52.93 52.81 59.61 60.64 65.12 64.41 64.23 64.12 63.39 62.54
35.95 31.91 37.14 28.91 29.47 22.53 26.40 28.32 31.43 31.91 30.36 30.37 29.63 30.01 29.66 29.05 29.13 28.12 27.89 28.72 30.38 31.50 31.81 32.46 32.43 32.84 33.54 35.08 35.29 37.21 39.22 41.24 43.65 46.45 50.43 51.92 53.90 54.25 50.55 49.76 50.04 57.71 60.48 64.45 64.24 63.65 62.43 63.36 62.91
37.25 38.95 27.79 26.97 17.72 21.21 25.19 26.83 22.60 26.92 26.78 28.39 28.43 28.49 27.48 28.13 27.35 27.52 27.59 28.37 30.27 31.81 32.34 32.79 32.76 32.43 33.08 33.68 34.77 36.15 36.95 38.83 40.82 42.70 43.75 45.75 49.82 50.49 46.83 46.44 48.82 47.54 61.36 64.17 63.62 63.22 63.17 62.81 62.99
33.79 31.76 34.41 34.13 29.50 23.26 17.98 22.49 31.39 28.03 23.24 24.89 28.78 29.46 23.55 24.57 25.60 27.41 27.76 28.39 30.13 31.13 31.56 31.88 31.79 31.64 32.21 33.41 34.25 34.82 35.24 36.79 38.23 39.12 39.35 40.57 41.72 43.47 42.92 42.55 43.79 44.50 46.88 53.20 60.46 60.40 61.61 62.38 62.12
37.80 35.27 35.69 27.51 27.79 26.73 22.48 21.04 30.67 29.09 28.94 30.20 29.88 27.36 22.86 25.23 25.33 27.06 26.36 28.92 28.99 30.06 30.58 30.55 31.15 31.41 31.74 32.55 33.05 33.36 33.90 34.33 35.40 36.97 37.69 37.59 36.84 37.88 39.43 39.95 39.83 39.62 42.46 44.46 47.21 49.31 49.27 49.85 49.62

GFSSGP_sfc_wetblb_135.txt.gz
Wetbulb
57.62 53.71 49.82 47.69 40.83 36.43 34.00 37.05 39.40 42.42 42.48 43.53 52.00 53.48 52.31 53.06 51.92 48.24 61.26 65.95 70.53 70.29 71.38 71.88 71.91 72.86 73.19 73.37 72.89 72.78 73.27 73.34 73.47 73.22 73.11 73.53 73.83 74.02 74.02 74.12 74.18 74.46 74.47 73.68 73.25 72.95 72.78 72.26 71.90
55.99 54.02 48.25 42.89 36.55 32.04 34.80 39.87 42.22 43.50 44.11 46.98 50.00 49.08 52.08 52.46 57.55 58.77 62.45 67.62 70.88 70.57 70.82 70.98 71.66 72.40 72.98 72.96 73.12 72.86 73.48 73.36 73.27 73.23 73.29 73.36 73.71 73.95 74.04 73.83 73.57 74.07 74.26 73.85 73.09 73.02 72.88 72.34 71.39
51.75 52.10 44.55 39.00 32.93 31.98 34.94 41.20 41.99 45.16 47.59 46.44 47.76 50.36 50.12 50.96 54.29 56.33 59.71 70.66 71.07 70.19 70.65 70.95 70.77 71.52 72.27 72.64 72.84 72.84 73.11 72.89 72.88 72.93 73.41 73.54 73.40 73.77 73.75 73.09 73.14 73.85 74.49 74.25 73.27 73.20 72.75 71.40 70.55
49.98 46.34 43.17 37.39 34.80 37.32 38.70 41.42 42.86 43.94 47.49 49.17 49.47 46.68 51.44 53.88 53.90 53.93 55.53 70.39 70.41 70.50 70.87 69.57 69.90 70.63 71.81 72.37 72.61 72.76 72.74 72.04 71.95 72.33 73.24 73.53 73.45 73.45 73.00 72.44 72.95 73.91 74.31 74.33 73.84 73.81 71.76 70.23 69.79
44.57 41.07 36.04 33.35 35.00 38.97 39.95 41.59 43.15 41.61 44.04 47.22 49.67 46.30 48.25 52.15 53.40 53.12 51.63 59.57 69.43 69.44 69.71 69.67 68.97 69.86 71.22 72.19 72.48 72.44 72.18 71.69 71.70 72.02 72.43 72.93 73.37 73.09 72.05 71.86 72.39 73.05 73.45 73.51 73.47 72.39 70.83 69.95 69.56
40.59 38.50 32.94 30.30 33.38 39.49 40.22 41.79 41.66 41.87 42.43 43.85 48.95 46.38 44.83 49.66 48.13 48.20 50.45 49.92 65.94 69.60 69.64 69.55 70.41 69.99 70.11 70.75 71.27 71.10 71.49 71.33 71.16 71.47 72.01 72.47 72.40 72.25 71.89 71.38 71.73 71.59 72.08 71.97 71.78 70.91 70.21 69.72 69.37
37.90 35.01 31.06 31.07 34.44 36.48 39.06 42.57 41.55 42.96 42.61 41.85 42.99 45.10 44.63 45.76 47.08 48.02 48.25 48.81 50.64 56.53 55.71 65.92 68.52 69.52 69.27 68.40 68.76 69.42 70.12 70.84 70.83 70.72 70.83 71.12 70.97 70.72 71.27 71.19 71.34 71.25 71.30 70.96 70.78 70.13 69.40 69.31 69.04
37.68 35.16 30.63 30.03 32.97 33.21 39.56 41.88 41.37 41.61 41.87 45.76 43.32 40.21 40.18 43.92 46.97 46.35 46.16 46.96 48.52 50.42 51.51 51.91 54.81 63.09 67.93 68.14 68.23 68.23 68.97 69.49 69.92 70.26 70.05 69.56 69.74 70.03 70.18 70.06 70.50 70.65 70.79 70.54 70.06 69.09 68.71 68.67 68.29
36.62 31.91 29.01 31.13 33.85 34.40 38.12 37.99 42.30 42.38 41.04 43.94 43.41 44.30 45.99 48.02 46.04 46.74 46.43 47.41 48.11 49.47 49.53 49.99 52.00 52.87 53.33 63.34 68.73 69.16 69.39 69.33 68.23 69.51 69.58 68.45 69.97 69.63 70.00 69.58 69.24 69.92 69.94 69.56 69.25 68.62 67.98 67.64 67.55
34.39 29.94 31.79 36.26 35.64 34.85 38.59 39.13 40.11 38.13 38.92 38.87 41.47 45.09 46.54 47.12 46.28 44.95 44.43 43.92 44.58 45.40 46.62 46.79 48.42 50.45 51.72 53.94 54.81 65.47 68.18 69.08 68.68 69.91 69.83 70.10 69.70 69.29 69.94 69.26 68.23 68.94 68.83 68.63 68.25 67.78 67.22 66.97 66.03
32.40 31.88 34.62 36.70 37.10 38.75 35.07 35.57 38.12 36.40 35.45 39.71 40.10 41.05 44.67 44.83 43.92 43.17 42.84 42.42 42.35 44.09 44.80 44.79 45.81 47.84 48.60 49.72 52.77 54.88 64.85 67.23 68.50 69.40 69.01 69.38 69.24 69.21 69.74 68.99 68.63 68.63 68.38 68.14 67.30 66.69 66.98 66.70 65.17
33.34 36.72 35.88 37.32 38.36 36.56 35.44 37.01 38.18 36.88 40.26 41.82 41.94 43.53 42.84 41.19 40.72 40.93 40.75 40.68 40.83 41.69 42.13 42.97 43.81 44.69 45.19 47.38 49.20 51.08 53.19 61.45 67.51 68.09 68.77 68.20 68.05 68.25 68.51 68.62 68.94 68.97 68.90 68.20 67.03 66.83 66.72 65.47 64.97
33.86 36.56 39.18 39.38 39.19 38.24 39.62 37.40 36.83 39.61 41.53 43.77 42.90 41.30 40.03 39.62 39.19 40.12 40.27 40.41 40.21 40.00 40.86 41.36 42.49 42.76 43.26 43.95 45.45 47.26 48.63 52.36 57.60 66.88 68.24 68.30 68.22 67.61 68.12 68.07 68.19 68.47 68.70 67.75 67.04 66.34 65.39 64.97 64.52
37.55 37.51 37.29 38.12 38.83 38.38 37.96 36.95 36.61 40.63 42.81 41.24 40.25 37.87 38.01 38.28 38.49 38.38 38.26 37.82 38.39 39.73 39.61 40.65 40.99 41.55 41.52 41.62 43.01 44.19 45.96 49.55 51.73 57.63 67.13 67.91 67.76 68.57 68.03 67.58 67.52 67.96 67.84 67.34 66.81 65.41 64.89 64.66 64.59
38.67 34.91 36.57 36.93 36.67 36.35 38.92 33.74 36.53 40.40 41.00 38.41 37.40 37.34 37.51 37.87 37.80 36.73 37.58 36.95 37.28 37.56 38.53 38.62 39.93 40.10 39.62 40.23 41.38 42.31 44.22 47.38 48.71 52.58 59.08 66.97 67.09 67.29 68.00 67.72 67.30 67.47 67.60 66.97 66.11 64.92 63.86 63.52 63.90
34.53 33.47 29.57 36.44 37.28 36.95 36.71 32.47 36.24 38.54 38.41 35.26 35.44 36.19 36.35 36.75 36.89 37.10 37.25 36.75 36.48 35.85 36.02 37.25 38.50 38.02 38.55 38.98 39.57 41.07 42.69 44.35 46.23 49.66 55.72 61.81 65.61 66.95 66.67 67.30 67.33 67.61 67.07 66.61 65.78 64.77 63.96 63.28 63.26
30.77 26.13 29.31 33.81 37.22 35.99 34.39 31.56 34.50 37.83 37.57 34.73 33.10 33.24 34.59 34.85 35.71 36.53 36.72 36.17 35.58 34.88 34.99 35.18 36.00 36.34 36.94 37.69 38.26 38.92 40.64 42.47 45.38 48.22 49.94 53.08 61.89 66.24 66.51 66.57 67.44 67.82 67.06 66.50 65.80 64.46 64.03 62.76 62.36
27.57 28.15 27.17 28.75 33.71 34.52 31.47 32.05 33.83 35.19 34.69 32.81 31.59 32.29 32.64 32.99 33.85 36.20 36.27 36.01 35.22 34.27 34.75 35.05 35.43 36.01 36.37 36.69 36.98 37.51 38.38 41.09 43.42 44.66 47.13 50.75 54.72 58.46 66.27 66.43 66.57 66.77 66.77 65.85 65.46 64.02 63.82 63.09 62.53
32.96 30.63 29.12 31.76 35.89 33.24 33.03 30.81 30.68 32.70 32.45 31.09 30.80 30.85 31.11 31.85 34.44 35.58 35.48 34.70 33.96 33.64 33.66 33.96 33.99 34.66 35.09 34.57 34.28 34.88 35.22 37.09 39.73 42.37 45.70 48.37 49.27 55.49 62.01 65.94 65.83 66.45 65.74 65.85 65.27 63.91 62.59 61.20 63.07
33.50 31.21 30.61 32.87 36.23 35.16 32.35 28.70 31.42 33.27 32.50 31.26 30.40 30.11 30.31 30.95 32.18 33.69 33.49 32.92 32.35 32.13 32.58 32.87 33.63 34.41 35.35 35.46 35.83 36.24 36.43 37.64 39.40 41.55 43.75 46.25 50.14 56.42 60.56 64.31 65.03 65.73 65.63 65.72 64.24 63.92 63.15 62.73 62.60
34.12 31.65 30.77 32.15 33.83 35.03 32.11 28.39 30.10 33.01 33.59 33.82 32.67 31.49 30.81 30.13 30.12 31.13 31.35 31.27 31.16 30.86 31.45 32.58 34.04 34.66 35.45 36.23 37.04 37.17 37.65 38.19 38.44 40.62 43.15 47.35 51.81 52.47 54.77 58.79 63.48 64.12 65.65 65.04 64.26 64.33 62.79 61.65 60.64
29.91 36.72 35.64 33.37 30.69 24.87 32.49 21.82 29.33 31.06 30.94 31.45 30.92 29.79 29.27 29.66 30.44 30.39 29.85 29.68 30.02 30.82 32.25 33.90 34.30 34.35 35.65 36.60 35.74 35.77 34.90 34.39 37.33 39.12 42.32 45.65 49.21 50.53 52.48 55.84 60.07 63.04 65.06 64.98 64.51 64.76 63.69 62.20 60.51
33.83 37.86 35.52 34.19 30.08 27.22 28.50 22.17 25.26 31.77 30.19 30.04 29.54 29.94 29.13 29.59 29.72 29.21 28.85 29.44 30.37 31.37 32.64 33.63 33.71 34.37 34.74 35.12 35.86 35.83 35.98 37.73 39.15 40.03 41.48 43.01 45.33 47.72 50.83 53.99 57.46 57.26 58.12 63.38 64.62 64.24 63.12 62.87 61.80
38.88 35.33 34.12 32.54 29.15 21.43 29.06 26.50 24.19 26.40 27.97 29.34 30.06 29.41 29.38 29.29 29.34 29.48 29.93 30.09 30.23 32.35 32.82 32.82 33.10 33.47 34.29 35.00 35.86 36.32 36.27 37.22 38.93 40.43 41.00 42.69 45.03 47.38 51.62 55.33 56.04 57.14 56.30 58.55 61.61 63.95 63.32 62.80 62.26
35.18 30.60 22.45 21.33 20.51 22.03 30.98 26.00 24.87 28.70 29.41 29.35 27.83 27.80 29.23 29.20 28.86 27.91 27.89 28.08 30.36 31.09 32.12 32.67 32.93 31.65 33.43 34.61 35.33 35.98 36.79 38.54 39.74 41.85 43.54 44.78 45.54 47.51 50.08 53.90 55.09 56.83 56.94 57.33 58.86 63.42 63.25 62.52 61.91
32.67 32.80 24.37 19.30 17.71 21.27 31.50 25.11 25.84 31.05 31.50 31.08 30.54 31.42 29.91 27.85 28.18 27.76 27.25 27.99 30.18 31.39 31.82 32.52 32.69 31.36 33.42 33.68 34.05 35.98 37.25 37.57 38.95 41.73 43.97 46.01 47.93 48.74 50.14 52.87 51.68 56.27 58.00 58.96 59.22 58.88 63.49 62.92 62.52
33.20 29.47 35.96 29.57 27.72 21.42 25.07 27.94 29.27 30.71 29.92 29.68 29.19 29.34 26.16 26.12 26.68 26.29 26.59 28.13 30.14 30.87 31.51 31.98 31.96 31.68 33.22 33.87 34.59 35.31 36.21 36.13 36.89 38.94 42.64 46.65 50.52 50.91 53.90 50.07 48.98 50.14 55.33 56.36 56.94 58.12 57.79 63.34 62.93
37.48 38.48 29.75 29.46 19.96 20.13 23.64 23.11 22.82 28.04 28.17 26.98 22.70 27.84 23.55 25.25 25.47 25.85 26.14 27.03 29.35 29.54 31.59 32.16 31.79 31.67 32.57 33.56 34.08 34.58 34.61 35.24 35.80 37.43 38.39 41.79 45.01 47.76 47.04 45.71 44.86 46.77 52.49 54.46 56.39 57.39 58.21 61.95 62.15
32.61 32.00 33.58 32.17 27.59 19.26 14.45 21.50 30.02 27.12 23.87 22.16 24.26 27.96 20.68 21.88 21.85 23.93 25.32 26.18 28.47 29.51 29.89 30.30 30.93 31.26 31.82 32.93 33.59 33.59 33.53 33.83 34.39 34.42 35.97 37.57 40.11 41.39 42.72 42.71 42.69 42.56 43.25 44.67 55.37 57.67 58.80 61.52 61.46
35.88 33.57 34.57 28.15 26.83 26.75 20.74 22.39 31.38 28.65 27.78 28.18 26.83 22.24 20.32 21.36 19.94 21.26 23.21 24.45 27.09 28.60 29.21 29.40 29.51 30.07 31.47 32.20 32.64 32.73 32.64 32.48 32.46 32.56 33.48 35.64 37.19 38.27 38.22 39.01 39.69 39.43 39.59 39.38 39.98 42.57 45.89 45.90 46.30